Wetterdaten: Donnerstag, 27.07.2017
Datum Zeit Temp. A. Temp. A. max Feuchte A. Luftdruck Regen Wind Richtung Richtung Sonnenschein ET UV Solar Taupunkt Windchill Windböen
27.07.2017 00:00 11,8 °C 11,8 °C 89 % 1012,9 hPa 0,0 mm 5,1 km/h (1 Bft) W-SW 254 ° 0 min 0,000 mm 0,0 UV-I 0 W/m² 10,0 °C 11,8 °C 11,3 km/h (2 Bft)
27.07.2017 00:01 11,8 °C 11,8 °C 89 % 1012,8 hPa 0,0 mm 4,5 km/h (1 Bft) W-SW 246 ° 0 min 0,000 mm 0,0 UV-I 0 W/m² 10,0 °C 11,8 °C 6,4 km/h (2 Bft)
27.07.2017 00:02 11,8 °C 11,8 °C 89 % 1012,9 hPa 0,0 mm 4,1 km/h (1 Bft) W-SW 249 ° 0 min 0,000 mm 0,0 UV-I 0 W/m² 10,0 °C 11,8 °C 8,0 km/h (2 Bft)
27.07.2017 00:03 11,8 °C 11,9 °C 89 % 1012,8 hPa 0,0 mm 4,9 km/h (1 Bft) W-SW 251 ° 0 min 0,000 mm 0,0 UV-I 0 W/m² 10,0 °C 11,8 °C 8,0 km/h (2 Bft)
27.07.2017 00:04 11,8 °C 11,8 °C 90 % 1012,8 hPa 0,0 mm 3,2 km/h (1 Bft) SW 225 ° 0 min 0,000 mm 0,0 UV-I 0 W/m² 10,2 °C 11,8 °C 4,8 km/h (1 Bft)
27.07.2017 00:05 11,8 °C 11,8 °C 89 % 1012,8 hPa 0,0 mm 1,7 km/h (1 Bft) SW 229 ° 0 min 0,000 mm 0,0 UV-I 0 W/m² 10,0 °C 11,8 °C 3,2 km/h (1 Bft)
27.07.2017 00:06 11,8 °C 11,8 °C 90 % 1012,8 hPa 0,0 mm 3,5 km/h (1 Bft) W-SW 254 ° 0 min 0,000 mm 0,0 UV-I 0 W/m² 10,2 °C 11,8 °C 9,7 km/h (2 Bft)
27.07.2017 00:07 11,8 °C 11,8 °C 90 % 1012,8 hPa 0,0 mm 3,4 km/h (1 Bft) W-SW 238 ° 0 min 0,000 mm 0,0 UV-I 0 W/m² 10,2 °C 11,8 °C 4,8 km/h (1 Bft)
27.07.2017 00:08 11,7 °C 11,8 °C 89 % 1012,8 hPa 0,0 mm 4,6 km/h (1 Bft) W-SW 250 ° 0 min 0,000 mm 0,0 UV-I 0 W/m² 9,9 °C 11,7 °C 9,7 km/h (2 Bft)
27.07.2017 00:09 11,7 °C 11,7 °C 90 % 1012,8 hPa 0,0 mm 1,6 km/h (1 Bft) W-SW 250 ° 0 min 0,000 mm 0,0 UV-I 0 W/m² 10,1 °C 11,7 °C 3,2 km/h (1 Bft)
27.07.2017 00:10 11,7 °C 11,8 °C 89 % 1012,8 hPa 0,0 mm 1,3 km/h (1 Bft) W-SW 250 ° 0 min 0,000 mm 0,0 UV-I 0 W/m² 9,9 °C 11,7 °C 1,6 km/h (1 Bft)
27.07.2017 00:11 11,7 °C 11,7 °C 90 % 1012,8 hPa 0,0 mm 3,0 km/h (1 Bft) S-SW 209 ° 0 min 0,000 mm 0,0 UV-I 0 W/m² 10,1 °C 11,7 °C 8,0 km/h (2 Bft)
27.07.2017 00:12 11,6 °C 11,7 °C 90 % 1012,8 hPa 0,0 mm 4,4 km/h (1 Bft) SW 233 ° 0 min 0,000 mm 0,0 UV-I 0 W/m² 10,0 °C 11,6 °C 11,3 km/h (2 Bft)
27.07.2017 00:13 11,6 °C 11,6 °C 90 % 1012,9 hPa 0,0 mm 4,1 km/h (1 Bft) SW 223 ° 0 min 0,000 mm 0,0 UV-I 0 W/m² 10,0 °C 11,6 °C 9,7 km/h (2 Bft)
27.07.2017 00:14 11,6 °C 11,6 °C 90 % 1012,8 hPa 0,0 mm 5,6 km/h (1 Bft) SW 230 ° 0 min 0,000 mm 0,0 UV-I 0 W/m² 10,0 °C 11,6 °C 12,9 km/h (3 Bft)
27.07.2017 00:15 11,6 °C 11,6 °C 90 % 1012,8 hPa 0,0 mm 0,9 km/h (0 Bft) SW 230 ° 0 min 0,000 mm 0,0 UV-I 0 W/m² 10,0 °C 11,6 °C 3,2 km/h (1 Bft)
27.07.2017 00:16 11,5 °C 11,6 °C 90 % 1012,8 hPa 0,0 mm 4,8 km/h (1 Bft) W-SW 257 ° 0 min 0,000 mm 0,0 UV-I 0 W/m² 9,9 °C 11,5 °C 8,0 km/h (2 Bft)
27.07.2017 00:17 11,6 °C 11,6 °C 90 % 1012,8 hPa 0,0 mm 4,2 km/h (1 Bft) W 266 ° 0 min 0,000 mm 0,0 UV-I 0 W/m² 10,0 °C 11,6 °C 8,0 km/h (2 Bft)
27.07.2017 00:18 11,5 °C 11,6 °C 90 % 1012,8 hPa 0,0 mm 6,0 km/h (2 Bft) W-SW 247 ° 0 min 0,000 mm 0,0 UV-I 0 W/m² 9,9 °C 11,5 °C 11,3 km/h (2 Bft)
27.07.2017 00:19 11,5 °C 11,6 °C 90 % 1012,8 hPa 0,0 mm 2,4 km/h (1 Bft) W-SW 243 ° 0 min 0,000 mm 0,0 UV-I 0 W/m² 9,9 °C 11,5 °C 4,8 km/h (1 Bft)
27.07.2017 00:20 11,5 °C 11,5 °C 90 % 1012,8 hPa 0,0 mm 3,2 km/h (1 Bft) SW 233 ° 0 min 0,000 mm 0,0 UV-I 0 W/m² 9,9 °C 11,5 °C 4,8 km/h (1 Bft)
27.07.2017 00:21 11,5 °C 11,6 °C 90 % 1012,8 hPa 0,0 mm 2,9 km/h (1 Bft) SW 220 ° 0 min 0,000 mm 0,0 UV-I 0 W/m² 9,9 °C 11,5 °C 4,8 km/h (1 Bft)
27.07.2017 00:22 11,5 °C 11,6 °C 90 % 1012,8 hPa 0,0 mm 2,5 km/h (1 Bft) W 274 ° 0 min 0,000 mm 0,0 UV-I 0 W/m² 9,9 °C 11,5 °C 4,8 km/h (1 Bft)
27.07.2017 00:23 11,5 °C 11,5 °C 90 % 1012,8 hPa 0,0 mm 3,6 km/h (1 Bft) S-SW 196 ° 0 min 0,000 mm 0,0 UV-I 0 W/m² 9,9 °C 11,5 °C 6,4 km/h (2 Bft)
27.07.2017 00:24 11,5 °C 11,5 °C 90 % 1012,9 hPa 0,0 mm 3,1 km/h (1 Bft) W 272 ° 0 min 0,000 mm 0,0 UV-I 0 W/m² 9,9 °C 11,5 °C 4,8 km/h (1 Bft)
27.07.2017 00:25 11,4 °C 11,5 °C 90 % 1012,9 hPa 0,0 mm 3,4 km/h (1 Bft) W-SW 244 ° 0 min 0,000 mm 0,0 UV-I 0 W/m² 9,8 °C 11,4 °C 6,4 km/h (2 Bft)
27.07.2017 00:26 11,4 °C 11,5 °C 91 % 1012,8 hPa 0,0 mm 2,4 km/h (1 Bft) SW 230 ° 0 min 0,000 mm 0,0 UV-I 0 W/m² 10,0 °C 11,4 °C 6,4 km/h (2 Bft)
27.07.2017 00:27 11,4 °C 11,4 °C 90 % 1012,9 hPa 0,0 mm 6,5 km/h (2 Bft) W 262 ° 0 min 0,000 mm 0,0 UV-I 0 W/m² 9,8 °C 11,4 °C 12,9 km/h (3 Bft)
27.07.2017 00:28 11,4 °C 11,4 °C 90 % 1012,8 hPa 0,0 mm 2,9 km/h (1 Bft) S-SW 207 ° 0 min 0,000 mm 0,0 UV-I 0 W/m² 9,8 °C 11,4 °C 6,4 km/h (2 Bft)
27.07.2017 00:29 11,5 °C 11,5 °C 90 % 1012,8 hPa 0,0 mm 3,6 km/h (1 Bft) W-SW 243 ° 0 min 0,000 mm 0,0 UV-I 0 W/m² 9,9 °C 11,5 °C 6,4 km/h (2 Bft)
27.07.2017 00:30 11,5 °C 11,5 °C 90 % 1012,8 hPa 0,0 mm 4,1 km/h (1 Bft) S-SW 199 ° 0 min 0,000 mm 0,0 UV-I 0 W/m² 9,9 °C 11,5 °C 6,4 km/h (2 Bft)
27.07.2017 00:31 11,6 °C 11,6 °C 90 % 1012,8 hPa 0,0 mm 3,2 km/h (1 Bft) S-SW 211 ° 0 min 0,000 mm 0,0 UV-I 0 W/m² 10,0 °C 11,6 °C 4,8 km/h (1 Bft)
27.07.2017 00:32 11,6 °C 11,6 °C 90 % 1012,8 hPa 0,0 mm 5,2 km/h (1 Bft) W-SW 251 ° 0 min 0,000 mm 0,0 UV-I 0 W/m² 10,0 °C 11,6 °C 9,7 km/h (2 Bft)
27.07.2017 00:33 11,6 °C 11,6 °C 90 % 1012,8 hPa 0,0 mm 2,9 km/h (1 Bft) W-SW 252 ° 0 min 0,000 mm 0,0 UV-I 0 W/m² 10,0 °C 11,6 °C 9,7 km/h (2 Bft)
27.07.2017 00:34 11,6 °C 11,6 °C 90 % 1012,8 hPa 0,0 mm 5,0 km/h (1 Bft) S-SW 209 ° 0 min 0,000 mm 0,0 UV-I 0 W/m² 10,0 °C 11,6 °C 9,7 km/h (2 Bft)
27.07.2017 00:35 11,6 °C 11,6 °C 90 % 1012,8 hPa 0,0 mm 5,2 km/h (1 Bft) W-SW 246 ° 0 min 0,000 mm 0,0 UV-I 0 W/m² 10,0 °C 11,6 °C 9,7 km/h (2 Bft)
27.07.2017 00:36 11,6 °C 11,6 °C 90 % 1012,8 hPa 0,0 mm 3,6 km/h (1 Bft) SW 217 ° 0 min 0,000 mm 0,0 UV-I 0 W/m² 10,0 °C 11,6 °C 9,7 km/h (2 Bft)
27.07.2017 00:37 11,6 °C 11,6 °C 90 % 1012,9 hPa 0,0 mm 3,6 km/h (1 Bft) W 260 ° 0 min 0,000 mm 0,0 UV-I 0 W/m² 10,0 °C 11,6 °C 6,4 km/h (2 Bft)
27.07.2017 00:38 11,5 °C 11,6 °C 90 % 1012,9 hPa 0,0 mm 4,4 km/h (1 Bft) W-SW 253 ° 0 min 0,000 mm 0,0 UV-I 0 W/m² 9,9 °C 11,5 °C 9,7 km/h (2 Bft)
27.07.2017 00:39 11,5 °C 11,5 °C 90 % 1012,9 hPa 0,0 mm 4,3 km/h (1 Bft) W 281 ° 0 min 0,000 mm 0,0 UV-I 0 W/m² 9,9 °C 11,5 °C 11,3 km/h (2 Bft)
27.07.2017 00:40 11,4 °C 11,5 °C 90 % 1012,8 hPa 0,0 mm 4,9 km/h (1 Bft) W-SW 254 ° 0 min 0,000 mm 0,0 UV-I 0 W/m² 9,8 °C 11,4 °C 11,3 km/h (2 Bft)
27.07.2017 00:41 11,4 °C 11,4 °C 90 % 1012,9 hPa 0,0 mm 3,6 km/h (1 Bft) W-SW 255 ° 0 min 0,000 mm 0,0 UV-I 0 W/m² 9,8 °C 11,4 °C 4,8 km/h (1 Bft)
27.07.2017 00:42 11,3 °C 11,4 °C 90 % 1012,9 hPa 0,0 mm 4,5 km/h (1 Bft) SW 215 ° 0 min 0,000 mm 0,0 UV-I 0 W/m² 9,7 °C 11,3 °C 6,4 km/h (2 Bft)
27.07.2017 00:43 11,3 °C 11,4 °C 90 % 1012,8 hPa 0,0 mm 6,4 km/h (2 Bft) W 259 ° 0 min 0,000 mm 0,0 UV-I 0 W/m² 9,7 °C 11,3 °C 12,9 km/h (3 Bft)
27.07.2017 00:44 11,4 °C 11,4 °C 90 % 1012,9 hPa 0,0 mm 7,1 km/h (2 Bft) W-SW 237 ° 0 min 0,000 mm 0,0 UV-I 0 W/m² 9,8 °C 11,4 °C 12,9 km/h (3 Bft)
27.07.2017 00:45 11,4 °C 11,4 °C 90 % 1012,8 hPa 0,0 mm 5,6 km/h (1 Bft) W-SW 246 ° 0 min 0,000 mm 0,0 UV-I 0 W/m² 9,8 °C 11,4 °C 11,3 km/h (2 Bft)
27.07.2017 00:46 11,4 °C 11,4 °C 90 % 1012,8 hPa 0,0 mm 4,5 km/h (1 Bft) W 264 ° 0 min 0,000 mm 0,0 UV-I 0 W/m² 9,8 °C 11,4 °C 11,3 km/h (2 Bft)
27.07.2017 00:47 11,6 °C 11,6 °C 89 % 1012,9 hPa 0,0 mm 10,7 km/h (2 Bft) W-SW 246 ° 0 min 0,000 mm 0,0 UV-I 0 W/m² 9,8 °C 11,6 °C 19,3 km/h (3 Bft)
27.07.2017 00:48 11,6 °C 11,6 °C 89 % 1012,9 hPa 0,0 mm 5,3 km/h (1 Bft) W-SW 242 ° 0 min 0,000 mm 0,0 UV-I 0 W/m² 9,8 °C 11,6 °C 8,0 km/h (2 Bft)
27.07.2017 00:49 11,7 °C 11,7 °C 88 % 1012,9 hPa 0,0 mm 4,4 km/h (1 Bft) SW 219 ° 0 min 0,000 mm 0,0 UV-I 0 W/m² 9,8 °C 11,7 °C 6,4 km/h (2 Bft)
27.07.2017 00:50 11,7 °C 11,7 °C 88 % 1012,9 hPa 0,0 mm 4,7 km/h (1 Bft) S-SW 208 ° 0 min 0,000 mm 0,0 UV-I 0 W/m² 9,8 °C 11,7 °C 8,0 km/h (2 Bft)
27.07.2017 00:51 11,8 °C 11,8 °C 88 % 1012,9 hPa 0,0 mm 7,4 km/h (2 Bft) S-SW 194 ° 0 min 0,000 mm 0,0 UV-I 0 W/m² 9,9 °C 11,8 °C 12,9 km/h (3 Bft)
27.07.2017 00:52 11,8 °C 11,8 °C 88 % 1012,9 hPa 0,0 mm 8,3 km/h (2 Bft) SW 222 ° 0 min 0,000 mm 0,0 UV-I 0 W/m² 9,9 °C 11,8 °C 16,1 km/h (3 Bft)
27.07.2017 00:53 11,8 °C 11,8 °C 88 % 1012,9 hPa 0,0 mm 7,0 km/h (2 Bft) S-SW 197 ° 0 min 0,000 mm 0,0 UV-I 0 W/m² 9,9 °C 11,8 °C 16,1 km/h (3 Bft)
27.07.2017 00:54 11,9 °C 11,9 °C 88 % 1012,9 hPa 0,0 mm 7,2 km/h (2 Bft) SW 234 ° 0 min 0,000 mm 0,0 UV-I 0 W/m² 10,0 °C 11,9 °C 12,9 km/h (3 Bft)
27.07.2017 00:55 11,9 °C 11,9 °C 87 % 1012,9 hPa 0,0 mm 5,3 km/h (1 Bft) W-SW 237 ° 0 min 0,000 mm 0,0 UV-I 0 W/m² 9,8 °C 11,9 °C 8,0 km/h (2 Bft)
27.07.2017 00:56 11,9 °C 11,9 °C 87 % 1012,9 hPa 0,0 mm 4,6 km/h (1 Bft) S 173 ° 0 min 0,000 mm 0,0 UV-I 0 W/m² 9,8 °C 11,9 °C 6,4 km/h (2 Bft)
27.07.2017 00:57 12,0 °C 12,0 °C 87 % 1013,0 hPa 0,0 mm 4,0 km/h (1 Bft) W 273 ° 0 min 0,000 mm 0,0 UV-I 0 W/m² 9,9 °C 12,0 °C 9,7 km/h (2 Bft)
27.07.2017 00:58 12,1 °C 12,1 °C 87 % 1012,9 hPa 0,0 mm 2,8 km/h (1 Bft) SW 225 ° 0 min 0,000 mm 0,0 UV-I 0 W/m² 10,0 °C 12,1 °C 6,4 km/h (2 Bft)
27.07.2017 00:59 12,0 °C 12,1 °C 87 % 1012,9 hPa 0,0 mm 5,3 km/h (1 Bft) S-SW 204 ° 0 min 0,000 mm 0,0 UV-I 0 W/m² 9,9 °C 12,0 °C 9,7 km/h (2 Bft)
27.07.2017 01:00 12,0 °C 12,0 °C 87 % 1012,9 hPa 0,0 mm 7,0 km/h (2 Bft) SW 227 ° 0 min 0,000 mm 0,0 UV-I 0 W/m² 9,9 °C 12,0 °C 16,1 km/h (3 Bft)
27.07.2017 01:01 12,0 °C 12,0 °C 86 % 1012,9 hPa 0,0 mm 7,6 km/h (2 Bft) W 272 ° 0 min 0,000 mm 0,0 UV-I 0 W/m² 9,7 °C 12,0 °C 12,9 km/h (3 Bft)
27.07.2017 01:02 12,0 °C 12,0 °C 86 % 1012,9 hPa 0,0 mm 4,1 km/h (1 Bft) S-SO 148 ° 0 min 0,000 mm 0,0 UV-I 0 W/m² 9,7 °C 12,0 °C 11,3 km/h (2 Bft)
27.07.2017 01:03 12,0 °C 12,1 °C 87 % 1013,0 hPa 0,0 mm 6,3 km/h (2 Bft) SW 217 ° 0 min 0,000 mm 0,0 UV-I 0 W/m² 9,9 °C 12,0 °C 11,3 km/h (2 Bft)
27.07.2017 01:04 12,0 °C 12,1 °C 87 % 1013,0 hPa 0,0 mm 5,9 km/h (2 Bft) W-SW 250 ° 0 min 0,000 mm 0,0 UV-I 0 W/m² 9,9 °C 12,0 °C 9,7 km/h (2 Bft)
27.07.2017 01:05 12,1 °C 12,1 °C 86 % 1013,0 hPa 0,0 mm 4,0 km/h (1 Bft) S-SW 199 ° 0 min 0,000 mm 0,0 UV-I 0 W/m² 9,8 °C 12,1 °C 6,4 km/h (2 Bft)
27.07.2017 01:06 12,1 °C 12,1 °C 86 % 1012,9 hPa 0,0 mm 2,4 km/h (1 Bft) S 172 ° 0 min 0,000 mm 0,0 UV-I 0 W/m² 9,8 °C 12,1 °C 4,8 km/h (1 Bft)
27.07.2017 01:07 12,1 °C 12,1 °C 86 % 1012,9 hPa 0,0 mm 4,5 km/h (1 Bft) S 188 ° 0 min 0,000 mm 0,0 UV-I 0 W/m² 9,8 °C 12,1 °C 6,4 km/h (2 Bft)
27.07.2017 01:08 12,1 °C 12,1 °C 86 % 1012,9 hPa 0,0 mm 3,4 km/h (1 Bft) S-SW 202 ° 0 min 0,000 mm 0,0 UV-I 0 W/m² 9,8 °C 12,1 °C 6,4 km/h (2 Bft)
27.07.2017 01:09 12,1 °C 12,1 °C 86 % 1013,0 hPa 0,0 mm 3,2 km/h (1 Bft) S 178 ° 0 min 0,000 mm 0,0 UV-I 0 W/m² 9,8 °C 12,1 °C 4,8 km/h (1 Bft)
27.07.2017 01:10 12,1 °C 12,1 °C 86 % 1013,0 hPa 0,0 mm 7,5 km/h (2 Bft) SW 226 ° 0 min 0,000 mm 0,0 UV-I 0 W/m² 9,8 °C 12,1 °C 17,7 km/h (3 Bft)
27.07.2017 01:11 12,1 °C 12,1 °C 86 % 1013,0 hPa 0,0 mm 8,4 km/h (2 Bft) S 190 ° 0 min 0,000 mm 0,0 UV-I 0 W/m² 9,8 °C 12,1 °C 12,9 km/h (3 Bft)
27.07.2017 01:12 12,1 °C 12,1 °C 86 % 1013,0 hPa 0,0 mm 3,9 km/h (1 Bft) S 184 ° 0 min 0,000 mm 0,0 UV-I 0 W/m² 9,8 °C 12,1 °C 6,4 km/h (2 Bft)
27.07.2017 01:13 12,1 °C 12,1 °C 86 % 1013,0 hPa 0,0 mm 3,4 km/h (1 Bft) S-SW 193 ° 0 min 0,000 mm 0,0 UV-I 0 W/m² 9,8 °C 12,1 °C 4,8 km/h (1 Bft)
27.07.2017 01:14 12,1 °C 12,1 °C 86 % 1012,9 hPa 0,0 mm 2,4 km/h (1 Bft) SW 218 ° 0 min 0,000 mm 0,0 UV-I 0 W/m² 9,8 °C 12,1 °C 4,8 km/h (1 Bft)
27.07.2017 01:15 12,1 °C 12,1 °C 86 % 1013,0 hPa 0,0 mm 1,6 km/h (1 Bft) S-SW 198 ° 0 min 0,000 mm 0,0 UV-I 0 W/m² 9,8 °C 12,1 °C 4,8 km/h (1 Bft)
27.07.2017 01:16 12,1 °C 12,2 °C 85 % 1012,9 hPa 0,0 mm 3,7 km/h (1 Bft) S-SW 205 ° 0 min 0,000 mm 0,0 UV-I 0 W/m² 9,7 °C 12,1 °C 4,8 km/h (1 Bft)
27.07.2017 01:17 12,1 °C 12,1 °C 86 % 1012,9 hPa 0,0 mm 5,0 km/h (1 Bft) S-SW 209 ° 0 min 0,000 mm 0,0 UV-I 0 W/m² 9,8 °C 12,1 °C 6,4 km/h (2 Bft)
27.07.2017 01:18 12,1 °C 12,1 °C 86 % 1012,9 hPa 0,0 mm 5,5 km/h (1 Bft) S 188 ° 0 min 0,000 mm 0,0 UV-I 0 W/m² 9,8 °C 12,1 °C 9,7 km/h (2 Bft)
27.07.2017 01:19 12,1 °C 12,1 °C 86 % 1012,9 hPa 0,0 mm 4,0 km/h (1 Bft) S 182 ° 0 min 0,000 mm 0,0 UV-I 0 W/m² 9,8 °C 12,1 °C 6,4 km/h (2 Bft)
27.07.2017 01:20 12,1 °C 12,1 °C 86 % 1012,9 hPa 0,0 mm 0,9 km/h (0 Bft) S 182 ° 0 min 0,000 mm 0,0 UV-I 0 W/m² 9,8 °C 12,1 °C 3,2 km/h (1 Bft)
27.07.2017 01:21 12,1 °C 12,1 °C 85 % 1012,9 hPa 0,0 mm 2,2 km/h (1 Bft) S 183 ° 0 min 0,000 mm 0,0 UV-I 0 W/m² 9,7 °C 12,1 °C 4,8 km/h (1 Bft)
27.07.2017 01:22 12,1 °C 12,1 °C 86 % 1012,9 hPa 0,0 mm 3,4 km/h (1 Bft) W-SW 238 ° 0 min 0,000 mm 0,0 UV-I 0 W/m² 9,8 °C 12,1 °C 4,8 km/h (1 Bft)
27.07.2017 01:23 11,9 °C 12,1 °C 87 % 1012,9 hPa 0,0 mm 5,3 km/h (1 Bft) S-SW 207 ° 0 min 0,000 mm 0,0 UV-I 0 W/m² 9,8 °C 11,9 °C 11,3 km/h (2 Bft)
27.07.2017 01:24 11,9 °C 11,9 °C 86 % 1012,9 hPa 0,0 mm 2,5 km/h (1 Bft) S-SW 192 ° 0 min 0,000 mm 0,0 UV-I 0 W/m² 9,6 °C 11,9 °C 4,8 km/h (1 Bft)
27.07.2017 01:25 11,9 °C 11,9 °C 86 % 1012,9 hPa 0,0 mm 0,1 km/h (0 Bft) S-SW 192 ° 0 min 0,000 mm 0,0 UV-I 0 W/m² 9,6 °C 11,9 °C 1,6 km/h (1 Bft)
27.07.2017 01:26 12,0 °C 12,0 °C 86 % 1012,9 hPa 0,0 mm 3,2 km/h (1 Bft) S-SW 213 ° 0 min 0,000 mm 0,0 UV-I 0 W/m² 9,7 °C 12,0 °C 6,4 km/h (2 Bft)
27.07.2017 01:27 12,0 °C 12,1 °C 86 % 1012,8 hPa 0,0 mm 5,8 km/h (2 Bft) S-SW 200 ° 0 min 0,000 mm 0,0 UV-I 0 W/m² 9,7 °C 12,0 °C 9,7 km/h (2 Bft)
27.07.2017 01:28 12,1 °C 12,1 °C 86 % 1012,8 hPa 0,0 mm 6,3 km/h (2 Bft) S 184 ° 0 min 0,000 mm 0,0 UV-I 0 W/m² 9,8 °C 12,1 °C 9,7 km/h (2 Bft)
27.07.2017 01:29 12,1 °C 12,1 °C 86 % 1012,8 hPa 0,0 mm 3,2 km/h (1 Bft) S-SW 192 ° 0 min 0,000 mm 0,0 UV-I 0 W/m² 9,8 °C 12,1 °C 6,4 km/h (2 Bft)
27.07.2017 01:30 12,1 °C 12,1 °C 86 % 1012,8 hPa 0,0 mm 2,3 km/h (1 Bft) S-SW 193 ° 0 min 0,000 mm 0,0 UV-I 0 W/m² 9,8 °C 12,1 °C 6,4 km/h (2 Bft)
27.07.2017 01:31 12,1 °C 12,1 °C 86 % 1012,8 hPa 0,0 mm 1,8 km/h (1 Bft) S 185 ° 0 min 0,000 mm 0,0 UV-I 0 W/m² 9,8 °C 12,1 °C 4,8 km/h (1 Bft)
27.07.2017 01:32 12,1 °C 12,1 °C 85 % 1012,8 hPa 0,0 mm 4,7 km/h (1 Bft) S-SW 213 ° 0 min 0,000 mm 0,0 UV-I 0 W/m² 9,7 °C 12,1 °C 8,0 km/h (2 Bft)
27.07.2017 01:33 12,1 °C 12,1 °C 85 % 1012,8 hPa 0,0 mm 4,6 km/h (1 Bft) W 267 ° 0 min 0,000 mm 0,0 UV-I 0 W/m² 9,7 °C 12,1 °C 8,0 km/h (2 Bft)
27.07.2017 01:34 12,1 °C 12,1 °C 86 % 1012,8 hPa 0,0 mm 2,4 km/h (1 Bft) S 186 ° 0 min 0,000 mm 0,0 UV-I 0 W/m² 9,8 °C 12,1 °C 4,8 km/h (1 Bft)
27.07.2017 01:35 12,1 °C 12,1 °C 86 % 1012,8 hPa 0,0 mm 1,5 km/h (1 Bft) S 187 ° 0 min 0,000 mm 0,0 UV-I 0 W/m² 9,8 °C 12,1 °C 4,8 km/h (1 Bft)
27.07.2017 01:36 12,1 °C 12,1 °C 86 % 1012,8 hPa 0,0 mm 5,9 km/h (2 Bft) S 183 ° 0 min 0,000 mm 0,0 UV-I 0 W/m² 9,8 °C 12,1 °C 12,9 km/h (3 Bft)
27.07.2017 01:37 12,1 °C 12,1 °C 86 % 1012,8 hPa 0,0 mm 1,9 km/h (1 Bft) S 183 ° 0 min 0,000 mm 0,0 UV-I 0 W/m² 9,8 °C 12,1 °C 3,2 km/h (1 Bft)
27.07.2017 01:38 12,1 °C 12,1 °C 85 % 1012,7 hPa 0,0 mm 5,0 km/h (1 Bft) S-SW 197 ° 0 min 0,000 mm 0,0 UV-I 0 W/m² 9,7 °C 12,1 °C 6,4 km/h (2 Bft)
27.07.2017 01:39 12,1 °C 12,2 °C 85 % 1012,7 hPa 0,0 mm 4,0 km/h (1 Bft) SW 222 ° 0 min 0,000 mm 0,0 UV-I 0 W/m² 9,7 °C 12,1 °C 6,4 km/h (2 Bft)
27.07.2017 01:40 12,2 °C 12,2 °C 85 % 1012,7 hPa 0,0 mm 3,8 km/h (1 Bft) S-SW 200 ° 0 min 0,000 mm 0,0 UV-I 0 W/m² 9,8 °C 12,2 °C 6,4 km/h (2 Bft)
27.07.2017 01:41 12,2 °C 12,2 °C 85 % 1012,7 hPa 0,0 mm 2,5 km/h (1 Bft) W-SW 243 ° 0 min 0,000 mm 0,0 UV-I 0 W/m² 9,8 °C 12,2 °C 4,8 km/h (1 Bft)
27.07.2017 01:42 12,2 °C 12,2 °C 85 % 1012,7 hPa 0,0 mm 0,9 km/h (0 Bft) S-SW 211 ° 0 min 0,000 mm 0,0 UV-I 0 W/m² 9,8 °C 12,2 °C 1,6 km/h (1 Bft)
27.07.2017 01:43 12,1 °C 12,2 °C 85 % 1012,7 hPa 0,0 mm 2,7 km/h (1 Bft) S 186 ° 0 min 0,000 mm 0,0 UV-I 0 W/m² 9,7 °C 12,1 °C 6,4 km/h (2 Bft)
27.07.2017 01:44 12,1 °C 12,1 °C 85 % 1012,7 hPa 0,0 mm 4,6 km/h (1 Bft) S 171 ° 0 min 0,000 mm 0,0 UV-I 0 W/m² 9,7 °C 12,1 °C 8,0 km/h (2 Bft)
27.07.2017 01:45 12,2 °C 12,2 °C 85 % 1012,7 hPa 0,0 mm 3,0 km/h (1 Bft) SW 232 ° 0 min 0,000 mm 0,0 UV-I 0 W/m² 9,8 °C 12,2 °C 6,4 km/h (2 Bft)
27.07.2017 01:46 12,1 °C 12,2 °C 85 % 1012,7 hPa 0,0 mm 4,0 km/h (1 Bft) S 183 ° 0 min 0,000 mm 0,0 UV-I 0 W/m² 9,7 °C 12,1 °C 8,0 km/h (2 Bft)
27.07.2017 01:47 12,1 °C 12,1 °C 86 % 1012,6 hPa 0,0 mm 2,1 km/h (1 Bft) S 183 ° 0 min 0,000 mm 0,0 UV-I 0 W/m² 9,8 °C 12,1 °C 6,4 km/h (2 Bft)
27.07.2017 01:48 12,1 °C 12,1 °C 85 % 1012,6 hPa 0,0 mm 2,6 km/h (1 Bft) S 186 ° 0 min 0,000 mm 0,0 UV-I 0 W/m² 9,7 °C 12,1 °C 4,8 km/h (1 Bft)
27.07.2017 01:49 11,9 °C 12,1 °C 87 % 1012,6 hPa 0,0 mm 2,7 km/h (1 Bft) S 186 ° 0 min 0,000 mm 0,0 UV-I 0 W/m² 9,8 °C 11,9 °C 4,8 km/h (1 Bft)
27.07.2017 01:50 11,9 °C 11,9 °C 86 % 1012,6 hPa 0,0 mm 2,1 km/h (1 Bft) S 171 ° 0 min 0,000 mm 0,0 UV-I 0 W/m² 9,6 °C 11,9 °C 6,4 km/h (2 Bft)
27.07.2017 01:51 11,9 °C 11,9 °C 86 % 1012,6 hPa 0,0 mm 1,4 km/h (1 Bft) S 188 ° 0 min 0,000 mm 0,0 UV-I 0 W/m² 9,6 °C 11,9 °C 3,2 km/h (1 Bft)
27.07.2017 01:52 11,9 °C 11,9 °C 86 % 1012,6 hPa 0,0 mm 4,3 km/h (1 Bft) S 182 ° 0 min 0,000 mm 0,0 UV-I 0 W/m² 9,6 °C 11,9 °C 8,0 km/h (2 Bft)
27.07.2017 01:53 11,9 °C 11,9 °C 85 % 1012,6 hPa 0,0 mm 2,8 km/h (1 Bft) S-SW 192 ° 0 min 0,000 mm 0,0 UV-I 0 W/m² 9,5 °C 11,9 °C 8,0 km/h (2 Bft)
27.07.2017 01:54 12,0 °C 12,0 °C 85 % 1012,7 hPa 0,0 mm 4,0 km/h (1 Bft) S-SW 199 ° 0 min 0,000 mm 0,0 UV-I 0 W/m² 9,6 °C 12,0 °C 8,0 km/h (2 Bft)
27.07.2017 01:55 12,1 °C 12,1 °C 85 % 1012,7 hPa 0,0 mm 2,9 km/h (1 Bft) S-SW 205 ° 0 min 0,000 mm 0,0 UV-I 0 W/m² 9,7 °C 12,1 °C 4,8 km/h (1 Bft)
27.07.2017 01:56 12,0 °C 12,1 °C 86 % 1012,6 hPa 0,0 mm 1,0 km/h (0 Bft) S-SW 205 ° 0 min 0,000 mm 0,0 UV-I 0 W/m² 9,7 °C 12,0 °C 3,2 km/h (1 Bft)
27.07.2017 01:57 11,9 °C 12,0 °C 87 % 1012,6 hPa 0,0 mm 3,0 km/h (1 Bft) S-SW 194 ° 0 min 0,000 mm 0,0 UV-I 0 W/m² 9,8 °C 11,9 °C 6,4 km/h (2 Bft)
27.07.2017 01:58 11,9 °C 11,9 °C 86 % 1012,6 hPa 0,0 mm 5,8 km/h (2 Bft) S-SW 194 ° 0 min 0,000 mm 0,0 UV-I 0 W/m² 9,6 °C 11,9 °C 8,0 km/h (2 Bft)
27.07.2017 01:59 11,9 °C 11,9 °C 86 % 1012,6 hPa 0,0 mm 7,9 km/h (2 Bft) S-SW 211 ° 0 min 0,000 mm 0,0 UV-I 0 W/m² 9,6 °C 11,9 °C 16,1 km/h (3 Bft)
27.07.2017 02:00 11,9 °C 11,9 °C 87 % 1012,6 hPa 0,0 mm 4,7 km/h (1 Bft) SW 219 ° 0 min 0,025 mm 0,0 UV-I 0 W/m² 9,8 °C 11,9 °C 9,7 km/h (2 Bft)
27.07.2017 02:01 11,9 °C 11,9 °C 87 % 1012,7 hPa 0,0 mm 3,9 km/h (1 Bft) S-SW 212 ° 0 min 0,000 mm 0,0 UV-I 0 W/m² 9,8 °C 11,9 °C 6,4 km/h (2 Bft)
27.07.2017 02:02 11,9 °C 11,9 °C 87 % 1012,7 hPa 0,0 mm 4,1 km/h (1 Bft) S-SW 207 ° 0 min 0,000 mm 0,0 UV-I 0 W/m² 9,8 °C 11,9 °C 6,4 km/h (2 Bft)
27.07.2017 02:03 11,9 °C 11,9 °C 86 % 1012,7 hPa 0,0 mm 0,8 km/h (0 Bft) S-SW 207 ° 0 min 0,000 mm 0,0 UV-I 0 W/m² 9,6 °C 11,9 °C 3,2 km/h (1 Bft)
27.07.2017 02:04 12,0 °C 12,0 °C 86 % 1012,7 hPa 0,0 mm 2,2 km/h (1 Bft) S 189 ° 0 min 0,000 mm 0,0 UV-I 0 W/m² 9,7 °C 12,0 °C 4,8 km/h (1 Bft)
27.07.2017 02:05 12,1 °C 12,1 °C 87 % 1012,6 hPa 0,0 mm 3,0 km/h (1 Bft) S 190 ° 0 min 0,000 mm 0,0 UV-I 0 W/m² 10,0 °C 12,1 °C 4,8 km/h (1 Bft)
27.07.2017 02:06 12,0 °C 12,1 °C 87 % 1012,7 hPa 0,0 mm 1,2 km/h (1 Bft) S 191 ° 0 min 0,000 mm 0,0 UV-I 0 W/m² 9,9 °C 12,0 °C 4,8 km/h (1 Bft)
27.07.2017 02:07 12,0 °C 12,0 °C 86 % 1012,6 hPa 0,0 mm 3,8 km/h (1 Bft) S-SW 198 ° 0 min 0,000 mm 0,0 UV-I 0 W/m² 9,7 °C 12,0 °C 4,8 km/h (1 Bft)
27.07.2017 02:08 12,1 °C 12,1 °C 86 % 1012,6 hPa 0,0 mm 5,2 km/h (1 Bft) S 188 ° 0 min 0,000 mm 0,0 UV-I 0 W/m² 9,8 °C 12,1 °C 8,0 km/h (2 Bft)
27.07.2017 02:09 12,2 °C 12,2 °C 85 % 1012,6 hPa 0,0 mm 8,0 km/h (2 Bft) S 178 ° 0 min 0,000 mm 0,0 UV-I 0 W/m² 9,8 °C 12,2 °C 14,5 km/h (3 Bft)
27.07.2017 02:10 12,2 °C 12,2 °C 85 % 1012,6 hPa 0,0 mm 5,8 km/h (2 Bft) S-SW 195 ° 0 min 0,000 mm 0,0 UV-I 0 W/m² 9,8 °C 12,2 °C 8,0 km/h (2 Bft)
27.07.2017 02:11 12,2 °C 12,2 °C 85 % 1012,6 hPa 0,0 mm 5,3 km/h (1 Bft) S-SW 194 ° 0 min 0,000 mm 0,0 UV-I 0 W/m² 9,8 °C 12,2 °C 8,0 km/h (2 Bft)
27.07.2017 02:12 12,3 °C 12,3 °C 84 % 1012,6 hPa 0,0 mm 5,2 km/h (1 Bft) W-SW 239 ° 0 min 0,000 mm 0,0 UV-I 0 W/m² 9,7 °C 12,3 °C 11,3 km/h (2 Bft)
27.07.2017 02:13 12,3 °C 12,3 °C 85 % 1012,6 hPa 0,0 mm 4,4 km/h (1 Bft) S-SO 167 ° 0 min 0,000 mm 0,0 UV-I 0 W/m² 9,9 °C 12,3 °C 8,0 km/h (2 Bft)
27.07.2017 02:14 12,3 °C 12,3 °C 84 % 1012,6 hPa 0,0 mm 3,7 km/h (1 Bft) S-SW 209 ° 0 min 0,000 mm 0,0 UV-I 0 W/m² 9,7 °C 12,3 °C 8,0 km/h (2 Bft)
27.07.2017 02:15 12,3 °C 12,3 °C 84 % 1012,6 hPa 0,0 mm 2,3 km/h (1 Bft) S-SW 195 ° 0 min 0,000 mm 0,0 UV-I 0 W/m² 9,7 °C 12,3 °C 6,4 km/h (2 Bft)
27.07.2017 02:16 12,4 °C 12,4 °C 84 % 1012,6 hPa 0,0 mm 2,7 km/h (1 Bft) S-SW 210 ° 0 min 0,000 mm 0,0 UV-I 0 W/m² 9,8 °C 12,4 °C 6,4 km/h (2 Bft)
27.07.2017 02:17 12,4 °C 12,4 °C 84 % 1012,6 hPa 0,0 mm 2,7 km/h (1 Bft) S 176 ° 0 min 0,000 mm 0,0 UV-I 0 W/m² 9,8 °C 12,4 °C 4,8 km/h (1 Bft)
27.07.2017 02:18 12,4 °C 12,4 °C 84 % 1012,6 hPa 0,0 mm 0,6 km/h (0 Bft) S-SW 205 ° 0 min 0,000 mm 0,0 UV-I 0 W/m² 9,8 °C 12,4 °C 3,2 km/h (1 Bft)
27.07.2017 02:19 12,4 °C 12,4 °C 84 % 1012,6 hPa 0,0 mm 2,4 km/h (1 Bft) W-SW 238 ° 0 min 0,000 mm 0,0 UV-I 0 W/m² 9,8 °C 12,4 °C 4,8 km/h (1 Bft)
27.07.2017 02:20 12,4 °C 12,4 °C 84 % 1012,6 hPa 0,0 mm 1,1 km/h (1 Bft) SW 214 ° 0 min 0,000 mm 0,0 UV-I 0 W/m² 9,8 °C 12,4 °C 4,8 km/h (1 Bft)
27.07.2017 02:21 12,4 °C 12,4 °C 84 % 1012,6 hPa 0,0 mm 2,4 km/h (1 Bft) S-SW 196 ° 0 min 0,000 mm 0,0 UV-I 0 W/m² 9,8 °C 12,4 °C 6,4 km/h (2 Bft)
27.07.2017 02:22 12,4 °C 12,4 °C 84 % 1012,6 hPa 0,0 mm 3,3 km/h (1 Bft) S-SW 213 ° 0 min 0,000 mm 0,0 UV-I 0 W/m² 9,8 °C 12,4 °C 8,0 km/h (2 Bft)
27.07.2017 02:23 12,4 °C 12,4 °C 85 % 1012,6 hPa 0,0 mm 4,8 km/h (1 Bft) S 186 ° 0 min 0,000 mm 0,0 UV-I 0 W/m² 9,9 °C 12,4 °C 6,4 km/h (2 Bft)
27.07.2017 02:24 12,3 °C 12,4 °C 86 % 1012,6 hPa 0,0 mm 2,2 km/h (1 Bft) S-SW 196 ° 0 min 0,000 mm 0,0 UV-I 0 W/m² 10,0 °C 12,3 °C 4,8 km/h (1 Bft)
27.07.2017 02:25 12,2 °C 12,3 °C 86 % 1012,6 hPa 0,0 mm 4,3 km/h (1 Bft) S 180 ° 0 min 0,000 mm 0,0 UV-I 0 W/m² 9,9 °C 12,2 °C 6,4 km/h (2 Bft)
27.07.2017 02:26 12,1 °C 12,2 °C 86 % 1012,6 hPa 0,0 mm 2,4 km/h (1 Bft) S-SW 206 ° 0 min 0,000 mm 0,0 UV-I 0 W/m² 9,8 °C 12,1 °C 6,4 km/h (2 Bft)
27.07.2017 02:27 12,1 °C 12,1 °C 86 % 1012,6 hPa 0,0 mm 3,5 km/h (1 Bft) S 188 ° 0 min 0,000 mm 0,0 UV-I 0 W/m² 9,8 °C 12,1 °C 8,0 km/h (2 Bft)
27.07.2017 02:28 12,1 °C 12,1 °C 86 % 1012,6 hPa 0,0 mm 3,6 km/h (1 Bft) S-SW 212 ° 0 min 0,000 mm 0,0 UV-I 0 W/m² 9,8 °C 12,1 °C 9,7 km/h (2 Bft)
27.07.2017 02:29 12,1 °C 12,1 °C 86 % 1012,6 hPa 0,0 mm 0,1 km/h (0 Bft) S-SW 212 ° 0 min 0,000 mm 0,0 UV-I 0 W/m² 9,8 °C 12,1 °C 1,6 km/h (1 Bft)
27.07.2017 02:30 12,1 °C 12,1 °C 87 % 1012,6 hPa 0,0 mm 1,7 km/h (1 Bft) S-SW 211 ° 0 min 0,000 mm 0,0 UV-I 0 W/m² 10,0 °C 12,1 °C 3,2 km/h (1 Bft)
27.07.2017 02:31 12,0 °C 12,1 °C 87 % 1012,6 hPa 0,0 mm 3,5 km/h (1 Bft) S-SW 198 ° 0 min 0,000 mm 0,0 UV-I 0 W/m² 9,9 °C 12,0 °C 4,8 km/h (1 Bft)
27.07.2017 02:32 11,9 °C 12,0 °C 87 % 1012,6 hPa 0,0 mm 1,9 km/h (1 Bft) S 190 ° 0 min 0,000 mm 0,0 UV-I 0 W/m² 9,8 °C 11,9 °C 4,8 km/h (1 Bft)
27.07.2017 02:33 11,8 °C 11,9 °C 87 % 1012,6 hPa 0,0 mm 4,0 km/h (1 Bft) S 179 ° 0 min 0,000 mm 0,0 UV-I 0 W/m² 9,7 °C 11,8 °C 6,4 km/h (2 Bft)
27.07.2017 02:34 11,8 °C 11,8 °C 87 % 1012,6 hPa 0,0 mm 3,1 km/h (1 Bft) S 187 ° 0 min 0,000 mm 0,0 UV-I 0 W/m² 9,7 °C 11,8 °C 8,0 km/h (2 Bft)
27.07.2017 02:35 11,8 °C 11,8 °C 86 % 1012,6 hPa 0,0 mm 2,3 km/h (1 Bft) S 187 ° 0 min 0,000 mm 0,0 UV-I 0 W/m² 9,5 °C 11,8 °C 3,2 km/h (1 Bft)
27.07.2017 02:36 11,9 °C 11,9 °C 86 % 1012,6 hPa 0,0 mm 3,4 km/h (1 Bft) S 187 ° 0 min 0,000 mm 0,0 UV-I 0 W/m² 9,6 °C 11,9 °C 4,8 km/h (1 Bft)
27.07.2017 02:37 12,0 °C 12,0 °C 85 % 1012,6 hPa 0,0 mm 2,7 km/h (1 Bft) S-SW 211 ° 0 min 0,000 mm 0,0 UV-I 0 W/m² 9,6 °C 12,0 °C 4,8 km/h (1 Bft)
27.07.2017 02:38 12,1 °C 12,1 °C 86 % 1012,6 hPa 0,0 mm 0,1 km/h (0 Bft) S-SW 211 ° 0 min 0,000 mm 0,0 UV-I 0 W/m² 9,8 °C 12,1 °C 1,6 km/h (1 Bft)
27.07.2017 02:39 12,1 °C 12,1 °C 85 % 1012,6 hPa 0,0 mm 3,5 km/h (1 Bft) S 186 ° 0 min 0,000 mm 0,0 UV-I 0 W/m² 9,7 °C 12,1 °C 9,7 km/h (2 Bft)
27.07.2017 02:40 12,1 °C 12,2 °C 86 % 1012,6 hPa 0,0 mm 4,0 km/h (1 Bft) S 182 ° 0 min 0,000 mm 0,0 UV-I 0 W/m² 9,8 °C 12,1 °C 9,7 km/h (2 Bft)
27.07.2017 02:41 12,2 °C 12,2 °C 86 % 1012,5 hPa 0,0 mm 5,6 km/h (1 Bft) S-SW 207 ° 0 min 0,000 mm 0,0 UV-I 0 W/m² 9,9 °C 12,2 °C 11,3 km/h (2 Bft)
27.07.2017 02:42 12,1 °C 12,2 °C 86 % 1012,6 hPa 0,0 mm 3,6 km/h (1 Bft) S-SW 194 ° 0 min 0,000 mm 0,0 UV-I 0 W/m² 9,8 °C 12,1 °C 6,4 km/h (2 Bft)
27.07.2017 02:43 12,1 °C 12,1 °C 86 % 1012,6 hPa 0,0 mm 5,3 km/h (1 Bft) S 184 ° 0 min 0,000 mm 0,0 UV-I 0 W/m² 9,8 °C 12,1 °C 8,0 km/h (2 Bft)
27.07.2017 02:44 12,1 °C 12,1 °C 85 % 1012,5 hPa 0,0 mm 2,9 km/h (1 Bft) S 191 ° 0 min 0,000 mm 0,0 UV-I 0 W/m² 9,7 °C 12,1 °C 4,8 km/h (1 Bft)
27.07.2017 02:45 12,1 °C 12,1 °C 85 % 1012,5 hPa 0,0 mm 5,6 km/h (1 Bft) S-SW 200 ° 0 min 0,000 mm 0,0 UV-I 0 W/m² 9,7 °C 12,1 °C 9,7 km/h (2 Bft)
27.07.2017 02:46 12,1 °C 12,2 °C 85 % 1012,5 hPa 0,0 mm 3,4 km/h (1 Bft) S 180 ° 0 min 0,000 mm 0,0 UV-I 0 W/m² 9,7 °C 12,1 °C 9,7 km/h (2 Bft)
27.07.2017 02:47 12,1 °C 12,2 °C 86 % 1012,5 hPa 0,0 mm 2,6 km/h (1 Bft) S 182 ° 0 min 0,000 mm 0,0 UV-I 0 W/m² 9,8 °C 12,1 °C 4,8 km/h (1 Bft)
27.07.2017 02:48 12,1 °C 12,1 °C 86 % 1012,5 hPa 0,0 mm 2,4 km/h (1 Bft) S 182 ° 0 min 0,000 mm 0,0 UV-I 0 W/m² 9,8 °C 12,1 °C 4,8 km/h (1 Bft)
27.07.2017 02:49 12,0 °C 12,1 °C 86 % 1012,5 hPa 0,0 mm 4,2 km/h (1 Bft) S 178 ° 0 min 0,000 mm 0,0 UV-I 0 W/m² 9,7 °C 12,0 °C 8,0 km/h (2 Bft)
27.07.2017 02:50 12,0 °C 12,1 °C 86 % 1012,5 hPa 0,0 mm 4,4 km/h (1 Bft) S 188 ° 0 min 0,000 mm 0,0 UV-I 0 W/m² 9,7 °C 12,0 °C 6,4 km/h (2 Bft)
27.07.2017 02:51 11,9 °C 12,0 °C 87 % 1012,5 hPa 0,0 mm 5,5 km/h (1 Bft) W-SW 246 ° 0 min 0,000 mm 0,0 UV-I 0 W/m² 9,8 °C 11,9 °C 9,7 km/h (2 Bft)
27.07.2017 02:52 12,0 °C 12,0 °C 86 % 1012,5 hPa 0,0 mm 2,4 km/h (1 Bft) SW 216 ° 0 min 0,000 mm 0,0 UV-I 0 W/m² 9,7 °C 12,0 °C 3,2 km/h (1 Bft)
27.07.2017 02:53 12,0 °C 12,0 °C 86 % 1012,5 hPa 0,0 mm 3,1 km/h (1 Bft) S-SW 196 ° 0 min 0,000 mm 0,0 UV-I 0 W/m² 9,7 °C 12,0 °C 6,4 km/h (2 Bft)
27.07.2017 02:54 11,9 °C 12,0 °C 87 % 1012,5 hPa 0,0 mm 2,3 km/h (1 Bft) S-SW 193 ° 0 min 0,000 mm 0,0 UV-I 0 W/m² 9,8 °C 11,9 °C 4,8 km/h (1 Bft)
27.07.2017 02:55 11,8 °C 11,9 °C 88 % 1012,5 hPa 0,0 mm 4,6 km/h (1 Bft) S-SW 205 ° 0 min 0,000 mm 0,0 UV-I 0 W/m² 9,9 °C 11,8 °C 8,0 km/h (2 Bft)
27.07.2017 02:56 11,8 °C 11,8 °C 87 % 1012,5 hPa 0,0 mm 5,3 km/h (1 Bft) S-SW 205 ° 0 min 0,000 mm 0,0 UV-I 0 W/m² 9,7 °C 11,8 °C 9,7 km/h (2 Bft)
27.07.2017 02:57 11,8 °C 11,8 °C 87 % 1012,5 hPa 0,0 mm 3,9 km/h (1 Bft) SW 215 ° 0 min 0,000 mm 0,0 UV-I 0 W/m² 9,7 °C 11,8 °C 6,4 km/h (2 Bft)
27.07.2017 02:58 11,8 °C 11,8 °C 87 % 1012,5 hPa 0,0 mm 2,7 km/h (1 Bft) S-SW 211 ° 0 min 0,000 mm 0,0 UV-I 0 W/m² 9,7 °C 11,8 °C 4,8 km/h (1 Bft)
27.07.2017 02:59 11,8 °C 11,8 °C 87 % 1012,6 hPa 0,0 mm 3,1 km/h (1 Bft) S-SW 193 ° 0 min 0,000 mm 0,0 UV-I 0 W/m² 9,7 °C 11,8 °C 4,8 km/h (1 Bft)
27.07.2017 03:00 11,8 °C 11,8 °C 87 % 1012,6 hPa 0,0 mm 3,9 km/h (1 Bft) S-SW 198 ° 0 min 0,000 mm 0,0 UV-I 0 W/m² 9,7 °C 11,8 °C 6,4 km/h (2 Bft)
27.07.2017 03:01 11,7 °C 11,8 °C 88 % 1012,5 hPa 0,0 mm 3,1 km/h (1 Bft) W-SW 237 ° 0 min 0,026 mm 0,0 UV-I 0 W/m² 9,8 °C 11,7 °C 4,8 km/h (1 Bft)
27.07.2017 03:02 11,6 °C 11,7 °C 89 % 1012,6 hPa 0,0 mm 4,4 km/h (1 Bft) S-SW 196 ° 0 min 0,000 mm 0,0 UV-I 0 W/m² 9,8 °C 11,6 °C 8,0 km/h (2 Bft)
27.07.2017 03:03 11,6 °C 11,6 °C 88 % 1012,6 hPa 0,0 mm 3,0 km/h (1 Bft) S-SW 194 ° 0 min 0,000 mm 0,0 UV-I 0 W/m² 9,7 °C 11,6 °C 6,4 km/h (2 Bft)
27.07.2017 03:04 11,6 °C 11,6 °C 88 % 1012,5 hPa 0,0 mm 3,3 km/h (1 Bft) S-SW 207 ° 0 min 0,000 mm 0,0 UV-I 0 W/m² 9,7 °C 11,6 °C 8,0 km/h (2 Bft)
27.07.2017 03:05 11,6 °C 11,6 °C 88 % 1012,6 hPa 0,0 mm 5,4 km/h (1 Bft) S 188 ° 0 min 0,000 mm 0,0 UV-I 0 W/m² 9,7 °C 11,6 °C 9,7 km/h (2 Bft)
27.07.2017 03:06 11,6 °C 11,6 °C 88 % 1012,6 hPa 0,0 mm 2,7 km/h (1 Bft) S 169 ° 0 min 0,000 mm 0,0 UV-I 0 W/m² 9,7 °C 11,6 °C 8,0 km/h (2 Bft)
27.07.2017 03:07 11,5 °C 11,6 °C 89 % 1012,5 hPa 0,0 mm 5,9 km/h (2 Bft) S-SW 203 ° 0 min 0,000 mm 0,0 UV-I 0 W/m² 9,8 °C 11,5 °C 9,7 km/h (2 Bft)
27.07.2017 03:08 11,6 °C 11,6 °C 88 % 1012,5 hPa 0,0 mm 3,9 km/h (1 Bft) S 186 ° 0 min 0,000 mm 0,0 UV-I 0 W/m² 9,7 °C 11,6 °C 6,4 km/h (2 Bft)
27.07.2017 03:09 11,5 °C 11,6 °C 88 % 1012,5 hPa 0,0 mm 2,6 km/h (1 Bft) S 180 ° 0 min 0,000 mm 0,0 UV-I 0 W/m² 9,6 °C 11,5 °C 4,8 km/h (1 Bft)
27.07.2017 03:10 11,5 °C 11,5 °C 87 % 1012,5 hPa 0,0 mm 2,9 km/h (1 Bft) S-SW 213 ° 0 min 0,000 mm 0,0 UV-I 0 W/m² 9,4 °C 11,5 °C 6,4 km/h (2 Bft)
27.07.2017 03:11 11,4 °C 11,5 °C 88 % 1012,5 hPa 0,0 mm 2,3 km/h (1 Bft) S-SW 195 ° 0 min 0,000 mm 0,0 UV-I 0 W/m² 9,5 °C 11,4 °C 3,2 km/h (1 Bft)
27.07.2017 03:12 11,4 °C 11,4 °C 88 % 1012,5 hPa 0,0 mm 1,1 km/h (1 Bft) S-SW 196 ° 0 min 0,000 mm 0,0 UV-I 0 W/m² 9,5 °C 11,4 °C 3,2 km/h (1 Bft)
27.07.2017 03:13 11,4 °C 11,4 °C 87 % 1012,5 hPa 0,0 mm 2,0 km/h (1 Bft) S 191 ° 0 min 0,000 mm 0,0 UV-I 0 W/m² 9,3 °C 11,4 °C 4,8 km/h (1 Bft)
27.07.2017 03:14 11,4 °C 11,4 °C 88 % 1012,5 hPa 0,0 mm 3,2 km/h (1 Bft) S 179 ° 0 min 0,000 mm 0,0 UV-I 0 W/m² 9,5 °C 11,4 °C 4,8 km/h (1 Bft)
27.07.2017 03:15 11,4 °C 11,4 °C 88 % 1012,5 hPa 0,0 mm 3,5 km/h (1 Bft) S 176 ° 0 min 0,000 mm 0,0 UV-I 0 W/m² 9,5 °C 11,4 °C 6,4 km/h (2 Bft)
27.07.2017 03:16 11,4 °C 11,4 °C 88 % 1012,4 hPa 0,0 mm 1,1 km/h (1 Bft) S 176 ° 0 min 0,000 mm 0,0 UV-I 0 W/m² 9,5 °C 11,4 °C 3,2 km/h (1 Bft)
27.07.2017 03:17 11,4 °C 11,4 °C 88 % 1012,4 hPa 0,0 mm 1,6 km/h (1 Bft) S 176 ° 0 min 0,000 mm 0,0 UV-I 0 W/m² 9,5 °C 11,4 °C 4,8 km/h (1 Bft)
27.07.2017 03:18 11,3 °C 11,4 °C 89 % 1012,4 hPa 0,0 mm 2,3 km/h (1 Bft) S 189 ° 0 min 0,000 mm 0,0 UV-I 0 W/m² 9,6 °C 11,3 °C 3,2 km/h (1 Bft)
27.07.2017 03:19 11,3 °C 11,3 °C 89 % 1012,4 hPa 0,0 mm 1,5 km/h (1 Bft) S 189 ° 0 min 0,000 mm 0,0 UV-I 0 W/m² 9,6 °C 11,3 °C 3,2 km/h (1 Bft)
27.07.2017 03:20 11,3 °C 11,3 °C 89 % 1012,4 hPa 0,0 mm 2,3 km/h (1 Bft) S 189 ° 0 min 0,000 mm 0,0 UV-I 0 W/m² 9,6 °C 11,3 °C 4,8 km/h (1 Bft)
27.07.2017 03:21 11,3 °C 11,3 °C 89 % 1012,4 hPa 0,0 mm 3,0 km/h (1 Bft) S-SW 210 ° 0 min 0,000 mm 0,0 UV-I 0 W/m² 9,6 °C 11,3 °C 6,4 km/h (2 Bft)
27.07.2017 03:22 11,2 °C 11,3 °C 89 % 1012,4 hPa 0,0 mm 3,8 km/h (1 Bft) S 177 ° 0 min 0,000 mm 0,0 UV-I 0 W/m² 9,5 °C 11,2 °C 6,4 km/h (2 Bft)
27.07.2017 03:23 11,2 °C 11,2 °C 89 % 1012,4 hPa 0,0 mm 5,2 km/h (1 Bft) S-SW 194 ° 0 min 0,000 mm 0,0 UV-I 0 W/m² 9,5 °C 11,2 °C 8,0 km/h (2 Bft)
27.07.2017 03:24 11,2 °C 11,3 °C 89 % 1012,4 hPa 0,0 mm 4,6 km/h (1 Bft) S-SW 200 ° 0 min 0,000 mm 0,0 UV-I 0 W/m² 9,5 °C 11,2 °C 8,0 km/h (2 Bft)
27.07.2017 03:25 11,2 °C 11,2 °C 89 % 1012,3 hPa 0,0 mm 5,2 km/h (1 Bft) S-SW 196 ° 0 min 0,000 mm 0,0 UV-I 0 W/m² 9,5 °C 11,2 °C 8,0 km/h (2 Bft)
27.07.2017 03:26 11,3 °C 11,3 °C 88 % 1012,3 hPa 0,0 mm 3,8 km/h (1 Bft) S 179 ° 0 min 0,000 mm 0,0 UV-I 0 W/m² 9,4 °C 11,3 °C 4,8 km/h (1 Bft)
27.07.2017 03:27 11,3 °C 11,3 °C 88 % 1012,3 hPa 0,0 mm 2,7 km/h (1 Bft) S 186 ° 0 min 0,000 mm 0,0 UV-I 0 W/m² 9,4 °C 11,3 °C 8,0 km/h (2 Bft)
27.07.2017 03:28 11,4 °C 11,4 °C 87 % 1012,3 hPa 0,0 mm 3,7 km/h (1 Bft) S 186 ° 0 min 0,000 mm 0,0 UV-I 0 W/m² 9,3 °C 11,4 °C 6,4 km/h (2 Bft)
27.07.2017 03:29 11,5 °C 11,5 °C 88 % 1012,3 hPa 0,0 mm 5,7 km/h (1 Bft) S 188 ° 0 min 0,000 mm 0,0 UV-I 0 W/m² 9,6 °C 11,5 °C 11,3 km/h (2 Bft)
27.07.2017 03:30 11,6 °C 11,6 °C 87 % 1012,3 hPa 0,0 mm 5,8 km/h (2 Bft) S-SW 196 ° 0 min 0,000 mm 0,0 UV-I 0 W/m² 9,5 °C 11,6 °C 8,0 km/h (2 Bft)
27.07.2017 03:31 11,6 °C 11,7 °C 88 % 1012,4 hPa 0,0 mm 4,4 km/h (1 Bft) S-SW 213 ° 0 min 0,000 mm 0,0 UV-I 0 W/m² 9,7 °C 11,6 °C 6,4 km/h (2 Bft)
27.07.2017 03:32 11,7 °C 11,7 °C 87 % 1012,3 hPa 0,0 mm 5,8 km/h (2 Bft) S 183 ° 0 min 0,000 mm 0,0 UV-I 0 W/m² 9,6 °C 11,7 °C 9,7 km/h (2 Bft)
27.07.2017 03:33 11,8 °C 11,8 °C 86 % 1012,3 hPa 0,0 mm 5,2 km/h (1 Bft) S-SW 195 ° 0 min 0,000 mm 0,0 UV-I 0 W/m² 9,5 °C 11,8 °C 6,4 km/h (2 Bft)
27.07.2017 03:34 11,8 °C 11,8 °C 87 % 1012,4 hPa 0,0 mm 3,1 km/h (1 Bft) SO 145 ° 0 min 0,000 mm 0,0 UV-I 0 W/m² 9,7 °C 11,8 °C 4,8 km/h (1 Bft)
27.07.2017 03:35 11,8 °C 11,8 °C 87 % 1012,4 hPa 0,0 mm 4,3 km/h (1 Bft) S 184 ° 0 min 0,000 mm 0,0 UV-I 0 W/m² 9,7 °C 11,8 °C 6,4 km/h (2 Bft)
27.07.2017 03:36 11,8 °C 11,8 °C 87 % 1012,3 hPa 0,0 mm 3,4 km/h (1 Bft) S-SW 194 ° 0 min 0,000 mm 0,0 UV-I 0 W/m² 9,7 °C 11,8 °C 4,8 km/h (1 Bft)
27.07.2017 03:37 11,7 °C 11,8 °C 88 % 1012,3 hPa 0,0 mm 2,0 km/h (1 Bft) S-SW 193 ° 0 min 0,000 mm 0,0 UV-I 0 W/m² 9,8 °C 11,7 °C 3,2 km/h (1 Bft)
27.07.2017 03:38 11,6 °C 11,7 °C 89 % 1012,3 hPa 0,0 mm 3,3 km/h (1 Bft) S-SW 196 ° 0 min 0,000 mm 0,0 UV-I 0 W/m² 9,8 °C 11,6 °C 4,8 km/h (1 Bft)
27.07.2017 03:39 11,5 °C 11,6 °C 88 % 1012,3 hPa 0,0 mm 5,2 km/h (1 Bft) S-SW 198 ° 0 min 0,000 mm 0,0 UV-I 0 W/m² 9,6 °C 11,5 °C 8,0 km/h (2 Bft)
27.07.2017 03:40 11,5 °C 11,5 °C 88 % 1012,3 hPa 0,0 mm 2,9 km/h (1 Bft) S-SW 198 ° 0 min 0,000 mm 0,0 UV-I 0 W/m² 9,6 °C 11,5 °C 6,4 km/h (2 Bft)
27.07.2017 03:41 11,4 °C 11,5 °C 88 % 1012,3 hPa 0,0 mm 5,8 km/h (2 Bft) S 187 ° 0 min 0,000 mm 0,0 UV-I 0 W/m² 9,5 °C 11,4 °C 9,7 km/h (2 Bft)
27.07.2017 03:42 11,4 °C 11,4 °C 88 % 1012,3 hPa 0,0 mm 3,0 km/h (1 Bft) S-SW 202 ° 0 min 0,000 mm 0,0 UV-I 0 W/m² 9,5 °C 11,4 °C 3,2 km/h (1 Bft)
27.07.2017 03:43 11,4 °C 11,4 °C 89 % 1012,3 hPa 0,0 mm 2,7 km/h (1 Bft) S-SW 202 ° 0 min 0,000 mm 0,0 UV-I 0 W/m² 9,7 °C 11,4 °C 6,4 km/h (2 Bft)
27.07.2017 03:44 11,4 °C 11,4 °C 88 % 1012,3 hPa 0,0 mm 4,4 km/h (1 Bft) S-SW 194 ° 0 min 0,000 mm 0,0 UV-I 0 W/m² 9,5 °C 11,4 °C 6,4 km/h (2 Bft)
27.07.2017 03:45 11,4 °C 11,4 °C 88 % 1012,3 hPa 0,0 mm 3,9 km/h (1 Bft) S 189 ° 0 min 0,000 mm 0,0 UV-I 0 W/m² 9,5 °C 11,4 °C 6,4 km/h (2 Bft)
27.07.2017 03:46 11,4 °C 11,4 °C 89 % 1012,3 hPa 0,0 mm 2,7 km/h (1 Bft) S 187 ° 0 min 0,000 mm 0,0 UV-I 0 W/m² 9,7 °C 11,4 °C 4,8 km/h (1 Bft)
27.07.2017 03:47 11,4 °C 11,4 °C 89 % 1012,3 hPa 0,0 mm 3,4 km/h (1 Bft) S 188 ° 0 min 0,000 mm 0,0 UV-I 0 W/m² 9,7 °C 11,4 °C 6,4 km/h (2 Bft)
27.07.2017 03:48 11,4 °C 11,4 °C 88 % 1012,3 hPa 0,0 mm 6,1 km/h (2 Bft) S-SW 205 ° 0 min 0,000 mm 0,0 UV-I 0 W/m² 9,5 °C 11,4 °C 8,0 km/h (2 Bft)
27.07.2017 03:49 11,4 °C 11,5 °C 88 % 1012,3 hPa 0,0 mm 5,0 km/h (1 Bft) S-SW 211 ° 0 min 0,000 mm 0,0 UV-I 0 W/m² 9,5 °C 11,4 °C 6,4 km/h (2 Bft)
27.07.2017 03:50 11,5 °C 11,6 °C 88 % 1012,3 hPa 0,0 mm 5,0 km/h (1 Bft) S-SW 193 ° 0 min 0,000 mm 0,0 UV-I 0 W/m² 9,6 °C 11,5 °C 8,0 km/h (2 Bft)
27.07.2017 03:51 11,5 °C 11,6 °C 89 % 1012,3 hPa 0,0 mm 3,6 km/h (1 Bft) S 171 ° 0 min 0,000 mm 0,0 UV-I 0 W/m² 9,8 °C 11,5 °C 6,4 km/h (2 Bft)
27.07.2017 03:52 11,5 °C 11,5 °C 88 % 1012,3 hPa 0,0 mm 2,4 km/h (1 Bft) S 176 ° 0 min 0,000 mm 0,0 UV-I 0 W/m² 9,6 °C 11,5 °C 6,4 km/h (2 Bft)
27.07.2017 03:53 11,4 °C 11,5 °C 89 % 1012,3 hPa 0,0 mm 3,6 km/h (1 Bft) S 185 ° 0 min 0,000 mm 0,0 UV-I 0 W/m² 9,7 °C 11,4 °C 8,0 km/h (2 Bft)
27.07.2017 03:54 11,4 °C 11,4 °C 88 % 1012,3 hPa 0,0 mm 3,6 km/h (1 Bft) S-SW 193 ° 0 min 0,000 mm 0,0 UV-I 0 W/m² 9,5 °C 11,4 °C 4,8 km/h (1 Bft)
27.07.2017 03:55 11,4 °C 11,4 °C 89 % 1012,2 hPa 0,0 mm 2,8 km/h (1 Bft) SW 220 ° 0 min 0,000 mm 0,0 UV-I 0 W/m² 9,7 °C 11,4 °C 8,0 km/h (2 Bft)
27.07.2017 03:56 11,4 °C 11,4 °C 89 % 1012,2 hPa 0,0 mm 2,5 km/h (1 Bft) SW 218 ° 0 min 0,000 mm 0,0 UV-I 0 W/m² 9,7 °C 11,4 °C 4,8 km/h (1 Bft)
27.07.2017 03:57 11,4 °C 11,4 °C 88 % 1012,2 hPa 0,0 mm 3,0 km/h (1 Bft) S-SW 205 ° 0 min 0,000 mm 0,0 UV-I 0 W/m² 9,5 °C 11,4 °C 4,8 km/h (1 Bft)
27.07.2017 03:58 11,4 °C 11,4 °C 88 % 1012,2 hPa 0,0 mm 1,9 km/h (1 Bft) S-SW 192 ° 0 min 0,000 mm 0,0 UV-I 0 W/m² 9,5 °C 11,4 °C 4,8 km/h (1 Bft)
27.07.2017 03:59 11,3 °C 11,4 °C 89 % 1012,3 hPa 0,0 mm 2,2 km/h (1 Bft) SW 215 ° 0 min 0,000 mm 0,0 UV-I 0 W/m² 9,6 °C 11,3 °C 4,8 km/h (1 Bft)
27.07.2017 04:00 11,2 °C 11,3 °C 89 % 1012,3 hPa 0,0 mm 3,0 km/h (1 Bft) S-SW 194 ° 0 min 0,000 mm 0,0 UV-I 0 W/m² 9,5 °C 11,2 °C 6,4 km/h (2 Bft)
27.07.2017 04:01 11,2 °C 11,2 °C 89 % 1012,2 hPa 0,0 mm 4,1 km/h (1 Bft) S-SW 204 ° 0 min 0,000 mm 0,0 UV-I 0 W/m² 9,5 °C 11,2 °C 6,4 km/h (2 Bft)
27.07.2017 04:02 11,1 °C 11,2 °C 90 % 1012,2 hPa 0,0 mm 3,6 km/h (1 Bft) SW 215 ° 0 min 0,000 mm 0,0 UV-I 0 W/m² 9,5 °C 11,1 °C 4,8 km/h (1 Bft)
27.07.2017 04:03 11,0 °C 11,1 °C 90 % 1012,2 hPa 0,0 mm 3,2 km/h (1 Bft) S 191 ° 0 min 0,000 mm 0,0 UV-I 0 W/m² 9,4 °C 11,0 °C 4,8 km/h (1 Bft)
27.07.2017 04:04 10,9 °C 11,0 °C 90 % 1012,2 hPa 0,0 mm 4,6 km/h (1 Bft) S 184 ° 0 min 0,000 mm 0,0 UV-I 0 W/m² 9,3 °C 10,9 °C 6,4 km/h (2 Bft)
27.07.2017 04:05 10,8 °C 10,9 °C 90 % 1012,2 hPa 0,0 mm 4,5 km/h (1 Bft) S-SW 209 ° 0 min 0,000 mm 0,0 UV-I 0 W/m² 9,2 °C 10,8 °C 9,7 km/h (2 Bft)
27.07.2017 04:06 10,8 °C 10,9 °C 90 % 1012,2 hPa 0,0 mm 4,8 km/h (1 Bft) S-SW 197 ° 0 min 0,000 mm 0,0 UV-I 0 W/m² 9,2 °C 10,8 °C 9,7 km/h (2 Bft)
27.07.2017 04:07 10,8 °C 10,9 °C 90 % 1012,1 hPa 0,0 mm 1,5 km/h (1 Bft) S-SW 197 ° 0 min 0,000 mm 0,0 UV-I 0 W/m² 9,2 °C 10,8 °C 3,2 km/h (1 Bft)
27.07.2017 04:08 10,8 °C 10,8 °C 91 % 1012,1 hPa 0,0 mm 0,9 km/h (0 Bft) S-SW 197 ° 0 min 0,000 mm 0,0 UV-I 0 W/m² 9,4 °C 10,8 °C 3,2 km/h (1 Bft)
27.07.2017 04:09 10,7 °C 10,8 °C 91 % 1012,1 hPa 0,0 mm 1,5 km/h (1 Bft) S-SW 197 ° 0 min 0,000 mm 0,0 UV-I 0 W/m² 9,3 °C 10,7 °C 3,2 km/h (1 Bft)
27.07.2017 04:10 10,6 °C 10,7 °C 91 % 1012,1 hPa 0,0 mm 0,9 km/h (0 Bft) S-SW 197 ° 0 min 0,000 mm 0,0 UV-I 0 W/m² 9,2 °C 10,6 °C 1,6 km/h (1 Bft)
27.07.2017 04:11 10,6 °C 10,6 °C 91 % 1012,1 hPa 0,0 mm 0,5 km/h (0 Bft) S-SW 197 ° 0 min 0,000 mm 0,0 UV-I 0 W/m² 9,2 °C 10,6 °C 3,2 km/h (1 Bft)
27.07.2017 04:12 10,4 °C 10,6 °C 91 % 1012,1 hPa 0,0 mm 1,0 km/h (0 Bft) S-SW 197 ° 0 min 0,000 mm 0,0 UV-I 0 W/m² 9,0 °C 10,4 °C 3,2 km/h (1 Bft)
27.07.2017 04:13 10,3 °C 10,4 °C 91 % 1012,1 hPa 0,0 mm 2,0 km/h (1 Bft) S-SW 197 ° 0 min 0,000 mm 0,0 UV-I 0 W/m² 8,9 °C 10,3 °C 3,2 km/h (1 Bft)
27.07.2017 04:14 10,3 °C 10,3 °C 91 % 1012,1 hPa 0,0 mm 1,3 km/h (1 Bft) S-SW 197 ° 0 min 0,000 mm 0,0 UV-I 0 W/m² 8,9 °C 10,3 °C 3,2 km/h (1 Bft)
27.07.2017 04:15 10,2 °C 10,3 °C 91 % 1012,1 hPa 0,0 mm 1,6 km/h (1 Bft) S-SW 197 ° 0 min 0,000 mm 0,0 UV-I 0 W/m² 8,8 °C 10,2 °C 3,2 km/h (1 Bft)
27.07.2017 04:16 10,1 °C 10,2 °C 91 % 1012,2 hPa 0,0 mm 1,3 km/h (1 Bft) S-SW 197 ° 0 min 0,000 mm 0,0 UV-I 0 W/m² 8,7 °C 10,1 °C 3,2 km/h (1 Bft)
27.07.2017 04:17 10,1 °C 10,1 °C 91 % 1012,2 hPa 0,0 mm 0,7 km/h (0 Bft) S-SW 197 ° 0 min 0,000 mm 0,0 UV-I 0 W/m² 8,7 °C 10,1 °C 1,6 km/h (1 Bft)
27.07.2017 04:18 10,0 °C 10,1 °C 91 % 1012,2 hPa 0,0 mm 1,6 km/h (1 Bft) S-SW 197 ° 0 min 0,000 mm 0,0 UV-I 0 W/m² 8,6 °C 10,0 °C 3,2 km/h (1 Bft)
27.07.2017 04:19 10,0 °C 10,0 °C 92 % 1012,2 hPa 0,0 mm 0,0 km/h (0 Bft) S-SW 197 ° 0 min 0,000 mm 0,0 UV-I 0 W/m² 8,8 °C 10,0 °C 0,0 km/h (0 Bft)
27.07.2017 04:20 10,0 °C 10,0 °C 92 % 1012,2 hPa 0,0 mm 2,2 km/h (1 Bft) S-SW 197 ° 0 min 0,000 mm 0,0 UV-I 0 W/m² 8,8 °C 10,0 °C 4,8 km/h (1 Bft)
27.07.2017 04:21 10,0 °C 10,0 °C 93 % 1012,2 hPa 0,0 mm 0,0 km/h (0 Bft) S-SW 197 ° 0 min 0,000 mm 0,0 UV-I 0 W/m² 8,9 °C 10,0 °C 0,0 km/h (0 Bft)
27.07.2017 04:22 10,0 °C 10,1 °C 93 % 1012,3 hPa 0,0 mm 2,5 km/h (1 Bft) S-SW 197 ° 0 min 0,000 mm 0,0 UV-I 0 W/m² 8,9 °C 10,0 °C 3,2 km/h (1 Bft)
27.07.2017 04:23 10,0 °C 10,1 °C 93 % 1012,3 hPa 0,0 mm 1,3 km/h (1 Bft) S-SW 197 ° 0 min 0,000 mm 0,0 UV-I 0 W/m² 8,9 °C 10,0 °C 3,2 km/h (1 Bft)
27.07.2017 04:24 10,0 °C 10,0 °C 93 % 1012,3 hPa 0,0 mm 1,4 km/h (1 Bft) S-SW 197 ° 0 min 0,000 mm 0,0 UV-I 0 W/m² 8,9 °C 10,0 °C 1,6 km/h (1 Bft)
27.07.2017 04:25 10,0 °C 10,0 °C 93 % 1012,2 hPa 0,0 mm 1,3 km/h (1 Bft) S-SW 197 ° 0 min 0,000 mm 0,0 UV-I 0 W/m² 8,9 °C 10,0 °C 1,6 km/h (1 Bft)
27.07.2017 04:26 9,9 °C 10,0 °C 93 % 1012,2 hPa 0,0 mm 2,5 km/h (1 Bft) S-SW 197 ° 0 min 0,000 mm 0,0 UV-I 0 W/m² 8,8 °C 9,9 °C 4,8 km/h (1 Bft)
27.07.2017 04:27 9,9 °C 9,9 °C 93 % 1012,2 hPa 0,0 mm 1,5 km/h (1 Bft) S-SW 197 ° 0 min 0,000 mm 0,0 UV-I 0 W/m² 8,8 °C 9,9 °C 3,2 km/h (1 Bft)
27.07.2017 04:28 9,9 °C 9,9 °C 93 % 1012,2 hPa 0,0 mm 0,0 km/h (0 Bft) S-SW 197 ° 0 min 0,000 mm 0,0 UV-I 0 W/m² 8,8 °C 9,9 °C 0,0 km/h (0 Bft)
27.07.2017 04:29 9,9 °C 9,9 °C 93 % 1012,2 hPa 0,0 mm 0,0 km/h (0 Bft) S-SW 197 ° 0 min 0,000 mm 0,0 UV-I 0 W/m² 8,8 °C 9,9 °C 0,0 km/h (0 Bft)
27.07.2017 04:30 9,9 °C 9,9 °C 93 % 1012,2 hPa 0,0 mm 0,0 km/h (0 Bft) S-SW 197 ° 0 min 0,000 mm 0,0 UV-I 0 W/m² 8,8 °C 9,9 °C 0,0 km/h (0 Bft)
27.07.2017 04:31 9,9 °C 9,9 °C 93 % 1012,3 hPa 0,0 mm 0,0 km/h (0 Bft) S-SW 197 ° 0 min 0,000 mm 0,0 UV-I 0 W/m² 8,8 °C 9,9 °C 0,0 km/h (0 Bft)
27.07.2017 04:32 9,9 °C 9,9 °C 93 % 1012,3 hPa 0,0 mm 0,0 km/h (0 Bft) S-SW 197 ° 0 min 0,000 mm 0,0 UV-I 0 W/m² 8,8 °C 9,9 °C 0,0 km/h (0 Bft)
27.07.2017 04:33 9,9 °C 9,9 °C 93 % 1012,3 hPa 0,0 mm 0,0 km/h (0 Bft) S-SW 197 ° 0 min 0,000 mm 0,0 UV-I 0 W/m² 8,8 °C 9,9 °C 0,0 km/h (0 Bft)
27.07.2017 04:34 9,9 °C 9,9 °C 93 % 1012,3 hPa 0,0 mm 0,0 km/h (0 Bft) S-SW 197 ° 0 min 0,000 mm 0,0 UV-I 0 W/m² 8,8 °C 9,9 °C 0,0 km/h (0 Bft)
27.07.2017 04:35 9,9 °C 9,9 °C 93 % 1012,3 hPa 0,0 mm 0,0 km/h (0 Bft) S-SW 197 ° 0 min 0,000 mm 0,0 UV-I 0 W/m² 8,8 °C 9,9 °C 0,0 km/h (0 Bft)
27.07.2017 04:36 9,9 °C 9,9 °C 93 % 1012,3 hPa 0,0 mm 0,0 km/h (0 Bft) S-SW 197 ° 0 min 0,000 mm 0,0 UV-I 0 W/m² 8,8 °C 9,9 °C 0,0 km/h (0 Bft)
27.07.2017 04:37 9,9 °C 9,9 °C 93 % 1012,2 hPa 0,0 mm 0,0 km/h (0 Bft) S-SW 197 ° 0 min 0,000 mm 0,0 UV-I 0 W/m² 8,8 °C 9,9 °C 0,0 km/h (0 Bft)
27.07.2017 04:38 10,0 °C 10,0 °C 93 % 1012,2 hPa 0,0 mm 0,0 km/h (0 Bft) S-SW 197 ° 0 min 0,000 mm 0,0 UV-I 0 W/m² 8,9 °C 10,0 °C 0,0 km/h (0 Bft)
27.07.2017 04:39 10,0 °C 10,0 °C 93 % 1012,2 hPa 0,0 mm 0,0 km/h (0 Bft) S-SW 197 ° 0 min 0,000 mm 0,0 UV-I 0 W/m² 8,9 °C 10,0 °C 0,0 km/h (0 Bft)
27.07.2017 04:40 9,9 °C 10,0 °C 93 % 1012,2 hPa 0,0 mm 0,0 km/h (0 Bft) S-SW 197 ° 0 min 0,000 mm 0,0 UV-I 0 W/m² 8,8 °C 9,9 °C 0,0 km/h (0 Bft)
27.07.2017 04:41 9,9 °C 10,0 °C 93 % 1012,2 hPa 0,0 mm 0,0 km/h (0 Bft) S-SW 197 ° 0 min 0,000 mm 0,0 UV-I 0 W/m² 8,8 °C 9,9 °C 0,0 km/h (0 Bft)
27.07.2017 04:42 9,9 °C 9,9 °C 93 % 1012,2 hPa 0,0 mm 0,0 km/h (0 Bft) S-SW 197 ° 0 min 0,000 mm 0,0 UV-I 0 W/m² 8,8 °C 9,9 °C 0,0 km/h (0 Bft)
27.07.2017 04:43 9,8 °C 9,9 °C 93 % 1012,2 hPa 0,0 mm 0,0 km/h (0 Bft) S-SW 197 ° 0 min 0,000 mm 0,0 UV-I 0 W/m² 8,7 °C 9,8 °C 0,0 km/h (0 Bft)
27.07.2017 04:44 9,8 °C 9,8 °C 93 % 1012,3 hPa 0,0 mm 0,0 km/h (0 Bft) S-SW 197 ° 0 min 0,000 mm 0,0 UV-I 0 W/m² 8,7 °C 9,8 °C 0,0 km/h (0 Bft)
27.07.2017 04:45 9,8 °C 9,8 °C 93 % 1012,3 hPa 0,0 mm 0,0 km/h (0 Bft) S-SW 197 ° 0 min 0,000 mm 0,0 UV-I 0 W/m² 8,7 °C 9,8 °C 0,0 km/h (0 Bft)
27.07.2017 04:46 9,8 °C 9,8 °C 94 % 1012,2 hPa 0,0 mm 0,0 km/h (0 Bft) S-SW 197 ° 0 min 0,000 mm 0,0 UV-I 0 W/m² 8,9 °C 9,8 °C 0,0 km/h (0 Bft)
27.07.2017 04:47 9,8 °C 9,8 °C 93 % 1012,2 hPa 0,0 mm 0,0 km/h (0 Bft) S-SW 197 ° 0 min 0,000 mm 0,0 UV-I 0 W/m² 8,7 °C 9,8 °C 0,0 km/h (0 Bft)
27.07.2017 04:48 9,8 °C 9,8 °C 94 % 1012,2 hPa 0,0 mm 0,0 km/h (0 Bft) S-SW 197 ° 0 min 0,000 mm 0,0 UV-I 0 W/m² 8,9 °C 9,8 °C 0,0 km/h (0 Bft)
27.07.2017 04:49 9,8 °C 9,8 °C 94 % 1012,3 hPa 0,0 mm 0,0 km/h (0 Bft) S-SW 197 ° 0 min 0,000 mm 0,0 UV-I 0 W/m² 8,9 °C 9,8 °C 0,0 km/h (0 Bft)
27.07.2017 04:50 9,8 °C 9,8 °C 94 % 1012,3 hPa 0,0 mm 0,0 km/h (0 Bft) S-SW 197 ° 0 min 0,000 mm 0,0 UV-I 0 W/m² 8,9 °C 9,8 °C 0,0 km/h (0 Bft)
27.07.2017 04:51 9,8 °C 9,8 °C 93 % 1012,2 hPa 0,0 mm 0,0 km/h (0 Bft) S-SW 197 ° 0 min 0,000 mm 0,0 UV-I 0 W/m² 8,7 °C 9,8 °C 0,0 km/h (0 Bft)
27.07.2017 04:52 9,7 °C 9,8 °C 93 % 1012,2 hPa 0,0 mm 0,0 km/h (0 Bft) S-SW 197 ° 0 min 0,000 mm 0,0 UV-I 0 W/m² 8,6 °C 9,7 °C 0,0 km/h (0 Bft)
27.07.2017 04:53 9,7 °C 9,7 °C 93 % 1012,2 hPa 0,0 mm 0,0 km/h (0 Bft) S-SW 197 ° 0 min 0,000 mm 0,0 UV-I 0 W/m² 8,6 °C 9,7 °C 0,0 km/h (0 Bft)
27.07.2017 04:54 9,7 °C 9,7 °C 93 % 1012,2 hPa 0,0 mm 0,0 km/h (0 Bft) S-SW 197 ° 0 min 0,000 mm 0,0 UV-I 0 W/m² 8,6 °C 9,7 °C 0,0 km/h (0 Bft)
27.07.2017 04:55 9,7 °C 9,7 °C 93 % 1012,2 hPa 0,0 mm 0,0 km/h (0 Bft) S-SW 197 ° 0 min 0,000 mm 0,0 UV-I 0 W/m² 8,6 °C 9,7 °C 0,0 km/h (0 Bft)
27.07.2017 04:56 9,7 °C 9,7 °C 93 % 1012,2 hPa 0,0 mm 0,0 km/h (0 Bft) S-SW 197 ° 0 min 0,000 mm 0,0 UV-I 0 W/m² 8,6 °C 9,7 °C 0,0 km/h (0 Bft)
27.07.2017 04:57 9,6 °C 9,7 °C 93 % 1012,2 hPa 0,0 mm 0,0 km/h (0 Bft) S-SW 197 ° 0 min 0,000 mm 0,0 UV-I 0 W/m² 8,5 °C 9,6 °C 0,0 km/h (0 Bft)
27.07.2017 04:58 9,6 °C 9,6 °C 93 % 1012,2 hPa 0,0 mm 0,0 km/h (0 Bft) S-SW 197 ° 0 min 0,000 mm 0,0 UV-I 0 W/m² 8,5 °C 9,6 °C 0,0 km/h (0 Bft)
27.07.2017 04:59 9,6 °C 9,6 °C 93 % 1012,2 hPa 0,0 mm 0,0 km/h (0 Bft) S-SW 197 ° 0 min 0,000 mm 0,0 UV-I 0 W/m² 8,5 °C 9,6 °C 0,0 km/h (0 Bft)
27.07.2017 05:00 9,5 °C 9,6 °C 93 % 1012,2 hPa 0,0 mm 0,0 km/h (0 Bft) S-SW 197 ° 0 min 0,000 mm 0,0 UV-I 0 W/m² 8,4 °C 9,5 °C 0,0 km/h (0 Bft)
27.07.2017 05:01 9,4 °C 9,5 °C 93 % 1012,2 hPa 0,0 mm 0,0 km/h (0 Bft) S-SW 197 ° 0 min 0,000 mm 0,0 UV-I 0 W/m² 8,3 °C 9,4 °C 0,0 km/h (0 Bft)
27.07.2017 05:02 9,4 °C 9,4 °C 93 % 1012,2 hPa 0,0 mm 0,0 km/h (0 Bft) S-SW 197 ° 0 min 0,000 mm 0,0 UV-I 0 W/m² 8,3 °C 9,4 °C 0,0 km/h (0 Bft)
27.07.2017 05:03 9,4 °C 9,4 °C 93 % 1012,2 hPa 0,0 mm 0,0 km/h (0 Bft) S-SW 197 ° 0 min 0,000 mm 0,0 UV-I 0 W/m² 8,3 °C 9,4 °C 0,0 km/h (0 Bft)
27.07.2017 05:04 9,4 °C 9,4 °C 93 % 1012,2 hPa 0,0 mm 0,0 km/h (0 Bft) S-SW 197 ° 0 min 0,000 mm 0,0 UV-I 0 W/m² 8,3 °C 9,4 °C 0,0 km/h (0 Bft)
27.07.2017 05:05 9,4 °C 9,4 °C 93 % 1012,2 hPa 0,0 mm 0,0 km/h (0 Bft) S-SW 197 ° 0 min 0,000 mm 0,0 UV-I 0 W/m² 8,3 °C 9,4 °C 0,0 km/h (0 Bft)
27.07.2017 05:06 9,3 °C 9,4 °C 93 % 1012,2 hPa 0,0 mm 0,0 km/h (0 Bft) S-SW 197 ° 0 min 0,000 mm 0,0 UV-I 0 W/m² 8,2 °C 9,3 °C 0,0 km/h (0 Bft)
27.07.2017 05:07 9,3 °C 9,3 °C 93 % 1012,2 hPa 0,0 mm 0,0 km/h (0 Bft) S-SW 197 ° 0 min 0,000 mm 0,0 UV-I 0 W/m² 8,2 °C 9,3 °C 0,0 km/h (0 Bft)
27.07.2017 05:08 9,3 °C 9,3 °C 93 % 1012,2 hPa 0,0 mm 0,0 km/h (0 Bft) S-SW 197 ° 0 min 0,000 mm 0,0 UV-I 0 W/m² 8,2 °C 9,3 °C 0,0 km/h (0 Bft)
27.07.2017 05:09 9,2 °C 9,3 °C 93 % 1012,2 hPa 0,0 mm 0,0 km/h (0 Bft) S-SW 197 ° 0 min 0,000 mm 0,0 UV-I 0 W/m² 8,1 °C 9,2 °C 0,0 km/h (0 Bft)
27.07.2017 05:10 9,2 °C 9,2 °C 93 % 1012,2 hPa 0,0 mm 0,0 km/h (0 Bft) S-SW 197 ° 0 min 0,000 mm 0,0 UV-I 0 W/m² 8,1 °C 9,2 °C 0,0 km/h (0 Bft)
27.07.2017 05:11 9,2 °C 9,2 °C 93 % 1012,2 hPa 0,0 mm 0,0 km/h (0 Bft) S-SW 197 ° 0 min 0,000 mm 0,0 UV-I 0 W/m² 8,1 °C 9,2 °C 0,0 km/h (0 Bft)
27.07.2017 05:12 9,1 °C 9,2 °C 93 % 1012,2 hPa 0,0 mm 0,0 km/h (0 Bft) S-SW 197 ° 0 min 0,000 mm 0,0 UV-I 0 W/m² 8,0 °C 9,1 °C 0,0 km/h (0 Bft)
27.07.2017 05:13 9,1 °C 9,1 °C 93 % 1012,2 hPa 0,0 mm 0,0 km/h (0 Bft) S-SW 197 ° 0 min 0,000 mm 0,0 UV-I 0 W/m² 8,0 °C 9,1 °C 0,0 km/h (0 Bft)
27.07.2017 05:14 9,0 °C 9,1 °C 93 % 1012,2 hPa 0,0 mm 0,0 km/h (0 Bft) S-SW 197 ° 0 min 0,000 mm 0,0 UV-I 0 W/m² 7,9 °C 9,0 °C 0,0 km/h (0 Bft)
27.07.2017 05:15 9,1 °C 9,1 °C 93 % 1012,2 hPa 0,0 mm 0,0 km/h (0 Bft) S-SW 197 ° 0 min 0,000 mm 0,0 UV-I 0 W/m² 8,0 °C 9,1 °C 0,0 km/h (0 Bft)
27.07.2017 05:16 9,1 °C 9,1 °C 94 % 1012,2 hPa 0,0 mm 0,0 km/h (0 Bft) S-SW 197 ° 0 min 0,000 mm 0,0 UV-I 0 W/m² 8,2 °C 9,1 °C 0,0 km/h (0 Bft)
27.07.2017 05:17 8,9 °C 9,1 °C 93 % 1012,2 hPa 0,0 mm 0,0 km/h (0 Bft) S-SW 197 ° 0 min 0,000 mm 0,0 UV-I 0 W/m² 7,8 °C 8,9 °C 0,0 km/h (0 Bft)
27.07.2017 05:18 8,9 °C 9,0 °C 93 % 1012,2 hPa 0,0 mm 0,0 km/h (0 Bft) S-SW 197 ° 0 min 0,000 mm 0,0 UV-I 0 W/m² 7,8 °C 8,9 °C 0,0 km/h (0 Bft)
27.07.2017 05:19 8,8 °C 8,9 °C 93 % 1012,2 hPa 0,0 mm 0,0 km/h (0 Bft) S-SW 197 ° 0 min 0,000 mm 0,0 UV-I 0 W/m² 7,7 °C 8,8 °C 0,0 km/h (0 Bft)
27.07.2017 05:20 8,8 °C 8,9 °C 93 % 1012,2 hPa 0,0 mm 0,0 km/h (0 Bft) S-SW 197 ° 0 min 0,000 mm 0,0 UV-I 0 W/m² 7,7 °C 8,8 °C 0,0 km/h (0 Bft)
27.07.2017 05:21 8,8 °C 8,9 °C 94 % 1012,2 hPa 0,0 mm 0,0 km/h (0 Bft) S-SW 197 ° 0 min 0,000 mm 0,0 UV-I 0 W/m² 7,9 °C 8,8 °C 0,0 km/h (0 Bft)
27.07.2017 05:22 8,8 °C 8,9 °C 94 % 1012,2 hPa 0,0 mm 0,0 km/h (0 Bft) S-SW 197 ° 0 min 0,000 mm 0,0 UV-I 0 W/m² 7,9 °C 8,8 °C 0,0 km/h (0 Bft)
27.07.2017 05:23 8,8 °C 8,8 °C 94 % 1012,2 hPa 0,0 mm 0,0 km/h (0 Bft) S-SW 197 ° 0 min 0,000 mm 0,0 UV-I 0 W/m² 7,9 °C 8,8 °C 0,0 km/h (0 Bft)
27.07.2017 05:24 8,8 °C 8,8 °C 94 % 1012,2 hPa 0,0 mm 0,0 km/h (0 Bft) S-SW 197 ° 0 min 0,000 mm 0,0 UV-I 0 W/m² 7,9 °C 8,8 °C 0,0 km/h (0 Bft)
27.07.2017 05:25 8,8 °C 8,8 °C 94 % 1012,2 hPa 0,0 mm 0,0 km/h (0 Bft) S-SW 197 ° 0 min 0,000 mm 0,0 UV-I 0 W/m² 7,9 °C 8,8 °C 0,0 km/h (0 Bft)
27.07.2017 05:26 8,7 °C 8,8 °C 94 % 1012,2 hPa 0,0 mm 0,0 km/h (0 Bft) S-SW 197 ° 0 min 0,000 mm 0,0 UV-I 0 W/m² 7,8 °C 8,7 °C 0,0 km/h (0 Bft)
27.07.2017 05:27 8,7 °C 8,7 °C 94 % 1012,2 hPa 0,0 mm 0,0 km/h (0 Bft) S-SW 197 ° 0 min 0,000 mm 0,0 UV-I 0 W/m² 7,8 °C 8,7 °C 0,0 km/h (0 Bft)
27.07.2017 05:28 8,7 °C 8,7 °C 94 % 1012,2 hPa 0,0 mm 0,0 km/h (0 Bft) S-SW 197 ° 0 min 0,000 mm 0,0 UV-I 0 W/m² 7,8 °C 8,7 °C 0,0 km/h (0 Bft)
27.07.2017 05:29 8,7 °C 8,7 °C 94 % 1012,3 hPa 0,0 mm 0,0 km/h (0 Bft) S-SW 197 ° 0 min 0,000 mm 0,0 UV-I 0 W/m² 7,8 °C 8,7 °C 0,0 km/h (0 Bft)
27.07.2017 05:30 8,7 °C 8,7 °C 94 % 1012,3 hPa 0,0 mm 0,0 km/h (0 Bft) S-SW 197 ° 0 min 0,000 mm 0,0 UV-I 0 W/m² 7,8 °C 8,7 °C 0,0 km/h (0 Bft)
27.07.2017 05:31 8,6 °C 8,7 °C 94 % 1012,2 hPa 0,0 mm 0,0 km/h (0 Bft) S-SW 197 ° 0 min 0,000 mm 0,0 UV-I 0 W/m² 7,7 °C 8,6 °C 0,0 km/h (0 Bft)
27.07.2017 05:32 8,6 °C 8,6 °C 94 % 1012,2 hPa 0,0 mm 0,0 km/h (0 Bft) S-SW 197 ° 0 min 0,000 mm 0,0 UV-I 0 W/m² 7,7 °C 8,6 °C 0,0 km/h (0 Bft)
27.07.2017 05:33 8,5 °C 8,6 °C 94 % 1012,2 hPa 0,0 mm 0,0 km/h (0 Bft) S-SW 197 ° 0 min 0,000 mm 0,0 UV-I 0 W/m² 7,6 °C 8,5 °C 0,0 km/h (0 Bft)
27.07.2017 05:34 8,4 °C 8,5 °C 94 % 1012,3 hPa 0,0 mm 0,0 km/h (0 Bft) S-SW 197 ° 0 min 0,000 mm 0,0 UV-I 0 W/m² 7,5 °C 8,4 °C 0,0 km/h (0 Bft)
27.07.2017 05:35 8,4 °C 8,4 °C 94 % 1012,3 hPa 0,0 mm 0,0 km/h (0 Bft) S-SW 197 ° 0 min 0,000 mm 0,0 UV-I 0 W/m² 7,5 °C 8,4 °C 0,0 km/h (0 Bft)
27.07.2017 05:36 8,4 °C 8,4 °C 94 % 1012,2 hPa 0,0 mm 0,0 km/h (0 Bft) S-SW 197 ° 0 min 0,000 mm 0,0 UV-I 0 W/m² 7,5 °C 8,4 °C 0,0 km/h (0 Bft)
27.07.2017 05:37 8,4 °C 8,4 °C 94 % 1012,2 hPa 0,0 mm 0,0 km/h (0 Bft) S-SW 197 ° 0 min 0,000 mm 0,0 UV-I 0 W/m² 7,5 °C 8,4 °C 0,0 km/h (0 Bft)
27.07.2017 05:38 8,4 °C 8,4 °C 94 % 1012,3 hPa 0,0 mm 0,0 km/h (0 Bft) S-SW 197 ° 0 min 0,000 mm 0,0 UV-I 0 W/m² 7,5 °C 8,4 °C 0,0 km/h (0 Bft)
27.07.2017 05:39 8,4 °C 8,4 °C 94 % 1012,1 hPa 0,0 mm 0,0 km/h (0 Bft) S-SW 197 ° 0 min 0,000 mm 0,0 UV-I 0 W/m² 7,5 °C 8,4 °C 0,0 km/h (0 Bft)
27.07.2017 05:40 8,6 °C 8,6 °C 95 % 1012,2 hPa 0,0 mm 0,0 km/h (0 Bft) S-SW 197 ° 0 min 0,000 mm 0,0 UV-I 0 W/m² 7,8 °C 8,6 °C 0,0 km/h (0 Bft)
27.07.2017 05:41 8,6 °C 8,6 °C 95 % 1012,2 hPa 0,0 mm 0,0 km/h (0 Bft) S-SW 197 ° 0 min 0,000 mm 0,0 UV-I 0 W/m² 7,8 °C 8,6 °C 0,0 km/h (0 Bft)
27.07.2017 05:42 8,4 °C 8,6 °C 94 % 1012,1 hPa 0,0 mm 0,0 km/h (0 Bft) S-SW 197 ° 0 min 0,000 mm 0,0 UV-I 0 W/m² 7,5 °C 8,4 °C 0,0 km/h (0 Bft)
27.07.2017 05:43 8,4 °C 8,4 °C 94 % 1012,1 hPa 0,0 mm 0,0 km/h (0 Bft) S-SW 197 ° 0 min 0,000 mm 0,0 UV-I 0 W/m² 7,5 °C 8,4 °C 0,0 km/h (0 Bft)
27.07.2017 05:44 8,3 °C 8,4 °C 94 % 1012,1 hPa 0,0 mm 0,0 km/h (0 Bft) S-SW 197 ° 0 min 0,000 mm 0,0 UV-I 0 W/m² 7,4 °C 8,3 °C 0,0 km/h (0 Bft)
27.07.2017 05:45 8,3 °C 8,3 °C 94 % 1012,1 hPa 0,0 mm 0,0 km/h (0 Bft) S-SW 197 ° 0 min 0,000 mm 0,0 UV-I 0 W/m² 7,4 °C 8,3 °C 0,0 km/h (0 Bft)
27.07.2017 05:46 8,2 °C 8,3 °C 94 % 1012,1 hPa 0,0 mm 0,0 km/h (0 Bft) S-SW 197 ° 0 min 0,000 mm 0,0 UV-I 0 W/m² 7,3 °C 8,2 °C 0,0 km/h (0 Bft)
27.07.2017 05:47 8,2 °C 8,2 °C 94 % 1012,1 hPa 0,0 mm 0,0 km/h (0 Bft) S-SW 197 ° 0 min 0,000 mm 0,0 UV-I 0 W/m² 7,3 °C 8,2 °C 0,0 km/h (0 Bft)
27.07.2017 05:48 8,1 °C 8,2 °C 94 % 1012,1 hPa 0,0 mm 0,0 km/h (0 Bft) S-SW 197 ° 0 min 0,000 mm 0,0 UV-I 0 W/m² 7,2 °C 8,1 °C 0,0 km/h (0 Bft)
27.07.2017 05:49 8,1 °C 8,1 °C 94 % 1012,1 hPa 0,0 mm 0,0 km/h (0 Bft) S-SW 197 ° 0 min 0,000 mm 0,0 UV-I 0 W/m² 7,2 °C 8,1 °C 0,0 km/h (0 Bft)
27.07.2017 05:50 8,1 °C 8,1 °C 95 % 1012,1 hPa 0,0 mm 0,0 km/h (0 Bft) S-SW 197 ° 0 min 0,000 mm 0,0 UV-I 0 W/m² 7,3 °C 8,1 °C 0,0 km/h (0 Bft)
27.07.2017 05:51 8,1 °C 8,1 °C 95 % 1012,1 hPa 0,0 mm 0,0 km/h (0 Bft) S-SW 197 ° 0 min 0,000 mm 0,0 UV-I 0 W/m² 7,3 °C 8,1 °C 0,0 km/h (0 Bft)
27.07.2017 05:52 8,1 °C 8,1 °C 95 % 1012,1 hPa 0,0 mm 0,0 km/h (0 Bft) S-SW 197 ° 0 min 0,000 mm 0,0 UV-I 5 W/m² 7,3 °C 8,1 °C 0,0 km/h (0 Bft)
27.07.2017 05:53 8,1 °C 8,1 °C 95 % 1012,1 hPa 0,0 mm 0,0 km/h (0 Bft) S-SW 197 ° 0 min 0,000 mm 0,0 UV-I 5 W/m² 7,3 °C 8,1 °C 0,0 km/h (0 Bft)
27.07.2017 05:54 8,1 °C 8,1 °C 95 % 1012,1 hPa 0,0 mm 0,0 km/h (0 Bft) S-SW 197 ° 0 min 0,000 mm 0,0 UV-I 5 W/m² 7,3 °C 8,1 °C 0,0 km/h (0 Bft)
27.07.2017 05:55 8,1 °C 8,1 °C 95 % 1012,0 hPa 0,0 mm 0,0 km/h (0 Bft) S-SW 197 ° 0 min 0,000 mm 0,0 UV-I 5 W/m² 7,3 °C 8,1 °C 0,0 km/h (0 Bft)
27.07.2017 05:56 8,1 °C 8,1 °C 95 % 1012,0 hPa 0,0 mm 0,0 km/h (0 Bft) S-SW 197 ° 0 min 0,000 mm 0,0 UV-I 5 W/m² 7,3 °C 8,1 °C 0,0 km/h (0 Bft)
27.07.2017 05:57 8,0 °C 8,1 °C 95 % 1012,0 hPa 0,0 mm 0,0 km/h (0 Bft) S-SW 197 ° 0 min 0,000 mm 0,0 UV-I 5 W/m² 7,2 °C 8,0 °C 0,0 km/h (0 Bft)
27.07.2017 05:58 7,9 °C 8,0 °C 95 % 1012,0 hPa 0,0 mm 0,0 km/h (0 Bft) S-SW 197 ° 0 min 0,000 mm 0,0 UV-I 7 W/m² 7,1 °C 7,9 °C 0,0 km/h (0 Bft)
27.07.2017 05:59 7,9 °C 7,9 °C 95 % 1012,0 hPa 0,0 mm 0,0 km/h (0 Bft) S-SW 197 ° 0 min 0,000 mm 0,0 UV-I 7 W/m² 7,1 °C 7,9 °C 0,0 km/h (0 Bft)
27.07.2017 06:00 7,9 °C 7,9 °C 95 % 1012,0 hPa 0,0 mm 0,0 km/h (0 Bft) S-SW 197 ° 0 min 0,000 mm 0,0 UV-I 7 W/m² 7,1 °C 7,9 °C 0,0 km/h (0 Bft)
27.07.2017 06:01 7,8 °C 7,9 °C 95 % 1012,0 hPa 0,0 mm 0,0 km/h (0 Bft) S-SW 197 ° 0 min 0,000 mm 0,0 UV-I 7 W/m² 7,0 °C 7,8 °C 0,0 km/h (0 Bft)
27.07.2017 06:02 7,8 °C 7,8 °C 95 % 1012,1 hPa 0,0 mm 0,0 km/h (0 Bft) S-SW 197 ° 0 min 0,000 mm 0,0 UV-I 9 W/m² 7,0 °C 7,8 °C 0,0 km/h (0 Bft)
27.07.2017 06:03 7,8 °C 7,8 °C 95 % 1012,1 hPa 0,0 mm 0,0 km/h (0 Bft) S-SW 197 ° 0 min 0,000 mm 0,0 UV-I 9 W/m² 7,0 °C 7,8 °C 0,0 km/h (0 Bft)
27.07.2017 06:04 7,7 °C 7,8 °C 95 % 1012,1 hPa 0,0 mm 0,0 km/h (0 Bft) S-SW 197 ° 0 min 0,000 mm 0,0 UV-I 9 W/m² 7,0 °C 7,7 °C 0,0 km/h (0 Bft)
27.07.2017 06:05 7,7 °C 7,7 °C 95 % 1012,1 hPa 0,0 mm 0,0 km/h (0 Bft) S-SW 197 ° 0 min 0,000 mm 0,0 UV-I 9 W/m² 7,0 °C 7,7 °C 0,0 km/h (0 Bft)
27.07.2017 06:06 7,7 °C 7,8 °C 95 % 1012,1 hPa 0,0 mm 0,0 km/h (0 Bft) S-SW 197 ° 0 min 0,000 mm 0,0 UV-I 9 W/m² 7,0 °C 7,7 °C 0,0 km/h (0 Bft)
27.07.2017 06:07 7,7 °C 7,8 °C 95 % 1012,1 hPa 0,0 mm 0,0 km/h (0 Bft) S-SW 197 ° 0 min 0,000 mm 0,0 UV-I 11 W/m² 7,0 °C 7,7 °C 0,0 km/h (0 Bft)
27.07.2017 06:08 7,8 °C 7,8 °C 95 % 1012,1 hPa 0,0 mm 0,0 km/h (0 Bft) S-SW 197 ° 0 min 0,000 mm 0,0 UV-I 11 W/m² 7,0 °C 7,8 °C 0,0 km/h (0 Bft)
27.07.2017 06:09 7,7 °C 7,8 °C 95 % 1012,1 hPa 0,0 mm 0,0 km/h (0 Bft) S-SW 197 ° 0 min 0,000 mm 0,0 UV-I 11 W/m² 7,0 °C 7,7 °C 0,0 km/h (0 Bft)
27.07.2017 06:10 7,8 °C 7,8 °C 95 % 1012,1 hPa 0,0 mm 0,0 km/h (0 Bft) S-SW 197 ° 0 min 0,000 mm 0,0 UV-I 12 W/m² 7,0 °C 7,8 °C 0,0 km/h (0 Bft)
27.07.2017 06:11 7,7 °C 7,8 °C 95 % 1012,1 hPa 0,0 mm 0,0 km/h (0 Bft) S-SW 197 ° 0 min 0,000 mm 0,0 UV-I 14 W/m² 7,0 °C 7,7 °C 0,0 km/h (0 Bft)
27.07.2017 06:12 7,7 °C 7,7 °C 95 % 1012,1 hPa 0,0 mm 0,0 km/h (0 Bft) S-SW 197 ° 0 min 0,000 mm 0,0 UV-I 16 W/m² 7,0 °C 7,7 °C 0,0 km/h (0 Bft)
27.07.2017 06:13 7,7 °C 7,7 °C 95 % 1012,1 hPa 0,0 mm 0,0 km/h (0 Bft) S-SW 197 ° 0 min 0,000 mm 0,0 UV-I 16 W/m² 7,0 °C 7,7 °C 0,0 km/h (0 Bft)
27.07.2017 06:14 7,6 °C 7,7 °C 95 % 1012,1 hPa 0,0 mm 0,0 km/h (0 Bft) S-SW 197 ° 0 min 0,000 mm 0,0 UV-I 16 W/m² 6,9 °C 7,6 °C 0,0 km/h (0 Bft)
27.07.2017 06:15 7,6 °C 7,7 °C 95 % 1012,1 hPa 0,0 mm 0,0 km/h (0 Bft) S-SW 197 ° 0 min 0,000 mm 0,0 UV-I 18 W/m² 6,9 °C 7,6 °C 0,0 km/h (0 Bft)
27.07.2017 06:16 7,6 °C 7,7 °C 95 % 1012,1 hPa 0,0 mm 0,0 km/h (0 Bft) S-SW 197 ° 0 min 0,000 mm 0,0 UV-I 18 W/m² 6,9 °C 7,6 °C 0,0 km/h (0 Bft)
27.07.2017 06:17 7,7 °C 7,7 °C 95 % 1012,1 hPa 0,0 mm 0,0 km/h (0 Bft) S-SW 197 ° 0 min 0,000 mm 0,0 UV-I 18 W/m² 7,0 °C 7,7 °C 0,0 km/h (0 Bft)
27.07.2017 06:18 7,7 °C 7,7 °C 95 % 1012,1 hPa 0,0 mm 0,0 km/h (0 Bft) S-SW 197 ° 0 min 0,000 mm 0,0 UV-I 19 W/m² 7,0 °C 7,7 °C 0,0 km/h (0 Bft)
27.07.2017 06:19 7,7 °C 7,7 °C 95 % 1012,1 hPa 0,0 mm 0,0 km/h (0 Bft) S-SW 197 ° 0 min 0,000 mm 0,0 UV-I 21 W/m² 7,0 °C 7,7 °C 0,0 km/h (0 Bft)
27.07.2017 06:20 7,8 °C 7,8 °C 95 % 1012,1 hPa 0,0 mm 0,0 km/h (0 Bft) S-SW 197 ° 0 min 0,000 mm 0,0 UV-I 23 W/m² 7,0 °C 7,8 °C 0,0 km/h (0 Bft)
27.07.2017 06:21 7,8 °C 7,8 °C 95 % 1012,0 hPa 0,0 mm 0,0 km/h (0 Bft) S-SW 197 ° 0 min 0,000 mm 0,0 UV-I 25 W/m² 7,0 °C 7,8 °C 0,0 km/h (0 Bft)
27.07.2017 06:22 7,8 °C 7,8 °C 96 % 1012,0 hPa 0,0 mm 0,0 km/h (0 Bft) S-SW 197 ° 0 min 0,000 mm 0,0 UV-I 28 W/m² 7,2 °C 7,8 °C 0,0 km/h (0 Bft)
27.07.2017 06:23 7,8 °C 7,9 °C 96 % 1012,0 hPa 0,0 mm 0,0 km/h (0 Bft) S-SW 197 ° 0 min 0,000 mm 0,0 UV-I 28 W/m² 7,2 °C 7,8 °C 0,0 km/h (0 Bft)
27.07.2017 06:24 7,9 °C 7,9 °C 96 % 1012,0 hPa 0,0 mm 0,0 km/h (0 Bft) S-SW 197 ° 0 min 0,000 mm 0,0 UV-I 28 W/m² 7,3 °C 7,9 °C 0,0 km/h (0 Bft)
27.07.2017 06:25 7,9 °C 7,9 °C 96 % 1012,0 hPa 0,0 mm 0,0 km/h (0 Bft) S-SW 197 ° 0 min 0,000 mm 0,0 UV-I 23 W/m² 7,3 °C 7,9 °C 0,0 km/h (0 Bft)
27.07.2017 06:26 7,9 °C 7,9 °C 96 % 1012,1 hPa 0,0 mm 0,0 km/h (0 Bft) S-SW 197 ° 0 min 0,000 mm 0,0 UV-I 23 W/m² 7,3 °C 7,9 °C 0,0 km/h (0 Bft)
27.07.2017 06:27 7,9 °C 8,0 °C 96 % 1012,1 hPa 0,0 mm 0,0 km/h (0 Bft) S-SW 197 ° 0 min 0,000 mm 0,0 UV-I 25 W/m² 7,3 °C 7,9 °C 0,0 km/h (0 Bft)
27.07.2017 06:28 8,0 °C 8,0 °C 96 % 1012,1 hPa 0,0 mm 0,0 km/h (0 Bft) S-SW 197 ° 0 min 0,000 mm 0,0 UV-I 25 W/m² 7,4 °C 8,0 °C 0,0 km/h (0 Bft)
27.07.2017 06:29 8,0 °C 8,0 °C 96 % 1012,1 hPa 0,0 mm 0,0 km/h (0 Bft) S-SW 197 ° 0 min 0,000 mm 0,0 UV-I 25 W/m² 7,4 °C 8,0 °C 0,0 km/h (0 Bft)
27.07.2017 06:30 8,0 °C 8,1 °C 96 % 1012,1 hPa 0,0 mm 0,0 km/h (0 Bft) S-SW 197 ° 0 min 0,000 mm 0,0 UV-I 25 W/m² 7,4 °C 8,0 °C 0,0 km/h (0 Bft)
27.07.2017 06:31 8,0 °C 8,1 °C 96 % 1012,1 hPa 0,0 mm 0,0 km/h (0 Bft) S-SW 197 ° 0 min 0,000 mm 0,0 UV-I 25 W/m² 7,4 °C 8,0 °C 0,0 km/h (0 Bft)
27.07.2017 06:32 8,1 °C 8,1 °C 96 % 1012,1 hPa 0,0 mm 0,0 km/h (0 Bft) S-SW 197 ° 0 min 0,000 mm 0,0 UV-I 25 W/m² 7,5 °C 8,1 °C 0,0 km/h (0 Bft)
27.07.2017 06:33 8,1 °C 8,1 °C 96 % 1012,1 hPa 0,0 mm 0,0 km/h (0 Bft) S-SW 197 ° 0 min 0,000 mm 0,0 UV-I 25 W/m² 7,5 °C 8,1 °C 0,0 km/h (0 Bft)
27.07.2017 06:34 8,1 °C 8,1 °C 96 % 1012,1 hPa 0,0 mm 0,0 km/h (0 Bft) S-SW 197 ° 0 min 0,000 mm 0,0 UV-I 25 W/m² 7,5 °C 8,1 °C 0,0 km/h (0 Bft)
27.07.2017 06:35 8,1 °C 8,1 °C 96 % 1012,1 hPa 0,0 mm 0,0 km/h (0 Bft) S-SW 197 ° 0 min 0,000 mm 0,0 UV-I 26 W/m² 7,5 °C 8,1 °C 0,0 km/h (0 Bft)
27.07.2017 06:36 8,2 °C 8,2 °C 96 % 1012,1 hPa 0,0 mm 0,0 km/h (0 Bft) S-SW 197 ° 0 min 0,000 mm 0,0 UV-I 26 W/m² 7,6 °C 8,2 °C 0,0 km/h (0 Bft)
27.07.2017 06:37 8,3 °C 8,3 °C 96 % 1012,1 hPa 0,0 mm 0,0 km/h (0 Bft) S-SW 197 ° 0 min 0,000 mm 0,0 UV-I 28 W/m² 7,7 °C 8,3 °C 0,0 km/h (0 Bft)
27.07.2017 06:38 8,3 °C 8,3 °C 96 % 1012,1 hPa 0,0 mm 0,0 km/h (0 Bft) S-SW 197 ° 0 min 0,000 mm 0,0 UV-I 33 W/m² 7,7 °C 8,3 °C 0,0 km/h (0 Bft)
27.07.2017 06:39 8,4 °C 8,4 °C 96 % 1012,1 hPa 0,0 mm 0,0 km/h (0 Bft) S-SW 197 ° 0 min 0,000 mm 0,0 UV-I 42 W/m² 7,8 °C 8,4 °C 0,0 km/h (0 Bft)
27.07.2017 06:40 8,4 °C 8,4 °C 96 % 1012,1 hPa 0,0 mm 0,0 km/h (0 Bft) S-SW 197 ° 0 min 0,000 mm 0,0 UV-I 49 W/m² 7,8 °C 8,4 °C 0,0 km/h (0 Bft)
27.07.2017 06:41 8,6 °C 8,6 °C 96 % 1012,0 hPa 0,0 mm 0,0 km/h (0 Bft) S-SW 197 ° 0 min 0,000 mm 0,0 UV-I 56 W/m² 8,0 °C 8,6 °C 0,0 km/h (0 Bft)
27.07.2017 06:42 8,6 °C 8,6 °C 96 % 1012,1 hPa 0,0 mm 0,0 km/h (0 Bft) S-SW 197 ° 0 min 0,000 mm 0,0 UV-I 63 W/m² 8,0 °C 8,6 °C 0,0 km/h (0 Bft)
27.07.2017 06:43 8,7 °C 8,7 °C 96 % 1012,1 hPa 0,0 mm 0,0 km/h (0 Bft) S-SW 197 ° 0 min 0,000 mm 0,0 UV-I 69 W/m² 8,1 °C 8,7 °C 0,0 km/h (0 Bft)
27.07.2017 06:44 8,7 °C 8,7 °C 96 % 1012,2 hPa 0,0 mm 0,0 km/h (0 Bft) S-SW 197 ° 0 min 0,000 mm 0,0 UV-I 70 W/m² 8,1 °C 8,7 °C 0,0 km/h (0 Bft)
27.07.2017 06:45 8,7 °C 8,7 °C 96 % 1012,2 hPa 0,0 mm 0,0 km/h (0 Bft) S-SW 197 ° 0 min 0,000 mm 0,0 UV-I 72 W/m² 8,1 °C 8,7 °C 0,0 km/h (0 Bft)
27.07.2017 06:46 8,7 °C 8,7 °C 96 % 1012,2 hPa 0,0 mm 0,0 km/h (0 Bft) S-SW 197 ° 0 min 0,000 mm 0,0 UV-I 76 W/m² 8,1 °C 8,7 °C 0,0 km/h (0 Bft)
27.07.2017 06:47 8,8 °C 8,8 °C 96 % 1012,2 hPa 0,0 mm 0,0 km/h (0 Bft) S-SW 197 ° 0 min 0,000 mm 0,0 UV-I 77 W/m² 8,2 °C 8,8 °C 0,0 km/h (0 Bft)
27.07.2017 06:48 8,8 °C 8,8 °C 96 % 1012,2 hPa 0,0 mm 0,0 km/h (0 Bft) S-SW 197 ° 0 min 0,000 mm 0,0 UV-I 81 W/m² 8,2 °C 8,8 °C 0,0 km/h (0 Bft)
27.07.2017 06:49 8,8 °C 8,8 °C 96 % 1012,2 hPa 0,0 mm 0,0 km/h (0 Bft) S-SW 197 ° 0 min 0,000 mm 0,0 UV-I 83 W/m² 8,2 °C 8,8 °C 0,0 km/h (0 Bft)
27.07.2017 06:50 8,9 °C 8,9 °C 96 % 1012,1 hPa 0,0 mm 0,0 km/h (0 Bft) S-SW 197 ° 0 min 0,000 mm 0,0 UV-I 83 W/m² 8,3 °C 8,9 °C 0,0 km/h (0 Bft)
27.07.2017 06:51 8,9 °C 8,9 °C 96 % 1012,1 hPa 0,0 mm 0,0 km/h (0 Bft) S-SW 197 ° 0 min 0,000 mm 0,0 UV-I 86 W/m² 8,3 °C 8,9 °C 0,0 km/h (0 Bft)
27.07.2017 06:52 9,0 °C 9,0 °C 96 % 1012,1 hPa 0,0 mm 0,0 km/h (0 Bft) S-SW 197 ° 0 min 0,000 mm 0,0 UV-I 88 W/m² 8,4 °C 9,0 °C 0,0 km/h (0 Bft)
27.07.2017 06:53 9,1 °C 9,1 °C 96 % 1012,1 hPa 0,0 mm 0,0 km/h (0 Bft) S-SW 197 ° 0 min 0,000 mm 0,0 UV-I 90 W/m² 8,5 °C 9,1 °C 0,0 km/h (0 Bft)
27.07.2017 06:54 9,1 °C 9,1 °C 96 % 1012,2 hPa 0,0 mm 0,0 km/h (0 Bft) S-SW 197 ° 0 min 0,000 mm 0,0 UV-I 90 W/m² 8,5 °C 9,1 °C 0,0 km/h (0 Bft)
27.07.2017 06:55 9,1 °C 9,2 °C 96 % 1012,2 hPa 0,0 mm 0,0 km/h (0 Bft) S-SW 197 ° 0 min 0,000 mm 0,0 UV-I 91 W/m² 8,5 °C 9,1 °C 0,0 km/h (0 Bft)
27.07.2017 06:56 9,1 °C 9,2 °C 96 % 1012,1 hPa 0,0 mm 0,0 km/h (0 Bft) S-SW 197 ° 0 min 0,000 mm 0,0 UV-I 90 W/m² 8,5 °C 9,1 °C 0,0 km/h (0 Bft)
27.07.2017 06:57 9,2 °C 9,2 °C 96 % 1012,1 hPa 0,0 mm 0,0 km/h (0 Bft) S-SW 197 ° 0 min 0,000 mm 0,0 UV-I 86 W/m² 8,6 °C 9,2 °C 0,0 km/h (0 Bft)
27.07.2017 06:58 9,2 °C 9,2 °C 96 % 1012,2 hPa 0,0 mm 0,0 km/h (0 Bft) S-SW 197 ° 0 min 0,000 mm 0,0 UV-I 83 W/m² 8,6 °C 9,2 °C 0,0 km/h (0 Bft)
27.07.2017 06:59 9,2 °C 9,2 °C 96 % 1012,2 hPa 0,0 mm 0,0 km/h (0 Bft) S-SW 197 ° 0 min 0,000 mm 0,0 UV-I 83 W/m² 8,6 °C 9,2 °C 0,0 km/h (0 Bft)
27.07.2017 07:00 9,3 °C 9,3 °C 96 % 1012,2 hPa 0,0 mm 0,0 km/h (0 Bft) S-SW 197 ° 0 min 0,000 mm 0,0 UV-I 90 W/m² 8,7 °C 9,3 °C 0,0 km/h (0 Bft)
27.07.2017 07:01 9,3 °C 9,3 °C 96 % 1012,2 hPa 0,0 mm 0,0 km/h (0 Bft) S-SW 197 ° 0 min 0,025 mm 0,0 UV-I 100 W/m² 8,7 °C 9,3 °C 0,0 km/h (0 Bft)
27.07.2017 07:02 9,3 °C 9,3 °C 96 % 1012,2 hPa 0,0 mm 0,0 km/h (0 Bft) S-SW 197 ° 0 min 0,000 mm 0,0 UV-I 102 W/m² 8,7 °C 9,3 °C 0,0 km/h (0 Bft)
27.07.2017 07:03 9,3 °C 9,3 °C 96 % 1012,2 hPa 0,0 mm 0,0 km/h (0 Bft) S-SW 197 ° 0 min 0,000 mm 0,0 UV-I 105 W/m² 8,7 °C 9,3 °C 0,0 km/h (0 Bft)
27.07.2017 07:04 9,4 °C 9,4 °C 96 % 1012,2 hPa 0,0 mm 0,0 km/h (0 Bft) S-SW 197 ° 0 min 0,000 mm 0,5 UV-I 107 W/m² 8,8 °C 9,4 °C 0,0 km/h (0 Bft)
27.07.2017 07:05 9,4 °C 9,4 °C 96 % 1012,2 hPa 0,0 mm 0,0 km/h (0 Bft) S-SW 197 ° 0 min 0,000 mm 0,5 UV-I 111 W/m² 8,8 °C 9,4 °C 0,0 km/h (0 Bft)
27.07.2017 07:06 9,4 °C 9,4 °C 96 % 1012,2 hPa 0,0 mm 0,0 km/h (0 Bft) S-SW 197 ° 0 min 0,000 mm 0,5 UV-I 120 W/m² 8,8 °C 9,4 °C 0,0 km/h (0 Bft)
27.07.2017 07:07 9,5 °C 9,5 °C 96 % 1012,2 hPa 0,0 mm 0,0 km/h (0 Bft) S-SW 197 ° 0 min 0,000 mm 0,5 UV-I 127 W/m² 8,9 °C 9,5 °C 0,0 km/h (0 Bft)
27.07.2017 07:08 9,6 °C 9,6 °C 96 % 1012,2 hPa 0,0 mm 0,0 km/h (0 Bft) S-SW 197 ° 0 min 0,000 mm 0,5 UV-I 134 W/m² 9,0 °C 9,6 °C 0,0 km/h (0 Bft)
27.07.2017 07:09 9,7 °C 9,7 °C 96 % 1012,2 hPa 0,0 mm 0,0 km/h (0 Bft) S-SW 197 ° 0 min 0,000 mm 0,5 UV-I 141 W/m² 9,1 °C 9,7 °C 0,0 km/h (0 Bft)
27.07.2017 07:10 9,7 °C 9,7 °C 96 % 1012,2 hPa 0,0 mm 0,0 km/h (0 Bft) S-SW 197 ° 0 min 0,000 mm 0,6 UV-I 149 W/m² 9,1 °C 9,7 °C 0,0 km/h (0 Bft)
27.07.2017 07:11 9,7 °C 9,8 °C 96 % 1012,2 hPa 0,0 mm 0,0 km/h (0 Bft) S-SW 197 ° 0 min 0,000 mm 0,6 UV-I 156 W/m² 9,1 °C 9,7 °C 0,0 km/h (0 Bft)
27.07.2017 07:12 9,8 °C 9,8 °C 95 % 1012,2 hPa 0,0 mm 0,0 km/h (0 Bft) S-SW 197 ° 0 min 0,000 mm 0,6 UV-I 174 W/m² 9,0 °C 9,8 °C 0,0 km/h (0 Bft)
27.07.2017 07:13 9,9 °C 9,9 °C 96 % 1012,2 hPa 0,0 mm 0,0 km/h (0 Bft) S-SW 197 ° 0 min 0,000 mm 0,6 UV-I 181 W/m² 9,3 °C 9,9 °C 0,0 km/h (0 Bft)
27.07.2017 07:14 10,0 °C 10,0 °C 96 % 1012,2 hPa 0,0 mm 0,0 km/h (0 Bft) S-SW 197 ° 0 min 0,000 mm 0,6 UV-I 185 W/m² 9,4 °C 10,0 °C 0,0 km/h (0 Bft)
27.07.2017 07:15 10,1 °C 10,1 °C 96 % 1012,2 hPa 0,0 mm 0,0 km/h (0 Bft) S-SW 197 ° 0 min 0,000 mm 0,6 UV-I 123 W/m² 9,5 °C 10,1 °C 0,0 km/h (0 Bft)
27.07.2017 07:16 10,2 °C 10,2 °C 95 % 1012,2 hPa 0,0 mm 0,0 km/h (0 Bft) S-SW 197 ° 0 min 0,000 mm 0,6 UV-I 199 W/m² 9,4 °C 10,2 °C 0,0 km/h (0 Bft)
27.07.2017 07:17 10,3 °C 10,3 °C 95 % 1012,1 hPa 0,0 mm 0,0 km/h (0 Bft) S-SW 197 ° 0 min 0,000 mm 0,6 UV-I 206 W/m² 9,5 °C 10,3 °C 0,0 km/h (0 Bft)
27.07.2017 07:18 10,4 °C 10,4 °C 95 % 1012,1 hPa 0,0 mm 0,0 km/h (0 Bft) S-SW 197 ° 0 min 0,000 mm 0,7 UV-I 213 W/m² 9,6 °C 10,4 °C 0,0 km/h (0 Bft)
27.07.2017 07:19 10,6 °C 10,6 °C 95 % 1012,1 hPa 0,0 mm 0,0 km/h (0 Bft) S-SW 197 ° 0 min 0,000 mm 0,6 UV-I 206 W/m² 9,8 °C 10,6 °C 0,0 km/h (0 Bft)
27.07.2017 07:20 10,7 °C 10,7 °C 94 % 1012,1 hPa 0,0 mm 0,0 km/h (0 Bft) S-SW 197 ° 0 min 0,000 mm 0,6 UV-I 206 W/m² 9,8 °C 10,7 °C 0,0 km/h (0 Bft)
27.07.2017 07:21 10,7 °C 10,8 °C 94 % 1012,2 hPa 0,0 mm 0,0 km/h (0 Bft) S-SW 197 ° 0 min 0,000 mm 0,6 UV-I 104 W/m² 9,8 °C 10,7 °C 0,0 km/h (0 Bft)
27.07.2017 07:22 10,8 °C 10,8 °C 93 % 1012,2 hPa 0,0 mm 0,0 km/h (0 Bft) S-SW 197 ° 0 min 0,000 mm 0,6 UV-I 121 W/m² 9,7 °C 10,8 °C 0,0 km/h (0 Bft)
27.07.2017 07:23 10,9 °C 10,9 °C 93 % 1012,1 hPa 0,0 mm 0,0 km/h (0 Bft) S-SW 197 ° 0 min 0,000 mm 0,7 UV-I 171 W/m² 9,8 °C 10,9 °C 0,0 km/h (0 Bft)
27.07.2017 07:24 10,9 °C 10,9 °C 93 % 1012,1 hPa 0,0 mm 0,0 km/h (0 Bft) S-SW 197 ° 0 min 0,000 mm 0,7 UV-I 178 W/m² 9,8 °C 10,9 °C 0,0 km/h (0 Bft)
27.07.2017 07:25 10,9 °C 10,9 °C 92 % 1012,1 hPa 0,0 mm 0,0 km/h (0 Bft) S-SW 197 ° 0 min 0,000 mm 0,6 UV-I 156 W/m² 9,7 °C 10,9 °C 0,0 km/h (0 Bft)
27.07.2017 07:26 11,1 °C 11,1 °C 92 % 1012,1 hPa 0,0 mm 0,0 km/h (0 Bft) S-SW 197 ° 0 min 0,000 mm 0,6 UV-I 98 W/m² 9,8 °C 11,1 °C 0,0 km/h (0 Bft)
27.07.2017 07:27 11,1 °C 11,1 °C 93 % 1012,1 hPa 0,0 mm 0,0 km/h (0 Bft) S-SW 197 ° 0 min 0,000 mm 0,7 UV-I 102 W/m² 10,0 °C 11,1 °C 0,0 km/h (0 Bft)
27.07.2017 07:28 11,1 °C 11,1 °C 93 % 1012,1 hPa 0,0 mm 0,0 km/h (0 Bft) S-SW 197 ° 0 min 0,000 mm 0,7 UV-I 109 W/m² 10,0 °C 11,1 °C 0,0 km/h (0 Bft)
27.07.2017 07:29 11,1 °C 11,1 °C 93 % 1012,1 hPa 0,0 mm 0,0 km/h (0 Bft) S-SW 197 ° 0 min 0,000 mm 0,7 UV-I 114 W/m² 10,0 °C 11,1 °C 0,0 km/h (0 Bft)
27.07.2017 07:30 11,1 °C 11,1 °C 92 % 1012,2 hPa 0,0 mm 0,0 km/h (0 Bft) S-SW 197 ° 0 min 0,000 mm 0,7 UV-I 121 W/m² 9,8 °C 11,1 °C 0,0 km/h (0 Bft)
27.07.2017 07:31 11,1 °C 11,1 °C 93 % 1012,1 hPa 0,0 mm 0,0 km/h (0 Bft) S-SW 197 ° 0 min 0,000 mm 0,8 UV-I 158 W/m² 10,0 °C 11,1 °C 0,0 km/h (0 Bft)
27.07.2017 07:32 11,1 °C 11,2 °C 93 % 1012,2 hPa 0,0 mm 0,0 km/h (0 Bft) S-SW 197 ° 0 min 0,000 mm 0,8 UV-I 174 W/m² 10,0 °C 11,1 °C 0,0 km/h (0 Bft)
27.07.2017 07:33 11,2 °C 11,2 °C 92 % 1012,1 hPa 0,0 mm 0,0 km/h (0 Bft) S-SW 197 ° 0 min 0,000 mm 0,8 UV-I 192 W/m² 9,9 °C 11,2 °C 0,0 km/h (0 Bft)
27.07.2017 07:34 11,2 °C 11,2 °C 92 % 1012,1 hPa 0,0 mm 0,0 km/h (0 Bft) S-SW 197 ° 0 min 0,000 mm 0,8 UV-I 183 W/m² 9,9 °C 11,2 °C 0,0 km/h (0 Bft)
27.07.2017 07:35 11,3 °C 11,3 °C 93 % 1012,1 hPa 0,0 mm 0,0 km/h (0 Bft) S-SW 197 ° 0 min 0,000 mm 0,8 UV-I 169 W/m² 10,2 °C 11,3 °C 0,0 km/h (0 Bft)
27.07.2017 07:36 11,4 °C 11,4 °C 93 % 1012,1 hPa 0,0 mm 0,0 km/h (0 Bft) S-SW 197 ° 0 min 0,000 mm 0,9 UV-I 183 W/m² 10,3 °C 11,4 °C 0,0 km/h (0 Bft)
27.07.2017 07:37 11,5 °C 11,5 °C 93 % 1012,1 hPa 0,0 mm 0,0 km/h (0 Bft) S-SW 197 ° 0 min 0,000 mm 0,9 UV-I 169 W/m² 10,4 °C 11,5 °C 0,0 km/h (0 Bft)
27.07.2017 07:38 11,6 °C 11,6 °C 92 % 1012,1 hPa 0,0 mm 0,0 km/h (0 Bft) S-SW 197 ° 0 min 0,000 mm 0,9 UV-I 176 W/m² 10,3 °C 11,6 °C 0,0 km/h (0 Bft)
27.07.2017 07:39 11,6 °C 11,6 °C 91 % 1012,1 hPa 0,0 mm 0,0 km/h (0 Bft) S-SW 197 ° 0 min 0,000 mm 0,9 UV-I 178 W/m² 10,2 °C 11,6 °C 0,0 km/h (0 Bft)
27.07.2017 07:40 11,7 °C 11,7 °C 90 % 1012,0 hPa 0,0 mm 0,0 km/h (0 Bft) S-SW 197 ° 0 min 0,000 mm 0,9 UV-I 179 W/m² 10,1 °C 11,7 °C 0,0 km/h (0 Bft)
27.07.2017 07:41 11,7 °C 11,7 °C 91 % 1012,1 hPa 0,0 mm 0,0 km/h (0 Bft) S-SW 197 ° 0 min 0,000 mm 1,0 UV-I 209 W/m² 10,3 °C 11,7 °C 0,0 km/h (0 Bft)
27.07.2017 07:42 11,8 °C 11,8 °C 91 % 1012,1 hPa 0,0 mm 0,0 km/h (0 Bft) S-SW 197 ° 0 min 0,000 mm 1,0 UV-I 213 W/m² 10,4 °C 11,8 °C 0,0 km/h (0 Bft)
27.07.2017 07:43 11,9 °C 11,9 °C 92 % 1012,1 hPa 0,0 mm 0,0 km/h (0 Bft) S-SW 197 ° 0 min 0,000 mm 1,0 UV-I 213 W/m² 10,6 °C 11,9 °C 0,0 km/h (0 Bft)
27.07.2017 07:44 11,9 °C 11,9 °C 92 % 1012,0 hPa 0,0 mm 0,3 km/h (0 Bft) S-SO 151 ° 0 min 0,000 mm 0,9 UV-I 193 W/m² 10,6 °C 11,9 °C 1,6 km/h (1 Bft)
27.07.2017 07:45 11,9 °C 11,9 °C 91 % 1012,0 hPa 0,0 mm 0,2 km/h (0 Bft) S-SO 151 ° 0 min 0,000 mm 0,9 UV-I 193 W/m² 10,5 °C 11,9 °C 1,6 km/h (1 Bft)
27.07.2017 07:46 12,0 °C 12,0 °C 92 % 1012,0 hPa 0,0 mm 0,0 km/h (0 Bft) S-SO 151 ° 0 min 0,000 mm 0,9 UV-I 174 W/m² 10,7 °C 12,0 °C 0,0 km/h (0 Bft)
27.07.2017 07:47 12,1 °C 12,1 °C 92 % 1012,0 hPa 0,0 mm 0,0 km/h (0 Bft) S-SO 151 ° 0 min 0,000 mm 1,0 UV-I 174 W/m² 10,8 °C 12,1 °C 0,0 km/h (0 Bft)
27.07.2017 07:48 12,1 °C 12,1 °C 90 % 1012,0 hPa 0,0 mm 0,0 km/h (0 Bft) S-SO 151 ° 0 min 0,000 mm 0,9 UV-I 171 W/m² 10,5 °C 12,1 °C 0,0 km/h (0 Bft)
27.07.2017 07:49 12,1 °C 12,1 °C 89 % 1012,0 hPa 0,0 mm 0,0 km/h (0 Bft) S-SO 151 ° 0 min 0,000 mm 0,9 UV-I 171 W/m² 10,3 °C 12,1 °C 0,0 km/h (0 Bft)
27.07.2017 07:50 12,2 °C 12,2 °C 90 % 1011,9 hPa 0,0 mm 0,6 km/h (0 Bft) SW 236 ° 0 min 0,000 mm 0,9 UV-I 165 W/m² 10,6 °C 12,2 °C 3,2 km/h (1 Bft)
27.07.2017 07:51 12,3 °C 12,3 °C 88 % 1011,9 hPa 0,0 mm 2,1 km/h (1 Bft) W-SW 238 ° 0 min 0,000 mm 1,0 UV-I 171 W/m² 10,4 °C 12,3 °C 4,8 km/h (1 Bft)
27.07.2017 07:52 12,4 °C 12,4 °C 88 % 1011,9 hPa 0,0 mm 0,5 km/h (0 Bft) W-SW 237 ° 0 min 0,000 mm 1,0 UV-I 171 W/m² 10,5 °C 12,4 °C 3,2 km/h (1 Bft)
27.07.2017 07:53 12,4 °C 12,4 °C 88 % 1011,9 hPa 0,0 mm 0,0 km/h (0 Bft) W-SW 237 ° 0 min 0,000 mm 1,0 UV-I 162 W/m² 10,5 °C 12,4 °C 0,0 km/h (0 Bft)
27.07.2017 07:54 12,4 °C 12,4 °C 89 % 1011,9 hPa 0,0 mm 0,0 km/h (0 Bft) W-SW 237 ° 0 min 0,000 mm 1,0 UV-I 160 W/m² 10,6 °C 12,4 °C 0,0 km/h (0 Bft)
27.07.2017 07:55 12,4 °C 12,4 °C 90 % 1011,9 hPa 0,0 mm 0,0 km/h (0 Bft) W-SW 237 ° 0 min 0,000 mm 1,0 UV-I 158 W/m² 10,8 °C 12,4 °C 0,0 km/h (0 Bft)
27.07.2017 07:56 12,4 °C 12,4 °C 90 % 1011,9 hPa 0,0 mm 0,0 km/h (0 Bft) W-SW 237 ° 0 min 0,000 mm 1,0 UV-I 156 W/m² 10,8 °C 12,4 °C 0,0 km/h (0 Bft)
27.07.2017 07:57 12,5 °C 12,5 °C 89 % 1011,9 hPa 0,0 mm 0,0 km/h (0 Bft) W-SW 237 ° 0 min 0,000 mm 1,0 UV-I 155 W/m² 10,7 °C 12,5 °C 0,0 km/h (0 Bft)
27.07.2017 07:58 12,6 °C 12,6 °C 90 % 1011,9 hPa 0,0 mm 0,3 km/h (0 Bft) W-SW 237 ° 0 min 0,000 mm 1,0 UV-I 155 W/m² 11,0 °C 12,6 °C 1,6 km/h (1 Bft)
27.07.2017 07:59 12,6 °C 12,6 °C 91 % 1011,8 hPa 0,0 mm 0,0 km/h (0 Bft) W-SW 237 ° 0 min 0,000 mm 1,0 UV-I 151 W/m² 11,2 °C 12,6 °C 0,0 km/h (0 Bft)
27.07.2017 08:00 12,6 °C 12,6 °C 90 % 1011,8 hPa 0,0 mm 0,0 km/h (0 Bft) W-SW 237 ° 0 min 0,000 mm 1,0 UV-I 151 W/m² 11,0 °C 12,6 °C 0,0 km/h (0 Bft)
27.07.2017 08:01 12,4 °C 12,6 °C 89 % 1011,9 hPa 0,0 mm 0,0 km/h (0 Bft) W-SW 237 ° 0 min 0,076 mm 1,0 UV-I 149 W/m² 10,6 °C 12,4 °C 0,0 km/h (0 Bft)
27.07.2017 08:02 12,4 °C 12,4 °C 89 % 1011,8 hPa 0,0 mm 0,0 km/h (0 Bft) W-SW 237 ° 0 min 0,000 mm 1,0 UV-I 153 W/m² 10,6 °C 12,4 °C 0,0 km/h (0 Bft)
27.07.2017 08:03 12,4 °C 12,4 °C 89 % 1011,9 hPa 0,0 mm 0,0 km/h (0 Bft) W-SW 237 ° 0 min 0,000 mm 1,0 UV-I 156 W/m² 10,6 °C 12,4 °C 0,0 km/h (0 Bft)
27.07.2017 08:04 12,4 °C 12,5 °C 90 % 1011,8 hPa 0,0 mm 0,0 km/h (0 Bft) W-SW 237 ° 0 min 0,000 mm 1,0 UV-I 158 W/m² 10,8 °C 12,4 °C 0,0 km/h (0 Bft)
27.07.2017 08:05 12,4 °C 12,4 °C 89 % 1011,8 hPa 0,0 mm 0,0 km/h (0 Bft) W-SW 237 ° 0 min 0,000 mm 1,1 UV-I 179 W/m² 10,6 °C 12,4 °C 0,0 km/h (0 Bft)
27.07.2017 08:06 12,4 °C 12,4 °C 88 % 1011,8 hPa 0,0 mm 0,3 km/h (0 Bft) W-SW 237 ° 0 min 0,000 mm 1,1 UV-I 172 W/m² 10,5 °C 12,4 °C 1,6 km/h (1 Bft)
27.07.2017 08:07 12,4 °C 12,4 °C 90 % 1011,8 hPa 0,0 mm 0,5 km/h (0 Bft) W-SW 237 ° 0 min 0,000 mm 1,2 UV-I 200 W/m² 10,8 °C 12,4 °C 1,6 km/h (1 Bft)
27.07.2017 08:08 12,5 °C 12,5 °C 90 % 1011,8 hPa 0,0 mm 0,7 km/h (0 Bft) W-SW 237 ° 0 min 0,000 mm 1,2 UV-I 202 W/m² 10,9 °C 12,5 °C 3,2 km/h (1 Bft)
27.07.2017 08:09 12,6 °C 12,6 °C 90 % 1011,8 hPa 0,0 mm 0,0 km/h (0 Bft) W-SW 237 ° 0 min 0,000 mm 1,2 UV-I 239 W/m² 11,0 °C 12,6 °C 0,0 km/h (0 Bft)
27.07.2017 08:10 12,7 °C 12,7 °C 90 % 1011,8 hPa 0,0 mm 0,0 km/h (0 Bft) W-SW 237 ° 0 min 0,000 mm 1,1 UV-I 209 W/m² 11,1 °C 12,7 °C 0,0 km/h (0 Bft)
27.07.2017 08:11 12,6 °C 12,7 °C 88 % 1011,8 hPa 0,0 mm 0,0 km/h (0 Bft) W-SW 237 ° 0 min 0,000 mm 1,1 UV-I 190 W/m² 10,7 °C 12,6 °C 0,0 km/h (0 Bft)
27.07.2017 08:12 12,6 °C 12,7 °C 89 % 1011,8 hPa 0,0 mm 0,0 km/h (0 Bft) W-SW 237 ° 0 min 0,000 mm 1,0 UV-I 171 W/m² 10,8 °C 12,6 °C 0,0 km/h (0 Bft)
27.07.2017 08:13 12,7 °C 12,7 °C 89 % 1011,8 hPa 0,0 mm 0,4 km/h (0 Bft) W-SW 237 ° 0 min 0,000 mm 1,0 UV-I 163 W/m² 10,9 °C 12,7 °C 3,2 km/h (1 Bft)
27.07.2017 08:14 12,6 °C 12,7 °C 89 % 1011,8 hPa 0,0 mm 0,8 km/h (0 Bft) W-SW 237 ° 0 min 0,000 mm 1,0 UV-I 160 W/m² 10,8 °C 12,6 °C 3,2 km/h (1 Bft)
27.07.2017 08:15 12,7 °C 12,7 °C 88 % 1011,7 hPa 0,0 mm 0,0 km/h (0 Bft) W-SW 237 ° 0 min 0,000 mm 1,0 UV-I 156 W/m² 10,8 °C 12,7 °C 0,0 km/h (0 Bft)
27.07.2017 08:16 12,8 °C 12,8 °C 89 % 1011,8 hPa 0,0 mm 0,3 km/h (0 Bft) W-SW 237 ° 0 min 0,000 mm 1,0 UV-I 153 W/m² 11,0 °C 12,8 °C 1,6 km/h (1 Bft)
27.07.2017 08:17 12,8 °C 12,8 °C 90 % 1011,8 hPa 0,0 mm 0,0 km/h (0 Bft) W-SW 237 ° 0 min 0,000 mm 1,0 UV-I 158 W/m² 11,2 °C 12,8 °C 0,0 km/h (0 Bft)
27.07.2017 08:18 12,8 °C 12,8 °C 90 % 1011,7 hPa 0,0 mm 1,0 km/h (0 Bft) W 260 ° 0 min 0,000 mm 1,0 UV-I 162 W/m² 11,2 °C 12,8 °C 3,2 km/h (1 Bft)
27.07.2017 08:19 12,8 °C 12,8 °C 90 % 1011,6 hPa 0,0 mm 0,2 km/h (0 Bft) W 260 ° 0 min 0,000 mm 1,0 UV-I 165 W/m² 11,2 °C 12,8 °C 1,6 km/h (1 Bft)
27.07.2017 08:20 12,7 °C 12,8 °C 90 % 1011,6 hPa 0,0 mm 0,0 km/h (0 Bft) W 260 ° 0 min 0,000 mm 1,1 UV-I 171 W/m² 11,1 °C 12,7 °C 0,0 km/h (0 Bft)
27.07.2017 08:21 12,7 °C 12,7 °C 90 % 1011,7 hPa 0,0 mm 0,0 km/h (0 Bft) W 259 ° 0 min 0,000 mm 1,1 UV-I 178 W/m² 11,1 °C 12,7 °C 0,0 km/h (0 Bft)
27.07.2017 08:22 12,7 °C 12,7 °C 90 % 1011,7 hPa 0,0 mm 1,4 km/h (1 Bft) O-NO 74 ° 0 min 0,000 mm 1,1 UV-I 185 W/m² 11,1 °C 12,7 °C 3,2 km/h (1 Bft)
27.07.2017 08:23 12,6 °C 12,7 °C 89 % 1011,7 hPa 0,0 mm 1,2 km/h (1 Bft) O-SO 111 ° 0 min 0,000 mm 1,2 UV-I 200 W/m² 10,8 °C 12,6 °C 4,8 km/h (1 Bft)
27.07.2017 08:24 12,7 °C 12,7 °C 89 % 1011,6 hPa 0,0 mm 0,0 km/h (0 Bft) O-SO 111 ° 0 min 0,000 mm 1,2 UV-I 206 W/m² 10,9 °C 12,7 °C 0,0 km/h (0 Bft)
27.07.2017 08:25 12,7 °C 12,7 °C 88 % 1011,7 hPa 0,0 mm 0,1 km/h (0 Bft) O-SO 111 ° 0 min 0,000 mm 1,2 UV-I 207 W/m² 10,8 °C 12,7 °C 1,6 km/h (1 Bft)
27.07.2017 08:26 12,7 °C 12,7 °C 87 % 1011,7 hPa 0,0 mm 0,0 km/h (0 Bft) O-SO 111 ° 0 min 0,000 mm 1,2 UV-I 206 W/m² 10,6 °C 12,7 °C 0,0 km/h (0 Bft)
27.07.2017 08:27 12,8 °C 12,8 °C 88 % 1011,7 hPa 0,0 mm 0,3 km/h (0 Bft) O-SO 111 ° 0 min 0,000 mm 1,2 UV-I 200 W/m² 10,9 °C 12,8 °C 1,6 km/h (1 Bft)
27.07.2017 08:28 12,8 °C 12,8 °C 88 % 1011,7 hPa 0,0 mm 0,8 km/h (0 Bft) O-SO 111 ° 0 min 0,000 mm 1,2 UV-I 193 W/m² 10,9 °C 12,8 °C 1,6 km/h (1 Bft)
27.07.2017 08:29 12,8 °C 12,8 °C 88 % 1011,7 hPa 0,0 mm 0,0 km/h (0 Bft) O-SO 111 ° 0 min 0,000 mm 1,2 UV-I 188 W/m² 10,9 °C 12,8 °C 0,0 km/h (0 Bft)
27.07.2017 08:30 12,8 °C 12,8 °C 89 % 1011,7 hPa 0,0 mm 0,9 km/h (0 Bft) O-SO 111 ° 0 min 0,000 mm 1,2 UV-I 186 W/m² 11,0 °C 12,8 °C 1,6 km/h (1 Bft)
27.07.2017 08:31 12,9 °C 12,9 °C 90 % 1011,7 hPa 0,0 mm 0,1 km/h (0 Bft) O-SO 111 ° 0 min 0,000 mm 1,2 UV-I 188 W/m² 11,3 °C 12,9 °C 1,6 km/h (1 Bft)
27.07.2017 08:32 12,9 °C 12,9 °C 89 % 1011,6 hPa 0,0 mm 0,7 km/h (0 Bft) O-NO 61 ° 0 min 0,000 mm 1,3 UV-I 192 W/m² 11,1 °C 12,9 °C 1,6 km/h (1 Bft)
27.07.2017 08:33 12,9 °C 12,9 °C 89 % 1011,6 hPa 0,0 mm 0,0 km/h (0 Bft) O-NO 61 ° 0 min 0,000 mm 1,3 UV-I 197 W/m² 11,1 °C 12,9 °C 0,0 km/h (0 Bft)
27.07.2017 08:34 12,9 °C 12,9 °C 89 % 1011,5 hPa 0,0 mm 0,0 km/h (0 Bft) O-NO 61 ° 0 min 0,000 mm 1,3 UV-I 207 W/m² 11,1 °C 12,9 °C 0,0 km/h (0 Bft)
27.07.2017 08:35 12,9 °C 12,9 °C 89 % 1011,6 hPa 0,0 mm 0,0 km/h (0 Bft) O-NO 61 ° 0 min 0,000 mm 1,4 UV-I 216 W/m² 11,1 °C 12,9 °C 0,0 km/h (0 Bft)
27.07.2017 08:36 12,9 °C 12,9 °C 88 % 1011,5 hPa 0,0 mm 0,0 km/h (0 Bft) O-NO 61 ° 0 min 0,000 mm 1,4 UV-I 227 W/m² 11,0 °C 12,9 °C 0,0 km/h (0 Bft)
27.07.2017 08:37 12,9 °C 12,9 °C 89 % 1011,5 hPa 0,0 mm 0,0 km/h (0 Bft) O-NO 61 ° 0 min 0,000 mm 1,4 UV-I 229 W/m² 11,1 °C 12,9 °C 0,0 km/h (0 Bft)
27.07.2017 08:38 13,0 °C 13,0 °C 88 % 1011,5 hPa 0,0 mm 0,0 km/h (0 Bft) O-NO 61 ° 0 min 0,000 mm 1,4 UV-I 225 W/m² 11,1 °C 13,0 °C 0,0 km/h (0 Bft)
27.07.2017 08:39 13,0 °C 13,1 °C 85 % 1011,5 hPa 0,0 mm 0,0 km/h (0 Bft) O-NO 61 ° 0 min 0,000 mm 1,5 UV-I 230 W/m² 10,5 °C 13,0 °C 0,0 km/h (0 Bft)
27.07.2017 08:40 13,1 °C 13,1 °C 88 % 1011,5 hPa 0,0 mm 0,0 km/h (0 Bft) O-NO 61 ° 0 min 0,000 mm 1,5 UV-I 258 W/m² 11,2 °C 13,1 °C 0,0 km/h (0 Bft)
27.07.2017 08:41 13,2 °C 13,2 °C 86 % 1011,5 hPa 0,0 mm 0,2 km/h (0 Bft) O-NO 61 ° 0 min 0,000 mm 1,6 UV-I 269 W/m² 10,9 °C 13,2 °C 1,6 km/h (1 Bft)
27.07.2017 08:42 13,3 °C 13,3 °C 88 % 1011,5 hPa 0,0 mm 1,3 km/h (1 Bft) O 86 ° 0 min 0,000 mm 1,6 UV-I 262 W/m² 11,4 °C 13,3 °C 3,2 km/h (1 Bft)
27.07.2017 08:43 13,3 °C 13,3 °C 89 % 1011,5 hPa 0,0 mm 0,0 km/h (0 Bft) O 86 ° 0 min 0,000 mm 1,6 UV-I 258 W/m² 11,5 °C 13,3 °C 0,0 km/h (0 Bft)
27.07.2017 08:44 13,3 °C 13,3 °C 87 % 1011,5 hPa 0,0 mm 0,0 km/h (0 Bft) O 86 ° 0 min 0,000 mm 1,6 UV-I 264 W/m² 11,2 °C 13,3 °C 0,0 km/h (0 Bft)
27.07.2017 08:45 13,4 °C 13,4 °C 87 % 1011,5 hPa 0,0 mm 0,0 km/h (0 Bft) O 86 ° 0 min 0,000 mm 1,6 UV-I 258 W/m² 11,3 °C 13,4 °C 0,0 km/h (0 Bft)
27.07.2017 08:46 13,4 °C 13,4 °C 88 % 1011,6 hPa 0,0 mm 0,0 km/h (0 Bft) O 86 ° 0 min 0,000 mm 1,7 UV-I 269 W/m² 11,5 °C 13,4 °C 0,0 km/h (0 Bft)
27.07.2017 08:47 13,5 °C 13,5 °C 88 % 1011,6 hPa 0,0 mm 0,0 km/h (0 Bft) O 86 ° 0 min 0,000 mm 1,8 UV-I 274 W/m² 11,6 °C 13,5 °C 0,0 km/h (0 Bft)
27.07.2017 08:48 13,6 °C 13,6 °C 85 % 1011,6 hPa 0,0 mm 0,0 km/h (0 Bft) O 86 ° 0 min 0,000 mm 1,7 UV-I 278 W/m² 11,1 °C 13,6 °C 0,0 km/h (0 Bft)
27.07.2017 08:49 13,7 °C 13,7 °C 88 % 1011,6 hPa 0,0 mm 0,0 km/h (0 Bft) O 86 ° 0 min 0,000 mm 1,6 UV-I 246 W/m² 11,7 °C 13,7 °C 0,0 km/h (0 Bft)
27.07.2017 08:50 13,6 °C 13,7 °C 86 % 1011,6 hPa 0,0 mm 0,6 km/h (0 Bft) O 86 ° 0 min 0,000 mm 1,6 UV-I 232 W/m² 11,3 °C 13,6 °C 1,6 km/h (1 Bft)
27.07.2017 08:51 13,6 °C 13,6 °C 86 % 1011,6 hPa 0,0 mm 0,3 km/h (0 Bft) O 86 ° 0 min 0,000 mm 1,6 UV-I 225 W/m² 11,3 °C 13,6 °C 3,2 km/h (1 Bft)
27.07.2017 08:52 13,7 °C 13,7 °C 88 % 1011,6 hPa 0,0 mm 1,7 km/h (1 Bft) N-NO 19 ° 0 min 0,000 mm 1,6 UV-I 221 W/m² 11,7 °C 13,7 °C 3,2 km/h (1 Bft)
27.07.2017 08:53 13,6 °C 13,7 °C 86 % 1011,6 hPa 0,0 mm 0,6 km/h (0 Bft) N-NO 19 ° 0 min 0,000 mm 1,7 UV-I 236 W/m² 11,3 °C 13,6 °C 1,6 km/h (1 Bft)
27.07.2017 08:54 13,7 °C 13,7 °C 85 % 1011,6 hPa 0,0 mm 0,0 km/h (0 Bft) N-NO 19 ° 0 min 0,000 mm 1,7 UV-I 246 W/m² 11,2 °C 13,7 °C 0,0 km/h (0 Bft)
27.07.2017 08:55 13,8 °C 13,8 °C 87 % 1011,6 hPa 0,0 mm 0,0 km/h (0 Bft) N-NO 19 ° 0 min 0,000 mm 1,7 UV-I 251 W/m² 11,7 °C 13,8 °C 0,0 km/h (0 Bft)
27.07.2017 08:56 13,8 °C 13,8 °C 85 % 1011,6 hPa 0,0 mm 0,0 km/h (0 Bft) N-NO 19 ° 0 min 0,000 mm 1,8 UV-I 264 W/m² 11,3 °C 13,8 °C 0,0 km/h (0 Bft)
27.07.2017 08:57 13,9 °C 13,9 °C 85 % 1011,6 hPa 0,0 mm 0,0 km/h (0 Bft) N-NO 19 ° 0 min 0,000 mm 1,8 UV-I 267 W/m² 11,4 °C 13,9 °C 0,0 km/h (0 Bft)
27.07.2017 08:58 13,9 °C 13,9 °C 87 % 1011,6 hPa 0,0 mm 0,0 km/h (0 Bft) N-NO 19 ° 0 min 0,000 mm 1,7 UV-I 262 W/m² 11,8 °C 13,9 °C 0,0 km/h (0 Bft)
27.07.2017 08:59 13,9 °C 13,9 °C 87 % 1011,6 hPa 0,0 mm 1,5 km/h (1 Bft) N-NO 30 ° 0 min 0,000 mm 1,7 UV-I 265 W/m² 11,8 °C 13,9 °C 3,2 km/h (1 Bft)
27.07.2017 09:00 13,9 °C 13,9 °C 86 % 1011,6 hPa 0,0 mm 1,2 km/h (1 Bft) N-NO 30 ° 0 min 0,000 mm 1,7 UV-I 267 W/m² 11,6 °C 13,9 °C 3,2 km/h (1 Bft)
27.07.2017 09:01 13,8 °C 13,9 °C 86 % 1011,6 hPa 0,0 mm 0,2 km/h (0 Bft) N-NO 30 ° 0 min 0,102 mm 1,7 UV-I 267 W/m² 11,5 °C 13,8 °C 1,6 km/h (1 Bft)
27.07.2017 09:02 13,8 °C 13,8 °C 84 % 1011,6 hPa 0,0 mm 0,0 km/h (0 Bft) N-NO 30 ° 0 min 0,000 mm 1,7 UV-I 265 W/m² 11,1 °C 13,8 °C 0,0 km/h (0 Bft)
27.07.2017 09:03 13,9 °C 13,9 °C 85 % 1011,6 hPa 0,0 mm 0,0 km/h (0 Bft) N-NO 30 ° 0 min 0,000 mm 1,7 UV-I 265 W/m² 11,4 °C 13,9 °C 0,0 km/h (0 Bft)
27.07.2017 09:04 14,0 °C 14,0 °C 85 % 1011,6 hPa 0,0 mm 0,1 km/h (0 Bft) N-NO 30 ° 0 min 0,000 mm 1,7 UV-I 262 W/m² 11,5 °C 14,0 °C 1,6 km/h (1 Bft)
27.07.2017 09:05 14,1 °C 14,1 °C 86 % 1011,7 hPa 0,0 mm 0,1 km/h (0 Bft) N-NO 30 ° 0 min 0,000 mm 1,7 UV-I 262 W/m² 11,8 °C 14,1 °C 1,6 km/h (1 Bft)
27.07.2017 09:06 14,1 °C 14,1 °C 86 % 1011,6 hPa 0,0 mm 0,9 km/h (0 Bft) N-NO 30 ° 0 min 0,000 mm 1,7 UV-I 265 W/m² 11,8 °C 14,1 °C 3,2 km/h (1 Bft)
27.07.2017 09:07 14,2 °C 14,2 °C 85 % 1011,6 hPa 0,0 mm 0,5 km/h (0 Bft) N-NO 29 ° 0 min 0,000 mm 1,8 UV-I 267 W/m² 11,7 °C 14,2 °C 1,6 km/h (1 Bft)
27.07.2017 09:08 14,2 °C 14,2 °C 85 % 1011,6 hPa 0,0 mm 0,7 km/h (0 Bft) N-NO 29 ° 0 min 0,000 mm 1,8 UV-I 269 W/m² 11,7 °C 14,2 °C 1,6 km/h (1 Bft)
27.07.2017 09:09 14,3 °C 14,3 °C 85 % 1011,6 hPa 0,0 mm 0,0 km/h (0 Bft) N-NO 29 ° 0 min 0,000 mm 1,8 UV-I 264 W/m² 11,8 °C 14,3 °C 0,0 km/h (0 Bft)
27.07.2017 09:10 14,3 °C 14,3 °C 84 % 1011,6 hPa 0,0 mm 0,2 km/h (0 Bft) N-NO 29 ° 0 min 0,000 mm 1,7 UV-I 260 W/m² 11,6 °C 14,3 °C 1,6 km/h (1 Bft)
27.07.2017 09:11 14,3 °C 14,3 °C 86 % 1011,7 hPa 0,0 mm 0,2 km/h (0 Bft) N-NO 29 ° 0 min 0,000 mm 1,7 UV-I 255 W/m² 12,0 °C 14,3 °C 1,6 km/h (1 Bft)
27.07.2017 09:12 14,3 °C 14,3 °C 84 % 1011,7 hPa 0,0 mm 0,0 km/h (0 Bft) N-NO 29 ° 0 min 0,000 mm 1,7 UV-I 251 W/m² 11,6 °C 14,3 °C 0,0 km/h (0 Bft)
27.07.2017 09:13 14,3 °C 14,3 °C 85 % 1011,7 hPa 0,0 mm 0,0 km/h (0 Bft) N-NO 29 ° 0 min 0,000 mm 1,8 UV-I 251 W/m² 11,8 °C 14,3 °C 0,0 km/h (0 Bft)
27.07.2017 09:14 14,3 °C 14,4 °C 82 % 1011,7 hPa 0,0 mm 0,0 km/h (0 Bft) N-NO 29 ° 0 min 0,000 mm 1,8 UV-I 255 W/m² 11,3 °C 14,3 °C 0,0 km/h (0 Bft)
27.07.2017 09:15 14,4 °C 14,4 °C 85 % 1011,8 hPa 0,0 mm 0,0 km/h (0 Bft) N-NO 29 ° 0 min 0,000 mm 1,9 UV-I 272 W/m² 11,9 °C 14,4 °C 0,0 km/h (0 Bft)
27.07.2017 09:16 14,4 °C 14,4 °C 85 % 1011,8 hPa 0,0 mm 0,0 km/h (0 Bft) N-NO 29 ° 0 min 0,000 mm 1,9 UV-I 279 W/m² 11,9 °C 14,4 °C 0,0 km/h (0 Bft)
27.07.2017 09:17 14,4 °C 14,4 °C 83 % 1011,7 hPa 0,0 mm 0,0 km/h (0 Bft) N-NO 29 ° 0 min 0,000 mm 1,9 UV-I 281 W/m² 11,5 °C 14,4 °C 0,0 km/h (0 Bft)
27.07.2017 09:18 14,6 °C 14,6 °C 86 % 1011,7 hPa 0,0 mm 0,0 km/h (0 Bft) N-NO 29 ° 0 min 0,000 mm 2,0 UV-I 283 W/m² 12,3 °C 14,6 °C 0,0 km/h (0 Bft)
27.07.2017 09:19 14,6 °C 14,6 °C 84 % 1011,8 hPa 0,0 mm 0,0 km/h (0 Bft) N-NO 29 ° 0 min 0,000 mm 2,0 UV-I 288 W/m² 11,9 °C 14,6 °C 0,0 km/h (0 Bft)
27.07.2017 09:20 14,6 °C 14,6 °C 82 % 1011,8 hPa 0,0 mm 0,0 km/h (0 Bft) N-NO 29 ° 1 min 0,000 mm 2,0 UV-I 294 W/m² 11,6 °C 14,6 °C 0,0 km/h (0 Bft)
27.07.2017 09:21 14,7 °C 14,7 °C 85 % 1011,8 hPa 0,0 mm 0,0 km/h (0 Bft) N-NO 29 ° 1 min 0,000 mm 2,0 UV-I 301 W/m² 12,2 °C 14,7 °C 0,0 km/h (0 Bft)
27.07.2017 09:22 14,8 °C 14,8 °C 84 % 1011,8 hPa 0,0 mm 0,0 km/h (0 Bft) N-NO 29 ° 1 min 0,000 mm 2,0 UV-I 302 W/m² 12,1 °C 14,8 °C 0,0 km/h (0 Bft)
27.07.2017 09:23 14,9 °C 14,9 °C 85 % 1011,8 hPa 0,0 mm 0,7 km/h (0 Bft) NW 310 ° 1 min 0,000 mm 2,0 UV-I 299 W/m² 12,4 °C 14,9 °C 3,2 km/h (1 Bft)
27.07.2017 09:24 15,1 °C 15,1 °C 84 % 1011,8 hPa 0,0 mm 2,1 km/h (1 Bft) NW 310 ° 0 min 0,000 mm 1,9 UV-I 287 W/m² 12,4 °C 15,1 °C 4,8 km/h (1 Bft)
27.07.2017 09:25 15,2 °C 15,2 °C 83 % 1011,8 hPa 0,0 mm 0,5 km/h (0 Bft) NW 310 ° 0 min 0,000 mm 1,8 UV-I 287 W/m² 12,3 °C 15,2 °C 1,6 km/h (1 Bft)
27.07.2017 09:26 15,1 °C 15,2 °C 85 % 1011,8 hPa 0,0 mm 0,0 km/h (0 Bft) NW 310 ° 0 min 0,000 mm 1,8 UV-I 264 W/m² 12,6 °C 15,1 °C 0,0 km/h (0 Bft)
27.07.2017 09:27 15,1 °C 15,1 °C 82 % 1011,8 hPa 0,0 mm 0,0 km/h (0 Bft) NW 310 ° 0 min 0,000 mm 1,8 UV-I 250 W/m² 12,0 °C 15,1 °C 0,0 km/h (0 Bft)
27.07.2017 09:28 15,0 °C 15,1 °C 82 % 1011,8 hPa 0,0 mm 0,0 km/h (0 Bft) NW 310 ° 0 min 0,000 mm 1,7 UV-I 244 W/m² 12,0 °C 15,0 °C 0,0 km/h (0 Bft)
27.07.2017 09:29 15,1 °C 15,1 °C 83 % 1011,8 hPa 0,0 mm 0,0 km/h (0 Bft) NW 310 ° 0 min 0,000 mm 1,7 UV-I 239 W/m² 12,2 °C 15,1 °C 0,0 km/h (0 Bft)
27.07.2017 09:30 15,0 °C 15,1 °C 83 % 1011,8 hPa 0,0 mm 0,0 km/h (0 Bft) NW 310 ° 0 min 0,000 mm 1,6 UV-I 234 W/m² 12,1 °C 15,0 °C 0,0 km/h (0 Bft)
27.07.2017 09:31 15,0 °C 15,0 °C 85 % 1011,8 hPa 0,0 mm 0,0 km/h (0 Bft) NW 311 ° 0 min 0,000 mm 1,6 UV-I 223 W/m² 12,5 °C 15,0 °C 0,0 km/h (0 Bft)
27.07.2017 09:32 15,0 °C 15,0 °C 86 % 1011,7 hPa 0,0 mm 0,0 km/h (0 Bft) NW 311 ° 0 min 0,000 mm 1,5 UV-I 213 W/m² 12,7 °C 15,0 °C 0,0 km/h (0 Bft)
27.07.2017 09:33 15,0 °C 15,0 °C 86 % 1011,8 hPa 0,0 mm 0,0 km/h (0 Bft) NW 311 ° 0 min 0,000 mm 1,5 UV-I 199 W/m² 12,7 °C 15,0 °C 0,0 km/h (0 Bft)
27.07.2017 09:34 15,1 °C 15,1 °C 85 % 1011,8 hPa 0,0 mm 0,0 km/h (0 Bft) NW 311 ° 0 min 0,000 mm 1,5 UV-I 197 W/m² 12,6 °C 15,1 °C 0,0 km/h (0 Bft)
27.07.2017 09:35 15,1 °C 15,1 °C 85 % 1011,7 hPa 0,0 mm 0,0 km/h (0 Bft) NW 311 ° 0 min 0,000 mm 1,5 UV-I 197 W/m² 12,6 °C 15,1 °C 0,0 km/h (0 Bft)
27.07.2017 09:36 15,1 °C 15,1 °C 84 % 1011,8 hPa 0,0 mm 0,0 km/h (0 Bft) NW 311 ° 0 min 0,000 mm 1,5 UV-I 200 W/m² 12,4 °C 15,1 °C 0,0 km/h (0 Bft)
27.07.2017 09:37 14,9 °C 15,1 °C 83 % 1011,7 hPa 0,0 mm 0,0 km/h (0 Bft) NW 311 ° 0 min 0,000 mm 1,5 UV-I 204 W/m² 12,0 °C 14,9 °C 0,0 km/h (0 Bft)
27.07.2017 09:38 14,9 °C 14,9 °C 84 % 1011,7 hPa 0,0 mm 0,0 km/h (0 Bft) NW 311 ° 0 min 0,000 mm 1,6 UV-I 207 W/m² 12,2 °C 14,9 °C 0,0 km/h (0 Bft)
27.07.2017 09:39 14,9 °C 14,9 °C 85 % 1011,7 hPa 0,0 mm 0,0 km/h (0 Bft) NW 311 ° 0 min 0,000 mm 1,6 UV-I 220 W/m² 12,4 °C 14,9 °C 0,0 km/h (0 Bft)
27.07.2017 09:40 14,9 °C 14,9 °C 84 % 1011,7 hPa 0,0 mm 0,0 km/h (0 Bft) NW 311 ° 0 min 0,000 mm 1,7 UV-I 230 W/m² 12,2 °C 14,9 °C 0,0 km/h (0 Bft)
27.07.2017 09:41 15,0 °C 15,1 °C 82 % 1011,7 hPa 0,0 mm 0,0 km/h (0 Bft) NW 311 ° 0 min 0,000 mm 1,8 UV-I 241 W/m² 12,0 °C 15,0 °C 0,0 km/h (0 Bft)
27.07.2017 09:42 15,1 °C 15,1 °C 84 % 1011,7 hPa 0,0 mm 0,0 km/h (0 Bft) NW 311 ° 0 min 0,000 mm 1,8 UV-I 251 W/m² 12,4 °C 15,1 °C 0,0 km/h (0 Bft)
27.07.2017 09:43 15,1 °C 15,1 °C 84 % 1011,7 hPa 0,0 mm 0,0 km/h (0 Bft) NW 311 ° 0 min 0,000 mm 1,9 UV-I 264 W/m² 12,4 °C 15,1 °C 0,0 km/h (0 Bft)
27.07.2017 09:44 15,1 °C 15,1 °C 85 % 1011,7 hPa 0,0 mm 0,0 km/h (0 Bft) NW 311 ° 0 min 0,000 mm 2,0 UV-I 274 W/m² 12,6 °C 15,1 °C 0,0 km/h (0 Bft)
27.07.2017 09:45 15,2 °C 15,2 °C 83 % 1011,7 hPa 0,0 mm 0,0 km/h (0 Bft) NW 311 ° 0 min 0,000 mm 2,0 UV-I 288 W/m² 12,3 °C 15,2 °C 0,0 km/h (0 Bft)
27.07.2017 09:46 15,3 °C 15,3 °C 81 % 1011,7 hPa 0,0 mm 0,0 km/h (0 Bft) NW 311 ° 0 min 0,000 mm 2,0 UV-I 287 W/m² 12,1 °C 15,3 °C 0,0 km/h (0 Bft)
27.07.2017 09:47 15,3 °C 15,3 °C 85 % 1011,7 hPa 0,0 mm 0,0 km/h (0 Bft) NW 311 ° 0 min 0,000 mm 2,0 UV-I 279 W/m² 12,8 °C 15,3 °C 0,0 km/h (0 Bft)
27.07.2017 09:48 15,3 °C 15,3 °C 83 % 1011,7 hPa 0,0 mm 0,0 km/h (0 Bft) NW 311 ° 0 min 0,000 mm 1,9 UV-I 269 W/m² 12,4 °C 15,3 °C 0,0 km/h (0 Bft)
27.07.2017 09:49 15,2 °C 15,3 °C 83 % 1011,7 hPa 0,0 mm 0,0 km/h (0 Bft) NW 311 ° 0 min 0,000 mm 1,9 UV-I 265 W/m² 12,3 °C 15,2 °C 0,0 km/h (0 Bft)
27.07.2017 09:50 15,3 °C 15,3 °C 85 % 1011,7 hPa 0,0 mm 0,0 km/h (0 Bft) NW 311 ° 0 min 0,000 mm 1,9 UV-I 265 W/m² 12,8 °C 15,3 °C 0,0 km/h (0 Bft)
27.07.2017 09:51 15,3 °C 15,3 °C 83 % 1011,6 hPa 0,0 mm 1,0 km/h (0 Bft) N-NW 339 ° 0 min 0,000 mm 2,0 UV-I 283 W/m² 12,4 °C 15,3 °C 3,2 km/h (1 Bft)
27.07.2017 09:52 15,4 °C 15,4 °C 84 % 1011,6 hPa 0,0 mm 1,5 km/h (1 Bft) N-NW 339 ° 1 min 0,000 mm 2,2 UV-I 294 W/m² 12,7 °C 15,4 °C 3,2 km/h (1 Bft)
27.07.2017 09:53 15,6 °C 15,6 °C 84 % 1011,7 hPa 0,0 mm 0,1 km/h (0 Bft) N-NW 339 ° 1 min 0,000 mm 2,2 UV-I 304 W/m² 12,9 °C 15,6 °C 1,6 km/h (1 Bft)
27.07.2017 09:54 15,7 °C 15,7 °C 85 % 1011,6 hPa 0,0 mm 1,9 km/h (1 Bft) O-NO 57 ° 1 min 0,000 mm 2,3 UV-I 311 W/m² 13,2 °C 15,7 °C 4,8 km/h (1 Bft)
27.07.2017 09:55 15,6 °C 15,7 °C 81 % 1011,5 hPa 0,0 mm 3,0 km/h (1 Bft) O-NO 57 ° 1 min 0,000 mm 2,3 UV-I 316 W/m² 12,3 °C 15,6 °C 4,8 km/h (1 Bft)
27.07.2017 09:56 15,6 °C 15,6 °C 75 % 1011,5 hPa 0,0 mm 1,0 km/h (0 Bft) O-NO 57 ° 1 min 0,000 mm 2,4 UV-I 325 W/m² 11,2 °C 15,6 °C 3,2 km/h (1 Bft)
27.07.2017 09:57 15,6 °C 15,7 °C 76 % 1011,6 hPa 0,0 mm 1,4 km/h (1 Bft) O-NO 57 ° 1 min 0,000 mm 2,5 UV-I 329 W/m² 11,4 °C 15,6 °C 3,2 km/h (1 Bft)
27.07.2017 09:58 15,7 °C 15,7 °C 76 % 1011,5 hPa 0,0 mm 2,2 km/h (1 Bft) O-NO 57 ° 1 min 0,000 mm 2,5 UV-I 334 W/m² 11,5 °C 15,7 °C 3,2 km/h (1 Bft)
27.07.2017 09:59 15,8 °C 15,8 °C 76 % 1011,5 hPa 0,0 mm 0,0 km/h (0 Bft) O-NO 57 ° 1 min 0,000 mm 2,5 UV-I 336 W/m² 11,6 °C 15,8 °C 0,0 km/h (0 Bft)
27.07.2017 10:00 15,9 °C 15,9 °C 80 % 1011,5 hPa 0,0 mm 1,9 km/h (1 Bft) N-NO 22 ° 1 min 0,000 mm 2,5 UV-I 332 W/m² 12,5 °C 15,9 °C 3,2 km/h (1 Bft)
27.07.2017 10:01 16,0 °C 16,0 °C 78 % 1011,5 hPa 0,0 mm 3,3 km/h (1 Bft) W 259 ° 1 min 0,127 mm 2,5 UV-I 327 W/m² 12,2 °C 16,0 °C 4,8 km/h (1 Bft)
27.07.2017 10:02 16,1 °C 16,1 °C 78 % 1011,5 hPa 0,0 mm 1,8 km/h (1 Bft) W 259 ° 1 min 0,000 mm 2,5 UV-I 320 W/m² 12,3 °C 16,1 °C 3,2 km/h (1 Bft)
27.07.2017 10:03 16,1 °C 16,1 °C 78 % 1011,5 hPa 0,0 mm 0,5 km/h (0 Bft) W 259 ° 1 min 0,000 mm 2,5 UV-I 316 W/m² 12,3 °C 16,1 °C 1,6 km/h (1 Bft)
27.07.2017 10:04 16,2 °C 16,2 °C 80 % 1011,6 hPa 0,0 mm 1,1 km/h (1 Bft) W 265 ° 1 min 0,000 mm 2,4 UV-I 311 W/m² 12,7 °C 16,2 °C 4,8 km/h (1 Bft)
27.07.2017 10:05 16,2 °C 16,2 °C 79 % 1011,5 hPa 0,0 mm 0,3 km/h (0 Bft) W 265 ° 1 min 0,000 mm 2,4 UV-I 308 W/m² 12,6 °C 16,2 °C 1,6 km/h (1 Bft)
27.07.2017 10:06 16,2 °C 16,2 °C 80 % 1011,5 hPa 0,0 mm 0,4 km/h (0 Bft) W 265 ° 1 min 0,000 mm 2,4 UV-I 301 W/m² 12,7 °C 16,2 °C 3,2 km/h (1 Bft)
27.07.2017 10:07 16,2 °C 16,2 °C 83 % 1011,5 hPa 0,0 mm 0,1 km/h (0 Bft) W 265 ° 1 min 0,000 mm 2,4 UV-I 294 W/m² 13,3 °C 16,2 °C 1,6 km/h (1 Bft)
27.07.2017 10:08 16,1 °C 16,2 °C 81 % 1011,5 hPa 0,0 mm 0,0 km/h (0 Bft) W 265 ° 0 min 0,000 mm 2,3 UV-I 278 W/m² 12,8 °C 16,1 °C 0,0 km/h (0 Bft)
27.07.2017 10:09 15,9 °C 16,1 °C 76 % 1011,5 hPa 0,0 mm 0,4 km/h (0 Bft) NW 321 ° 0 min 0,000 mm 2,2 UV-I 269 W/m² 11,7 °C 15,9 °C 1,6 km/h (1 Bft)
27.07.2017 10:10 16,0 °C 16,0 °C 78 % 1011,5 hPa 0,0 mm 0,0 km/h (0 Bft) NW 321 ° 0 min 0,000 mm 2,1 UV-I 258 W/m² 12,2 °C 16,0 °C 0,0 km/h (0 Bft)
27.07.2017 10:11 16,1 °C 16,1 °C 81 % 1011,5 hPa 0,0 mm 1,4 km/h (1 Bft) W 277 ° 0 min 0,000 mm 2,1 UV-I 255 W/m² 12,8 °C 16,1 °C 4,8 km/h (1 Bft)
27.07.2017 10:12 16,1 °C 16,1 °C 77 % 1011,6 hPa 0,0 mm 1,9 km/h (1 Bft) W 277 ° 0 min 0,000 mm 2,1 UV-I 257 W/m² 12,1 °C 16,1 °C 3,2 km/h (1 Bft)
27.07.2017 10:13 16,1 °C 16,1 °C 79 % 1011,6 hPa 0,0 mm 1,5 km/h (1 Bft) W 277 ° 0 min 0,000 mm 2,1 UV-I 258 W/m² 12,5 °C 16,1 °C 3,2 km/h (1 Bft)
27.07.2017 10:14 16,1 °C 16,2 °C 79 % 1011,6 hPa 0,0 mm 2,3 km/h (1 Bft) W 277 ° 0 min 0,000 mm 2,1 UV-I 262 W/m² 12,5 °C 16,1 °C 4,8 km/h (1 Bft)
27.07.2017 10:15 16,1 °C 16,2 °C 78 % 1011,6 hPa 0,0 mm 3,7 km/h (1 Bft) W-NW 286 ° 0 min 0,000 mm 2,0 UV-I 257 W/m² 12,3 °C 16,1 °C 4,8 km/h (1 Bft)
27.07.2017 10:16 16,2 °C 16,2 °C 79 % 1011,6 hPa 0,0 mm 4,2 km/h (1 Bft) W-NW 285 ° 0 min 0,000 mm 1,9 UV-I 248 W/m² 12,6 °C 16,2 °C 6,4 km/h (2 Bft)
27.07.2017 10:17 16,2 °C 16,2 °C 76 % 1011,6 hPa 0,0 mm 1,9 km/h (1 Bft) W-NW 285 ° 0 min 0,000 mm 1,9 UV-I 239 W/m² 12,0 °C 16,2 °C 4,8 km/h (1 Bft)
27.07.2017 10:18 16,2 °C 16,2 °C 79 % 1011,6 hPa 0,0 mm 2,0 km/h (1 Bft) W-NW 285 ° 0 min 0,000 mm 1,8 UV-I 229 W/m² 12,6 °C 16,2 °C 3,2 km/h (1 Bft)
27.07.2017 10:19 16,2 °C 16,2 °C 77 % 1011,7 hPa 0,0 mm 3,5 km/h (1 Bft) W-SW 240 ° 0 min 0,000 mm 1,7 UV-I 216 W/m² 12,2 °C 16,2 °C 4,8 km/h (1 Bft)
27.07.2017 10:20 16,1 °C 16,2 °C 78 % 1011,7 hPa 0,0 mm 1,5 km/h (1 Bft) W-SW 240 ° 0 min 0,000 mm 1,6 UV-I 193 W/m² 12,3 °C 16,1 °C 3,2 km/h (1 Bft)
27.07.2017 10:21 16,1 °C 16,1 °C 77 % 1011,7 hPa 0,0 mm 0,8 km/h (0 Bft) W-SW 240 ° 0 min 0,000 mm 1,5 UV-I 181 W/m² 12,1 °C 16,1 °C 1,6 km/h (1 Bft)
27.07.2017 10:22 16,0 °C 16,1 °C 79 % 1011,7 hPa 0,0 mm 1,0 km/h (0 Bft) W-SW 240 ° 0 min 0,000 mm 1,5 UV-I 172 W/m² 12,4 °C 16,0 °C 1,6 km/h (1 Bft)
27.07.2017 10:23 15,9 °C 16,0 °C 76 % 1011,7 hPa 0,0 mm 0,1 km/h (0 Bft) W-SW 240 ° 0 min 0,000 mm 1,4 UV-I 167 W/m² 11,7 °C 15,9 °C 1,6 km/h (1 Bft)
27.07.2017 10:24 16,0 °C 16,0 °C 80 % 1011,7 hPa 0,0 mm 0,0 km/h (0 Bft) W-SW 240 ° 0 min 0,000 mm 1,5 UV-I 167 W/m² 12,5 °C 16,0 °C 0,0 km/h (0 Bft)
27.07.2017 10:25 16,0 °C 16,0 °C 76 % 1011,7 hPa 0,0 mm 0,0 km/h (0 Bft) W-SW 240 ° 0 min 0,000 mm 1,5 UV-I 176 W/m² 11,8 °C 16,0 °C 0,0 km/h (0 Bft)
27.07.2017 10:26 16,0 °C 16,0 °C 78 % 1011,7 hPa 0,0 mm 0,0 km/h (0 Bft) W-SW 240 ° 0 min 0,000 mm 1,6 UV-I 183 W/m² 12,2 °C 16,0 °C 0,0 km/h (0 Bft)
27.07.2017 10:27 16,0 °C 16,0 °C 80 % 1011,7 hPa 0,0 mm 0,0 km/h (0 Bft) W-SW 240 ° 0 min 0,000 mm 1,7 UV-I 192 W/m² 12,5 °C 16,0 °C 0,0 km/h (0 Bft)
27.07.2017 10:28 15,9 °C 16,0 °C 80 % 1011,8 hPa 0,0 mm 0,0 km/h (0 Bft) W-SW 240 ° 0 min 0,000 mm 1,7 UV-I 200 W/m² 12,5 °C 15,9 °C 0,0 km/h (0 Bft)
27.07.2017 10:29 15,8 °C 15,9 °C 81 % 1011,8 hPa 0,0 mm 0,0 km/h (0 Bft) W-SW 240 ° 0 min 0,000 mm 1,8 UV-I 207 W/m² 12,5 °C 15,8 °C 0,0 km/h (0 Bft)
27.07.2017 10:30 15,9 °C 15,9 °C 85 % 1011,8 hPa 0,0 mm 0,0 km/h (0 Bft) W-SW 240 ° 0 min 0,000 mm 1,8 UV-I 211 W/m² 13,4 °C 15,9 °C 0,0 km/h (0 Bft)
27.07.2017 10:31 15,9 °C 15,9 °C 83 % 1011,7 hPa 0,0 mm 0,4 km/h (0 Bft) W-SW 240 ° 0 min 0,000 mm 1,8 UV-I 209 W/m² 13,0 °C 15,9 °C 1,6 km/h (1 Bft)
27.07.2017 10:32 15,9 °C 15,9 °C 81 % 1011,8 hPa 0,0 mm 1,3 km/h (1 Bft) W-SW 240 ° 0 min 0,000 mm 1,9 UV-I 214 W/m² 12,6 °C 15,9 °C 3,2 km/h (1 Bft)
27.07.2017 10:33 15,9 °C 15,9 °C 79 % 1011,8 hPa 0,0 mm 0,0 km/h (0 Bft) W-SW 240 ° 0 min 0,000 mm 1,9 UV-I 229 W/m² 12,3 °C 15,9 °C 0,0 km/h (0 Bft)
27.07.2017 10:34 16,0 °C 16,0 °C 81 % 1011,8 hPa 0,0 mm 0,0 km/h (0 Bft) W-SW 240 ° 0 min 0,000 mm 2,2 UV-I 243 W/m² 12,7 °C 16,0 °C 0,0 km/h (0 Bft)
27.07.2017 10:35 16,0 °C 16,0 °C 82 % 1011,8 hPa 0,0 mm 1,5 km/h (1 Bft) W-SW 240 ° 0 min 0,000 mm 2,2 UV-I 255 W/m² 12,9 °C 16,0 °C 3,2 km/h (1 Bft)
27.07.2017 10:36 16,1 °C 16,1 °C 80 % 1011,8 hPa 0,0 mm 1,8 km/h (1 Bft) W-SW 240 ° 0 min 0,000 mm 2,3 UV-I 264 W/m² 12,6 °C 16,1 °C 3,2 km/h (1 Bft)
27.07.2017 10:37 16,1 °C 16,1 °C 79 % 1011,8 hPa 0,0 mm 0,1 km/h (0 Bft) W-SW 240 ° 0 min 0,000 mm 2,3 UV-I 267 W/m² 12,5 °C 16,1 °C 1,6 km/h (1 Bft)
27.07.2017 10:38 16,1 °C 16,1 °C 80 % 1011,7 hPa 0,0 mm 1,5 km/h (1 Bft) W-SW 240 ° 0 min 0,000 mm 2,2 UV-I 262 W/m² 12,6 °C 16,1 °C 3,2 km/h (1 Bft)
27.07.2017 10:39 16,2 °C 16,2 °C 80 % 1011,8 hPa 0,0 mm 2,2 km/h (1 Bft) W-SW 240 ° 0 min 0,000 mm 2,2 UV-I 251 W/m² 12,7 °C 16,2 °C 3,2 km/h (1 Bft)
27.07.2017 10:40 16,3 °C 16,3 °C 80 % 1011,8 hPa 0,0 mm 3,6 km/h (1 Bft) W-SW 240 ° 0 min 0,000 mm 2,1 UV-I 241 W/m² 12,8 °C 16,3 °C 4,8 km/h (1 Bft)
27.07.2017 10:41 16,3 °C 16,3 °C 75 % 1011,8 hPa 0,0 mm 3,5 km/h (1 Bft) W 277 ° 0 min 0,000 mm 2,0 UV-I 230 W/m² 11,9 °C 16,3 °C 9,7 km/h (2 Bft)
27.07.2017 10:42 16,3 °C 16,3 °C 77 % 1011,8 hPa 0,0 mm 4,6 km/h (1 Bft) W-NW 286 ° 0 min 0,000 mm 1,9 UV-I 218 W/m² 12,3 °C 16,3 °C 6,4 km/h (2 Bft)
27.07.2017 10:43 16,3 °C 16,3 °C 77 % 1011,8 hPa 0,0 mm 5,9 km/h (2 Bft) W-NW 298 ° 0 min 0,000 mm 1,8 UV-I 197 W/m² 12,3 °C 16,3 °C 6,4 km/h (2 Bft)
27.07.2017 10:44 16,2 °C 16,3 °C 78 % 1011,9 hPa 0,0 mm 4,4 km/h (1 Bft) W-NW 298 ° 0 min 0,000 mm 1,6 UV-I 188 W/m² 12,4 °C 16,2 °C 6,4 km/h (2 Bft)
27.07.2017 10:45 16,2 °C 16,2 °C 79 % 1011,9 hPa 0,0 mm 3,9 km/h (1 Bft) W 272 ° 0 min 0,000 mm 1,6 UV-I 183 W/m² 12,6 °C 16,2 °C 6,4 km/h (2 Bft)
27.07.2017 10:46 16,2 °C 16,2 °C 74 % 1011,9 hPa 0,0 mm 3,4 km/h (1 Bft) W-SW 252 ° 0 min 0,000 mm 1,6 UV-I 183 W/m² 11,6 °C 16,2 °C 6,4 km/h (2 Bft)
27.07.2017 10:47 16,1 °C 16,2 °C 73 % 1011,9 hPa 0,0 mm 9,9 km/h (2 Bft) W 273 ° 0 min 0,000 mm 1,6 UV-I 181 W/m² 11,3 °C 16,1 °C 12,9 km/h (3 Bft)
27.07.2017 10:48 16,1 °C 16,1 °C 74 % 1011,9 hPa 0,0 mm 5,2 km/h (1 Bft) W 281 ° 0 min 0,000 mm 1,5 UV-I 178 W/m² 11,5 °C 16,1 °C 11,3 km/h (2 Bft)
27.07.2017 10:49 16,1 °C 16,1 °C 75 % 1011,9 hPa 0,0 mm 4,4 km/h (1 Bft) W 265 ° 0 min 0,000 mm 1,5 UV-I 162 W/m² 11,7 °C 16,1 °C 9,7 km/h (2 Bft)
27.07.2017 10:50 16,0 °C 16,1 °C 76 % 1011,9 hPa 0,0 mm 4,8 km/h (1 Bft) W-NW 294 ° 0 min 0,000 mm 1,4 UV-I 156 W/m² 11,8 °C 16,0 °C 9,7 km/h (2 Bft)
27.07.2017 10:51 16,0 °C 16,0 °C 75 % 1011,9 hPa 0,0 mm 4,5 km/h (1 Bft) W-NW 302 ° 0 min 0,000 mm 1,3 UV-I 155 W/m² 11,6 °C 16,0 °C 11,3 km/h (2 Bft)
27.07.2017 10:52 16,0 °C 16,0 °C 77 % 1011,9 hPa 0,0 mm 7,6 km/h (2 Bft) NW 321 ° 0 min 0,000 mm 1,3 UV-I 149 W/m² 12,0 °C 16,0 °C 14,5 km/h (3 Bft)
27.07.2017 10:53 15,9 °C 16,0 °C 74 % 1011,9 hPa 0,0 mm 11,7 km/h (2 Bft) W-NW 284 ° 0 min 0,000 mm 1,3 UV-I 142 W/m² 11,3 °C 15,9 °C 16,1 km/h (3 Bft)
27.07.2017 10:54 15,8 °C 15,9 °C 74 % 1011,9 hPa 0,0 mm 5,8 km/h (2 Bft) W 267 ° 0 min 0,000 mm 1,3 UV-I 134 W/m² 11,2 °C 15,8 °C 9,7 km/h (2 Bft)
27.07.2017 10:55 15,8 °C 15,8 °C 74 % 1012,0 hPa 0,0 mm 9,7 km/h (2 Bft) W 277 ° 0 min 0,000 mm 1,1 UV-I 125 W/m² 11,2 °C 15,8 °C 14,5 km/h (3 Bft)
27.07.2017 10:56 15,7 °C 15,8 °C 75 % 1012,0 hPa 0,0 mm 5,7 km/h (1 Bft) W-NW 283 ° 0 min 0,000 mm 1,1 UV-I 123 W/m² 11,3 °C 15,7 °C 11,3 km/h (2 Bft)
27.07.2017 10:57 15,6 °C 15,7 °C 73 % 1012,0 hPa 0,0 mm 5,3 km/h (1 Bft) W-NW 290 ° 0 min 0,000 mm 1,1 UV-I 123 W/m² 10,8 °C 15,6 °C 9,7 km/h (2 Bft)
27.07.2017 10:58 15,6 °C 15,6 °C 75 % 1012,0 hPa 0,0 mm 7,4 km/h (2 Bft) W 263 ° 0 min 0,000 mm 1,1 UV-I 125 W/m² 11,2 °C 15,6 °C 12,9 km/h (3 Bft)
27.07.2017 10:59 15,5 °C 15,6 °C 74 % 1012,0 hPa 0,0 mm 6,6 km/h (2 Bft) W-SW 258 ° 0 min 0,000 mm 1,2 UV-I 127 W/m² 10,9 °C 15,5 °C 11,3 km/h (2 Bft)
27.07.2017 11:00 15,4 °C 15,5 °C 75 % 1011,9 hPa 0,0 mm 9,2 km/h (2 Bft) W-SW 244 ° 0 min 0,127 mm 1,2 UV-I 128 W/m² 11,0 °C 15,4 °C 14,5 km/h (3 Bft)
27.07.2017 11:01 15,3 °C 15,4 °C 76 % 1011,9 hPa 0,0 mm 11,3 km/h (2 Bft) W 266 ° 0 min 0,000 mm 1,2 UV-I 135 W/m² 11,1 °C 15,3 °C 16,1 km/h (3 Bft)
27.07.2017 11:02 15,3 °C 15,3 °C 77 % 1011,9 hPa 0,0 mm 9,0 km/h (2 Bft) W 263 ° 0 min 0,000 mm 1,3 UV-I 141 W/m² 11,3 °C 15,3 °C 12,9 km/h (3 Bft)
27.07.2017 11:03 15,2 °C 15,3 °C 76 % 1011,9 hPa 0,0 mm 7,6 km/h (2 Bft) W-NW 285 ° 0 min 0,000 mm 1,3 UV-I 146 W/m² 11,0 °C 15,2 °C 11,3 km/h (2 Bft)
27.07.2017 11:04 15,2 °C 15,2 °C 76 % 1011,9 hPa 0,0 mm 6,0 km/h (2 Bft) NW 308 ° 0 min 0,000 mm 1,4 UV-I 149 W/m² 11,0 °C 15,2 °C 9,7 km/h (2 Bft)
27.07.2017 11:05 15,2 °C 15,2 °C 78 % 1011,9 hPa 0,0 mm 6,1 km/h (2 Bft) W-NW 294 ° 0 min 0,000 mm 1,4 UV-I 151 W/m² 11,4 °C 15,2 °C 9,7 km/h (2 Bft)
27.07.2017 11:06 15,2 °C 15,2 °C 77 % 1011,9 hPa 0,0 mm 4,5 km/h (1 Bft) W 261 ° 0 min 0,000 mm 1,4 UV-I 155 W/m² 11,2 °C 15,2 °C 6,4 km/h (2 Bft)
27.07.2017 11:07 15,2 °C 15,2 °C 76 % 1011,9 hPa 0,0 mm 5,4 km/h (1 Bft) W-SW 258 ° 0 min 0,000 mm 1,4 UV-I 162 W/m² 11,0 °C 15,2 °C 11,3 km/h (2 Bft)
27.07.2017 11:08 15,2 °C 15,2 °C 77 % 1011,9 hPa 0,0 mm 3,3 km/h (1 Bft) W 280 ° 0 min 0,000 mm 1,5 UV-I 165 W/m² 11,2 °C 15,2 °C 6,4 km/h (2 Bft)
27.07.2017 11:09 15,2 °C 15,2 °C 79 % 1011,9 hPa 0,0 mm 2,0 km/h (1 Bft) W 263 ° 0 min 0,000 mm 1,5 UV-I 167 W/m² 11,6 °C 15,2 °C 6,4 km/h (2 Bft)
27.07.2017 11:10 15,2 °C 15,2 °C 78 % 1011,9 hPa 0,0 mm 5,7 km/h (1 Bft) W-NW 290 ° 0 min 0,000 mm 1,6 UV-I 171 W/m² 11,4 °C 15,2 °C 9,7 km/h (2 Bft)
27.07.2017 11:11 15,2 °C 15,2 °C 79 % 1011,9 hPa 0,0 mm 3,0 km/h (1 Bft) W 279 ° 0 min 0,000 mm 1,6 UV-I 179 W/m² 11,6 °C 15,2 °C 4,8 km/h (1 Bft)
27.07.2017 11:12 15,2 °C 15,3 °C 79 % 1011,9 hPa 0,0 mm 6,5 km/h (2 Bft) W 277 ° 0 min 0,000 mm 1,7 UV-I 188 W/m² 11,6 °C 15,2 °C 11,3 km/h (2 Bft)
27.07.2017 11:13 15,3 °C 15,3 °C 79 % 1011,9 hPa 0,0 mm 7,0 km/h (2 Bft) W-NW 286 ° 0 min 0,000 mm 1,8 UV-I 202 W/m² 11,7 °C 15,3 °C 11,3 km/h (2 Bft)
27.07.2017 11:14 15,3 °C 15,3 °C 80 % 1011,9 hPa 0,0 mm 5,3 km/h (1 Bft) W-NW 296 ° 0 min 0,000 mm 1,9 UV-I 209 W/m² 11,9 °C 15,3 °C 8,0 km/h (2 Bft)
27.07.2017 11:15 15,3 °C 15,3 °C 79 % 1011,9 hPa 0,0 mm 4,8 km/h (1 Bft) W 273 ° 0 min 0,000 mm 1,8 UV-I 209 W/m² 11,7 °C 15,3 °C 6,4 km/h (2 Bft)
27.07.2017 11:16 15,3 °C 15,3 °C 79 % 1011,9 hPa 0,0 mm 4,9 km/h (1 Bft) NW 311 ° 0 min 0,000 mm 1,8 UV-I 204 W/m² 11,7 °C 15,3 °C 6,4 km/h (2 Bft)
27.07.2017 11:17 15,3 °C 15,3 °C 79 % 1011,9 hPa 0,0 mm 3,1 km/h (1 Bft) W-NW 284 ° 0 min 0,000 mm 1,8 UV-I 199 W/m² 11,7 °C 15,3 °C 4,8 km/h (1 Bft)
27.07.2017 11:18 15,3 °C 15,3 °C 80 % 1011,9 hPa 0,0 mm 2,7 km/h (1 Bft) W 267 ° 0 min 0,000 mm 1,8 UV-I 197 W/m² 11,9 °C 15,3 °C 9,7 km/h (2 Bft)
27.07.2017 11:19 15,3 °C 15,3 °C 78 % 1011,9 hPa 0,0 mm 5,0 km/h (1 Bft) W-NW 301 ° 0 min 0,000 mm 1,8 UV-I 197 W/m² 11,5 °C 15,3 °C 9,7 km/h (2 Bft)
27.07.2017 11:20 15,3 °C 15,3 °C 78 % 1011,9 hPa 0,0 mm 9,8 km/h (2 Bft) W-NW 288 ° 0 min 0,000 mm 1,8 UV-I 195 W/m² 11,5 °C 15,3 °C 12,9 km/h (3 Bft)
27.07.2017 11:21 15,3 °C 15,3 °C 79 % 1011,9 hPa 0,0 mm 6,8 km/h (2 Bft) W-NW 298 ° 0 min 0,000 mm 1,8 UV-I 197 W/m² 11,7 °C 15,3 °C 11,3 km/h (2 Bft)
27.07.2017 11:22 15,3 °C 15,4 °C 79 % 1011,9 hPa 0,0 mm 4,8 km/h (1 Bft) W-NW 300 ° 0 min 0,000 mm 1,9 UV-I 204 W/m² 11,7 °C 15,3 °C 6,4 km/h (2 Bft)
27.07.2017 11:23 15,3 °C 15,3 °C 79 % 1011,9 hPa 0,0 mm 4,1 km/h (1 Bft) W-NW 296 ° 0 min 0,000 mm 1,9 UV-I 211 W/m² 11,7 °C 15,3 °C 8,0 km/h (2 Bft)
27.07.2017 11:24 15,3 °C 15,3 °C 79 % 1011,9 hPa 0,0 mm 6,7 km/h (2 Bft) W 274 ° 0 min 0,000 mm 2,0 UV-I 216 W/m² 11,7 °C 15,3 °C 9,7 km/h (2 Bft)
27.07.2017 11:25 15,3 °C 15,4 °C 78 % 1011,9 hPa 0,0 mm 4,5 km/h (1 Bft) W-NW 284 ° 0 min 0,000 mm 1,9 UV-I 213 W/m² 11,5 °C 15,3 °C 6,4 km/h (2 Bft)
27.07.2017 11:26 15,4 °C 15,4 °C 79 % 1011,9 hPa 0,0 mm 6,2 km/h (2 Bft) W-SW 257 ° 0 min 0,000 mm 1,9 UV-I 209 W/m² 11,8 °C 15,4 °C 11,3 km/h (2 Bft)
27.07.2017 11:27 15,4 °C 15,4 °C 80 % 1011,9 hPa 0,0 mm 9,5 km/h (2 Bft) W-SW 252 ° 0 min 0,000 mm 1,9 UV-I 206 W/m² 12,0 °C 15,4 °C 12,9 km/h (3 Bft)
27.07.2017 11:28 15,4 °C 15,4 °C 79 % 1011,9 hPa 0,0 mm 11,3 km/h (2 Bft) W 263 ° 0 min 0,000 mm 1,9 UV-I 200 W/m² 11,8 °C 15,4 °C 12,9 km/h (3 Bft)
27.07.2017 11:29 15,3 °C 15,4 °C 80 % 1011,9 hPa 0,0 mm 6,2 km/h (2 Bft) W 270 ° 0 min 0,000 mm 1,8 UV-I 197 W/m² 11,9 °C 15,3 °C 14,5 km/h (3 Bft)
27.07.2017 11:30 15,3 °C 15,3 °C 79 % 1011,9 hPa 0,0 mm 11,3 km/h (2 Bft) W-NW 288 ° 0 min 0,000 mm 1,8 UV-I 199 W/m² 11,7 °C 15,3 °C 14,5 km/h (3 Bft)
27.07.2017 11:31 15,3 °C 15,3 °C 79 % 1012,0 hPa 0,0 mm 7,9 km/h (2 Bft) W-SW 245 ° 0 min 0,000 mm 2,0 UV-I 209 W/m² 11,7 °C 15,3 °C 11,3 km/h (2 Bft)
27.07.2017 11:32 15,3 °C 15,3 °C 80 % 1011,9 hPa 0,0 mm 5,8 km/h (2 Bft) W-NW 294 ° 0 min 0,000 mm 2,1 UV-I 223 W/m² 11,9 °C 15,3 °C 12,9 km/h (3 Bft)
27.07.2017 11:33 15,3 °C 15,3 °C 79 % 1011,9 hPa 0,0 mm 5,8 km/h (2 Bft) W-NW 283 ° 0 min 0,000 mm 2,1 UV-I 236 W/m² 11,7 °C 15,3 °C 9,7 km/h (2 Bft)
27.07.2017 11:34 15,4 °C 15,4 °C 80 % 1012,0 hPa 0,0 mm 5,7 km/h (1 Bft) W-NW 288 ° 0 min 0,000 mm 2,2 UV-I 246 W/m² 12,0 °C 15,4 °C 9,7 km/h (2 Bft)
27.07.2017 11:35 15,4 °C 15,4 °C 78 % 1012,0 hPa 0,0 mm 7,9 km/h (2 Bft) W-NW 290 ° 0 min 0,000 mm 2,2 UV-I 251 W/m² 11,6 °C 15,4 °C 11,3 km/h (2 Bft)
27.07.2017 11:36 15,4 °C 15,4 °C 80 % 1012,0 hPa 0,0 mm 5,6 km/h (1 Bft) W 271 ° 0 min 0,000 mm 2,3 UV-I 262 W/m² 12,0 °C 15,4 °C 6,4 km/h (2 Bft)
27.07.2017 11:37 15,5 °C 15,5 °C 80 % 1012,0 hPa 0,0 mm 6,6 km/h (2 Bft) W-NW 285 ° 0 min 0,000 mm 2,3 UV-I 265 W/m² 12,1 °C 15,5 °C 11,3 km/h (2 Bft)
27.07.2017 11:38 15,6 °C 15,6 °C 79 % 1012,0 hPa 0,0 mm 7,6 km/h (2 Bft) W-NW 292 ° 0 min 0,000 mm 2,3 UV-I 264 W/m² 12,0 °C 15,6 °C 14,5 km/h (3 Bft)
27.07.2017 11:39 15,6 °C 15,6 °C 79 % 1012,0 hPa 0,0 mm 9,8 km/h (2 Bft) NW 313 ° 0 min 0,000 mm 2,3 UV-I 258 W/m² 12,0 °C 15,6 °C 12,9 km/h (3 Bft)
27.07.2017 11:40 15,6 °C 15,6 °C 79 % 1012,0 hPa 0,0 mm 5,8 km/h (2 Bft) W 281 ° 0 min 0,000 mm 2,2 UV-I 255 W/m² 12,0 °C 15,6 °C 11,3 km/h (2 Bft)
27.07.2017 11:41 15,6 °C 15,6 °C 80 % 1012,0 hPa 0,0 mm 8,2 km/h (2 Bft) W 267 ° 0 min 0,000 mm 2,2 UV-I 250 W/m² 12,2 °C 15,6 °C 12,9 km/h (3 Bft)
27.07.2017 11:42 15,6 °C 15,6 °C 80 % 1012,0 hPa 0,0 mm 7,3 km/h (2 Bft) W 279 ° 0 min 0,000 mm 2,2 UV-I 248 W/m² 12,2 °C 15,6 °C 12,9 km/h (3 Bft)
27.07.2017 11:43 15,6 °C 15,6 °C 80 % 1012,0 hPa 0,0 mm 8,9 km/h (2 Bft) W-SW 251 ° 0 min 0,000 mm 2,2 UV-I 250 W/m² 12,2 °C 15,6 °C 19,3 km/h (3 Bft)
27.07.2017 11:44 15,6 °C 15,6 °C 79 % 1012,0 hPa 0,0 mm 12,2 km/h (2 Bft) NW 317 ° 0 min 0,000 mm 2,2 UV-I 250 W/m² 12,0 °C 15,6 °C 16,1 km/h (3 Bft)
27.07.2017 11:45 15,6 °C 15,6 °C 79 % 1012,0 hPa 0,0 mm 5,6 km/h (1 Bft) W 275 ° 0 min 0,000 mm 2,2 UV-I 248 W/m² 12,0 °C 15,6 °C 11,3 km/h (2 Bft)
27.07.2017 11:46 15,6 °C 15,6 °C 79 % 1012,0 hPa 0,0 mm 5,5 km/h (1 Bft) W-NW 289 ° 0 min 0,000 mm 2,1 UV-I 236 W/m² 12,0 °C 15,6 °C 8,0 km/h (2 Bft)
27.07.2017 11:47 15,6 °C 15,6 °C 80 % 1012,1 hPa 0,0 mm 7,2 km/h (2 Bft) W-NW 284 ° 0 min 0,000 mm 2,0 UV-I 216 W/m² 12,2 °C 15,6 °C 11,3 km/h (2 Bft)
27.07.2017 11:48 15,6 °C 15,6 °C 80 % 1012,1 hPa 0,0 mm 6,2 km/h (2 Bft) W-NW 293 ° 0 min 0,000 mm 2,0 UV-I 213 W/m² 12,2 °C 15,6 °C 9,7 km/h (2 Bft)
27.07.2017 11:49 15,6 °C 15,6 °C 80 % 1012,0 hPa 0,0 mm 7,6 km/h (2 Bft) W 267 ° 0 min 0,000 mm 2,0 UV-I 214 W/m² 12,2 °C 15,6 °C 11,3 km/h (2 Bft)
27.07.2017 11:50 15,5 °C 15,6 °C 79 % 1012,0 hPa 0,0 mm 5,4 km/h (1 Bft) W 265 ° 0 min 0,000 mm 2,1 UV-I 221 W/m² 11,9 °C 15,5 °C 6,4 km/h (2 Bft)
27.07.2017 11:51 15,5 °C 15,5 °C 80 % 1012,0 hPa 0,0 mm 6,3 km/h (2 Bft) W 280 ° 0 min 0,000 mm 2,1 UV-I 227 W/m² 12,1 °C 15,5 °C 9,7 km/h (2 Bft)
27.07.2017 11:52 15,5 °C 15,5 °C 82 % 1012,0 hPa 0,0 mm 4,0 km/h (1 Bft) W-NW 290 ° 0 min 0,000 mm 2,2 UV-I 230 W/m² 12,4 °C 15,5 °C 6,4 km/h (2 Bft)
27.07.2017 11:53 15,6 °C 15,6 °C 82 % 1012,0 hPa 0,0 mm 1,9 km/h (1 Bft) W-NW 290 ° 0 min 0,000 mm 2,2 UV-I 236 W/m² 12,5 °C 15,6 °C 3,2 km/h (1 Bft)
27.07.2017 11:54 15,6 °C 15,6 °C 80 % 1012,0 hPa 0,0 mm 4,2 km/h (1 Bft) W 261 ° 0 min 0,000 mm 2,2 UV-I 244 W/m² 12,2 °C 15,6 °C 6,4 km/h (2 Bft)
27.07.2017 11:55 15,5 °C 15,6 °C 80 % 1011,9 hPa 0,0 mm 5,5 km/h (1 Bft) W 260 ° 0 min 0,000 mm 2,4 UV-I 253 W/m² 12,1 °C 15,5 °C 9,7 km/h (2 Bft)
27.07.2017 11:56 15,5 °C 15,6 °C 82 % 1011,9 hPa 0,0 mm 6,9 km/h (2 Bft) W-NW 290 ° 0 min 0,000 mm 2,5 UV-I 265 W/m² 12,4 °C 15,5 °C 9,7 km/h (2 Bft)
27.07.2017 11:57 15,5 °C 15,5 °C 82 % 1011,9 hPa 0,0 mm 2,7 km/h (1 Bft) W-NW 290 ° 0 min 0,000 mm 2,5 UV-I 276 W/m² 12,4 °C 15,5 °C 4,8 km/h (1 Bft)
27.07.2017 11:58 15,4 °C 15,5 °C 81 % 1011,9 hPa 0,0 mm 4,5 km/h (1 Bft) W 262 ° 0 min 0,000 mm 2,6 UV-I 279 W/m² 12,2 °C 15,4 °C 11,3 km/h (2 Bft)
27.07.2017 11:59 15,4 °C 15,4 °C 81 % 1011,8 hPa 0,0 mm 6,7 km/h (2 Bft) W 261 ° 0 min 0,000 mm 2,5 UV-I 267 W/m² 12,2 °C 15,4 °C 11,3 km/h (2 Bft)
27.07.2017 12:00 15,4 °C 15,4 °C 81 % 1011,8 hPa 0,0 mm 2,8 km/h (1 Bft) W-NW 298 ° 0 min 0,127 mm 2,4 UV-I 258 W/m² 12,2 °C 15,4 °C 3,2 km/h (1 Bft)
27.07.2017 12:01 15,4 °C 15,5 °C 83 % 1011,8 hPa 0,0 mm 3,6 km/h (1 Bft) W-NW 297 ° 0 min 0,000 mm 2,3 UV-I 246 W/m² 12,5 °C 15,4 °C 6,4 km/h (2 Bft)
27.07.2017 12:02 15,5 °C 15,5 °C 83 % 1011,8 hPa 0,0 mm 3,4 km/h (1 Bft) W-NW 296 ° 0 min 0,000 mm 2,2 UV-I 236 W/m² 12,6 °C 15,5 °C 4,8 km/h (1 Bft)
27.07.2017 12:03 15,5 °C 15,6 °C 83 % 1011,9 hPa 0,0 mm 2,2 km/h (1 Bft) W 280 ° 0 min 0,000 mm 2,1 UV-I 236 W/m² 12,6 °C 15,5 °C 4,8 km/h (1 Bft)
27.07.2017 12:04 15,6 °C 15,6 °C 83 % 1011,8 hPa 0,0 mm 4,3 km/h (1 Bft) W-NW 287 ° 0 min 0,000 mm 2,0 UV-I 213 W/m² 12,7 °C 15,6 °C 6,4 km/h (2 Bft)
27.07.2017 12:05 15,6 °C 15,6 °C 82 % 1011,8 hPa 0,0 mm 3,0 km/h (1 Bft) W-NW 287 ° 0 min 0,000 mm 1,9 UV-I 202 W/m² 12,5 °C 15,6 °C 4,8 km/h (1 Bft)
27.07.2017 12:06 15,6 °C 15,6 °C 81 % 1011,8 hPa 0,0 mm 3,8 km/h (1 Bft) W-NW 288 ° 0 min 0,000 mm 1,8 UV-I 197 W/m² 12,3 °C 15,6 °C 6,4 km/h (2 Bft)
27.07.2017 12:07 15,6 °C 15,6 °C 80 % 1011,8 hPa 0,0 mm 2,9 km/h (1 Bft) W-NW 288 ° 0 min 0,000 mm 1,7 UV-I 186 W/m² 12,2 °C 15,6 °C 4,8 km/h (1 Bft)
27.07.2017 12:08 15,6 °C 15,6 °C 81 % 1011,8 hPa 0,0 mm 1,6 km/h (1 Bft) W-NW 288 ° 0 min 0,000 mm 1,6 UV-I 174 W/m² 12,3 °C 15,6 °C 3,2 km/h (1 Bft)
27.07.2017 12:09 15,6 °C 15,6 °C 82 % 1011,8 hPa 0,0 mm 2,9 km/h (1 Bft) W-SW 242 ° 0 min 0,000 mm 1,5 UV-I 162 W/m² 12,5 °C 15,6 °C 4,8 km/h (1 Bft)
27.07.2017 12:10 15,5 °C 15,6 °C 81 % 1011,8 hPa 0,0 mm 3,2 km/h (1 Bft) W-SW 254 ° 0 min 0,000 mm 1,4 UV-I 153 W/m² 12,3 °C 15,5 °C 4,8 km/h (1 Bft)
27.07.2017 12:11 15,6 °C 15,6 °C 82 % 1011,8 hPa 0,0 mm 2,6 km/h (1 Bft) W-SW 254 ° 0 min 0,000 mm 1,4 UV-I 155 W/m² 12,5 °C 15,6 °C 3,2 km/h (1 Bft)
27.07.2017 12:12 15,5 °C 15,6 °C 79 % 1011,8 hPa 0,0 mm 3,1 km/h (1 Bft) W 259 ° 0 min 0,000 mm 1,5 UV-I 155 W/m² 11,9 °C 15,5 °C 4,8 km/h (1 Bft)
27.07.2017 12:13 15,5 °C 15,5 °C 79 % 1011,9 hPa 0,0 mm 3,2 km/h (1 Bft) W 261 ° 0 min 0,000 mm 1,5 UV-I 156 W/m² 11,9 °C 15,5 °C 4,8 km/h (1 Bft)
27.07.2017 12:14 15,4 °C 15,5 °C 80 % 1011,8 hPa 0,0 mm 1,8 km/h (1 Bft) W 260 ° 0 min 0,000 mm 1,5 UV-I 158 W/m² 12,0 °C 15,4 °C 3,2 km/h (1 Bft)
27.07.2017 12:15 15,4 °C 15,4 °C 81 % 1011,8 hPa 0,0 mm 0,2 km/h (0 Bft) W 260 ° 0 min 0,000 mm 1,5 UV-I 162 W/m² 12,2 °C 15,4 °C 1,6 km/h (1 Bft)
27.07.2017 12:16 15,4 °C 15,4 °C 81 % 1011,8 hPa 0,0 mm 0,5 km/h (0 Bft) W 260 ° 0 min 0,000 mm 1,5 UV-I 162 W/m² 12,2 °C 15,4 °C 1,6 km/h (1 Bft)
27.07.2017 12:17 15,4 °C 15,4 °C 80 % 1011,8 hPa 0,0 mm 0,0 km/h (0 Bft) W 260 ° 0 min 0,000 mm 1,5 UV-I 149 W/m² 12,0 °C 15,4 °C 0,0 km/h (0 Bft)
27.07.2017 12:18 15,4 °C 15,4 °C 82 % 1011,8 hPa 0,0 mm 0,8 km/h (0 Bft) W 261 ° 0 min 0,000 mm 1,4 UV-I 142 W/m² 12,3 °C 15,4 °C 3,2 km/h (1 Bft)
27.07.2017 12:19 15,4 °C 15,4 °C 83 % 1011,8 hPa 0,0 mm 3,5 km/h (1 Bft) W-SW 250 ° 0 min 0,000 mm 1,3 UV-I 139 W/m² 12,5 °C 15,4 °C 4,8 km/h (1 Bft)
27.07.2017 12:20 15,4 °C 15,4 °C 81 % 1011,8 hPa 0,0 mm 1,9 km/h (1 Bft) W-SW 250 ° 0 min 0,000 mm 1,3 UV-I 137 W/m² 12,2 °C 15,4 °C 3,2 km/h (1 Bft)
27.07.2017 12:21 15,4 °C 15,4 °C 81 % 1011,8 hPa 0,0 mm 0,3 km/h (0 Bft) W-SW 250 ° 0 min 0,000 mm 1,3 UV-I 137 W/m² 12,2 °C 15,4 °C 1,6 km/h (1 Bft)
27.07.2017 12:22 15,4 °C 15,4 °C 82 % 1011,8 hPa 0,0 mm 5,2 km/h (1 Bft) SW 232 ° 0 min 0,000 mm 1,3 UV-I 137 W/m² 12,3 °C 15,4 °C 8,0 km/h (2 Bft)
27.07.2017 12:23 15,4 °C 15,4 °C 81 % 1011,9 hPa 0,0 mm 6,3 km/h (2 Bft) W-NW 296 ° 0 min 0,000 mm 1,3 UV-I 130 W/m² 12,2 °C 15,4 °C 9,7 km/h (2 Bft)
27.07.2017 12:24 15,3 °C 15,4 °C 81 % 1011,9 hPa 0,0 mm 2,5 km/h (1 Bft) W-NW 293 ° 0 min 0,000 mm 1,2 UV-I 127 W/m² 12,1 °C 15,3 °C 4,8 km/h (1 Bft)
27.07.2017 12:25 15,3 °C 15,4 °C 82 % 1011,8 hPa 0,0 mm 2,1 km/h (1 Bft) W-NW 284 ° 0 min 0,000 mm 1,2 UV-I 125 W/m² 12,2 °C 15,3 °C 3,2 km/h (1 Bft)
27.07.2017 12:26 15,3 °C 15,3 °C 82 % 1011,8 hPa 0,0 mm 5,7 km/h (1 Bft) W-SW 252 ° 0 min 0,000 mm 1,3 UV-I 127 W/m² 12,2 °C 15,3 °C 9,7 km/h (2 Bft)
27.07.2017 12:27 15,3 °C 15,3 °C 82 % 1011,9 hPa 0,0 mm 5,1 km/h (1 Bft) SW 236 ° 0 min 0,000 mm 1,3 UV-I 130 W/m² 12,2 °C 15,3 °C 6,4 km/h (2 Bft)
27.07.2017 12:28 15,3 °C 15,3 °C 82 % 1011,8 hPa 0,0 mm 4,5 km/h (1 Bft) W-SW 237 ° 0 min 0,000 mm 1,3 UV-I 132 W/m² 12,2 °C 15,3 °C 6,4 km/h (2 Bft)
27.07.2017 12:29 15,2 °C 15,3 °C 82 % 1011,9 hPa 0,0 mm 5,3 km/h (1 Bft) W 264 ° 0 min 0,000 mm 1,3 UV-I 132 W/m² 12,1 °C 15,2 °C 6,4 km/h (2 Bft)
27.07.2017 12:30 15,2 °C 15,2 °C 82 % 1011,9 hPa 0,0 mm 4,1 km/h (1 Bft) W 271 ° 0 min 0,000 mm 1,2 UV-I 123 W/m² 12,1 °C 15,2 °C 6,4 km/h (2 Bft)
27.07.2017 12:31 15,2 °C 15,2 °C 82 % 1011,9 hPa 0,0 mm 2,7 km/h (1 Bft) W 270 ° 0 min 0,000 mm 1,2 UV-I 121 W/m² 12,1 °C 15,2 °C 4,8 km/h (1 Bft)
27.07.2017 12:32 15,2 °C 15,2 °C 82 % 1011,9 hPa 0,0 mm 4,4 km/h (1 Bft) W 275 ° 0 min 0,000 mm 1,2 UV-I 123 W/m² 12,1 °C 15,2 °C 9,7 km/h (2 Bft)
27.07.2017 12:33 15,2 °C 15,2 °C 82 % 1011,9 hPa 0,0 mm 2,0 km/h (1 Bft) SW 234 ° 0 min 0,000 mm 1,3 UV-I 130 W/m² 12,1 °C 15,2 °C 6,4 km/h (2 Bft)
27.07.2017 12:34 15,1 °C 15,2 °C 82 % 1011,9 hPa 0,0 mm 4,8 km/h (1 Bft) W-NW 283 ° 0 min 0,000 mm 1,3 UV-I 148 W/m² 12,0 °C 15,1 °C 11,3 km/h (2 Bft)
27.07.2017 12:35 15,1 °C 15,1 °C 81 % 1011,9 hPa 0,0 mm 1,9 km/h (1 Bft) W-SW 247 ° 0 min 0,000 mm 1,5 UV-I 156 W/m² 11,9 °C 15,1 °C 4,8 km/h (1 Bft)
27.07.2017 12:36 15,0 °C 15,1 °C 80 % 1011,9 hPa 0,0 mm 6,3 km/h (2 Bft) W 261 ° 0 min 0,000 mm 1,6 UV-I 163 W/m² 11,6 °C 15,0 °C 12,9 km/h (3 Bft)
27.07.2017 12:37 15,0 °C 15,0 °C 82 % 1011,9 hPa 0,0 mm 8,3 km/h (2 Bft) W 263 ° 0 min 0,000 mm 1,6 UV-I 169 W/m² 12,0 °C 15,0 °C 12,9 km/h (3 Bft)
27.07.2017 12:38 15,0 °C 15,0 °C 82 % 1012,0 hPa 0,0 mm 8,6 km/h (2 Bft) W 274 ° 0 min 0,000 mm 1,7 UV-I 178 W/m² 12,0 °C 15,0 °C 12,9 km/h (3 Bft)
27.07.2017 12:39 14,9 °C 15,0 °C 82 % 1012,0 hPa 0,0 mm 8,0 km/h (2 Bft) W-SW 256 ° 0 min 0,000 mm 1,9 UV-I 192 W/m² 11,9 °C 14,9 °C 11,3 km/h (2 Bft)
27.07.2017 12:40 14,9 °C 14,9 °C 82 % 1012,0 hPa 0,0 mm 5,4 km/h (1 Bft) W 263 ° 0 min 0,000 mm 2,0 UV-I 216 W/m² 11,9 °C 14,9 °C 9,7 km/h (2 Bft)
27.07.2017 12:41 14,9 °C 14,9 °C 82 % 1012,0 hPa 0,0 mm 6,2 km/h (2 Bft) W-SW 254 ° 0 min 0,000 mm 2,2 UV-I 225 W/m² 11,9 °C 14,9 °C 9,7 km/h (2 Bft)
27.07.2017 12:42 14,9 °C 14,9 °C 82 % 1012,0 hPa 0,0 mm 2,8 km/h (1 Bft) W-NW 289 ° 0 min 0,000 mm 2,2 UV-I 234 W/m² 11,9 °C 14,9 °C 6,4 km/h (2 Bft)
27.07.2017 12:43 14,9 °C 14,9 °C 83 % 1012,1 hPa 0,0 mm 7,6 km/h (2 Bft) W-SW 255 ° 0 min 0,000 mm 2,3 UV-I 241 W/m² 12,0 °C 14,9 °C 11,3 km/h (2 Bft)
27.07.2017 12:44 14,9 °C 14,9 °C 83 % 1012,0 hPa 0,0 mm 6,2 km/h (2 Bft) W 271 ° 0 min 0,000 mm 2,3 UV-I 244 W/m² 12,0 °C 14,9 °C 11,3 km/h (2 Bft)
27.07.2017 12:45 14,8 °C 14,9 °C 83 % 1012,1 hPa 0,0 mm 6,2 km/h (2 Bft) W-NW 295 ° 0 min 0,000 mm 2,3 UV-I 241 W/m² 11,9 °C 14,8 °C 9,7 km/h (2 Bft)
27.07.2017 12:46 14,8 °C 14,8 °C 83 % 1012,1 hPa 0,0 mm 4,4 km/h (1 Bft) NW 309 ° 0 min 0,000 mm 2,3 UV-I 234 W/m² 11,9 °C 14,8 °C 8,0 km/h (2 Bft)
27.07.2017 12:47 14,8 °C 14,8 °C 85 % 1012,1 hPa 0,0 mm 8,5 km/h (2 Bft) W 265 ° 0 min 0,000 mm 2,2 UV-I 234 W/m² 12,3 °C 14,8 °C 11,3 km/h (2 Bft)
27.07.2017 12:48 14,8 °C 14,8 °C 83 % 1012,1 hPa 0,0 mm 4,9 km/h (1 Bft) W-NW 294 ° 0 min 0,000 mm 2,2 UV-I 236 W/m² 11,9 °C 14,8 °C 9,7 km/h (2 Bft)
27.07.2017 12:49 14,8 °C 14,8 °C 85 % 1012,1 hPa 0,0 mm 3,6 km/h (1 Bft) W 274 ° 0 min 0,000 mm 2,3 UV-I 243 W/m² 12,3 °C 14,8 °C 6,4 km/h (2 Bft)
27.07.2017 12:50 14,8 °C 14,8 °C 85 % 1012,1 hPa 0,0 mm 10,7 km/h (2 Bft) W 263 ° 0 min 0,000 mm 2,4 UV-I 251 W/m² 12,3 °C 14,8 °C 14,5 km/h (3 Bft)
27.07.2017 12:51 14,8 °C 14,8 °C 85 % 1012,1 hPa 0,0 mm 9,7 km/h (2 Bft) W-NW 295 ° 0 min 0,000 mm 2,5 UV-I 258 W/m² 12,3 °C 14,8 °C 16,1 km/h (3 Bft)
27.07.2017 12:52 14,8 °C 14,8 °C 85 % 1012,1 hPa 0,0 mm 5,3 km/h (1 Bft) NW 315 ° 0 min 0,000 mm 2,5 UV-I 271 W/m² 12,3 °C 14,8 °C 6,4 km/h (2 Bft)
27.07.2017 12:53 14,8 °C 14,8 °C 84 % 1012,2 hPa 0,0 mm 5,7 km/h (1 Bft) W-NW 288 ° 0 min 0,000 mm 2,6 UV-I 271 W/m² 12,1 °C 14,8 °C 9,7 km/h (2 Bft)
27.07.2017 12:54 14,7 °C 14,8 °C 83 % 1012,2 hPa 0,0 mm 9,3 km/h (2 Bft) W 275 ° 0 min 0,000 mm 2,5 UV-I 265 W/m² 11,8 °C 14,7 °C 17,7 km/h (3 Bft)
27.07.2017 12:55 14,6 °C 14,7 °C 84 % 1012,2 hPa 0,0 mm 9,4 km/h (2 Bft) W-NW 284 ° 0 min 0,000 mm 2,5 UV-I 260 W/m² 11,9 °C 14,6 °C 14,5 km/h (3 Bft)
27.07.2017 12:56 14,5 °C 14,6 °C 85 % 1012,2 hPa 0,0 mm 9,7 km/h (2 Bft) NW 306 ° 0 min 0,000 mm 2,5 UV-I 262 W/m² 12,0 °C 14,5 °C 19,3 km/h (3 Bft)
27.07.2017 12:57 14,4 °C 14,5 °C 85 % 1012,2 hPa 0,0 mm 8,1 km/h (2 Bft) W-NW 300 ° 0 min 0,000 mm 2,5 UV-I 262 W/m² 11,9 °C 14,4 °C 12,9 km/h (3 Bft)
27.07.2017 12:58 14,3 °C 14,4 °C 86 % 1012,2 hPa 0,0 mm 5,4 km/h (1 Bft) W 273 ° 0 min 0,000 mm 2,5 UV-I 260 W/m² 12,0 °C 14,3 °C 11,3 km/h (2 Bft)
27.07.2017 12:59 14,3 °C 14,3 °C 86 % 1012,2 hPa 0,0 mm 7,3 km/h (2 Bft) W 279 ° 0 min 0,000 mm 2,5 UV-I 264 W/m² 12,0 °C 14,3 °C 12,9 km/h (3 Bft)
27.07.2017 13:00 14,3 °C 14,3 °C 87 % 1012,2 hPa 0,0 mm 6,6 km/h (2 Bft) SW 232 ° 0 min 0,102 mm 2,6 UV-I 269 W/m² 12,2 °C 14,3 °C 12,9 km/h (3 Bft)
27.07.2017 13:01 14,2 °C 14,3 °C 87 % 1012,2 hPa 0,0 mm 4,4 km/h (1 Bft) W-NW 284 ° 0 min 0,000 mm 2,6 UV-I 274 W/m² 12,1 °C 14,2 °C 8,0 km/h (2 Bft)
27.07.2017 13:02 14,2 °C 14,2 °C 89 % 1012,2 hPa 0,0 mm 2,1 km/h (1 Bft) W-NW 284 ° 0 min 0,000 mm 2,6 UV-I 279 W/m² 12,4 °C 14,2 °C 3,2 km/h (1 Bft)
27.07.2017 13:03 14,2 °C 14,2 °C 88 % 1012,2 hPa 0,0 mm 4,2 km/h (1 Bft) W-SW 252 ° 0 min 0,000 mm 2,6 UV-I 278 W/m² 12,2 °C 14,2 °C 9,7 km/h (2 Bft)
27.07.2017 13:04 14,2 °C 14,2 °C 89 % 1012,2 hPa 0,0 mm 7,2 km/h (2 Bft) W-NW 294 ° 0 min 0,000 mm 2,5 UV-I 267 W/m² 12,4 °C 14,2 °C 11,3 km/h (2 Bft)
27.07.2017 13:05 14,2 °C 14,2 °C 88 % 1012,2 hPa 0,0 mm 4,7 km/h (1 Bft) W-NW 287 ° 0 min 0,000 mm 2,3 UV-I 244 W/m² 12,2 °C 14,2 °C 6,4 km/h (2 Bft)
27.07.2017 13:06 14,2 °C 14,2 °C 89 % 1012,2 hPa 0,0 mm 3,2 km/h (1 Bft) W-NW 300 ° 0 min 0,000 mm 2,2 UV-I 232 W/m² 12,4 °C 14,2 °C 4,8 km/h (1 Bft)
27.07.2017 13:07 14,2 °C 14,2 °C 90 % 1012,2 hPa 0,0 mm 2,3 km/h (1 Bft) W-NW 299 ° 0 min 0,000 mm 2,1 UV-I 225 W/m² 12,6 °C 14,2 °C 4,8 km/h (1 Bft)
27.07.2017 13:08 14,2 °C 14,2 °C 89 % 1012,2 hPa 0,0 mm 3,1 km/h (1 Bft) W-NW 299 ° 0 min 0,000 mm 2,1 UV-I 221 W/m² 12,4 °C 14,2 °C 4,8 km/h (1 Bft)
27.07.2017 13:09 14,2 °C 14,2 °C 89 % 1012,3 hPa 0,0 mm 1,2 km/h (1 Bft) W-NW 299 ° 0 min 0,000 mm 2,0 UV-I 218 W/m² 12,4 °C 14,2 °C 3,2 km/h (1 Bft)
27.07.2017 13:10 14,2 °C 14,2 °C 90 % 1012,3 hPa 0,0 mm 4,6 km/h (1 Bft) W-NW 289 ° 0 min 0,000 mm 2,0 UV-I 216 W/m² 12,6 °C 14,2 °C 11,3 km/h (2 Bft)
27.07.2017 13:11 14,2 °C 14,2 °C 89 % 1012,3 hPa 0,0 mm 4,1 km/h (1 Bft) W-SW 247 ° 0 min 0,000 mm 2,1 UV-I 223 W/m² 12,4 °C 14,2 °C 6,4 km/h (2 Bft)
27.07.2017 13:12 14,2 °C 14,2 °C 89 % 1012,3 hPa 0,0 mm 3,6 km/h (1 Bft) W-NW 289 ° 0 min 0,000 mm 2,2 UV-I 232 W/m² 12,4 °C 14,2 °C 4,8 km/h (1 Bft)
27.07.2017 13:13 14,2 °C 14,2 °C 90 % 1012,3 hPa 0,2 mm 2,0 km/h (1 Bft) W-NW 292 ° 0 min 0,000 mm 2,3 UV-I 244 W/m² 12,6 °C 14,2 °C 4,8 km/h (1 Bft)
27.07.2017 13:14 14,2 °C 14,2 °C 90 % 1012,3 hPa 0,0 mm 4,0 km/h (1 Bft) W-SW 257 ° 0 min 0,000 mm 2,4 UV-I 253 W/m² 12,6 °C 14,2 °C 8,0 km/h (2 Bft)
27.07.2017 13:15 14,2 °C 14,2 °C 90 % 1012,3 hPa 0,0 mm 4,5 km/h (1 Bft) W 272 ° 0 min 0,000 mm 2,5 UV-I 272 W/m² 12,6 °C 14,2 °C 6,4 km/h (2 Bft)
27.07.2017 13:16 14,2 °C 14,2 °C 90 % 1012,3 hPa 0,0 mm 8,1 km/h (2 Bft) W 259 ° 0 min 0,000 mm 2,6 UV-I 279 W/m² 12,6 °C 14,2 °C 11,3 km/h (2 Bft)
27.07.2017 13:17 14,2 °C 14,2 °C 89 % 1012,3 hPa 0,0 mm 7,7 km/h (2 Bft) W 269 ° 0 min 0,000 mm 2,6 UV-I 281 W/m² 12,4 °C 14,2 °C 12,9 km/h (3 Bft)
27.07.2017 13:18 14,1 °C 14,2 °C 89 % 1012,3 hPa 0,0 mm 8,8 km/h (2 Bft) W-NW 283 ° 0 min 0,000 mm 2,6 UV-I 278 W/m² 12,3 °C 14,1 °C 16,1 km/h (3 Bft)
27.07.2017 13:19 14,1 °C 14,1 °C 89 % 1012,4 hPa 0,0 mm 8,8 km/h (2 Bft) W-NW 295 ° 0 min 0,000 mm 2,5 UV-I 271 W/m² 12,3 °C 14,1 °C 12,9 km/h (3 Bft)
27.07.2017 13:20 14,1 °C 14,1 °C 89 % 1012,3 hPa 0,0 mm 4,2 km/h (1 Bft) W 277 ° 0 min 0,000 mm 2,4 UV-I 262 W/m² 12,3 °C 14,1 °C 8,0 km/h (2 Bft)
27.07.2017 13:21 14,1 °C 14,1 °C 90 % 1012,4 hPa 0,0 mm 2,1 km/h (1 Bft) W 277 ° 0 min 0,000 mm 2,4 UV-I 251 W/m² 12,5 °C 14,1 °C 3,2 km/h (1 Bft)
27.07.2017 13:22 14,2 °C 14,2 °C 91 % 1012,4 hPa 0,0 mm 7,1 km/h (2 Bft) W 279 ° 0 min 0,000 mm 2,3 UV-I 251 W/m² 12,8 °C 14,2 °C 11,3 km/h (2 Bft)
27.07.2017 13:23 14,2 °C 14,2 °C 90 % 1012,4 hPa 0,0 mm 7,5 km/h (2 Bft) W 275 ° 0 min 0,000 mm 2,3 UV-I 246 W/m² 12,6 °C 14,2 °C 12,9 km/h (3 Bft)
27.07.2017 13:24 14,2 °C 14,2 °C 90 % 1012,4 hPa 0,0 mm 3,1 km/h (1 Bft) W-NW 294 ° 0 min 0,000 mm 2,3 UV-I 248 W/m² 12,6 °C 14,2 °C 4,8 km/h (1 Bft)
27.07.2017 13:25 14,2 °C 14,2 °C 90 % 1012,4 hPa 0,0 mm 5,8 km/h (2 Bft) W 273 ° 0 min 0,000 mm 2,3 UV-I 248 W/m² 12,6 °C 14,2 °C 9,7 km/h (2 Bft)
27.07.2017 13:26 14,2 °C 14,2 °C 90 % 1012,4 hPa 0,0 mm 3,8 km/h (1 Bft) W-NW 282 ° 0 min 0,000 mm 2,4 UV-I 251 W/m² 12,6 °C 14,2 °C 6,4 km/h (2 Bft)
27.07.2017 13:27 14,3 °C 14,3 °C 90 % 1012,4 hPa 0,0 mm 4,4 km/h (1 Bft) W-NW 297 ° 0 min 0,000 mm 2,4 UV-I 258 W/m² 12,7 °C 14,3 °C 6,4 km/h (2 Bft)
27.07.2017 13:28 14,3 °C 14,3 °C 89 % 1012,3 hPa 0,0 mm 5,6 km/h (1 Bft) W-SW 246 ° 0 min 0,000 mm 2,4 UV-I 253 W/m² 12,5 °C 14,3 °C 11,3 km/h (2 Bft)
27.07.2017 13:29 14,3 °C 14,3 °C 90 % 1012,4 hPa 0,0 mm 5,7 km/h (1 Bft) W 259 ° 0 min 0,000 mm 2,3 UV-I 250 W/m² 12,7 °C 14,3 °C 9,7 km/h (2 Bft)
27.07.2017 13:30 14,3 °C 14,3 °C 90 % 1012,4 hPa 0,0 mm 6,8 km/h (2 Bft) W 271 ° 0 min 0,000 mm 2,3 UV-I 246 W/m² 12,7 °C 14,3 °C 12,9 km/h (3 Bft)
27.07.2017 13:31 14,3 °C 14,3 °C 90 % 1012,4 hPa 0,0 mm 5,0 km/h (1 Bft) W 279 ° 0 min 0,000 mm 2,3 UV-I 243 W/m² 12,7 °C 14,3 °C 9,7 km/h (2 Bft)
27.07.2017 13:32 14,2 °C 14,3 °C 89 % 1012,4 hPa 0,0 mm 10,9 km/h (2 Bft) NW 312 ° 0 min 0,000 mm 2,3 UV-I 241 W/m² 12,4 °C 14,2 °C 16,1 km/h (3 Bft)
27.07.2017 13:33 14,2 °C 14,2 °C 89 % 1012,3 hPa 0,0 mm 8,5 km/h (2 Bft) W 260 ° 0 min 0,000 mm 2,3 UV-I 239 W/m² 12,4 °C 14,2 °C 11,3 km/h (2 Bft)
27.07.2017 13:34 14,2 °C 14,2 °C 90 % 1012,3 hPa 0,0 mm 3,2 km/h (1 Bft) W 266 ° 0 min 0,000 mm 2,2 UV-I 234 W/m² 12,6 °C 14,2 °C 6,4 km/h (2 Bft)
27.07.2017 13:35 14,2 °C 14,2 °C 90 % 1012,3 hPa 0,0 mm 1,2 km/h (1 Bft) W-NW 286 ° 0 min 0,000 mm 2,2 UV-I 232 W/m² 12,6 °C 14,2 °C 3,2 km/h (1 Bft)
27.07.2017 13:36 14,2 °C 14,2 °C 91 % 1012,2 hPa 0,0 mm 6,1 km/h (2 Bft) W-NW 294 ° 0 min 0,000 mm 2,2 UV-I 232 W/m² 12,8 °C 14,2 °C 11,3 km/h (2 Bft)
27.07.2017 13:37 14,2 °C 14,2 °C 91 % 1012,2 hPa 0,0 mm 7,6 km/h (2 Bft) W-SW 252 ° 0 min 0,000 mm 2,2 UV-I 229 W/m² 12,8 °C 14,2 °C 12,9 km/h (3 Bft)
27.07.2017 13:38 14,2 °C 14,2 °C 91 % 1012,2 hPa 0,0 mm 2,2 km/h (1 Bft) W-SW 241 ° 0 min 0,000 mm 2,2 UV-I 227 W/m² 12,8 °C 14,2 °C 6,4 km/h (2 Bft)
27.07.2017 13:39 14,3 °C 14,3 °C 91 % 1012,2 hPa 0,0 mm 6,4 km/h (2 Bft) W 280 ° 0 min 0,000 mm 2,1 UV-I 229 W/m² 12,8 °C 14,3 °C 9,7 km/h (2 Bft)
27.07.2017 13:40 14,3 °C 14,3 °C 91 % 1012,2 hPa 0,0 mm 4,2 km/h (1 Bft) S-SW 200 ° 0 min 0,000 mm 2,2 UV-I 234 W/m² 12,8 °C 14,3 °C 6,4 km/h (2 Bft)
27.07.2017 13:41 14,3 °C 14,3 °C 92 % 1012,2 hPa 0,0 mm 8,4 km/h (2 Bft) W 259 ° 0 min 0,000 mm 2,2 UV-I 236 W/m² 13,0 °C 14,3 °C 11,3 km/h (2 Bft)
27.07.2017 13:42 14,3 °C 14,3 °C 91 % 1012,1 hPa 0,0 mm 4,8 km/h (1 Bft) W-NW 282 ° 0 min 0,000 mm 2,1 UV-I 234 W/m² 12,8 °C 14,3 °C 8,0 km/h (2 Bft)
27.07.2017 13:43 14,3 °C 14,3 °C 91 % 1012,1 hPa 0,0 mm 8,2 km/h (2 Bft) S-SW 209 ° 0 min 0,000 mm 2,1 UV-I 234 W/m² 12,8 °C 14,3 °C 12,9 km/h (3 Bft)
27.07.2017 13:44 14,3 °C 14,3 °C 91 % 1012,1 hPa 0,0 mm 4,0 km/h (1 Bft) W 274 ° 0 min 0,000 mm 2,2 UV-I 237 W/m² 12,8 °C 14,3 °C 8,0 km/h (2 Bft)
27.07.2017 13:45 14,3 °C 14,3 °C 91 % 1012,1 hPa 0,0 mm 5,0 km/h (1 Bft) W 278 ° 0 min 0,000 mm 2,2 UV-I 246 W/m² 12,8 °C 14,3 °C 6,4 km/h (2 Bft)
27.07.2017 13:46 14,3 °C 14,3 °C 90 % 1012,1 hPa 0,0 mm 2,7 km/h (1 Bft) N-NW 329 ° 0 min 0,000 mm 2,3 UV-I 250 W/m² 12,7 °C 14,3 °C 6,4 km/h (2 Bft)
27.07.2017 13:47 14,3 °C 14,3 °C 90 % 1012,1 hPa 0,0 mm 6,1 km/h (2 Bft) W 271 ° 0 min 0,000 mm 2,3 UV-I 251 W/m² 12,7 °C 14,3 °C 9,7 km/h (2 Bft)
27.07.2017 13:48 14,3 °C 14,3 °C 92 % 1012,0 hPa 0,0 mm 7,3 km/h (2 Bft) W-SW 250 ° 0 min 0,000 mm 2,3 UV-I 251 W/m² 13,0 °C 14,3 °C 12,9 km/h (3 Bft)
27.07.2017 13:49 14,4 °C 14,4 °C 91 % 1012,0 hPa 0,0 mm 2,3 km/h (1 Bft) W-SW 253 ° 0 min 0,000 mm 2,3 UV-I 251 W/m² 12,9 °C 14,4 °C 6,4 km/h (2 Bft)
27.07.2017 13:50 14,3 °C 14,4 °C 91 % 1012,1 hPa 0,0 mm 5,1 km/h (1 Bft) W 279 ° 0 min 0,000 mm 2,2 UV-I 241 W/m² 12,8 °C 14,3 °C 9,7 km/h (2 Bft)
27.07.2017 13:51 14,4 °C 14,4 °C 91 % 1012,0 hPa 0,0 mm 3,7 km/h (1 Bft) W 269 ° 0 min 0,000 mm 2,2 UV-I 241 W/m² 12,9 °C 14,4 °C 4,8 km/h (1 Bft)
27.07.2017 13:52 14,4 °C 14,4 °C 91 % 1012,0 hPa 0,0 mm 1,9 km/h (1 Bft) W 269 ° 0 min 0,000 mm 2,2 UV-I 241 W/m² 12,9 °C 14,4 °C 3,2 km/h (1 Bft)
27.07.2017 13:53 14,4 °C 14,4 °C 91 % 1012,0 hPa 0,0 mm 3,0 km/h (1 Bft) W-SW 238 ° 0 min 0,000 mm 2,2 UV-I 244 W/m² 12,9 °C 14,4 °C 4,8 km/h (1 Bft)
27.07.2017 13:54 14,4 °C 14,4 °C 91 % 1012,0 hPa 0,0 mm 2,1 km/h (1 Bft) W-SW 238 ° 0 min 0,000 mm 2,2 UV-I 246 W/m² 12,9 °C 14,4 °C 3,2 km/h (1 Bft)
27.07.2017 13:55 14,4 °C 14,4 °C 90 % 1012,0 hPa 0,0 mm 0,5 km/h (0 Bft) SW 217 ° 0 min 0,000 mm 2,2 UV-I 248 W/m² 12,8 °C 14,4 °C 1,6 km/h (1 Bft)
27.07.2017 13:56 14,5 °C 14,5 °C 91 % 1012,0 hPa 0,0 mm 1,9 km/h (1 Bft) SW 221 ° 0 min 0,000 mm 2,2 UV-I 250 W/m² 13,0 °C 14,5 °C 3,2 km/h (1 Bft)
27.07.2017 13:57 14,6 °C 14,6 °C 92 % 1012,0 hPa 0,0 mm 4,3 km/h (1 Bft) W 276 ° 0 min 0,000 mm 2,3 UV-I 250 W/m² 13,3 °C 14,6 °C 6,4 km/h (2 Bft)
27.07.2017 13:58 14,7 °C 14,7 °C 91 % 1012,0 hPa 0,0 mm 4,9 km/h (1 Bft) W-SW 237 ° 0 min 0,000 mm 2,2 UV-I 241 W/m² 13,2 °C 14,7 °C 11,3 km/h (2 Bft)
27.07.2017 13:59 14,7 °C 14,7 °C 91 % 1011,9 hPa 0,0 mm 3,9 km/h (1 Bft) W-SW 252 ° 0 min 0,000 mm 2,1 UV-I 229 W/m² 13,2 °C 14,7 °C 6,4 km/h (2 Bft)
27.07.2017 14:00 14,8 °C 14,8 °C 91 % 1011,9 hPa 0,0 mm 1,6 km/h (1 Bft) W 279 ° 0 min 0,127 mm 2,0 UV-I 218 W/m² 13,3 °C 14,8 °C 6,4 km/h (2 Bft)
27.07.2017 14:01 14,8 °C 14,8 °C 91 % 1012,0 hPa 0,0 mm 6,2 km/h (2 Bft) W-NW 292 ° 0 min 0,000 mm 1,9 UV-I 211 W/m² 13,3 °C 14,8 °C 11,3 km/h (2 Bft)
27.07.2017 14:02 14,8 °C 14,8 °C 91 % 1011,9 hPa 0,0 mm 5,9 km/h (2 Bft) W 263 ° 0 min 0,000 mm 1,8 UV-I 200 W/m² 13,3 °C 14,8 °C 9,7 km/h (2 Bft)
27.07.2017 14:03 14,8 °C 14,9 °C 91 % 1011,9 hPa 0,0 mm 5,6 km/h (1 Bft) SW 215 ° 0 min 0,000 mm 1,8 UV-I 192 W/m² 13,3 °C 14,8 °C 9,7 km/h (2 Bft)
27.07.2017 14:04 14,9 °C 14,9 °C 91 % 1011,9 hPa 0,0 mm 2,7 km/h (1 Bft) W 265 ° 0 min 0,000 mm 1,7 UV-I 185 W/m² 13,4 °C 14,9 °C 4,8 km/h (1 Bft)
27.07.2017 14:05 14,9 °C 14,9 °C 91 % 1011,9 hPa 0,0 mm 0,3 km/h (0 Bft) W 265 ° 0 min 0,000 mm 1,6 UV-I 183 W/m² 13,4 °C 14,9 °C 1,6 km/h (1 Bft)
27.07.2017 14:06 14,9 °C 14,9 °C 91 % 1011,9 hPa 0,0 mm 0,9 km/h (0 Bft) W 265 ° 0 min 0,000 mm 1,7 UV-I 186 W/m² 13,4 °C 14,9 °C 3,2 km/h (1 Bft)
27.07.2017 14:07 14,9 °C 15,0 °C 90 % 1011,9 hPa 0,0 mm 3,4 km/h (1 Bft) W-SW 255 ° 0 min 0,000 mm 1,7 UV-I 188 W/m² 13,3 °C 14,9 °C 6,4 km/h (2 Bft)
27.07.2017 14:08 15,0 °C 15,0 °C 91 % 1011,9 hPa 0,0 mm 5,7 km/h (1 Bft) W-SW 252 ° 0 min 0,000 mm 1,8 UV-I 192 W/m² 13,5 °C 15,0 °C 8,0 km/h (2 Bft)
27.07.2017 14:09 15,0 °C 15,1 °C 91 % 1011,9 hPa 0,0 mm 1,9 km/h (1 Bft) W-SW 254 ° 0 min 0,000 mm 1,8 UV-I 197 W/m² 13,5 °C 15,0 °C 3,2 km/h (1 Bft)
27.07.2017 14:11 15,0 °C 15,1 °C 90 % 1011,9 hPa 0,0 mm 1,7 km/h (1 Bft) W-SW 251 ° 0 min 0,000 mm 1,7 UV-I 188 W/m² 13,4 °C 15,0 °C 4,8 km/h (1 Bft)
27.07.2017 14:12 15,1 °C 15,1 °C 90 % 1011,9 hPa 0,0 mm 3,1 km/h (1 Bft) W 261 ° 0 min 0,000 mm 1,7 UV-I 179 W/m² 13,5 °C 15,1 °C 4,8 km/h (1 Bft)
27.07.2017 14:14 15,1 °C 15,1 °C 91 % 1011,9 hPa 0,0 mm 3,2 km/h (1 Bft) W 271 ° 0 min 0,000 mm 1,4 UV-I 153 W/m² 13,6 °C 15,1 °C 4,8 km/h (1 Bft)
27.07.2017 14:15 15,1 °C 15,2 °C 90 % 1011,9 hPa 0,0 mm 2,0 km/h (1 Bft) W-SW 248 ° 0 min 0,000 mm 1,3 UV-I 146 W/m² 13,5 °C 15,1 °C 4,8 km/h (1 Bft)
27.07.2017 14:16 15,2 °C 15,2 °C 90 % 1011,9 hPa 0,0 mm 6,8 km/h (2 Bft) W-SW 241 ° 0 min 0,000 mm 1,3 UV-I 142 W/m² 13,6 °C 15,2 °C 8,0 km/h (2 Bft)
27.07.2017 14:17 15,2 °C 15,2 °C 90 % 1011,9 hPa 0,0 mm 3,1 km/h (1 Bft) W-NW 285 ° 0 min 0,000 mm 1,3 UV-I 141 W/m² 13,6 °C 15,2 °C 6,4 km/h (2 Bft)
27.07.2017 14:18 15,2 °C 15,2 °C 90 % 1011,9 hPa 0,0 mm 4,0 km/h (1 Bft) W 279 ° 0 min 0,000 mm 1,3 UV-I 141 W/m² 13,6 °C 15,2 °C 6,4 km/h (2 Bft)
27.07.2017 14:19 15,2 °C 15,2 °C 90 % 1011,9 hPa 0,0 mm 4,9 km/h (1 Bft) SW 217 ° 0 min 0,000 mm 1,3 UV-I 141 W/m² 13,6 °C 15,2 °C 8,0 km/h (2 Bft)
27.07.2017 14:20 15,2 °C 15,2 °C 90 % 1011,9 hPa 0,0 mm 7,2 km/h (2 Bft) W 269 ° 0 min 0,000 mm 1,3 UV-I 135 W/m² 13,6 °C 15,2 °C 19,3 km/h (3 Bft)
27.07.2017 14:21 15,2 °C 15,2 °C 89 % 1011,8 hPa 0,0 mm 9,4 km/h (2 Bft) W 281 ° 0 min 0,000 mm 1,2 UV-I 135 W/m² 13,4 °C 15,2 °C 14,5 km/h (3 Bft)
27.07.2017 14:22 15,1 °C 15,2 °C 89 % 1011,8 hPa 0,0 mm 2,3 km/h (1 Bft) W 280 ° 0 min 0,000 mm 1,3 UV-I 137 W/m² 13,3 °C 15,1 °C 11,3 km/h (2 Bft)
27.07.2017 14:23 15,1 °C 15,2 °C 89 % 1011,7 hPa 0,0 mm 11,3 km/h (2 Bft) SW 229 ° 0 min 0,000 mm 1,3 UV-I 139 W/m² 13,3 °C 15,1 °C 17,7 km/h (3 Bft)
27.07.2017 14:24 15,1 °C 15,2 °C 89 % 1011,7 hPa 0,0 mm 5,0 km/h (1 Bft) W 275 ° 0 min 0,000 mm 1,3 UV-I 142 W/m² 13,3 °C 15,1 °C 8,0 km/h (2 Bft)
27.07.2017 14:25 15,1 °C 15,1 °C 89 % 1011,6 hPa 0,0 mm 5,3 km/h (1 Bft) W 280 ° 0 min 0,000 mm 1,3 UV-I 146 W/m² 13,3 °C 15,1 °C 12,9 km/h (3 Bft)
27.07.2017 14:26 15,1 °C 15,1 °C 89 % 1011,7 hPa 0,0 mm 5,2 km/h (1 Bft) W 261 ° 0 min 0,000 mm 1,3 UV-I 151 W/m² 13,3 °C 15,1 °C 11,3 km/h (2 Bft)
27.07.2017 14:27 15,2 °C 15,2 °C 89 % 1011,6 hPa 0,0 mm 5,6 km/h (1 Bft) W-NW 292 ° 0 min 0,000 mm 1,4 UV-I 153 W/m² 13,4 °C 15,2 °C 9,7 km/h (2 Bft)
27.07.2017 14:28 15,2 °C 15,2 °C 90 % 1011,6 hPa 0,0 mm 7,4 km/h (2 Bft) W 261 ° 0 min 0,000 mm 1,4 UV-I 153 W/m² 13,6 °C 15,2 °C 12,9 km/h (3 Bft)
27.07.2017 14:29 15,1 °C 15,2 °C 90 % 1011,6 hPa 0,0 mm 6,4 km/h (2 Bft) W-NW 293 ° 0 min 0,000 mm 1,4 UV-I 155 W/m² 13,5 °C 15,1 °C 9,7 km/h (2 Bft)
27.07.2017 14:30 15,1 °C 15,2 °C 89 % 1011,6 hPa 0,0 mm 5,0 km/h (1 Bft) W-SW 258 ° 0 min 0,000 mm 1,5 UV-I 162 W/m² 13,3 °C 15,1 °C 6,4 km/h (2 Bft)
27.07.2017 14:31 15,1 °C 15,1 °C 88 % 1011,6 hPa 0,0 mm 7,1 km/h (2 Bft) W-NW 289 ° 0 min 0,000 mm 1,6 UV-I 174 W/m² 13,1 °C 15,1 °C 19,3 km/h (3 Bft)
27.07.2017 14:32 15,1 °C 15,1 °C 89 % 1011,6 hPa 0,0 mm 5,3 km/h (1 Bft) S 186 ° 0 min 0,000 mm 1,7 UV-I 195 W/m² 13,3 °C 15,1 °C 11,3 km/h (2 Bft)
27.07.2017 14:33 15,2 °C 15,2 °C 88 % 1011,5 hPa 0,0 mm 3,6 km/h (1 Bft) W 271 ° 0 min 0,000 mm 1,8 UV-I 200 W/m² 13,2 °C 15,2 °C 11,3 km/h (2 Bft)
27.07.2017 14:34 15,2 °C 15,2 °C 88 % 1011,5 hPa 0,0 mm 4,1 km/h (1 Bft) W-SW 244 ° 0 min 0,000 mm 1,8 UV-I 200 W/m² 13,2 °C 15,2 °C 6,4 km/h (2 Bft)
27.07.2017 14:35 15,2 °C 15,2 °C 88 % 1011,6 hPa 0,0 mm 6,5 km/h (2 Bft) W 270 ° 0 min 0,000 mm 1,8 UV-I 197 W/m² 13,2 °C 15,2 °C 11,3 km/h (2 Bft)
27.07.2017 14:36 15,2 °C 15,2 °C 89 % 1011,6 hPa 0,0 mm 8,6 km/h (2 Bft) NW 304 ° 0 min 0,000 mm 1,7 UV-I 197 W/m² 13,4 °C 15,2 °C 12,9 km/h (3 Bft)
27.07.2017 14:37 15,3 °C 15,3 °C 89 % 1011,5 hPa 0,0 mm 6,7 km/h (2 Bft) W-SW 245 ° 0 min 0,000 mm 1,7 UV-I 195 W/m² 13,5 °C 15,3 °C 14,5 km/h (3 Bft)
27.07.2017 14:38 15,3 °C 15,3 °C 88 % 1011,5 hPa 0,0 mm 2,6 km/h (1 Bft) SW 220 ° 0 min 0,000 mm 1,7 UV-I 193 W/m² 13,3 °C 15,3 °C 9,7 km/h (2 Bft)
27.07.2017 14:39 15,3 °C 15,3 °C 88 % 1011,5 hPa 0,0 mm 1,7 km/h (1 Bft) SW 220 ° 0 min 0,000 mm 1,7 UV-I 195 W/m² 13,3 °C 15,3 °C 3,2 km/h (1 Bft)
27.07.2017 14:40 15,3 °C 15,3 °C 87 % 1011,5 hPa 0,0 mm 1,7 km/h (1 Bft) SW 227 ° 0 min 0,000 mm 1,8 UV-I 200 W/m² 13,1 °C 15,3 °C 3,2 km/h (1 Bft)
27.07.2017 14:41 15,3 °C 15,3 °C 87 % 1011,5 hPa 0,0 mm 2,7 km/h (1 Bft) SW 226 ° 0 min 0,000 mm 1,8 UV-I 204 W/m² 13,1 °C 15,3 °C 6,4 km/h (2 Bft)
27.07.2017 14:42 15,4 °C 15,4 °C 88 % 1011,5 hPa 0,0 mm 2,3 km/h (1 Bft) W 259 ° 0 min 0,000 mm 1,8 UV-I 206 W/m² 13,4 °C 15,4 °C 4,8 km/h (1 Bft)
27.07.2017 14:43 15,4 °C 15,4 °C 88 % 1011,6 hPa 0,0 mm 0,5 km/h (0 Bft) W 259 ° 0 min 0,000 mm 1,8 UV-I 207 W/m² 13,4 °C 15,4 °C 3,2 km/h (1 Bft)
27.07.2017 14:44 15,5 °C 15,5 °C 89 % 1011,6 hPa 0,0 mm 2,1 km/h (1 Bft) W 261 ° 0 min 0,000 mm 1,8 UV-I 214 W/m² 13,7 °C 15,5 °C 4,8 km/h (1 Bft)
27.07.2017 14:45 15,6 °C 15,6 °C 89 % 1011,6 hPa 0,0 mm 6,4 km/h (2 Bft) W 265 ° 0 min 0,000 mm 1,9 UV-I 234 W/m² 13,8 °C 15,6 °C 9,7 km/h (2 Bft)
27.07.2017 14:46 15,6 °C 15,6 °C 89 % 1011,6 hPa 0,0 mm 6,1 km/h (2 Bft) W-SW 252 ° 0 min 0,000 mm 2,3 UV-I 258 W/m² 13,8 °C 15,6 °C 9,7 km/h (2 Bft)
27.07.2017 14:47 15,7 °C 15,7 °C 87 % 1011,6 hPa 0,0 mm 1,8 km/h (1 Bft) W-SW 249 ° 0 min 0,000 mm 2,4 UV-I 278 W/m² 13,5 °C 15,7 °C 6,4 km/h (2 Bft)
27.07.2017 14:48 15,7 °C 15,7 °C 87 % 1011,5 hPa 0,0 mm 3,2 km/h (1 Bft) W 272 ° 1 min 0,000 mm 2,5 UV-I 290 W/m² 13,5 °C 15,7 °C 6,4 km/h (2 Bft)
27.07.2017 14:49 15,8 °C 15,8 °C 87 % 1011,5 hPa 0,0 mm 1,5 km/h (1 Bft) W 264 ° 0 min 0,000 mm 2,5 UV-I 279 W/m² 13,6 °C 15,8 °C 4,8 km/h (1 Bft)
27.07.2017 14:50 15,8 °C 15,8 °C 88 % 1011,5 hPa 0,0 mm 3,1 km/h (1 Bft) W 259 ° 0 min 0,000 mm 2,3 UV-I 272 W/m² 13,8 °C 15,8 °C 4,8 km/h (1 Bft)
27.07.2017 14:51 15,9 °C 15,9 °C 88 % 1011,5 hPa 0,0 mm 1,5 km/h (1 Bft) W 263 ° 0 min 0,000 mm 2,2 UV-I 260 W/m² 13,9 °C 15,9 °C 3,2 km/h (1 Bft)
27.07.2017 14:52 16,0 °C 16,0 °C 88 % 1011,5 hPa 0,0 mm 1,2 km/h (1 Bft) W 263 ° 0 min 0,000 mm 2,1 UV-I 241 W/m² 14,0 °C 16,0 °C 3,2 km/h (1 Bft)
27.07.2017 14:53 16,1 °C 16,1 °C 87 % 1011,5 hPa 0,0 mm 2,6 km/h (1 Bft) W 261 ° 0 min 0,000 mm 1,9 UV-I 218 W/m² 13,9 °C 16,1 °C 4,8 km/h (1 Bft)
27.07.2017 14:54 16,1 °C 16,1 °C 86 % 1011,5 hPa 0,0 mm 3,1 km/h (1 Bft) SW 225 ° 0 min 0,000 mm 1,9 UV-I 207 W/m² 13,8 °C 16,1 °C 4,8 km/h (1 Bft)
27.07.2017 14:55 16,1 °C 16,1 °C 86 % 1011,5 hPa 0,0 mm 2,7 km/h (1 Bft) W-SW 243 ° 0 min 0,000 mm 1,8 UV-I 200 W/m² 13,8 °C 16,1 °C 3,2 km/h (1 Bft)
27.07.2017 14:56 16,0 °C 16,1 °C 87 % 1011,5 hPa 0,0 mm 0,7 km/h (0 Bft) W-SW 243 ° 0 min 0,000 mm 1,7 UV-I 197 W/m² 13,8 °C 16,0 °C 1,6 km/h (1 Bft)
27.07.2017 14:57 16,0 °C 16,1 °C 86 % 1011,5 hPa 0,0 mm 1,1 km/h (1 Bft) W-SW 245 ° 0 min 0,000 mm 1,7 UV-I 193 W/m² 13,7 °C 16,0 °C 3,2 km/h (1 Bft)
27.07.2017 14:58 16,1 °C 16,1 °C 86 % 1011,5 hPa 0,0 mm 1,2 km/h (1 Bft) W-SW 245 ° 0 min 0,000 mm 1,7 UV-I 195 W/m² 13,8 °C 16,1 °C 3,2 km/h (1 Bft)
27.07.2017 14:59 16,0 °C 16,1 °C 86 % 1011,5 hPa 0,0 mm 0,5 km/h (0 Bft) W-SW 244 ° 0 min 0,000 mm 1,8 UV-I 202 W/m² 13,7 °C 16,0 °C 1,6 km/h (1 Bft)
27.07.2017 15:00 16,1 °C 16,1 °C 86 % 1011,5 hPa 0,0 mm 0,8 km/h (0 Bft) W 259 ° 0 min 0,000 mm 1,9 UV-I 218 W/m² 13,8 °C 16,1 °C 3,2 km/h (1 Bft)
27.07.2017 15:01 16,1 °C 16,1 °C 88 % 1011,5 hPa 0,0 mm 1,6 km/h (1 Bft) W 262 ° 0 min 0,101 mm 2,1 UV-I 269 W/m² 14,1 °C 16,1 °C 4,8 km/h (1 Bft)
27.07.2017 15:02 16,2 °C 16,2 °C 88 % 1011,5 hPa 0,0 mm 0,5 km/h (0 Bft) W 262 ° 1 min 0,000 mm 2,7 UV-I 311 W/m² 14,2 °C 16,2 °C 3,2 km/h (1 Bft)
27.07.2017 15:03 16,3 °C 16,3 °C 88 % 1011,5 hPa 0,0 mm 2,1 km/h (1 Bft) W 262 ° 1 min 0,000 mm 3,1 UV-I 367 W/m² 14,3 °C 16,3 °C 4,8 km/h (1 Bft)
27.07.2017 15:04 16,4 °C 16,4 °C 88 % 1011,4 hPa 0,0 mm 1,3 km/h (1 Bft) W 262 ° 1 min 0,000 mm 3,4 UV-I 408 W/m² 14,4 °C 16,4 °C 4,8 km/h (1 Bft)
27.07.2017 15:05 16,4 °C 16,4 °C 87 % 1011,4 hPa 0,0 mm 0,4 km/h (0 Bft) W 261 ° 1 min 0,000 mm 3,6 UV-I 441 W/m² 14,2 °C 16,4 °C 1,6 km/h (1 Bft)
27.07.2017 15:06 16,6 °C 16,6 °C 88 % 1011,4 hPa 0,0 mm 1,3 km/h (1 Bft) S 183 ° 1 min 0,000 mm 4,5 UV-I 441 W/m² 14,6 °C 16,6 °C 3,2 km/h (1 Bft)
27.07.2017 15:07 16,7 °C 16,7 °C 86 % 1011,3 hPa 0,0 mm 0,0 km/h (0 Bft) S 183 ° 1 min 0,000 mm 4,5 UV-I 561 W/m² 14,3 °C 16,7 °C 0,0 km/h (0 Bft)
27.07.2017 15:08 16,9 °C 16,9 °C 88 % 1011,2 hPa 0,0 mm 2,4 km/h (1 Bft) W 276 ° 1 min 0,000 mm 5,1 UV-I 587 W/m² 14,9 °C 16,9 °C 4,8 km/h (1 Bft)
27.07.2017 15:09 16,9 °C 16,9 °C 86 % 1011,1 hPa 0,0 mm 2,5 km/h (1 Bft) W 267 ° 1 min 0,000 mm 5,5 UV-I 587 W/m² 14,5 °C 16,9 °C 4,8 km/h (1 Bft)
27.07.2017 15:10 17,0 °C 17,0 °C 84 % 1011,0 hPa 0,0 mm 2,5 km/h (1 Bft) W-NW 289 ° 1 min 0,000 mm 5,0 UV-I 666 W/m² 14,3 °C 17,0 °C 4,8 km/h (1 Bft)
27.07.2017 15:11 17,1 °C 17,1 °C 87 % 1010,9 hPa 0,0 mm 1,6 km/h (1 Bft) W-SW 249 ° 1 min 0,000 mm 5,0 UV-I 701 W/m² 14,9 °C 17,1 °C 3,2 km/h (1 Bft)
27.07.2017 15:12 17,1 °C 17,1 °C 84 % 1011,0 hPa 0,0 mm 4,5 km/h (1 Bft) N-NW 327 ° 1 min 0,000 mm 5,1 UV-I 457 W/m² 14,4 °C 17,1 °C 8,0 km/h (2 Bft)
27.07.2017 15:13 17,1 °C 17,1 °C 83 % 1011,1 hPa 0,0 mm 6,2 km/h (2 Bft) W 261 ° 1 min 0,000 mm 4,0 UV-I 415 W/m² 14,2 °C 17,1 °C 8,0 km/h (2 Bft)
27.07.2017 15:14 17,2 °C 17,2 °C 84 % 1011,1 hPa 0,0 mm 5,3 km/h (1 Bft) W-NW 295 ° 1 min 0,000 mm 3,0 UV-I 336 W/m² 14,5 °C 17,2 °C 8,0 km/h (2 Bft)
27.07.2017 15:15 17,2 °C 17,2 °C 84 % 1011,1 hPa 0,0 mm 4,8 km/h (1 Bft) W-NW 293 ° 1 min 0,000 mm 2,8 UV-I 306 W/m² 14,5 °C 17,2 °C 6,4 km/h (2 Bft)
27.07.2017 15:16 17,2 °C 17,2 °C 82 % 1011,1 hPa 0,0 mm 3,4 km/h (1 Bft) W 271 ° 1 min 0,000 mm 2,7 UV-I 302 W/m² 14,1 °C 17,2 °C 4,8 km/h (1 Bft)
27.07.2017 15:17 17,1 °C 17,2 °C 82 % 1011,1 hPa 0,0 mm 1,9 km/h (1 Bft) W 271 ° 1 min 0,000 mm 2,8 UV-I 315 W/m² 14,0 °C 17,1 °C 3,2 km/h (1 Bft)
27.07.2017 15:18 17,1 °C 17,1 °C 84 % 1011,1 hPa 0,0 mm 5,2 km/h (1 Bft) NW 311 ° 1 min 0,000 mm 3,0 UV-I 341 W/m² 14,4 °C 17,1 °C 12,9 km/h (3 Bft)
27.07.2017 15:19 17,2 °C 17,2 °C 83 % 1011,1 hPa 0,0 mm 9,1 km/h (2 Bft) W-NW 284 ° 1 min 0,000 mm 3,1 UV-I 355 W/m² 14,3 °C 17,2 °C 12,9 km/h (3 Bft)
27.07.2017 15:20 17,2 °C 17,2 °C 84 % 1011,0 hPa 0,0 mm 4,2 km/h (1 Bft) SW 224 ° 1 min 0,000 mm 3,4 UV-I 388 W/m² 14,5 °C 17,2 °C 9,7 km/h (2 Bft)
27.07.2017 15:21 17,2 °C 17,2 °C 82 % 1011,0 hPa 0,0 mm 5,4 km/h (1 Bft) N-NW 331 ° 1 min 0,000 mm 4,7 UV-I 388 W/m² 14,1 °C 17,2 °C 12,9 km/h (3 Bft)
27.07.2017 15:22 17,3 °C 17,3 °C 84 % 1011,0 hPa 0,0 mm 3,6 km/h (1 Bft) W 265 ° 1 min 0,000 mm 5,2 UV-I 388 W/m² 14,6 °C 17,3 °C 6,4 km/h (2 Bft)
27.07.2017 15:23 17,3 °C 17,3 °C 84 % 1011,0 hPa 0,0 mm 3,4 km/h (1 Bft) W 265 ° 1 min 0,000 mm 4,8 UV-I 705 W/m² 14,6 °C 17,3 °C 4,8 km/h (1 Bft)
27.07.2017 15:24 17,5 °C 17,5 °C 82 % 1010,9 hPa 0,0 mm 1,8 km/h (1 Bft) SW 231 ° 1 min 0,000 mm 3,8 UV-I 434 W/m² 14,4 °C 17,5 °C 3,2 km/h (1 Bft)
27.07.2017 15:25 17,6 °C 17,6 °C 82 % 1010,9 hPa 0,0 mm 3,8 km/h (1 Bft) W-NW 295 ° 1 min 0,000 mm 3,5 UV-I 420 W/m² 14,5 °C 17,6 °C 6,4 km/h (2 Bft)
27.07.2017 15:26 17,7 °C 17,7 °C 83 % 1010,9 hPa 0,0 mm 3,2 km/h (1 Bft) W-SW 252 ° 1 min 0,000 mm 3,5 UV-I 469 W/m² 14,8 °C 17,7 °C 4,8 km/h (1 Bft)
27.07.2017 15:27 17,8 °C 17,8 °C 84 % 1010,9 hPa 0,0 mm 7,2 km/h (2 Bft) W-NW 292 ° 1 min 0,000 mm 4,0 UV-I 499 W/m² 15,1 °C 17,8 °C 12,9 km/h (3 Bft)
27.07.2017 15:28 17,7 °C 17,8 °C 80 % 1010,9 hPa 0,0 mm 5,2 km/h (1 Bft) W-NW 292 ° 1 min 0,000 mm 3,3 UV-I 406 W/m² 14,2 °C 17,7 °C 11,3 km/h (2 Bft)
27.07.2017 15:29 17,7 °C 17,8 °C 80 % 1010,9 hPa 0,0 mm 5,1 km/h (1 Bft) W-NW 297 ° 1 min 0,000 mm 4,5 UV-I 499 W/m² 14,2 °C 17,7 °C 8,0 km/h (2 Bft)
27.07.2017 15:30 17,7 °C 17,7 °C 82 % 1010,9 hPa 0,0 mm 11,6 km/h (2 Bft) W-NW 298 ° 1 min 0,000 mm 4,2 UV-I 417 W/m² 14,6 °C 17,7 °C 16,1 km/h (3 Bft)
27.07.2017 15:31 17,7 °C 17,7 °C 79 % 1010,9 hPa 0,0 mm 8,0 km/h (2 Bft) W 271 ° 1 min 0,000 mm 3,7 UV-I 417 W/m² 14,0 °C 17,7 °C 12,9 km/h (3 Bft)
27.07.2017 15:32 17,7 °C 17,7 °C 80 % 1010,9 hPa 0,0 mm 6,4 km/h (2 Bft) NW 313 ° 1 min 0,000 mm 3,5 UV-I 417 W/m² 14,2 °C 17,7 °C 14,5 km/h (3 Bft)
27.07.2017 15:33 17,7 °C 17,7 °C 80 % 1010,9 hPa 0,0 mm 6,2 km/h (2 Bft) W 281 ° 1 min 0,000 mm 3,3 UV-I 385 W/m² 14,2 °C 17,7 °C 9,7 km/h (2 Bft)
27.07.2017 15:34 17,7 °C 17,7 °C 82 % 1010,9 hPa 0,0 mm 5,0 km/h (1 Bft) W-NW 283 ° 1 min 0,000 mm 3,3 UV-I 380 W/m² 14,6 °C 17,7 °C 6,4 km/h (2 Bft)
27.07.2017 15:35 17,7 °C 17,7 °C 81 % 1010,8 hPa 0,0 mm 1,1 km/h (1 Bft) W 271 ° 1 min 0,000 mm 3,3 UV-I 376 W/m² 14,4 °C 17,7 °C 3,2 km/h (1 Bft)
27.07.2017 15:36 17,7 °C 17,7 °C 80 % 1010,8 hPa 0,0 mm 3,6 km/h (1 Bft) S 186 ° 1 min 0,000 mm 3,4 UV-I 462 W/m² 14,2 °C 17,7 °C 6,4 km/h (2 Bft)
27.07.2017 15:37 17,7 °C 17,7 °C 80 % 1010,8 hPa 0,0 mm 4,4 km/h (1 Bft) W-SW 251 ° 1 min 0,000 mm 3,1 UV-I 339 W/m² 14,2 °C 17,7 °C 6,4 km/h (2 Bft)
27.07.2017 15:38 17,6 °C 17,7 °C 79 % 1010,8 hPa 0,0 mm 2,5 km/h (1 Bft) W-SW 251 ° 1 min 0,000 mm 2,9 UV-I 323 W/m² 13,9 °C 17,6 °C 6,4 km/h (2 Bft)
27.07.2017 15:39 17,6 °C 17,6 °C 79 % 1010,7 hPa 0,0 mm 0,0 km/h (0 Bft) W-SW 251 ° 1 min 0,000 mm 2,7 UV-I 304 W/m² 13,9 °C 17,6 °C 0,0 km/h (0 Bft)
27.07.2017 15:40 17,6 °C 17,6 °C 79 % 1010,7 hPa 0,0 mm 0,6 km/h (0 Bft) S 186 ° 0 min 0,000 mm 2,6 UV-I 287 W/m² 13,9 °C 17,6 °C 3,2 km/h (1 Bft)
27.07.2017 15:41 17,6 °C 17,6 °C 80 % 1010,7 hPa 0,0 mm 1,8 km/h (1 Bft) W-SW 254 ° 0 min 0,000 mm 2,5 UV-I 274 W/m² 14,1 °C 17,6 °C 3,2 km/h (1 Bft)
27.07.2017 15:42 17,6 °C 17,6 °C 83 % 1010,8 hPa 0,0 mm 5,0 km/h (1 Bft) W 266 ° 0 min 0,000 mm 2,4 UV-I 257 W/m² 14,7 °C 17,6 °C 6,4 km/h (2 Bft)
27.07.2017 15:43 17,6 °C 17,6 °C 81 % 1010,8 hPa 0,0 mm 4,4 km/h (1 Bft) W-NW 292 ° 0 min 0,000 mm 2,2 UV-I 248 W/m² 14,3 °C 17,6 °C 6,4 km/h (2 Bft)
27.07.2017 15:44 17,7 °C 17,7 °C 82 % 1010,8 hPa 0,0 mm 3,6 km/h (1 Bft) W 263 ° 0 min 0,000 mm 2,2 UV-I 243 W/m² 14,6 °C 17,7 °C 4,8 km/h (1 Bft)
27.07.2017 15:45 17,6 °C 17,7 °C 82 % 1010,8 hPa 0,0 mm 4,3 km/h (1 Bft) W-NW 283 ° 0 min 0,000 mm 2,2 UV-I 250 W/m² 14,5 °C 17,6 °C 6,4 km/h (2 Bft)
27.07.2017 15:46 17,7 °C 17,7 °C 81 % 1010,8 hPa 0,0 mm 8,0 km/h (2 Bft) W 279 ° 0 min 0,000 mm 2,2 UV-I 253 W/m² 14,4 °C 17,7 °C 11,3 km/h (2 Bft)
27.07.2017 15:47 17,6 °C 17,7 °C 80 % 1010,8 hPa 0,0 mm 3,1 km/h (1 Bft) NW 319 ° 0 min 0,000 mm 2,3 UV-I 265 W/m² 14,1 °C 17,6 °C 6,4 km/h (2 Bft)
27.07.2017 15:48 17,6 °C 17,6 °C 81 % 1010,8 hPa 0,0 mm 3,0 km/h (1 Bft) W-SW 246 ° 1 min 0,000 mm 2,5 UV-I 295 W/m² 14,3 °C 17,6 °C 6,4 km/h (2 Bft)
27.07.2017 15:49 17,6 °C 17,6 °C 81 % 1010,8 hPa 0,0 mm 7,6 km/h (2 Bft) W 267 ° 1 min 0,000 mm 2,7 UV-I 306 W/m² 14,3 °C 17,6 °C 11,3 km/h (2 Bft)
27.07.2017 15:50 17,5 °C 17,6 °C 80 % 1010,8 hPa 0,0 mm 6,5 km/h (2 Bft) W 269 ° 1 min 0,000 mm 2,8 UV-I 316 W/m² 14,0 °C 17,5 °C 11,3 km/h (2 Bft)
27.07.2017 15:51 17,5 °C 17,5 °C 81 % 1010,8 hPa 0,0 mm 7,5 km/h (2 Bft) W-NW 283 ° 1 min 0,000 mm 2,9 UV-I 327 W/m² 14,2 °C 17,5 °C 11,3 km/h (2 Bft)
27.07.2017 15:52 17,5 °C 17,5 °C 82 % 1010,8 hPa 0,0 mm 6,5 km/h (2 Bft) W 266 ° 1 min 0,000 mm 3,0 UV-I 339 W/m² 14,4 °C 17,5 °C 11,3 km/h (2 Bft)
27.07.2017 15:53 17,5 °C 17,5 °C 81 % 1010,8 hPa 0,0 mm 7,0 km/h (2 Bft) W-SW 247 ° 1 min 0,000 mm 3,0 UV-I 348 W/m² 14,2 °C 17,5 °C 11,3 km/h (2 Bft)
27.07.2017 15:54 17,5 °C 17,5 °C 81 % 1010,8 hPa 0,0 mm 6,9 km/h (2 Bft) W-SW 252 ° 1 min 0,000 mm 3,1 UV-I 350 W/m² 14,2 °C 17,5 °C 12,9 km/h (3 Bft)
27.07.2017 15:55 17,4 °C 17,5 °C 80 % 1010,8 hPa 0,0 mm 7,8 km/h (2 Bft) W 275 ° 1 min 0,000 mm 3,1 UV-I 350 W/m² 13,9 °C 17,4 °C 9,7 km/h (2 Bft)
27.07.2017 15:56 17,4 °C 17,4 °C 80 % 1010,8 hPa 0,0 mm 7,5 km/h (2 Bft) W-NW 288 ° 1 min 0,000 mm 3,1 UV-I 348 W/m² 13,9 °C 17,4 °C 11,3 km/h (2 Bft)
27.07.2017 15:57 17,5 °C 17,5 °C 81 % 1010,8 hPa 0,0 mm 4,0 km/h (1 Bft) W-NW 298 ° 1 min 0,000 mm 3,0 UV-I 348 W/m² 14,2 °C 17,5 °C 4,8 km/h (1 Bft)
27.07.2017 15:58 17,4 °C 17,5 °C 80 % 1010,8 hPa 0,0 mm 2,4 km/h (1 Bft) W-NW 282 ° 1 min 0,000 mm 3,0 UV-I 350 W/m² 13,9 °C 17,4 °C 4,8 km/h (1 Bft)
27.07.2017 15:59 17,5 °C 17,5 °C 80 % 1010,8 hPa 0,0 mm 2,2 km/h (1 Bft) W 281 ° 1 min 0,000 mm 3,0 UV-I 346 W/m² 14,0 °C 17,5 °C 4,8 km/h (1 Bft)
27.07.2017 16:00 17,6 °C 17,6 °C 82 % 1010,9 hPa 0,0 mm 1,8 km/h (1 Bft) W-NW 282 ° 1 min 0,000 mm 3,0 UV-I 352 W/m² 14,5 °C 17,6 °C 3,2 km/h (1 Bft)
27.07.2017 16:01 17,6 °C 17,6 °C 82 % 1010,8 hPa 0,0 mm 6,3 km/h (2 Bft) NW 311 ° 1 min 0,229 mm 3,1 UV-I 366 W/m² 14,5 °C 17,6 °C 9,7 km/h (2 Bft)
27.07.2017 16:02 17,7 °C 17,7 °C 80 % 1010,8 hPa 0,0 mm 4,1 km/h (1 Bft) W-NW 286 ° 1 min 0,000 mm 3,0 UV-I 350 W/m² 14,2 °C 17,7 °C 9,7 km/h (2 Bft)
27.07.2017 16:03 17,7 °C 17,7 °C 81 % 1010,9 hPa 0,0 mm 6,4 km/h (2 Bft) W-SW 255 ° 1 min 0,000 mm 3,0 UV-I 339 W/m² 14,4 °C 17,7 °C 11,3 km/h (2 Bft)
27.07.2017 16:04 17,7 °C 17,7 °C 81 % 1010,9 hPa 0,0 mm 6,8 km/h (2 Bft) W-NW 298 ° 1 min 0,000 mm 2,9 UV-I 350 W/m² 14,4 °C 17,7 °C 12,9 km/h (3 Bft)
27.07.2017 16:05 17,7 °C 17,7 °C 81 % 1010,9 hPa 0,0 mm 5,1 km/h (1 Bft) W 281 ° 1 min 0,000 mm 2,9 UV-I 330 W/m² 14,4 °C 17,7 °C 11,3 km/h (2 Bft)
27.07.2017 16:06 17,8 °C 17,8 °C 82 % 1010,9 hPa 0,0 mm 8,1 km/h (2 Bft) W-NW 287 ° 1 min 0,000 mm 3,0 UV-I 357 W/m² 14,7 °C 17,8 °C 11,3 km/h (2 Bft)
27.07.2017 16:07 17,8 °C 17,8 °C 81 % 1010,9 hPa 0,0 mm 5,8 km/h (2 Bft) W-SW 255 ° 1 min 0,000 mm 3,1 UV-I 355 W/m² 14,5 °C 17,8 °C 9,7 km/h (2 Bft)
27.07.2017 16:08 17,8 °C 17,8 °C 80 % 1010,9 hPa 0,0 mm 7,8 km/h (2 Bft) W 260 ° 1 min 0,000 mm 3,1 UV-I 355 W/m² 14,3 °C 17,8 °C 11,3 km/h (2 Bft)
27.07.2017 16:09 17,8 °C 17,8 °C 79 % 1010,9 hPa 0,0 mm 2,5 km/h (1 Bft) W 264 ° 1 min 0,000 mm 4,3 UV-I 355 W/m² 14,1 °C 17,8 °C 6,4 km/h (2 Bft)
27.07.2017 16:10 17,8 °C 17,8 °C 81 % 1010,9 hPa 0,0 mm 4,5 km/h (1 Bft) W-SW 253 ° 1 min 0,000 mm 4,1 UV-I 512 W/m² 14,5 °C 17,8 °C 6,4 km/h (2 Bft)
27.07.2017 16:11 17,9 °C 17,9 °C 83 % 1010,8 hPa 0,0 mm 6,6 km/h (2 Bft) W-SW 250 ° 1 min 0,000 mm 4,1 UV-I 468 W/m² 15,0 °C 17,9 °C 11,3 km/h (2 Bft)
27.07.2017 16:12 18,0 °C 18,0 °C 80 % 1010,8 hPa 0,0 mm 8,4 km/h (2 Bft) W 278 ° 1 min 0,000 mm 3,7 UV-I 388 W/m² 14,5 °C 18,0 °C 12,9 km/h (3 Bft)
27.07.2017 16:13 18,0 °C 18,1 °C 80 % 1010,7 hPa 0,0 mm 7,0 km/h (2 Bft) W-NW 295 ° 1 min 0,000 mm 3,6 UV-I 364 W/m² 14,5 °C 18,0 °C 12,9 km/h (3 Bft)
27.07.2017 16:14 18,1 °C 18,1 °C 80 % 1010,8 hPa 0,0 mm 7,2 km/h (2 Bft) S-SW 213 ° 1 min 0,000 mm 3,3 UV-I 380 W/m² 14,6 °C 18,1 °C 14,5 km/h (3 Bft)
27.07.2017 16:15 18,1 °C 18,1 °C 80 % 1010,8 hPa 0,0 mm 7,3 km/h (2 Bft) SW 229 ° 1 min 0,000 mm 3,3 UV-I 392 W/m² 14,6 °C 18,1 °C 11,3 km/h (2 Bft)
27.07.2017 16:16 18,2 °C 18,2 °C 81 % 1010,8 hPa 0,0 mm 6,1 km/h (2 Bft) W-NW 292 ° 1 min 0,000 mm 3,7 UV-I 401 W/m² 14,9 °C 18,2 °C 9,7 km/h (2 Bft)
27.07.2017 16:17 18,2 °C 18,2 °C 81 % 1010,8 hPa 0,0 mm 4,8 km/h (1 Bft) W-NW 283 ° 1 min 0,000 mm 3,8 UV-I 404 W/m² 14,9 °C 18,2 °C 6,4 km/h (2 Bft)
27.07.2017 16:18 18,3 °C 18,3 °C 81 % 1010,8 hPa 0,0 mm 7,0 km/h (2 Bft) W 269 ° 1 min 0,000 mm 3,2 UV-I 343 W/m² 15,0 °C 18,3 °C 11,3 km/h (2 Bft)
27.07.2017 16:19 18,4 °C 18,4 °C 79 % 1010,8 hPa 0,0 mm 6,3 km/h (2 Bft) W-NW 287 ° 1 min 0,000 mm 3,1 UV-I 318 W/m² 14,7 °C 18,4 °C 11,3 km/h (2 Bft)
27.07.2017 16:20 18,4 °C 18,4 °C 79 % 1010,8 hPa 0,0 mm 4,9 km/h (1 Bft) NW 319 ° 1 min 0,000 mm 3,1 UV-I 299 W/m² 14,7 °C 18,4 °C 8,0 km/h (2 Bft)
27.07.2017 16:21 18,4 °C 18,4 °C 78 % 1010,7 hPa 0,0 mm 11,1 km/h (2 Bft) W-NW 296 ° 1 min 0,000 mm 3,0 UV-I 295 W/m² 14,5 °C 18,4 °C 14,5 km/h (3 Bft)
27.07.2017 16:22 18,5 °C 18,5 °C 80 % 1010,8 hPa 0,0 mm 5,7 km/h (1 Bft) W-NW 298 ° 1 min 0,000 mm 3,0 UV-I 295 W/m² 15,0 °C 18,5 °C 9,7 km/h (2 Bft)
27.07.2017 16:23 18,5 °C 18,5 °C 79 % 1010,7 hPa 0,0 mm 7,2 km/h (2 Bft) W-NW 295 ° 1 min 0,000 mm 3,1 UV-I 306 W/m² 14,8 °C 18,5 °C 11,3 km/h (2 Bft)
27.07.2017 16:24 18,6 °C 18,6 °C 80 % 1010,7 hPa 0,0 mm 7,4 km/h (2 Bft) W-NW 282 ° 1 min 0,000 mm 3,1 UV-I 316 W/m² 15,1 °C 18,6 °C 14,5 km/h (3 Bft)
27.07.2017 16:25 18,6 °C 18,6 °C 78 % 1010,7 hPa 0,0 mm 10,9 km/h (2 Bft) W-NW 292 ° 1 min 0,000 mm 3,1 UV-I 322 W/m² 14,7 °C 18,6 °C 14,5 km/h (3 Bft)
27.07.2017 16:26 18,6 °C 18,6 °C 78 % 1010,7 hPa 0,0 mm 9,5 km/h (2 Bft) W-SW 255 ° 1 min 0,000 mm 3,1 UV-I 322 W/m² 14,7 °C 18,6 °C 12,9 km/h (3 Bft)
27.07.2017 16:27 18,6 °C 18,6 °C 78 % 1010,7 hPa 0,0 mm 8,0 km/h (2 Bft) W-NW 303 ° 1 min 0,000 mm 3,1 UV-I 325 W/m² 14,7 °C 18,6 °C 12,9 km/h (3 Bft)
27.07.2017 16:28 18,6 °C 18,6 °C 78 % 1010,7 hPa 0,0 mm 3,3 km/h (1 Bft) W 280 ° 1 min 0,000 mm 3,0 UV-I 306 W/m² 14,7 °C 18,6 °C 6,4 km/h (2 Bft)
27.07.2017 16:29 18,6 °C 18,6 °C 77 % 1010,7 hPa 0,0 mm 1,6 km/h (1 Bft) W-NW 286 ° 0 min 0,000 mm 3,0 UV-I 287 W/m² 14,5 °C 18,6 °C 4,8 km/h (1 Bft)
27.07.2017 16:30 18,6 °C 18,6 °C 78 % 1010,7 hPa 0,0 mm 5,4 km/h (1 Bft) NW 307 ° 1 min 0,000 mm 2,9 UV-I 292 W/m² 14,7 °C 18,6 °C 8,0 km/h (2 Bft)
27.07.2017 16:31 18,7 °C 18,7 °C 80 % 1010,7 hPa 0,0 mm 8,7 km/h (2 Bft) W 278 ° 1 min 0,000 mm 2,9 UV-I 306 W/m² 15,2 °C 18,7 °C 12,9 km/h (3 Bft)
27.07.2017 16:32 18,8 °C 18,8 °C 79 % 1010,7 hPa 0,0 mm 11,3 km/h (2 Bft) W-NW 290 ° 1 min 0,000 mm 2,9 UV-I 304 W/m² 15,1 °C 18,8 °C 14,5 km/h (3 Bft)
27.07.2017 16:33 18,9 °C 18,9 °C 79 % 1010,7 hPa 0,0 mm 4,2 km/h (1 Bft) W-NW 286 ° 1 min 0,000 mm 2,9 UV-I 301 W/m² 15,2 °C 18,9 °C 11,3 km/h (2 Bft)
27.07.2017 16:34 19,0 °C 19,0 °C 79 % 1010,7 hPa 0,0 mm 7,8 km/h (2 Bft) W-NW 298 ° 1 min 0,000 mm 2,9 UV-I 316 W/m² 15,3 °C 19,0 °C 16,1 km/h (3 Bft)
27.07.2017 16:35 19,0 °C 19,1 °C 79 % 1010,7 hPa 0,0 mm 10,0 km/h (2 Bft) W-NW 287 ° 1 min 0,000 mm 3,0 UV-I 311 W/m² 15,3 °C 19,0 °C 14,5 km/h (3 Bft)
27.07.2017 16:36 19,0 °C 19,0 °C 79 % 1010,7 hPa 0,0 mm 6,2 km/h (2 Bft) W-NW 283 ° 1 min 0,000 mm 3,0 UV-I 302 W/m² 15,3 °C 19,0 °C 12,9 km/h (3 Bft)
27.07.2017 16:37 18,9 °C 19,0 °C 78 % 1010,7 hPa 0,0 mm 9,0 km/h (2 Bft) W-SW 258 ° 1 min 0,000 mm 3,0 UV-I 302 W/m² 15,0 °C 18,9 °C 17,7 km/h (3 Bft)
27.07.2017 16:38 18,9 °C 18,9 °C 79 % 1010,7 hPa 0,0 mm 10,3 km/h (2 Bft) W-NW 290 ° 1 min 0,000 mm 2,9 UV-I 297 W/m² 15,2 °C 18,9 °C 14,5 km/h (3 Bft)
27.07.2017 16:39 18,9 °C 18,9 °C 81 % 1010,7 hPa 0,0 mm 8,9 km/h (2 Bft) W-SW 246 ° 0 min 0,000 mm 2,9 UV-I 271 W/m² 15,6 °C 18,9 °C 16,1 km/h (3 Bft)
27.07.2017 16:40 18,9 °C 18,9 °C 78 % 1010,6 hPa 0,0 mm 10,5 km/h (2 Bft) W 261 ° 0 min 0,000 mm 2,7 UV-I 264 W/m² 15,0 °C 18,9 °C 14,5 km/h (3 Bft)
27.07.2017 16:41 18,9 °C 18,9 °C 79 % 1010,6 hPa 0,0 mm 11,6 km/h (2 Bft) W 263 ° 0 min 0,000 mm 2,7 UV-I 274 W/m² 15,2 °C 18,9 °C 17,7 km/h (3 Bft)
27.07.2017 16:42 18,9 °C 18,9 °C 79 % 1010,6 hPa 0,0 mm 11,5 km/h (2 Bft) W-SW 252 ° 0 min 0,000 mm 2,5 UV-I 267 W/m² 15,2 °C 18,9 °C 14,5 km/h (3 Bft)
27.07.2017 16:43 18,8 °C 18,9 °C 77 % 1010,6 hPa 0,0 mm 9,5 km/h (2 Bft) W-NW 294 ° 0 min 0,000 mm 2,5 UV-I 260 W/m² 14,7 °C 18,8 °C 16,1 km/h (3 Bft)
27.07.2017 16:44 18,8 °C 18,8 °C 78 % 1010,6 hPa 0,0 mm 5,2 km/h (1 Bft) W 259 ° 1 min 0,000 mm 2,6 UV-I 292 W/m² 14,9 °C 18,8 °C 9,7 km/h (2 Bft)
27.07.2017 16:45 18,8 °C 18,8 °C 78 % 1010,6 hPa 0,0 mm 5,1 km/h (1 Bft) W-NW 286 ° 0 min 0,000 mm 2,6 UV-I 274 W/m² 14,9 °C 18,8 °C 6,4 km/h (2 Bft)
27.07.2017 16:46 18,7 °C 18,8 °C 79 % 1010,6 hPa 0,0 mm 8,9 km/h (2 Bft) W-NW 287 ° 0 min 0,000 mm 2,6 UV-I 265 W/m² 15,0 °C 18,7 °C 14,5 km/h (3 Bft)
27.07.2017 16:47 18,8 °C 18,8 °C 79 % 1010,6 hPa 0,0 mm 9,9 km/h (2 Bft) W-SW 241 ° 0 min 0,000 mm 2,6 UV-I 260 W/m² 15,1 °C 18,8 °C 12,9 km/h (3 Bft)
27.07.2017 16:48 18,8 °C 18,8 °C 79 % 1010,6 hPa 0,0 mm 6,4 km/h (2 Bft) W 281 ° 0 min 0,000 mm 2,5 UV-I 255 W/m² 15,1 °C 18,8 °C 9,7 km/h (2 Bft)
27.07.2017 16:49 18,8 °C 18,8 °C 78 % 1010,6 hPa 0,0 mm 5,9 km/h (2 Bft) NW 308 ° 0 min 0,000 mm 2,5 UV-I 251 W/m² 14,9 °C 18,8 °C 11,3 km/h (2 Bft)
27.07.2017 16:50 18,8 °C 18,8 °C 78 % 1010,6 hPa 0,0 mm 8,5 km/h (2 Bft) W 271 ° 0 min 0,000 mm 2,5 UV-I 253 W/m² 14,9 °C 18,8 °C 12,9 km/h (3 Bft)
27.07.2017 16:51 18,8 °C 18,8 °C 79 % 1010,6 hPa 0,0 mm 8,7 km/h (2 Bft) W 280 ° 0 min 0,000 mm 2,5 UV-I 255 W/m² 15,1 °C 18,8 °C 12,9 km/h (3 Bft)
27.07.2017 16:52 18,8 °C 18,8 °C 79 % 1010,6 hPa 0,0 mm 10,5 km/h (2 Bft) NW 305 ° 0 min 0,000 mm 2,4 UV-I 253 W/m² 15,1 °C 18,8 °C 17,7 km/h (3 Bft)
27.07.2017 16:53 18,8 °C 18,8 °C 80 % 1010,6 hPa 0,0 mm 7,8 km/h (2 Bft) W 266 ° 0 min 0,000 mm 2,4 UV-I 250 W/m² 15,3 °C 18,8 °C 11,3 km/h (2 Bft)
27.07.2017 16:54 18,8 °C 18,8 °C 79 % 1010,6 hPa 0,0 mm 10,1 km/h (2 Bft) NW 316 ° 0 min 0,000 mm 2,4 UV-I 250 W/m² 15,1 °C 18,8 °C 14,5 km/h (3 Bft)
27.07.2017 16:55 18,8 °C 18,9 °C 79 % 1010,6 hPa 0,0 mm 8,4 km/h (2 Bft) W 261 ° 0 min 0,000 mm 2,4 UV-I 246 W/m² 15,1 °C 18,8 °C 14,5 km/h (3 Bft)
27.07.2017 16:56 18,8 °C 18,8 °C 79 % 1010,5 hPa 0,0 mm 10,5 km/h (2 Bft) W-NW 288 ° 0 min 0,000 mm 2,4 UV-I 243 W/m² 15,1 °C 18,8 °C 14,5 km/h (3 Bft)
27.07.2017 16:57 18,8 °C 18,8 °C 79 % 1010,5 hPa 0,0 mm 9,3 km/h (2 Bft) W 272 ° 0 min 0,000 mm 2,4 UV-I 239 W/m² 15,1 °C 18,8 °C 14,5 km/h (3 Bft)
27.07.2017 16:58 18,8 °C 18,8 °C 79 % 1010,5 hPa 0,0 mm 9,4 km/h (2 Bft) NW 318 ° 0 min 0,000 mm 2,4 UV-I 243 W/m² 15,1 °C 18,8 °C 12,9 km/h (3 Bft)
27.07.2017 16:59 18,8 °C 18,8 °C 78 % 1010,5 hPa 0,0 mm 9,7 km/h (2 Bft) SW 234 ° 0 min 0,000 mm 2,3 UV-I 237 W/m² 14,9 °C 18,8 °C 14,5 km/h (3 Bft)
27.07.2017 17:00 18,7 °C 18,8 °C 79 % 1010,5 hPa 0,0 mm 9,7 km/h (2 Bft) W-NW 296 ° 0 min 0,203 mm 2,3 UV-I 234 W/m² 15,0 °C 18,7 °C 14,5 km/h (3 Bft)
27.07.2017 17:01 18,7 °C 18,7 °C 79 % 1010,5 hPa 0,0 mm 5,1 km/h (1 Bft) W-NW 298 ° 0 min 0,000 mm 2,2 UV-I 230 W/m² 15,0 °C 18,7 °C 6,4 km/h (2 Bft)
27.07.2017 17:02 18,7 °C 18,7 °C 79 % 1010,5 hPa 0,0 mm 8,9 km/h (2 Bft) W-SW 243 ° 0 min 0,000 mm 2,2 UV-I 232 W/m² 15,0 °C 18,7 °C 14,5 km/h (3 Bft)
27.07.2017 17:03 18,7 °C 18,7 °C 78 % 1010,4 hPa 0,0 mm 13,3 km/h (3 Bft) W-NW 291 ° 0 min 0,000 mm 2,3 UV-I 243 W/m² 14,8 °C 18,7 °C 19,3 km/h (3 Bft)
27.07.2017 17:04 18,6 °C 18,7 °C 79 % 1010,4 hPa 0,0 mm 13,3 km/h (3 Bft) W-SW 244 ° 0 min 0,000 mm 2,3 UV-I 246 W/m² 14,9 °C 18,6 °C 17,7 km/h (3 Bft)
27.07.2017 17:05 18,6 °C 18,6 °C 77 % 1010,4 hPa 0,0 mm 8,7 km/h (2 Bft) W-SW 252 ° 0 min 0,000 mm 2,2 UV-I 244 W/m² 14,5 °C 18,6 °C 16,1 km/h (3 Bft)
27.07.2017 17:06 18,6 °C 18,6 °C 79 % 1010,4 hPa 0,0 mm 5,0 km/h (1 Bft) W 263 ° 0 min 0,000 mm 2,2 UV-I 246 W/m² 14,9 °C 18,6 °C 6,4 km/h (2 Bft)
27.07.2017 17:07 18,6 °C 18,6 °C 79 % 1010,4 hPa 0,0 mm 9,7 km/h (2 Bft) W 263 ° 0 min 0,000 mm 2,2 UV-I 246 W/m² 14,9 °C 18,6 °C 12,9 km/h (3 Bft)
27.07.2017 17:08 18,6 °C 18,7 °C 77 % 1010,4 hPa 0,0 mm 9,5 km/h (2 Bft) NW 304 ° 0 min 0,000 mm 2,2 UV-I 253 W/m² 14,5 °C 18,6 °C 14,5 km/h (3 Bft)
27.07.2017 17:09 18,6 °C 18,6 °C 77 % 1010,4 hPa 0,0 mm 8,1 km/h (2 Bft) W-NW 287 ° 0 min 0,000 mm 2,2 UV-I 253 W/m² 14,5 °C 18,6 °C 14,5 km/h (3 Bft)
27.07.2017 17:10 18,6 °C 18,6 °C 78 % 1010,4 hPa 0,0 mm 6,3 km/h (2 Bft) W-NW 284 ° 0 min 0,000 mm 2,2 UV-I 253 W/m² 14,7 °C 18,6 °C 9,7 km/h (2 Bft)
27.07.2017 17:11 18,6 °C 18,6 °C 79 % 1010,3 hPa 0,0 mm 8,7 km/h (2 Bft) NW 312 ° 0 min 0,000 mm 2,2 UV-I 253 W/m² 14,9 °C 18,6 °C 16,1 km/h (3 Bft)
27.07.2017 17:12 18,7 °C 18,7 °C 79 % 1010,3 hPa 0,0 mm 7,5 km/h (2 Bft) W-NW 290 ° 0 min 0,000 mm 2,1 UV-I 251 W/m² 15,0 °C 18,7 °C 12,9 km/h (3 Bft)
27.07.2017 17:13 18,7 °C 18,7 °C 78 % 1010,3 hPa 0,0 mm 6,9 km/h (2 Bft) W 261 ° 0 min 0,000 mm 2,1 UV-I 248 W/m² 14,8 °C 18,7 °C 11,3 km/h (2 Bft)
27.07.2017 17:14 18,7 °C 18,7 °C 78 % 1010,3 hPa 0,0 mm 7,4 km/h (2 Bft) W 274 ° 0 min 0,000 mm 2,1 UV-I 244 W/m² 14,8 °C 18,7 °C 11,3 km/h (2 Bft)
27.07.2017 17:15 18,7 °C 18,7 °C 78 % 1010,3 hPa 0,0 mm 8,3 km/h (2 Bft) W 273 ° 0 min 0,000 mm 2,0 UV-I 243 W/m² 14,8 °C 18,7 °C 12,9 km/h (3 Bft)
27.07.2017 17:16 18,6 °C 18,7 °C 77 % 1010,3 hPa 0,0 mm 6,1 km/h (2 Bft) W 270 ° 0 min 0,000 mm 2,0 UV-I 237 W/m² 14,5 °C 18,6 °C 12,9 km/h (3 Bft)
27.07.2017 17:17 18,6 °C 18,6 °C 79 % 1010,3 hPa 0,0 mm 9,0 km/h (2 Bft) W 278 ° 0 min 0,000 mm 2,0 UV-I 237 W/m² 14,9 °C 18,6 °C 11,3 km/h (2 Bft)
27.07.2017 17:18 18,6 °C 18,6 °C 78 % 1010,3 hPa 0,0 mm 8,3 km/h (2 Bft) W 278 ° 0 min 0,000 mm 1,9 UV-I 237 W/m² 14,7 °C 18,6 °C 11,3 km/h (2 Bft)
27.07.2017 17:19 18,6 °C 18,6 °C 76 % 1010,2 hPa 0,0 mm 8,6 km/h (2 Bft) NW 318 ° 0 min 0,000 mm 1,9 UV-I 236 W/m² 14,3 °C 18,6 °C 14,5 km/h (3 Bft)
27.07.2017 17:20 18,6 °C 18,6 °C 78 % 1010,2 hPa 0,0 mm 8,2 km/h (2 Bft) NW 311 ° 0 min 0,000 mm 1,9 UV-I 237 W/m² 14,7 °C 18,6 °C 12,9 km/h (3 Bft)
27.07.2017 17:21 18,6 °C 18,6 °C 78 % 1010,2 hPa 0,0 mm 5,7 km/h (1 Bft) W-NW 288 ° 0 min 0,000 mm 1,9 UV-I 237 W/m² 14,7 °C 18,6 °C 9,7 km/h (2 Bft)
27.07.2017 17:22 18,6 °C 18,6 °C 78 % 1010,3 hPa 0,0 mm 5,1 km/h (1 Bft) W 271 ° 0 min 0,000 mm 1,9 UV-I 237 W/m² 14,7 °C 18,6 °C 6,4 km/h (2 Bft)
27.07.2017 17:23 18,7 °C 18,7 °C 79 % 1010,3 hPa 0,0 mm 6,2 km/h (2 Bft) W-NW 294 ° 0 min 0,000 mm 1,9 UV-I 237 W/m² 15,0 °C 18,7 °C 12,9 km/h (3 Bft)
27.07.2017 17:24 18,6 °C 18,7 °C 79 % 1010,2 hPa 0,0 mm 7,1 km/h (2 Bft) W 264 ° 0 min 0,000 mm 1,8 UV-I 234 W/m² 14,9 °C 18,6 °C 11,3 km/h (2 Bft)
27.07.2017 17:25 18,6 °C 18,7 °C 77 % 1010,2 hPa 0,0 mm 7,6 km/h (2 Bft) W 279 ° 0 min 0,000 mm 1,8 UV-I 232 W/m² 14,5 °C 18,6 °C 11,3 km/h (2 Bft)
27.07.2017 17:26 18,6 °C 18,6 °C 79 % 1010,2 hPa 0,0 mm 7,2 km/h (2 Bft) W 260 ° 0 min 0,000 mm 1,8 UV-I 229 W/m² 14,9 °C 18,6 °C 12,9 km/h (3 Bft)
27.07.2017 17:27 18,6 °C 18,6 °C 79 % 1010,3 hPa 0,0 mm 6,1 km/h (2 Bft) W 273 ° 0 min 0,000 mm 1,8 UV-I 223 W/m² 14,9 °C 18,6 °C 11,3 km/h (2 Bft)
27.07.2017 17:28 18,6 °C 18,6 °C 79 % 1010,2 hPa 0,0 mm 4,8 km/h (1 Bft) NW 313 ° 0 min 0,000 mm 1,7 UV-I 223 W/m² 14,9 °C 18,6 °C 8,0 km/h (2 Bft)
27.07.2017 17:29 18,6 °C 18,6 °C 79 % 1010,2 hPa 0,0 mm 4,2 km/h (1 Bft) W-SW 253 ° 0 min 0,000 mm 1,7 UV-I 221 W/m² 14,9 °C 18,6 °C 9,7 km/h (2 Bft)
27.07.2017 17:30 18,6 °C 18,6 °C 80 % 1010,2 hPa 0,0 mm 3,4 km/h (1 Bft) W 270 ° 0 min 0,000 mm 1,7 UV-I 220 W/m² 15,1 °C 18,6 °C 9,7 km/h (2 Bft)
27.07.2017 17:31 18,7 °C 18,7 °C 80 % 1010,2 hPa 0,0 mm 3,3 km/h (1 Bft) W 273 ° 0 min 0,000 mm 1,7 UV-I 218 W/m² 15,2 °C 18,7 °C 4,8 km/h (1 Bft)
27.07.2017 17:32 18,6 °C 18,7 °C 79 % 1010,2 hPa 0,0 mm 7,9 km/h (2 Bft) W-SW 253 ° 0 min 0,000 mm 1,7 UV-I 216 W/m² 14,9 °C 18,6 °C 11,3 km/h (2 Bft)
27.07.2017 17:33 18,7 °C 18,7 °C 81 % 1010,2 hPa 0,0 mm 4,5 km/h (1 Bft) NW 309 ° 0 min 0,000 mm 1,6 UV-I 213 W/m² 15,4 °C 18,7 °C 6,4 km/h (2 Bft)
27.07.2017 17:34 18,7 °C 18,7 °C 80 % 1010,2 hPa 0,0 mm 3,0 km/h (1 Bft) NW 308 ° 0 min 0,000 mm 1,6 UV-I 211 W/m² 15,2 °C 18,7 °C 4,8 km/h (1 Bft)
27.07.2017 17:35 18,7 °C 18,7 °C 79 % 1010,2 hPa 0,0 mm 3,0 km/h (1 Bft) NW 315 ° 0 min 0,000 mm 1,6 UV-I 209 W/m² 15,0 °C 18,7 °C 4,8 km/h (1 Bft)
27.07.2017 17:36 18,7 °C 18,7 °C 77 % 1010,2 hPa 0,0 mm 7,2 km/h (2 Bft) W 277 ° 0 min 0,000 mm 1,6 UV-I 207 W/m² 14,6 °C 18,7 °C 12,9 km/h (3 Bft)
27.07.2017 17:37 18,6 °C 18,7 °C 78 % 1010,1 hPa 0,0 mm 7,2 km/h (2 Bft) W-SW 244 ° 0 min 0,000 mm 1,6 UV-I 206 W/m² 14,7 °C 18,6 °C 11,3 km/h (2 Bft)
27.07.2017 17:38 18,6 °C 18,6 °C 78 % 1010,2 hPa 0,0 mm 4,6 km/h (1 Bft) W-NW 300 ° 0 min 0,000 mm 1,6 UV-I 204 W/m² 14,7 °C 18,6 °C 8,0 km/h (2 Bft)
27.07.2017 17:39 18,6 °C 18,6 °C 78 % 1010,2 hPa 0,0 mm 5,3 km/h (1 Bft) W-NW 286 ° 0 min 0,000 mm 1,5 UV-I 200 W/m² 14,7 °C 18,6 °C 12,9 km/h (3 Bft)
27.07.2017 17:40 18,6 °C 18,6 °C 80 % 1010,1 hPa 0,0 mm 5,8 km/h (2 Bft) W 280 ° 0 min 0,000 mm 1,5 UV-I 197 W/m² 15,1 °C 18,6 °C 11,3 km/h (2 Bft)
27.07.2017 17:41 18,6 °C 18,6 °C 80 % 1010,2 hPa 0,0 mm 4,0 km/h (1 Bft) W-NW 288 ° 0 min 0,000 mm 1,5 UV-I 195 W/m² 15,1 °C 18,6 °C 4,8 km/h (1 Bft)
27.07.2017 17:42 18,6 °C 18,6 °C 80 % 1010,1 hPa 0,0 mm 6,4 km/h (2 Bft) W 259 ° 0 min 0,000 mm 1,5 UV-I 192 W/m² 15,1 °C 18,6 °C 11,3 km/h (2 Bft)
27.07.2017 17:43 18,6 °C 18,6 °C 78 % 1010,1 hPa 0,0 mm 6,4 km/h (2 Bft) W-NW 291 ° 0 min 0,000 mm 1,4 UV-I 190 W/m² 14,7 °C 18,6 °C 12,9 km/h (3 Bft)
27.07.2017 17:44 18,6 °C 18,6 °C 78 % 1010,1 hPa 0,0 mm 5,8 km/h (2 Bft) W-NW 285 ° 0 min 0,000 mm 1,4 UV-I 190 W/m² 14,7 °C 18,6 °C 11,3 km/h (2 Bft)
27.07.2017 17:45 18,5 °C 18,6 °C 79 % 1010,1 hPa 0,0 mm 3,4 km/h (1 Bft) W 267 ° 0 min 0,000 mm 1,4 UV-I 190 W/m² 14,8 °C 18,5 °C 9,7 km/h (2 Bft)
27.07.2017 17:46 18,5 °C 18,6 °C 77 % 1010,1 hPa 0,0 mm 4,9 km/h (1 Bft) W 279 ° 0 min 0,000 mm 1,4 UV-I 188 W/m² 14,4 °C 18,5 °C 9,7 km/h (2 Bft)
27.07.2017 17:47 18,5 °C 18,5 °C 79 % 1010,2 hPa 0,0 mm 4,5 km/h (1 Bft) W 271 ° 0 min 0,000 mm 1,4 UV-I 188 W/m² 14,8 °C 18,5 °C 11,3 km/h (2 Bft)
27.07.2017 17:48 18,4 °C 18,5 °C 78 % 1010,1 hPa 0,0 mm 10,3 km/h (2 Bft) W-NW 300 ° 0 min 0,000 mm 1,4 UV-I 185 W/m² 14,5 °C 18,4 °C 12,9 km/h (3 Bft)
27.07.2017 17:49 18,4 °C 18,4 °C 79 % 1010,2 hPa 0,0 mm 5,0 km/h (1 Bft) W 273 ° 0 min 0,000 mm 1,4 UV-I 183 W/m² 14,7 °C 18,4 °C 6,4 km/h (2 Bft)
27.07.2017 17:50 18,4 °C 18,4 °C 79 % 1010,2 hPa 0,0 mm 4,1 km/h (1 Bft) W 281 ° 0 min 0,000 mm 1,3 UV-I 179 W/m² 14,7 °C 18,4 °C 4,8 km/h (1 Bft)
27.07.2017 17:51 18,4 °C 18,4 °C 79 % 1010,2 hPa 0,0 mm 4,6 km/h (1 Bft) W-NW 290 ° 0 min 0,000 mm 1,3 UV-I 176 W/m² 14,7 °C 18,4 °C 9,7 km/h (2 Bft)
27.07.2017 17:52 18,4 °C 18,4 °C 79 % 1010,1 hPa 0,0 mm 3,3 km/h (1 Bft) W-NW 289 ° 0 min 0,000 mm 1,3 UV-I 167 W/m² 14,7 °C 18,4 °C 4,8 km/h (1 Bft)
27.07.2017 17:53 18,3 °C 18,4 °C 81 % 1010,1 hPa 0,0 mm 5,2 km/h (1 Bft) W 275 ° 0 min 0,000 mm 1,2 UV-I 162 W/m² 15,0 °C 18,3 °C 9,7 km/h (2 Bft)
27.07.2017 17:54 18,3 °C 18,3 °C 80 % 1010,1 hPa 0,0 mm 4,1 km/h (1 Bft) W-NW 284 ° 0 min 0,000 mm 1,2 UV-I 160 W/m² 14,8 °C 18,3 °C 6,4 km/h (2 Bft)
27.07.2017 17:55 18,3 °C 18,3 °C 81 % 1010,1 hPa 0,0 mm 2,6 km/h (1 Bft) W-NW 283 ° 0 min 0,000 mm 1,2 UV-I 156 W/m² 15,0 °C 18,3 °C 4,8 km/h (1 Bft)
27.07.2017 17:56 18,3 °C 18,3 °C 81 % 1010,1 hPa 0,0 mm 6,6 km/h (2 Bft) W-NW 298 ° 0 min 0,000 mm 1,2 UV-I 149 W/m² 15,0 °C 18,3 °C 12,9 km/h (3 Bft)
27.07.2017 17:57 18,2 °C 18,3 °C 80 % 1010,1 hPa 0,0 mm 8,4 km/h (2 Bft) NW 304 ° 0 min 0,000 mm 1,1 UV-I 144 W/m² 14,7 °C 18,2 °C 12,9 km/h (3 Bft)
27.07.2017 17:58 18,2 °C 18,3 °C 80 % 1010,0 hPa 0,0 mm 9,1 km/h (2 Bft) W-NW 297 ° 0 min 0,000 mm 1,1 UV-I 141 W/m² 14,7 °C 18,2 °C 14,5 km/h (3 Bft)
27.07.2017 17:59 18,2 °C 18,3 °C 80 % 1010,0 hPa 0,0 mm 7,6 km/h (2 Bft) W 280 ° 0 min 0,000 mm 1,0 UV-I 135 W/m² 14,7 °C 18,2 °C 11,3 km/h (2 Bft)
27.07.2017 18:00 18,2 °C 18,2 °C 80 % 1010,1 hPa 0,0 mm 7,8 km/h (2 Bft) W-NW 288 ° 0 min 0,127 mm 1,0 UV-I 130 W/m² 14,7 °C 18,2 °C 14,5 km/h (3 Bft)
27.07.2017 18:01 18,2 °C 18,2 °C 80 % 1010,1 hPa 0,0 mm 6,5 km/h (2 Bft) W-NW 290 ° 0 min 0,000 mm 1,0 UV-I 127 W/m² 14,7 °C 18,2 °C 14,5 km/h (3 Bft)
27.07.2017 18:02 18,2 °C 18,2 °C 79 % 1010,1 hPa 0,0 mm 8,4 km/h (2 Bft) W 267 ° 0 min 0,000 mm 0,9 UV-I 118 W/m² 14,5 °C 18,2 °C 12,9 km/h (3 Bft)
27.07.2017 18:03 18,1 °C 18,2 °C 79 % 1010,1 hPa 0,0 mm 9,0 km/h (2 Bft) W-NW 298 ° 0 min 0,000 mm 0,9 UV-I 116 W/m² 14,4 °C 18,1 °C 12,9 km/h (3 Bft)
27.07.2017 18:04 18,1 °C 18,1 °C 79 % 1010,1 hPa 0,0 mm 9,1 km/h (2 Bft) W 259 ° 0 min 0,000 mm 0,9 UV-I 118 W/m² 14,4 °C 18,1 °C 12,9 km/h (3 Bft)
27.07.2017 18:05 18,1 °C 18,1 °C 79 % 1010,1 hPa 0,0 mm 6,1 km/h (2 Bft) W-NW 300 ° 0 min 0,000 mm 0,9 UV-I 120 W/m² 14,4 °C 18,1 °C 11,3 km/h (2 Bft)
27.07.2017 18:06 18,1 °C 18,1 °C 79 % 1010,2 hPa 0,0 mm 7,0 km/h (2 Bft) W 264 ° 0 min 0,000 mm 0,9 UV-I 123 W/m² 14,4 °C 18,1 °C 11,3 km/h (2 Bft)
27.07.2017 18:07 18,0 °C 18,1 °C 79 % 1010,1 hPa 0,0 mm 6,1 km/h (2 Bft) NW 309 ° 0 min 0,000 mm 0,9 UV-I 127 W/m² 14,3 °C 18,0 °C 11,3 km/h (2 Bft)
27.07.2017 18:08 17,9 °C 18,0 °C 80 % 1010,1 hPa 0,0 mm 5,1 km/h (1 Bft) W 270 ° 0 min 0,000 mm 0,9 UV-I 141 W/m² 14,4 °C 17,9 °C 8,0 km/h (2 Bft)
27.07.2017 18:09 17,9 °C 18,0 °C 80 % 1010,1 hPa 0,0 mm 5,3 km/h (1 Bft) W 274 ° 0 min 0,000 mm 1,0 UV-I 144 W/m² 14,4 °C 17,9 °C 6,4 km/h (2 Bft)
27.07.2017 18:10 17,9 °C 17,9 °C 81 % 1010,2 hPa 0,0 mm 3,2 km/h (1 Bft) W 263 ° 0 min 0,000 mm 1,0 UV-I 146 W/m² 14,6 °C 17,9 °C 4,8 km/h (1 Bft)
27.07.2017 18:11 17,9 °C 17,9 °C 82 % 1010,2 hPa 0,0 mm 4,2 km/h (1 Bft) W 262 ° 0 min 0,000 mm 1,0 UV-I 142 W/m² 14,8 °C 17,9 °C 6,4 km/h (2 Bft)
27.07.2017 18:12 17,9 °C 18,0 °C 82 % 1010,2 hPa 0,0 mm 3,4 km/h (1 Bft) W 263 ° 0 min 0,000 mm 1,0 UV-I 141 W/m² 14,8 °C 17,9 °C 4,8 km/h (1 Bft)
27.07.2017 18:13 17,9 °C 17,9 °C 82 % 1010,2 hPa 0,0 mm 1,7 km/h (1 Bft) W 263 ° 0 min 0,000 mm 1,0 UV-I 141 W/m² 14,8 °C 17,9 °C 6,4 km/h (2 Bft)
27.07.2017 18:14 17,9 °C 17,9 °C 82 % 1010,2 hPa 0,0 mm 4,0 km/h (1 Bft) W-SW 256 ° 0 min 0,000 mm 1,0 UV-I 142 W/m² 14,8 °C 17,9 °C 6,4 km/h (2 Bft)
27.07.2017 18:15 17,9 °C 17,9 °C 81 % 1010,2 hPa 0,0 mm 10,7 km/h (2 Bft) W 263 ° 0 min 0,000 mm 1,0 UV-I 142 W/m² 14,6 °C 17,9 °C 14,5 km/h (3 Bft)
27.07.2017 18:16 17,9 °C 18,0 °C 81 % 1010,2 hPa 0,0 mm 4,8 km/h (1 Bft) W 263 ° 0 min 0,000 mm 1,0 UV-I 141 W/m² 14,6 °C 17,9 °C 11,3 km/h (2 Bft)
27.07.2017 18:17 17,9 °C 17,9 °C 82 % 1010,2 hPa 0,0 mm 2,3 km/h (1 Bft) W 263 ° 0 min 0,000 mm 1,0 UV-I 139 W/m² 14,8 °C 17,9 °C 4,8 km/h (1 Bft)
27.07.2017 18:18 17,9 °C 17,9 °C 81 % 1010,2 hPa 0,0 mm 1,0 km/h (0 Bft) W 267 ° 0 min 0,000 mm 0,9 UV-I 135 W/m² 14,6 °C 17,9 °C 1,6 km/h (1 Bft)
27.07.2017 18:19 17,9 °C 17,9 °C 82 % 1010,2 hPa 0,0 mm 4,8 km/h (1 Bft) W 260 ° 0 min 0,000 mm 0,9 UV-I 130 W/m² 14,8 °C 17,9 °C 6,4 km/h (2 Bft)
27.07.2017 18:20 17,9 °C 17,9 °C 81 % 1010,2 hPa 0,0 mm 3,8 km/h (1 Bft) SW 232 ° 0 min 0,000 mm 0,9 UV-I 127 W/m² 14,6 °C 17,9 °C 6,4 km/h (2 Bft)
27.07.2017 18:21 17,9 °C 17,9 °C 82 % 1010,3 hPa 0,0 mm 3,1 km/h (1 Bft) W-SW 239 ° 0 min 0,000 mm 0,9 UV-I 128 W/m² 14,8 °C 17,9 °C 6,4 km/h (2 Bft)
27.07.2017 18:22 17,9 °C 17,9 °C 81 % 1010,2 hPa 0,0 mm 0,9 km/h (0 Bft) W-SW 239 ° 0 min 0,000 mm 0,9 UV-I 135 W/m² 14,6 °C 17,9 °C 1,6 km/h (1 Bft)
27.07.2017 18:23 17,9 °C 17,9 °C 82 % 1010,2 hPa 0,0 mm 1,7 km/h (1 Bft) W-SW 254 ° 0 min 0,000 mm 1,0 UV-I 141 W/m² 14,8 °C 17,9 °C 4,8 km/h (1 Bft)
27.07.2017 18:24 17,9 °C 18,0 °C 82 % 1010,3 hPa 0,0 mm 2,2 km/h (1 Bft) W-SW 257 ° 0 min 0,000 mm 1,0 UV-I 146 W/m² 14,8 °C 17,9 °C 4,8 km/h (1 Bft)
27.07.2017 18:25 18,0 °C 18,0 °C 81 % 1010,3 hPa 0,0 mm 1,8 km/h (1 Bft) W-SW 257 ° 0 min 0,000 mm 1,0 UV-I 148 W/m² 14,7 °C 18,0 °C 4,8 km/h (1 Bft)
27.07.2017 18:26 18,1 °C 18,1 °C 81 % 1010,3 hPa 0,0 mm 4,6 km/h (1 Bft) W-SW 239 ° 0 min 0,000 mm 1,0 UV-I 142 W/m² 14,8 °C 18,1 °C 8,0 km/h (2 Bft)
27.07.2017 18:27 18,1 °C 18,1 °C 81 % 1010,2 hPa 0,0 mm 4,8 km/h (1 Bft) W 267 ° 0 min 0,000 mm 1,0 UV-I 141 W/m² 14,8 °C 18,1 °C 9,7 km/h (2 Bft)
27.07.2017 18:28 18,0 °C 18,1 °C 81 % 1010,3 hPa 0,0 mm 4,6 km/h (1 Bft) W-SW 248 ° 0 min 0,000 mm 1,0 UV-I 139 W/m² 14,7 °C 18,0 °C 6,4 km/h (2 Bft)
27.07.2017 18:29 18,0 °C 18,1 °C 81 % 1010,2 hPa 0,0 mm 1,9 km/h (1 Bft) W 273 ° 0 min 0,000 mm 1,0 UV-I 139 W/m² 14,7 °C 18,0 °C 4,8 km/h (1 Bft)
27.07.2017 18:30 18,0 °C 18,1 °C 82 % 1010,1 hPa 0,0 mm 0,0 km/h (0 Bft) W 273 ° 0 min 0,000 mm 1,0 UV-I 142 W/m² 14,9 °C 18,0 °C 0,0 km/h (0 Bft)
27.07.2017 18:31 18,1 °C 18,1 °C 82 % 1010,1 hPa 0,0 mm 2,1 km/h (1 Bft) W 273 ° 0 min 0,000 mm 1,0 UV-I 149 W/m² 15,0 °C 18,1 °C 3,2 km/h (1 Bft)
27.07.2017 18:32 18,0 °C 18,1 °C 81 % 1010,0 hPa 0,0 mm 0,6 km/h (0 Bft) W 273 ° 0 min 0,000 mm 1,0 UV-I 158 W/m² 14,7 °C 18,0 °C 1,6 km/h (1 Bft)
27.07.2017 18:33 18,1 °C 18,1 °C 81 % 1010,0 hPa 0,0 mm 0,1 km/h (0 Bft) W-SW 254 ° 0 min 0,000 mm 1,0 UV-I 156 W/m² 14,8 °C 18,1 °C 1,6 km/h (1 Bft)
27.07.2017 18:34 18,1 °C 18,1 °C 82 % 1010,0 hPa 0,0 mm 2,6 km/h (1 Bft) W-SW 254 ° 0 min 0,000 mm 1,0 UV-I 155 W/m² 15,0 °C 18,1 °C 4,8 km/h (1 Bft)
27.07.2017 18:35 18,1 °C 18,1 °C 83 % 1010,0 hPa 0,0 mm 3,7 km/h (1 Bft) W-SW 254 ° 0 min 0,000 mm 1,0 UV-I 153 W/m² 15,2 °C 18,1 °C 4,8 km/h (1 Bft)
27.07.2017 18:36 18,1 °C 18,1 °C 82 % 1010,0 hPa 0,0 mm 0,9 km/h (0 Bft) W-SW 254 ° 0 min 0,000 mm 1,0 UV-I 151 W/m² 15,0 °C 18,1 °C 3,2 km/h (1 Bft)
27.07.2017 18:37 18,1 °C 18,1 °C 82 % 1010,0 hPa 0,0 mm 0,2 km/h (0 Bft) W-SW 254 ° 0 min 0,000 mm 1,0 UV-I 149 W/m² 15,0 °C 18,1 °C 1,6 km/h (1 Bft)
27.07.2017 18:38 18,1 °C 18,1 °C 82 % 1009,9 hPa 0,0 mm 0,0 km/h (0 Bft) W-SW 254 ° 0 min 0,000 mm 1,0 UV-I 148 W/m² 15,0 °C 18,1 °C 0,0 km/h (0 Bft)
27.07.2017 18:39 18,1 °C 18,1 °C 82 % 1009,9 hPa 0,0 mm 0,8 km/h (0 Bft) W-SW 254 ° 0 min 0,000 mm 1,0 UV-I 146 W/m² 15,0 °C 18,1 °C 1,6 km/h (1 Bft)
27.07.2017 18:40 18,1 °C 18,1 °C 81 % 1009,9 hPa 0,0 mm 0,5 km/h (0 Bft) W-SW 254 ° 0 min 0,000 mm 1,0 UV-I 142 W/m² 14,8 °C 18,1 °C 1,6 km/h (1 Bft)
27.07.2017 18:41 18,1 °C 18,1 °C 82 % 1009,9 hPa 0,0 mm 1,4 km/h (1 Bft) W-SW 254 ° 0 min 0,000 mm 0,9 UV-I 137 W/m² 15,0 °C 18,1 °C 3,2 km/h (1 Bft)
27.07.2017 18:42 18,1 °C 18,1 °C 82 % 1009,9 hPa 0,0 mm 2,2 km/h (1 Bft) W-SW 254 ° 0 min 0,000 mm 0,9 UV-I 132 W/m² 15,0 °C 18,1 °C 4,8 km/h (1 Bft)
27.07.2017 18:43 18,1 °C 18,1 °C 81 % 1010,0 hPa 0,0 mm 2,6 km/h (1 Bft) W-SW 254 ° 0 min 0,000 mm 0,9 UV-I 121 W/m² 14,8 °C 18,1 °C 3,2 km/h (1 Bft)
27.07.2017 18:44 18,1 °C 18,1 °C 81 % 1009,9 hPa 0,0 mm 2,4 km/h (1 Bft) W-NW 289 ° 0 min 0,000 mm 0,8 UV-I 120 W/m² 14,8 °C 18,1 °C 4,8 km/h (1 Bft)
27.07.2017 18:45 18,1 °C 18,1 °C 80 % 1010,0 hPa 0,0 mm 1,7 km/h (1 Bft) W-NW 289 ° 0 min 0,000 mm 0,8 UV-I 114 W/m² 14,6 °C 18,1 °C 4,8 km/h (1 Bft)
27.07.2017 18:46 18,1 °C 18,1 °C 81 % 1010,0 hPa 0,0 mm 2,3 km/h (1 Bft) W-NW 288 ° 0 min 0,000 mm 0,8 UV-I 111 W/m² 14,8 °C 18,1 °C 3,2 km/h (1 Bft)
27.07.2017 18:47 18,1 °C 18,1 °C 83 % 1010,0 hPa 0,0 mm 3,5 km/h (1 Bft) W-NW 291 ° 0 min 0,000 mm 0,7 UV-I 109 W/m² 15,2 °C 18,1 °C 6,4 km/h (2 Bft)
27.07.2017 18:48 18,1 °C 18,1 °C 81 % 1010,0 hPa 0,0 mm 4,4 km/h (1 Bft) W-NW 285 ° 0 min 0,000 mm 0,7 UV-I 109 W/m² 14,8 °C 18,1 °C 6,4 km/h (2 Bft)
27.07.2017 18:49 18,0 °C 18,1 °C 80 % 1010,0 hPa 0,0 mm 4,3 km/h (1 Bft) W-NW 300 ° 0 min 0,000 mm 0,7 UV-I 109 W/m² 14,5 °C 18,0 °C 9,7 km/h (2 Bft)
27.07.2017 18:50 17,9 °C 18,0 °C 80 % 1010,0 hPa 0,0 mm 3,8 km/h (1 Bft) W-NW 290 ° 0 min 0,000 mm 0,7 UV-I 111 W/m² 14,4 °C 17,9 °C 4,8 km/h (1 Bft)
27.07.2017 18:51 17,9 °C 18,0 °C 80 % 1010,0 hPa 0,0 mm 4,1 km/h (1 Bft) W 263 ° 0 min 0,000 mm 0,7 UV-I 109 W/m² 14,4 °C 17,9 °C 6,4 km/h (2 Bft)
27.07.2017 18:52 17,9 °C 17,9 °C 80 % 1010,1 hPa 0,0 mm 5,9 km/h (2 Bft) W-NW 287 ° 0 min 0,000 mm 0,7 UV-I 105 W/m² 14,4 °C 17,9 °C 9,7 km/h (2 Bft)
27.07.2017 18:53 17,9 °C 17,9 °C 80 % 1010,0 hPa 0,0 mm 3,8 km/h (1 Bft) W-NW 300 ° 0 min 0,000 mm 0,7 UV-I 100 W/m² 14,4 °C 17,9 °C 6,4 km/h (2 Bft)
27.07.2017 18:54 17,9 °C 17,9 °C 81 % 1010,1 hPa 0,0 mm 2,7 km/h (1 Bft) W-NW 296 ° 0 min 0,000 mm 0,6 UV-I 95 W/m² 14,6 °C 17,9 °C 4,8 km/h (1 Bft)
27.07.2017 18:55 17,9 °C 17,9 °C 81 % 1010,1 hPa 0,0 mm 1,3 km/h (1 Bft) W-NW 296 ° 0 min 0,000 mm 0,5 UV-I 84 W/m² 14,6 °C 17,9 °C 4,8 km/h (1 Bft)
27.07.2017 18:56 17,9 °C 17,9 °C 81 % 1010,1 hPa 0,0 mm 0,9 km/h (0 Bft) W-NW 296 ° 0 min 0,000 mm 0,5 UV-I 83 W/m² 14,6 °C 17,9 °C 4,8 km/h (1 Bft)
27.07.2017 18:57 17,8 °C 17,9 °C 81 % 1010,1 hPa 0,0 mm 4,1 km/h (1 Bft) W 278 ° 0 min 0,000 mm 0,5 UV-I 88 W/m² 14,5 °C 17,8 °C 6,4 km/h (2 Bft)
27.07.2017 18:58 17,8 °C 17,8 °C 82 % 1010,1 hPa 0,0 mm 6,9 km/h (2 Bft) W 261 ° 0 min 0,000 mm 0,6 UV-I 91 W/m² 14,7 °C 17,8 °C 11,3 km/h (2 Bft)
27.07.2017 18:59 17,8 °C 17,8 °C 82 % 1010,2 hPa 0,0 mm 7,6 km/h (2 Bft) W 265 ° 0 min 0,000 mm 0,6 UV-I 91 W/m² 14,7 °C 17,8 °C 9,7 km/h (2 Bft)
27.07.2017 19:00 17,8 °C 17,8 °C 82 % 1010,2 hPa 0,0 mm 4,7 km/h (1 Bft) W-NW 293 ° 0 min 0,000 mm 0,5 UV-I 90 W/m² 14,7 °C 17,8 °C 9,7 km/h (2 Bft)
27.07.2017 19:01 17,8 °C 17,8 °C 81 % 1010,2 hPa 0,0 mm 4,0 km/h (1 Bft) W 277 ° 0 min 0,076 mm 0,5 UV-I 95 W/m² 14,5 °C 17,8 °C 6,4 km/h (2 Bft)
27.07.2017 19:02 17,8 °C 17,8 °C 80 % 1010,2 hPa 0,0 mm 2,1 km/h (1 Bft) W 277 ° 0 min 0,000 mm 0,6 UV-I 100 W/m² 14,3 °C 17,8 °C 4,8 km/h (1 Bft)
27.07.2017 19:03 17,8 °C 17,8 °C 82 % 1010,2 hPa 0,0 mm 3,5 km/h (1 Bft) W 277 ° 0 min 0,000 mm 0,6 UV-I 104 W/m² 14,7 °C 17,8 °C 6,4 km/h (2 Bft)
27.07.2017 19:04 17,8 °C 17,8 °C 82 % 1010,2 hPa 0,0 mm 4,7 km/h (1 Bft) W 259 ° 0 min 0,000 mm 0,6 UV-I 104 W/m² 14,7 °C 17,8 °C 6,4 km/h (2 Bft)
27.07.2017 19:05 17,8 °C 17,8 °C 82 % 1010,3 hPa 0,0 mm 6,4 km/h (2 Bft) W 274 ° 0 min 0,000 mm 0,6 UV-I 97 W/m² 14,7 °C 17,8 °C 9,7 km/h (2 Bft)
27.07.2017 19:06 17,7 °C 17,8 °C 82 % 1010,3 hPa 0,0 mm 6,0 km/h (2 Bft) W 279 ° 0 min 0,000 mm 0,6 UV-I 86 W/m² 14,6 °C 17,7 °C 9,7 km/h (2 Bft)
27.07.2017 19:07 17,7 °C 17,8 °C 81 % 1010,2 hPa 0,0 mm 3,6 km/h (1 Bft) W-NW 283 ° 0 min 0,000 mm 0,5 UV-I 70 W/m² 14,4 °C 17,7 °C 9,7 km/h (2 Bft)
27.07.2017 19:08 17,7 °C 17,7 °C 81 % 1010,2 hPa 0,0 mm 3,7 km/h (1 Bft) W 271 ° 0 min 0,000 mm 0,0 UV-I 69 W/m² 14,4 °C 17,7 °C 6,4 km/h (2 Bft)
27.07.2017 19:09 17,7 °C 17,7 °C 82 % 1010,2 hPa 0,0 mm 3,3 km/h (1 Bft) W 271 ° 0 min 0,000 mm 0,0 UV-I 67 W/m² 14,6 °C 17,7 °C 4,8 km/h (1 Bft)
27.07.2017 19:10 17,7 °C 17,7 °C 82 % 1010,2 hPa 0,0 mm 2,4 km/h (1 Bft) W 271 ° 0 min 0,000 mm 0,0 UV-I 65 W/m² 14,6 °C 17,7 °C 4,8 km/h (1 Bft)
27.07.2017 19:11 17,7 °C 17,7 °C 81 % 1010,2 hPa 0,0 mm 2,8 km/h (1 Bft) W-NW 299 ° 0 min 0,000 mm 0,0 UV-I 62 W/m² 14,4 °C 17,7 °C 4,8 km/h (1 Bft)
27.07.2017 19:12 17,7 °C 17,7 °C 82 % 1010,2 hPa 0,0 mm 2,8 km/h (1 Bft) W 267 ° 0 min 0,000 mm 0,0 UV-I 58 W/m² 14,6 °C 17,7 °C 4,8 km/h (1 Bft)
27.07.2017 19:13 17,7 °C 17,7 °C 83 % 1010,2 hPa 0,0 mm 5,1 km/h (1 Bft) W 259 ° 0 min 0,000 mm 0,0 UV-I 51 W/m² 14,8 °C 17,7 °C 9,7 km/h (2 Bft)
27.07.2017 19:14 17,6 °C 17,7 °C 83 % 1010,2 hPa 0,0 mm 3,4 km/h (1 Bft) W 261 ° 0 min 0,000 mm 0,0 UV-I 53 W/m² 14,7 °C 17,6 °C 4,8 km/h (1 Bft)
27.07.2017 19:15 17,6 °C 17,6 °C 83 % 1010,2 hPa 0,0 mm 4,7 km/h (1 Bft) W 264 ° 0 min 0,000 mm 0,0 UV-I 54 W/m² 14,7 °C 17,6 °C 9,7 km/h (2 Bft)
27.07.2017 19:16 17,6 °C 17,6 °C 84 % 1010,2 hPa 0,0 mm 4,7 km/h (1 Bft) W-SW 244 ° 0 min 0,000 mm 0,0 UV-I 54 W/m² 14,9 °C 17,6 °C 6,4 km/h (2 Bft)
27.07.2017 19:17 17,5 °C 17,6 °C 81 % 1010,2 hPa 0,0 mm 3,6 km/h (1 Bft) W-SW 244 ° 0 min 0,000 mm 0,0 UV-I 53 W/m² 14,2 °C 17,5 °C 6,4 km/h (2 Bft)
27.07.2017 19:18 17,5 °C 17,5 °C 82 % 1010,3 hPa 0,0 mm 3,2 km/h (1 Bft) W 265 ° 0 min 0,000 mm 0,0 UV-I 49 W/m² 14,4 °C 17,5 °C 4,8 km/h (1 Bft)
27.07.2017 19:19 17,5 °C 17,6 °C 82 % 1010,3 hPa 0,0 mm 2,3 km/h (1 Bft) W-SW 245 ° 0 min 0,000 mm 0,0 UV-I 51 W/m² 14,4 °C 17,5 °C 4,8 km/h (1 Bft)
27.07.2017 19:20 17,4 °C 17,5 °C 83 % 1010,2 hPa 0,0 mm 2,5 km/h (1 Bft) W 277 ° 0 min 0,000 mm 0,0 UV-I 51 W/m² 14,5 °C 17,4 °C 4,8 km/h (1 Bft)
27.07.2017 19:21 17,4 °C 17,5 °C 82 % 1010,2 hPa 0,0 mm 3,2 km/h (1 Bft) W-SW 249 ° 0 min 0,000 mm 0,0 UV-I 51 W/m² 14,3 °C 17,4 °C 8,0 km/h (2 Bft)
27.07.2017 19:22 17,5 °C 17,5 °C 83 % 1010,2 hPa 0,0 mm 4,3 km/h (1 Bft) W 262 ° 0 min 0,000 mm 0,0 UV-I 53 W/m² 14,6 °C 17,5 °C 8,0 km/h (2 Bft)
27.07.2017 19:23 17,5 °C 17,5 °C 83 % 1010,1 hPa 0,0 mm 3,2 km/h (1 Bft) W 263 ° 0 min 0,000 mm 0,0 UV-I 53 W/m² 14,6 °C 17,5 °C 4,8 km/h (1 Bft)
27.07.2017 19:24 17,5 °C 17,5 °C 83 % 1010,1 hPa 0,0 mm 2,5 km/h (1 Bft) W 263 ° 0 min 0,000 mm 0,0 UV-I 56 W/m² 14,6 °C 17,5 °C 3,2 km/h (1 Bft)
27.07.2017 19:25 17,4 °C 17,5 °C 83 % 1010,2 hPa 0,0 mm 3,1 km/h (1 Bft) W 278 ° 0 min 0,000 mm 0,0 UV-I 58 W/m² 14,5 °C 17,4 °C 4,8 km/h (1 Bft)
27.07.2017 19:26 17,4 °C 17,4 °C 83 % 1010,2 hPa 0,0 mm 2,5 km/h (1 Bft) W 278 ° 0 min 0,000 mm 0,0 UV-I 60 W/m² 14,5 °C 17,4 °C 3,2 km/h (1 Bft)
27.07.2017 19:27 17,4 °C 17,4 °C 83 % 1010,2 hPa 0,0 mm 2,3 km/h (1 Bft) W 278 ° 0 min 0,000 mm 0,0 UV-I 60 W/m² 14,5 °C 17,4 °C 4,8 km/h (1 Bft)
27.07.2017 19:28 17,4 °C 17,4 °C 84 % 1010,2 hPa 0,0 mm 2,2 km/h (1 Bft) W 278 ° 0 min 0,000 mm 0,0 UV-I 58 W/m² 14,7 °C 17,4 °C 3,2 km/h (1 Bft)
27.07.2017 19:29 17,4 °C 17,4 °C 83 % 1010,1 hPa 0,0 mm 0,6 km/h (0 Bft) W 278 ° 0 min 0,000 mm 0,0 UV-I 54 W/m² 14,5 °C 17,4 °C 3,2 km/h (1 Bft)
27.07.2017 19:30 17,4 °C 17,4 °C 83 % 1010,1 hPa 0,0 mm 0,7 km/h (0 Bft) W 277 ° 0 min 0,000 mm 0,0 UV-I 49 W/m² 14,5 °C 17,4 °C 3,2 km/h (1 Bft)
27.07.2017 19:31 17,4 °C 17,4 °C 83 % 1010,2 hPa 0,0 mm 0,0 km/h (0 Bft) W 278 ° 0 min 0,000 mm 0,0 UV-I 47 W/m² 14,5 °C 17,4 °C 0,0 km/h (0 Bft)
27.07.2017 19:32 17,3 °C 17,4 °C 84 % 1010,1 hPa 0,0 mm 1,4 km/h (1 Bft) W 278 ° 0 min 0,000 mm 0,0 UV-I 47 W/m² 14,6 °C 17,3 °C 3,2 km/h (1 Bft)
27.07.2017 19:33 17,3 °C 17,3 °C 84 % 1010,1 hPa 0,0 mm 0,0 km/h (0 Bft) W 278 ° 0 min 0,000 mm 0,0 UV-I 46 W/m² 14,6 °C 17,3 °C 0,0 km/h (0 Bft)
27.07.2017 19:34 17,3 °C 17,3 °C 83 % 1010,1 hPa 0,0 mm 1,5 km/h (1 Bft) W 277 ° 0 min 0,000 mm 0,0 UV-I 47 W/m² 14,4 °C 17,3 °C 3,2 km/h (1 Bft)
27.07.2017 19:35 17,3 °C 17,3 °C 83 % 1010,1 hPa 0,0 mm 0,8 km/h (0 Bft) W 277 ° 0 min 0,000 mm 0,0 UV-I 47 W/m² 14,4 °C 17,3 °C 3,2 km/h (1 Bft)
27.07.2017 19:36 17,3 °C 17,3 °C 84 % 1010,1 hPa 0,0 mm 0,9 km/h (0 Bft) W 277 ° 0 min 0,000 mm 0,0 UV-I 47 W/m² 14,6 °C 17,3 °C 3,2 km/h (1 Bft)
27.07.2017 19:37 17,3 °C 17,3 °C 84 % 1010,1 hPa 0,0 mm 2,8 km/h (1 Bft) W 265 ° 0 min 0,000 mm 0,0 UV-I 47 W/m² 14,6 °C 17,3 °C 4,8 km/h (1 Bft)
27.07.2017 19:38 17,2 °C 17,3 °C 83 % 1010,1 hPa 0,0 mm 1,1 km/h (1 Bft) W 265 ° 0 min 0,000 mm 0,0 UV-I 47 W/m² 14,3 °C 17,2 °C 4,8 km/h (1 Bft)
27.07.2017 19:39 17,2 °C 17,2 °C 84 % 1010,1 hPa 0,0 mm 0,1 km/h (0 Bft) W 264 ° 0 min 0,000 mm 0,0 UV-I 44 W/m² 14,5 °C 17,2 °C 1,6 km/h (1 Bft)
27.07.2017 19:40 17,2 °C 17,2 °C 84 % 1010,1 hPa 0,0 mm 3,1 km/h (1 Bft) W 264 ° 0 min 0,000 mm 0,0 UV-I 44 W/m² 14,5 °C 17,2 °C 4,8 km/h (1 Bft)
27.07.2017 19:41 17,2 °C 17,2 °C 84 % 1010,1 hPa 0,0 mm 3,0 km/h (1 Bft) W 265 ° 0 min 0,000 mm 0,0 UV-I 46 W/m² 14,5 °C 17,2 °C 4,8 km/h (1 Bft)
27.07.2017 19:42 17,1 °C 17,2 °C 85 % 1010,1 hPa 0,0 mm 1,4 km/h (1 Bft) W 265 ° 0 min 0,000 mm 0,0 UV-I 46 W/m² 14,6 °C 17,1 °C 3,2 km/h (1 Bft)
27.07.2017 19:43 17,1 °C 17,1 °C 85 % 1010,1 hPa 0,0 mm 0,9 km/h (0 Bft) W 265 ° 0 min 0,000 mm 0,0 UV-I 47 W/m² 14,6 °C 17,1 °C 3,2 km/h (1 Bft)
27.07.2017 19:44 17,1 °C 17,1 °C 85 % 1010,1 hPa 0,0 mm 1,9 km/h (1 Bft) W 265 ° 0 min 0,000 mm 0,0 UV-I 49 W/m² 14,6 °C 17,1 °C 4,8 km/h (1 Bft)
27.07.2017 19:45 17,0 °C 17,1 °C 85 % 1010,1 hPa 0,0 mm 0,6 km/h (0 Bft) W 265 ° 0 min 0,000 mm 0,0 UV-I 49 W/m² 14,5 °C 17,0 °C 3,2 km/h (1 Bft)
27.07.2017 19:46 17,0 °C 17,1 °C 85 % 1010,1 hPa 0,0 mm 0,0 km/h (0 Bft) W 265 ° 0 min 0,000 mm 0,0 UV-I 51 W/m² 14,5 °C 17,0 °C 0,0 km/h (0 Bft)
27.07.2017 19:47 17,0 °C 17,0 °C 86 % 1010,1 hPa 0,0 mm 0,0 km/h (0 Bft) W 265 ° 0 min 0,000 mm 0,0 UV-I 53 W/m² 14,6 °C 17,0 °C 0,0 km/h (0 Bft)
27.07.2017 19:48 17,0 °C 17,1 °C 86 % 1010,1 hPa 0,0 mm 0,0 km/h (0 Bft) W 265 ° 0 min 0,000 mm 0,0 UV-I 56 W/m² 14,6 °C 17,0 °C 0,0 km/h (0 Bft)
27.07.2017 19:49 16,9 °C 17,0 °C 86 % 1010,1 hPa 0,0 mm 1,9 km/h (1 Bft) W 265 ° 0 min 0,000 mm 0,0 UV-I 54 W/m² 14,5 °C 16,9 °C 4,8 km/h (1 Bft)
27.07.2017 19:50 16,9 °C 16,9 °C 86 % 1010,1 hPa 0,0 mm 0,5 km/h (0 Bft) W 265 ° 0 min 0,000 mm 0,0 UV-I 54 W/m² 14,5 °C 16,9 °C 3,2 km/h (1 Bft)
27.07.2017 19:51 16,8 °C 16,9 °C 86 % 1010,2 hPa 0,0 mm 1,8 km/h (1 Bft) W 265 ° 0 min 0,000 mm 0,0 UV-I 53 W/m² 14,4 °C 16,8 °C 3,2 km/h (1 Bft)
27.07.2017 19:52 16,9 °C 16,9 °C 86 % 1010,2 hPa 0,0 mm 0,6 km/h (0 Bft) W 264 ° 0 min 0,000 mm 0,0 UV-I 53 W/m² 14,5 °C 16,9 °C 1,6 km/h (1 Bft)
27.07.2017 19:53 16,9 °C 16,9 °C 87 % 1010,3 hPa 0,0 mm 2,8 km/h (1 Bft) W-SW 253 ° 0 min 0,000 mm 0,0 UV-I 51 W/m² 14,7 °C 16,9 °C 6,4 km/h (2 Bft)
27.07.2017 19:54 16,8 °C 16,9 °C 86 % 1010,3 hPa 0,0 mm 2,0 km/h (1 Bft) W-SW 254 ° 0 min 0,000 mm 0,0 UV-I 51 W/m² 14,4 °C 16,8 °C 3,2 km/h (1 Bft)
27.07.2017 19:55 16,8 °C 16,8 °C 85 % 1010,2 hPa 0,0 mm 1,3 km/h (1 Bft) W-SW 254 ° 0 min 0,000 mm 0,0 UV-I 51 W/m² 14,3 °C 16,8 °C 3,2 km/h (1 Bft)
27.07.2017 19:56 16,8 °C 16,8 °C 85 % 1010,2 hPa 0,0 mm 0,0 km/h (0 Bft) W-SW 254 ° 0 min 0,000 mm 0,0 UV-I 51 W/m² 14,3 °C 16,8 °C 0,0 km/h (0 Bft)
27.07.2017 19:57 16,8 °C 16,8 °C 85 % 1010,1 hPa 0,0 mm 0,6 km/h (0 Bft) W-SW 254 ° 0 min 0,000 mm 0,0 UV-I 49 W/m² 14,3 °C 16,8 °C 1,6 km/h (1 Bft)
27.07.2017 19:58 16,8 °C 16,8 °C 86 % 1010,1 hPa 0,0 mm 0,5 km/h (0 Bft) W-SW 254 ° 0 min 0,000 mm 0,0 UV-I 47 W/m² 14,4 °C 16,8 °C 1,6 km/h (1 Bft)
27.07.2017 19:59 16,8 °C 16,8 °C 86 % 1010,2 hPa 0,0 mm 0,1 km/h (0 Bft) W-SW 254 ° 0 min 0,000 mm 0,0 UV-I 44 W/m² 14,4 °C 16,8 °C 1,6 km/h (1 Bft)
27.07.2017 20:00 16,8 °C 16,8 °C 85 % 1010,2 hPa 0,0 mm 0,1 km/h (0 Bft) W-SW 254 ° 0 min 0,000 mm 0,0 UV-I 42 W/m² 14,3 °C 16,8 °C 1,6 km/h (1 Bft)
27.07.2017 20:01 16,8 °C 16,8 °C 85 % 1010,2 hPa 0,0 mm 0,0 km/h (0 Bft) W-SW 254 ° 0 min 0,051 mm 0,0 UV-I 40 W/m² 14,3 °C 16,8 °C 0,0 km/h (0 Bft)
27.07.2017 20:02 16,8 °C 16,8 °C 85 % 1010,2 hPa 0,0 mm 0,0 km/h (0 Bft) W-SW 254 ° 0 min 0,000 mm 0,0 UV-I 40 W/m² 14,3 °C 16,8 °C 0,0 km/h (0 Bft)
27.07.2017 20:03 16,8 °C 16,8 °C 85 % 1010,2 hPa 0,0 mm 0,2 km/h (0 Bft) W-SW 254 ° 0 min 0,000 mm 0,0 UV-I 39 W/m² 14,3 °C 16,8 °C 1,6 km/h (1 Bft)
27.07.2017 20:04 16,8 °C 16,8 °C 85 % 1010,3 hPa 0,0 mm 0,0 km/h (0 Bft) W-SW 254 ° 0 min 0,000 mm 0,0 UV-I 37 W/m² 14,3 °C 16,8 °C 0,0 km/h (0 Bft)
27.07.2017 20:05 16,7 °C 16,8 °C 85 % 1010,3 hPa 0,0 mm 0,0 km/h (0 Bft) W-SW 254 ° 0 min 0,000 mm 0,0 UV-I 32 W/m² 14,2 °C 16,7 °C 0,0 km/h (0 Bft)
27.07.2017 20:06 16,7 °C 16,7 °C 85 % 1010,3 hPa 0,0 mm 0,0 km/h (0 Bft) W-SW 254 ° 0 min 0,000 mm 0,0 UV-I 32 W/m² 14,2 °C 16,7 °C 0,0 km/h (0 Bft)
27.07.2017 20:07 16,7 °C 16,7 °C 85 % 1010,3 hPa 0,0 mm 1,0 km/h (0 Bft) W-SW 254 ° 0 min 0,000 mm 0,0 UV-I 32 W/m² 14,2 °C 16,7 °C 3,2 km/h (1 Bft)
27.07.2017 20:08 16,7 °C 16,7 °C 85 % 1010,2 hPa 0,0 mm 0,7 km/h (0 Bft) W-SW 254 ° 0 min 0,000 mm 0,0 UV-I 30 W/m² 14,2 °C 16,7 °C 3,2 km/h (1 Bft)
27.07.2017 20:09 16,7 °C 16,7 °C 85 % 1010,2 hPa 0,0 mm 0,0 km/h (0 Bft) W-SW 254 ° 0 min 0,000 mm 0,0 UV-I 30 W/m² 14,2 °C 16,7 °C 0,0 km/h (0 Bft)
27.07.2017 20:10 16,7 °C 16,7 °C 85 % 1010,2 hPa 0,0 mm 0,1 km/h (0 Bft) W-SW 254 ° 0 min 0,000 mm 0,0 UV-I 28 W/m² 14,2 °C 16,7 °C 1,6 km/h (1 Bft)
27.07.2017 20:11 16,7 °C 16,7 °C 85 % 1010,2 hPa 0,0 mm 0,7 km/h (0 Bft) W-SW 254 ° 0 min 0,000 mm 0,0 UV-I 25 W/m² 14,2 °C 16,7 °C 1,6 km/h (1 Bft)
27.07.2017 20:12 16,7 °C 16,7 °C 85 % 1010,1 hPa 0,0 mm 2,0 km/h (1 Bft) W-SW 254 ° 0 min 0,000 mm 0,0 UV-I 23 W/m² 14,2 °C 16,7 °C 4,8 km/h (1 Bft)
27.07.2017 20:13 16,6 °C 16,7 °C 85 % 1010,2 hPa 0,0 mm 0,4 km/h (0 Bft) W-SW 254 ° 0 min 0,000 mm 0,0 UV-I 21 W/m² 14,1 °C 16,6 °C 1,6 km/h (1 Bft)
27.07.2017 20:14 16,6 °C 16,6 °C 86 % 1010,2 hPa 0,0 mm 0,8 km/h (0 Bft) W-SW 254 ° 0 min 0,000 mm 0,0 UV-I 19 W/m² 14,2 °C 16,6 °C 3,2 km/h (1 Bft)
27.07.2017 20:15 16,5 °C 16,6 °C 86 % 1010,2 hPa 0,0 mm 0,6 km/h (0 Bft) W-SW 254 ° 0 min 0,000 mm 0,0 UV-I 19 W/m² 14,1 °C 16,5 °C 3,2 km/h (1 Bft)
27.07.2017 20:16 16,4 °C 16,5 °C 86 % 1010,2 hPa 0,0 mm 0,3 km/h (0 Bft) W-SW 254 ° 0 min 0,000 mm 0,0 UV-I 19 W/m² 14,1 °C 16,4 °C 1,6 km/h (1 Bft)
27.07.2017 20:17 16,4 °C 16,4 °C 86 % 1010,2 hPa 0,0 mm 1,5 km/h (1 Bft) W-SW 254 ° 0 min 0,000 mm 0,0 UV-I 19 W/m² 14,1 °C 16,4 °C 3,2 km/h (1 Bft)
27.07.2017 20:18 16,3 °C 16,4 °C 87 % 1010,2 hPa 0,0 mm 0,4 km/h (0 Bft) W-SW 254 ° 0 min 0,000 mm 0,0 UV-I 19 W/m² 14,1 °C 16,3 °C 1,6 km/h (1 Bft)
27.07.2017 20:19 16,3 °C 16,3 °C 87 % 1010,1 hPa 0,0 mm 1,3 km/h (1 Bft) W-SW 254 ° 0 min 0,000 mm 0,0 UV-I 19 W/m² 14,1 °C 16,3 °C 3,2 km/h (1 Bft)
27.07.2017 20:20 16,3 °C 16,3 °C 87 % 1010,1 hPa 0,0 mm 0,8 km/h (0 Bft) W-SW 254 ° 0 min 0,000 mm 0,0 UV-I 19 W/m² 14,1 °C 16,3 °C 3,2 km/h (1 Bft)
27.07.2017 20:21 16,2 °C 16,3 °C 87 % 1010,1 hPa 0,0 mm 4,2 km/h (1 Bft) S-SW 199 ° 0 min 0,000 mm 0,0 UV-I 18 W/m² 14,0 °C 16,2 °C 6,4 km/h (2 Bft)
27.07.2017 20:22 16,2 °C 16,3 °C 86 % 1010,1 hPa 0,0 mm 2,1 km/h (1 Bft) S-SW 199 ° 0 min 0,000 mm 0,0 UV-I 18 W/m² 13,9 °C 16,2 °C 3,2 km/h (1 Bft)
27.07.2017 20:23 16,3 °C 16,3 °C 86 % 1010,2 hPa 0,0 mm 2,7 km/h (1 Bft) S-SW 199 ° 0 min 0,000 mm 0,0 UV-I 16 W/m² 14,0 °C 16,3 °C 4,8 km/h (1 Bft)
27.07.2017 20:24 16,3 °C 16,3 °C 86 % 1010,2 hPa 0,0 mm 2,2 km/h (1 Bft) S-SW 199 ° 0 min 0,000 mm 0,0 UV-I 14 W/m² 14,0 °C 16,3 °C 4,8 km/h (1 Bft)
27.07.2017 20:25 16,3 °C 16,3 °C 86 % 1010,2 hPa 0,0 mm 2,6 km/h (1 Bft) S-SW 199 ° 0 min 0,000 mm 0,0 UV-I 14 W/m² 14,0 °C 16,3 °C 4,8 km/h (1 Bft)
27.07.2017 20:26 16,2 °C 16,3 °C 86 % 1010,2 hPa 0,0 mm 2,7 km/h (1 Bft) S-SW 199 ° 0 min 0,000 mm 0,0 UV-I 14 W/m² 13,9 °C 16,2 °C 4,8 km/h (1 Bft)
27.07.2017 20:27 16,2 °C 16,2 °C 87 % 1010,2 hPa 0,0 mm 2,3 km/h (1 Bft) S-SW 200 ° 0 min 0,000 mm 0,0 UV-I 12 W/m² 14,0 °C 16,2 °C 4,8 km/h (1 Bft)
27.07.2017 20:28 16,2 °C 16,2 °C 86 % 1010,2 hPa 0,0 mm 3,5 km/h (1 Bft) S-SW 200 ° 0 min 0,000 mm 0,0 UV-I 11 W/m² 13,9 °C 16,2 °C 6,4 km/h (2 Bft)
27.07.2017 20:29 16,2 °C 16,2 °C 87 % 1010,2 hPa 0,0 mm 2,6 km/h (1 Bft) S-SW 200 ° 0 min 0,000 mm 0,0 UV-I 11 W/m² 14,0 °C 16,2 °C 4,8 km/h (1 Bft)
27.07.2017 20:30 16,2 °C 16,2 °C 87 % 1010,2 hPa 0,0 mm 2,4 km/h (1 Bft) S-SW 199 ° 0 min 0,000 mm 0,0 UV-I 11 W/m² 14,0 °C 16,2 °C 4,8 km/h (1 Bft)
27.07.2017 20:31 16,2 °C 16,2 °C 86 % 1010,2 hPa 0,0 mm 2,7 km/h (1 Bft) S-SW 199 ° 0 min 0,000 mm 0,0 UV-I 11 W/m² 13,9 °C 16,2 °C 3,2 km/h (1 Bft)
27.07.2017 20:32 16,2 °C 16,2 °C 87 % 1010,2 hPa 0,0 mm 0,8 km/h (0 Bft) S-SW 199 ° 0 min 0,000 mm 0,0 UV-I 11 W/m² 14,0 °C 16,2 °C 3,2 km/h (1 Bft)
27.07.2017 20:33 16,1 °C 16,2 °C 87 % 1010,2 hPa 0,0 mm 0,2 km/h (0 Bft) S-SW 199 ° 0 min 0,000 mm 0,0 UV-I 9 W/m² 13,9 °C 16,1 °C 1,6 km/h (1 Bft)
27.07.2017 20:34 16,1 °C 16,1 °C 86 % 1010,1 hPa 0,0 mm 2,3 km/h (1 Bft) S-SW 199 ° 0 min 0,000 mm 0,0 UV-I 9 W/m² 13,8 °C 16,1 °C 4,8 km/h (1 Bft)
27.07.2017 20:35 16,1 °C 16,1 °C 86 % 1010,1 hPa 0,0 mm 3,4 km/h (1 Bft) S-SW 199 ° 0 min 0,000 mm 0,0 UV-I 9 W/m² 13,8 °C 16,1 °C 6,4 km/h (2 Bft)
27.07.2017 20:36 16,1 °C 16,1 °C 86 % 1010,2 hPa 0,0 mm 0,1 km/h (0 Bft) S-SW 199 ° 0 min 0,000 mm 0,0 UV-I 7 W/m² 13,8 °C 16,1 °C 1,6 km/h (1 Bft)
27.07.2017 20:37 16,1 °C 16,1 °C 86 % 1010,2 hPa 0,0 mm 0,8 km/h (0 Bft) S-SW 199 ° 0 min 0,000 mm 0,0 UV-I 7 W/m² 13,8 °C 16,1 °C 3,2 km/h (1 Bft)
27.07.2017 20:38 16,1 °C 16,1 °C 86 % 1010,2 hPa 0,0 mm 2,3 km/h (1 Bft) S-SW 199 ° 0 min 0,000 mm 0,0 UV-I 7 W/m² 13,8 °C 16,1 °C 3,2 km/h (1 Bft)
27.07.2017 20:39 16,1 °C 16,1 °C 87 % 1010,2 hPa 0,0 mm 2,3 km/h (1 Bft) S-SW 199 ° 0 min 0,000 mm 0,0 UV-I 5 W/m² 13,9 °C 16,1 °C 3,2 km/h (1 Bft)
27.07.2017 20:40 16,1 °C 16,1 °C 86 % 1010,2 hPa 0,0 mm 3,8 km/h (1 Bft) S-SW 199 ° 0 min 0,000 mm 0,0 UV-I 5 W/m² 13,8 °C 16,1 °C 6,4 km/h (2 Bft)
27.07.2017 20:41 16,1 °C 16,1 °C 86 % 1010,2 hPa 0,0 mm 4,6 km/h (1 Bft) S 189 ° 0 min 0,000 mm 0,0 UV-I 5 W/m² 13,8 °C 16,1 °C 6,4 km/h (2 Bft)
27.07.2017 20:42 16,1 °C 16,1 °C 86 % 1010,2 hPa 0,0 mm 4,2 km/h (1 Bft) S-SW 195 ° 0 min 0,000 mm 0,0 UV-I 0 W/m² 13,8 °C 16,1 °C 6,4 km/h (2 Bft)
27.07.2017 20:43 16,1 °C 16,1 °C 86 % 1010,2 hPa 0,0 mm 2,4 km/h (1 Bft) S-SW 194 ° 0 min 0,000 mm 0,0 UV-I 0 W/m² 13,8 °C 16,1 °C 4,8 km/h (1 Bft)
27.07.2017 20:44 16,1 °C 16,2 °C 86 % 1010,2 hPa 0,0 mm 0,9 km/h (0 Bft) S-SW 194 ° 0 min 0,000 mm 0,0 UV-I 0 W/m² 13,8 °C 16,1 °C 1,6 km/h (1 Bft)
27.07.2017 20:45 16,1 °C 16,1 °C 87 % 1010,2 hPa 0,0 mm 2,4 km/h (1 Bft) S-SW 194 ° 0 min 0,000 mm 0,0 UV-I 0 W/m² 13,9 °C 16,1 °C 4,8 km/h (1 Bft)
27.07.2017 20:46 16,1 °C 16,1 °C 86 % 1010,2 hPa 0,0 mm 2,3 km/h (1 Bft) S-SW 194 ° 0 min 0,000 mm 0,0 UV-I 0 W/m² 13,8 °C 16,1 °C 3,2 km/h (1 Bft)
27.07.2017 20:47 16,1 °C 16,1 °C 86 % 1010,2 hPa 0,0 mm 0,1 km/h (0 Bft) S-SW 194 ° 0 min 0,000 mm 0,0 UV-I 0 W/m² 13,8 °C 16,1 °C 1,6 km/h (1 Bft)
27.07.2017 20:48 16,2 °C 16,2 °C 86 % 1010,1 hPa 0,0 mm 0,6 km/h (0 Bft) S-SW 194 ° 0 min 0,000 mm 0,0 UV-I 0 W/m² 13,9 °C 16,2 °C 1,6 km/h (1 Bft)
27.07.2017 20:49 16,2 °C 16,2 °C 86 % 1010,2 hPa 0,0 mm 0,8 km/h (0 Bft) S-SW 194 ° 0 min 0,000 mm 0,0 UV-I 0 W/m² 13,9 °C 16,2 °C 1,6 km/h (1 Bft)
27.07.2017 20:50 16,2 °C 16,2 °C 86 % 1010,2 hPa 0,0 mm 0,9 km/h (0 Bft) S-SW 194 ° 0 min 0,000 mm 0,0 UV-I 0 W/m² 13,9 °C 16,2 °C 1,6 km/h (1 Bft)
27.07.2017 20:51 16,1 °C 16,2 °C 87 % 1010,2 hPa 0,0 mm 0,0 km/h (0 Bft) S-SW 194 ° 0 min 0,000 mm 0,0 UV-I 0 W/m² 13,9 °C 16,1 °C 0,0 km/h (0 Bft)
27.07.2017 20:52 16,1 °C 16,1 °C 87 % 1010,2 hPa 0,0 mm 0,0 km/h (0 Bft) S-SW 194 ° 0 min 0,000 mm 0,0 UV-I 0 W/m² 13,9 °C 16,1 °C 0,0 km/h (0 Bft)
27.07.2017 20:53 16,1 °C 16,1 °C 87 % 1010,2 hPa 0,0 mm 1,7 km/h (1 Bft) S-SW 194 ° 0 min 0,000 mm 0,0 UV-I 0 W/m² 13,9 °C 16,1 °C 3,2 km/h (1 Bft)
27.07.2017 20:54 16,1 °C 16,1 °C 87 % 1010,2 hPa 0,0 mm 1,6 km/h (1 Bft) S-SW 194 ° 0 min 0,000 mm 0,0 UV-I 0 W/m² 13,9 °C 16,1 °C 3,2 km/h (1 Bft)
27.07.2017 20:55 16,0 °C 16,1 °C 87 % 1010,2 hPa 0,0 mm 0,7 km/h (0 Bft) S-SW 194 ° 0 min 0,000 mm 0,0 UV-I 0 W/m² 13,8 °C 16,0 °C 1,6 km/h (1 Bft)
27.07.2017 20:56 15,9 °C 16,0 °C 87 % 1010,2 hPa 0,0 mm 0,0 km/h (0 Bft) S-SW 194 ° 0 min 0,000 mm 0,0 UV-I 0 W/m² 13,7 °C 15,9 °C 0,0 km/h (0 Bft)
27.07.2017 20:57 16,0 °C 16,0 °C 87 % 1010,2 hPa 0,0 mm 0,6 km/h (0 Bft) S-SW 194 ° 0 min 0,000 mm 0,0 UV-I 0 W/m² 13,8 °C 16,0 °C 1,6 km/h (1 Bft)
27.07.2017 20:58 16,0 °C 16,1 °C 87 % 1010,2 hPa 0,0 mm 3,2 km/h (1 Bft) S-SW 194 ° 0 min 0,000 mm 0,0 UV-I 0 W/m² 13,8 °C 16,0 °C 4,8 km/h (1 Bft)
27.07.2017 20:59 16,1 °C 16,1 °C 87 % 1010,2 hPa 0,0 mm 2,5 km/h (1 Bft) S-SW 194 ° 0 min 0,000 mm 0,0 UV-I 0 W/m² 13,9 °C 16,1 °C 4,8 km/h (1 Bft)
27.07.2017 21:00 16,1 °C 16,1 °C 87 % 1010,2 hPa 0,0 mm 1,1 km/h (1 Bft) S-SW 194 ° 0 min 0,000 mm 0,0 UV-I 0 W/m² 13,9 °C 16,1 °C 4,8 km/h (1 Bft)
27.07.2017 21:01 16,1 °C 16,1 °C 87 % 1010,2 hPa 0,0 mm 4,2 km/h (1 Bft) S-SW 194 ° 0 min 0,000 mm 0,0 UV-I 0 W/m² 13,9 °C 16,1 °C 4,8 km/h (1 Bft)
27.07.2017 21:02 16,1 °C 16,1 °C 87 % 1010,1 hPa 0,0 mm 2,0 km/h (1 Bft) S-SW 194 ° 0 min 0,000 mm 0,0 UV-I 0 W/m² 13,9 °C 16,1 °C 4,8 km/h (1 Bft)
27.07.2017 21:03 16,1 °C 16,1 °C 87 % 1010,1 hPa 0,0 mm 0,9 km/h (0 Bft) S-SW 194 ° 0 min 0,000 mm 0,0 UV-I 0 W/m² 13,9 °C 16,1 °C 1,6 km/h (1 Bft)
27.07.2017 21:04 16,1 °C 16,1 °C 87 % 1010,1 hPa 0,0 mm 1,9 km/h (1 Bft) S-SW 194 ° 0 min 0,000 mm 0,0 UV-I 0 W/m² 13,9 °C 16,1 °C 4,8 km/h (1 Bft)
27.07.2017 21:05 16,1 °C 16,1 °C 87 % 1010,1 hPa 0,0 mm 2,7 km/h (1 Bft) S-SW 194 ° 0 min 0,000 mm 0,0 UV-I 0 W/m² 13,9 °C 16,1 °C 3,2 km/h (1 Bft)
27.07.2017 21:06 16,1 °C 16,1 °C 86 % 1010,1 hPa 0,0 mm 2,6 km/h (1 Bft) S-SW 194 ° 0 min 0,000 mm 0,0 UV-I 0 W/m² 13,8 °C 16,1 °C 4,8 km/h (1 Bft)
27.07.2017 21:07 16,2 °C 16,2 °C 86 % 1010,1 hPa 0,0 mm 5,3 km/h (1 Bft) S 190 ° 0 min 0,000 mm 0,0 UV-I 0 W/m² 13,9 °C 16,2 °C 8,0 km/h (2 Bft)
27.07.2017 21:08 16,2 °C 16,2 °C 87 % 1010,1 hPa 0,0 mm 4,8 km/h (1 Bft) S-SW 196 ° 0 min 0,000 mm 0,0 UV-I 0 W/m² 14,0 °C 16,2 °C 6,4 km/h (2 Bft)
27.07.2017 21:09 16,2 °C 16,2 °C 87 % 1010,0 hPa 0,0 mm 2,1 km/h (1 Bft) S-SW 196 ° 0 min 0,000 mm 0,0 UV-I 0 W/m² 14,0 °C 16,2 °C 3,2 km/h (1 Bft)
27.07.2017 21:10 16,1 °C 16,2 °C 86 % 1010,1 hPa 0,0 mm 3,8 km/h (1 Bft) SW 214 ° 0 min 0,000 mm 0,0 UV-I 0 W/m² 13,8 °C 16,1 °C 6,4 km/h (2 Bft)
27.07.2017 21:11 16,1 °C 16,2 °C 87 % 1010,1 hPa 0,0 mm 2,1 km/h (1 Bft) S-SW 213 ° 0 min 0,000 mm 0,0 UV-I 0 W/m² 13,9 °C 16,1 °C 4,8 km/h (1 Bft)
27.07.2017 21:12 16,1 °C 16,1 °C 87 % 1010,1 hPa 0,0 mm 1,9 km/h (1 Bft) S-SW 213 ° 0 min 0,000 mm 0,0 UV-I 0 W/m² 13,9 °C 16,1 °C 4,8 km/h (1 Bft)
27.07.2017 21:13 16,1 °C 16,1 °C 87 % 1010,1 hPa 0,0 mm 3,3 km/h (1 Bft) S-SW 213 ° 0 min 0,000 mm 0,0 UV-I 0 W/m² 13,9 °C 16,1 °C 4,8 km/h (1 Bft)
27.07.2017 21:14 16,1 °C 16,1 °C 87 % 1010,1 hPa 0,0 mm 4,4 km/h (1 Bft) S-SO 167 ° 0 min 0,000 mm 0,0 UV-I 0 W/m² 13,9 °C 16,1 °C 9,7 km/h (2 Bft)
27.07.2017 21:15 16,0 °C 16,1 °C 87 % 1010,1 hPa 0,0 mm 1,9 km/h (1 Bft) S-SO 167 ° 0 min 0,000 mm 0,0 UV-I 0 W/m² 13,8 °C 16,0 °C 4,8 km/h (1 Bft)
27.07.2017 21:16 16,1 °C 16,1 °C 87 % 1010,1 hPa 0,0 mm 4,9 km/h (1 Bft) S 169 ° 0 min 0,000 mm 0,0 UV-I 0 W/m² 13,9 °C 16,1 °C 8,0 km/h (2 Bft)
27.07.2017 21:17 16,1 °C 16,1 °C 87 % 1010,0 hPa 0,0 mm 5,2 km/h (1 Bft) S 184 ° 0 min 0,000 mm 0,0 UV-I 0 W/m² 13,9 °C 16,1 °C 6,4 km/h (2 Bft)
27.07.2017 21:18 16,0 °C 16,1 °C 87 % 1010,1 hPa 0,0 mm 1,8 km/h (1 Bft) S 186 ° 0 min 0,000 mm 0,0 UV-I 0 W/m² 13,8 °C 16,0 °C 4,8 km/h (1 Bft)
27.07.2017 21:19 16,1 °C 16,1 °C 87 % 1010,1 hPa 0,0 mm 3,4 km/h (1 Bft) S 180 ° 0 min 0,000 mm 0,0 UV-I 0 W/m² 13,9 °C 16,1 °C 4,8 km/h (1 Bft)
27.07.2017 21:20 16,1 °C 16,1 °C 87 % 1010,1 hPa 0,0 mm 1,1 km/h (1 Bft) S 180 ° 0 min 0,000 mm 0,0 UV-I 0 W/m² 13,9 °C 16,1 °C 3,2 km/h (1 Bft)
27.07.2017 21:21 16,1 °C 16,1 °C 87 % 1010,1 hPa 0,0 mm 3,5 km/h (1 Bft) S 180 ° 0 min 0,000 mm 0,0 UV-I 0 W/m² 13,9 °C 16,1 °C 4,8 km/h (1 Bft)
27.07.2017 21:22 16,1 °C 16,1 °C 87 % 1010,2 hPa 0,0 mm 1,6 km/h (1 Bft) S-SW 195 ° 0 min 0,000 mm 0,0 UV-I 0 W/m² 13,9 °C 16,1 °C 6,4 km/h (2 Bft)
27.07.2017 21:23 16,1 °C 16,1 °C 87 % 1010,2 hPa 0,0 mm 5,6 km/h (1 Bft) S-SW 208 ° 0 min 0,000 mm 0,0 UV-I 0 W/m² 13,9 °C 16,1 °C 8,0 km/h (2 Bft)
27.07.2017 21:24 16,1 °C 16,1 °C 87 % 1010,2 hPa 0,0 mm 2,1 km/h (1 Bft) S-SW 208 ° 0 min 0,000 mm 0,0 UV-I 0 W/m² 13,9 °C 16,1 °C 4,8 km/h (1 Bft)
27.07.2017 21:25 16,0 °C 16,1 °C 87 % 1010,2 hPa 0,0 mm 1,8 km/h (1 Bft) S 187 ° 0 min 0,000 mm 0,0 UV-I 0 W/m² 13,8 °C 16,0 °C 3,2 km/h (1 Bft)
27.07.2017 21:26 15,9 °C 16,0 °C 88 % 1010,2 hPa 0,0 mm 1,6 km/h (1 Bft) S 187 ° 0 min 0,000 mm 0,0 UV-I 0 W/m² 13,9 °C 15,9 °C 4,8 km/h (1 Bft)
27.07.2017 21:27 15,9 °C 15,9 °C 88 % 1010,2 hPa 0,0 mm 0,6 km/h (0 Bft) S 186 ° 0 min 0,000 mm 0,0 UV-I 0 W/m² 13,9 °C 15,9 °C 3,2 km/h (1 Bft)
27.07.2017 21:28 15,9 °C 15,9 °C 88 % 1010,2 hPa 0,0 mm 3,8 km/h (1 Bft) S 184 ° 0 min 0,000 mm 0,0 UV-I 0 W/m² 13,9 °C 15,9 °C 4,8 km/h (1 Bft)
27.07.2017 21:29 15,8 °C 15,9 °C 88 % 1010,3 hPa 0,0 mm 1,8 km/h (1 Bft) S 184 ° 0 min 0,000 mm 0,0 UV-I 0 W/m² 13,8 °C 15,8 °C 3,2 km/h (1 Bft)
27.07.2017 21:30 15,8 °C 15,9 °C 88 % 1010,2 hPa 0,0 mm 2,3 km/h (1 Bft) S 184 ° 0 min 0,000 mm 0,0 UV-I 0 W/m² 13,8 °C 15,8 °C 3,2 km/h (1 Bft)
27.07.2017 21:31 15,8 °C 15,8 °C 89 % 1010,3 hPa 0,0 mm 1,8 km/h (1 Bft) S 184 ° 0 min 0,000 mm 0,0 UV-I 0 W/m² 14,0 °C 15,8 °C 3,2 km/h (1 Bft)
27.07.2017 21:32 15,7 °C 15,8 °C 89 % 1010,3 hPa 0,0 mm 3,0 km/h (1 Bft) S 184 ° 0 min 0,000 mm 0,0 UV-I 0 W/m² 13,9 °C 15,7 °C 3,2 km/h (1 Bft)
27.07.2017 21:33 15,7 °C 15,7 °C 89 % 1010,3 hPa 0,0 mm 5,0 km/h (1 Bft) S-SW 204 ° 0 min 0,000 mm 0,0 UV-I 0 W/m² 13,9 °C 15,7 °C 9,7 km/h (2 Bft)
27.07.2017 21:34 15,7 °C 15,7 °C 89 % 1010,3 hPa 0,0 mm 0,4 km/h (0 Bft) S-SW 196 ° 0 min 0,000 mm 0,0 UV-I 0 W/m² 13,9 °C 15,7 °C 1,6 km/h (1 Bft)
27.07.2017 21:35 15,7 °C 15,7 °C 89 % 1010,3 hPa 0,0 mm 1,8 km/h (1 Bft) S-SW 196 ° 0 min 0,000 mm 0,0 UV-I 0 W/m² 13,9 °C 15,7 °C 3,2 km/h (1 Bft)
27.07.2017 21:36 15,6 °C 15,7 °C 89 % 1010,3 hPa 0,0 mm 2,2 km/h (1 Bft) S-SW 196 ° 0 min 0,000 mm 0,0 UV-I 0 W/m² 13,8 °C 15,6 °C 3,2 km/h (1 Bft)
27.07.2017 21:37 15,5 °C 15,6 °C 90 % 1010,3 hPa 0,0 mm 1,1 km/h (1 Bft) S-SW 196 ° 0 min 0,000 mm 0,0 UV-I 0 W/m² 13,9 °C 15,5 °C 1,6 km/h (1 Bft)
27.07.2017 21:38 15,4 °C 15,5 °C 90 % 1010,3 hPa 0,0 mm 0,5 km/h (0 Bft) S-SW 196 ° 0 min 0,000 mm 0,0 UV-I 0 W/m² 13,8 °C 15,4 °C 1,6 km/h (1 Bft)
27.07.2017 21:39 15,4 °C 15,4 °C 91 % 1010,3 hPa 0,0 mm 1,4 km/h (1 Bft) S-SW 196 ° 0 min 0,000 mm 0,0 UV-I 0 W/m² 13,9 °C 15,4 °C 3,2 km/h (1 Bft)
27.07.2017 21:40 15,3 °C 15,4 °C 91 % 1010,2 hPa 0,0 mm 1,9 km/h (1 Bft) S-SW 195 ° 0 min 0,000 mm 0,0 UV-I 0 W/m² 13,8 °C 15,3 °C 4,8 km/h (1 Bft)
27.07.2017 21:41 15,3 °C 15,3 °C 91 % 1010,3 hPa 0,0 mm 2,7 km/h (1 Bft) S-SW 195 ° 0 min 0,000 mm 0,0 UV-I 0 W/m² 13,8 °C 15,3 °C 3,2 km/h (1 Bft)
27.07.2017 21:42 15,3 °C 15,3 °C 91 % 1010,3 hPa 0,2 mm 0,8 km/h (0 Bft) S-SW 195 ° 0 min 0,000 mm 0,0 UV-I 0 W/m² 13,8 °C 15,3 °C 1,6 km/h (1 Bft)
27.07.2017 21:43 15,2 °C 15,3 °C 91 % 1010,3 hPa 0,0 mm 1,2 km/h (1 Bft) S-SW 195 ° 0 min 0,000 mm 0,0 UV-I 0 W/m² 13,7 °C 15,2 °C 3,2 km/h (1 Bft)
27.07.2017 21:44 15,3 °C 15,3 °C 91 % 1010,3 hPa 0,0 mm 2,0 km/h (1 Bft) S-SW 195 ° 0 min 0,000 mm 0,0 UV-I 0 W/m² 13,8 °C 15,3 °C 3,2 km/h (1 Bft)
27.07.2017 21:45 15,2 °C 15,3 °C 91 % 1010,3 hPa 0,0 mm 0,6 km/h (0 Bft) S-SW 195 ° 0 min 0,000 mm 0,0 UV-I 0 W/m² 13,7 °C 15,2 °C 3,2 km/h (1 Bft)
27.07.2017 21:46 15,2 °C 15,2 °C 92 % 1010,3 hPa 0,0 mm 1,1 km/h (1 Bft) S-SW 195 ° 0 min 0,000 mm 0,0 UV-I 0 W/m² 13,9 °C 15,2 °C 3,2 km/h (1 Bft)
27.07.2017 21:47 15,2 °C 15,2 °C 91 % 1010,3 hPa 0,0 mm 0,0 km/h (0 Bft) S-SW 195 ° 0 min 0,000 mm 0,0 UV-I 0 W/m² 13,7 °C 15,2 °C 0,0 km/h (0 Bft)
27.07.2017 21:48 15,2 °C 15,2 °C 92 % 1010,3 hPa 0,0 mm 0,0 km/h (0 Bft) S-SW 195 ° 0 min 0,000 mm 0,0 UV-I 0 W/m² 13,9 °C 15,2 °C 0,0 km/h (0 Bft)
27.07.2017 21:49 15,2 °C 15,2 °C 92 % 1010,3 hPa 0,0 mm 0,0 km/h (0 Bft) S-SW 195 ° 0 min 0,000 mm 0,0 UV-I 0 W/m² 13,9 °C 15,2 °C 0,0 km/h (0 Bft)
27.07.2017 21:50 15,1 °C 15,2 °C 92 % 1010,3 hPa 0,0 mm 0,4 km/h (0 Bft) S-SW 195 ° 0 min 0,000 mm 0,0 UV-I 0 W/m² 13,8 °C 15,1 °C 1,6 km/h (1 Bft)
27.07.2017 21:51 15,1 °C 15,1 °C 92 % 1010,4 hPa 0,0 mm 0,2 km/h (0 Bft) S-SW 195 ° 0 min 0,000 mm 0,0 UV-I 0 W/m² 13,8 °C 15,1 °C 1,6 km/h (1 Bft)
27.07.2017 21:52 15,1 °C 15,1 °C 92 % 1010,4 hPa 0,0 mm 0,1 km/h (0 Bft) S-SW 195 ° 0 min 0,000 mm 0,0 UV-I 0 W/m² 13,8 °C 15,1 °C 1,6 km/h (1 Bft)
27.07.2017 21:53 15,1 °C 15,1 °C 92 % 1010,4 hPa 0,2 mm 0,0 km/h (0 Bft) S-SW 195 ° 0 min 0,000 mm 0,0 UV-I 0 W/m² 13,8 °C 15,1 °C 0,0 km/h (0 Bft)
27.07.2017 21:54 15,1 °C 15,1 °C 93 % 1010,4 hPa 0,0 mm 0,0 km/h (0 Bft) S-SW 195 ° 0 min 0,000 mm 0,0 UV-I 0 W/m² 14,0 °C 15,1 °C 0,0 km/h (0 Bft)
27.07.2017 21:55 15,0 °C 15,1 °C 93 % 1010,4 hPa 0,0 mm 0,9 km/h (0 Bft) S-SW 195 ° 0 min 0,000 mm 0,0 UV-I 0 W/m² 13,9 °C 15,0 °C 3,2 km/h (1 Bft)
27.07.2017 21:56 14,9 °C 15,0 °C 93 % 1010,3 hPa 0,0 mm 2,7 km/h (1 Bft) S-SW 194 ° 0 min 0,000 mm 0,0 UV-I 0 W/m² 13,8 °C 14,9 °C 3,2 km/h (1 Bft)
27.07.2017 21:57 14,9 °C 14,9 °C 93 % 1010,3 hPa 0,0 mm 1,3 km/h (1 Bft) S-SW 194 ° 0 min 0,000 mm 0,0 UV-I 0 W/m² 13,8 °C 14,9 °C 3,2 km/h (1 Bft)
27.07.2017 21:58 14,9 °C 14,9 °C 93 % 1010,4 hPa 0,2 mm 1,6 km/h (1 Bft) S-SW 194 ° 0 min 0,000 mm 0,0 UV-I 0 W/m² 13,8 °C 14,9 °C 3,2 km/h (1 Bft)
27.07.2017 21:59 14,9 °C 14,9 °C 93 % 1010,3 hPa 0,0 mm 3,2 km/h (1 Bft) S-SW 194 ° 0 min 0,000 mm 0,0 UV-I 0 W/m² 13,8 °C 14,9 °C 3,2 km/h (1 Bft)
27.07.2017 22:00 14,9 °C 14,9 °C 93 % 1010,3 hPa 0,2 mm 3,2 km/h (1 Bft) S-SW 194 ° 0 min 0,000 mm 0,0 UV-I 0 W/m² 13,8 °C 14,9 °C 3,2 km/h (1 Bft)
27.07.2017 22:01 14,9 °C 14,9 °C 93 % 1010,3 hPa 0,0 mm 3,1 km/h (1 Bft) S 186 ° 0 min 0,000 mm 0,0 UV-I 0 W/m² 13,8 °C 14,9 °C 3,2 km/h (1 Bft)
27.07.2017 22:02 14,8 °C 14,9 °C 93 % 1010,3 hPa 0,0 mm 2,0 km/h (1 Bft) S 186 ° 0 min 0,000 mm 0,0 UV-I 0 W/m² 13,7 °C 14,8 °C 3,2 km/h (1 Bft)
27.07.2017 22:03 14,8 °C 14,8 °C 93 % 1010,3 hPa 0,0 mm 0,7 km/h (0 Bft) S 186 ° 0 min 0,000 mm 0,0 UV-I 0 W/m² 13,7 °C 14,8 °C 1,6 km/h (1 Bft)
27.07.2017 22:04 14,8 °C 14,8 °C 94 % 1010,3 hPa 0,0 mm 0,0 km/h (0 Bft) S 186 ° 0 min 0,000 mm 0,0 UV-I 0 W/m² 13,8 °C 14,8 °C 0,0 km/h (0 Bft)
27.07.2017 22:05 14,8 °C 14,8 °C 94 % 1010,2 hPa 0,0 mm 0,0 km/h (0 Bft) S 186 ° 0 min 0,000 mm 0,0 UV-I 0 W/m² 13,8 °C 14,8 °C 0,0 km/h (0 Bft)
27.07.2017 22:06 14,8 °C 14,8 °C 94 % 1010,2 hPa 0,0 mm 0,0 km/h (0 Bft) S 186 ° 0 min 0,000 mm 0,0 UV-I 0 W/m² 13,8 °C 14,8 °C 0,0 km/h (0 Bft)
27.07.2017 22:07 14,8 °C 14,8 °C 94 % 1010,2 hPa 0,0 mm 0,0 km/h (0 Bft) S 186 ° 0 min 0,000 mm 0,0 UV-I 0 W/m² 13,8 °C 14,8 °C 0,0 km/h (0 Bft)
27.07.2017 22:08 14,8 °C 14,8 °C 94 % 1010,2 hPa 0,0 mm 0,0 km/h (0 Bft) S 186 ° 0 min 0,000 mm 0,0 UV-I 0 W/m² 13,8 °C 14,8 °C 0,0 km/h (0 Bft)
27.07.2017 22:09 14,8 °C 14,8 °C 94 % 1010,2 hPa 0,0 mm 0,0 km/h (0 Bft) S 186 ° 0 min 0,000 mm 0,0 UV-I 0 W/m² 13,8 °C 14,8 °C 0,0 km/h (0 Bft)
27.07.2017 22:10 14,8 °C 14,8 °C 94 % 1010,2 hPa 0,0 mm 0,0 km/h (0 Bft) S 186 ° 0 min 0,000 mm 0,0 UV-I 0 W/m² 13,8 °C 14,8 °C 0,0 km/h (0 Bft)
27.07.2017 22:11 14,8 °C 14,8 °C 94 % 1010,2 hPa 0,0 mm 0,0 km/h (0 Bft) S 186 ° 0 min 0,000 mm 0,0 UV-I 0 W/m² 13,8 °C 14,8 °C 0,0 km/h (0 Bft)
27.07.2017 22:12 14,8 °C 14,8 °C 94 % 1010,2 hPa 0,0 mm 0,0 km/h (0 Bft) S 186 ° 0 min 0,000 mm 0,0 UV-I 0 W/m² 13,8 °C 14,8 °C 0,0 km/h (0 Bft)
27.07.2017 22:13 14,8 °C 14,8 °C 94 % 1010,2 hPa 0,0 mm 0,0 km/h (0 Bft) S 186 ° 0 min 0,000 mm 0,0 UV-I 0 W/m² 13,8 °C 14,8 °C 0,0 km/h (0 Bft)
27.07.2017 22:14 14,7 °C 14,8 °C 94 % 1010,1 hPa 0,0 mm 0,0 km/h (0 Bft) S 186 ° 0 min 0,000 mm 0,0 UV-I 0 W/m² 13,7 °C 14,7 °C 0,0 km/h (0 Bft)
27.07.2017 22:15 14,8 °C 14,8 °C 94 % 1010,1 hPa 0,0 mm 0,0 km/h (0 Bft) S 186 ° 0 min 0,000 mm 0,0 UV-I 0 W/m² 13,8 °C 14,8 °C 0,0 km/h (0 Bft)
27.07.2017 22:16 14,8 °C 14,8 °C 94 % 1010,1 hPa 0,0 mm 0,0 km/h (0 Bft) S 186 ° 0 min 0,000 mm 0,0 UV-I 0 W/m² 13,8 °C 14,8 °C 0,0 km/h (0 Bft)
27.07.2017 22:17 14,7 °C 14,8 °C 94 % 1010,2 hPa 0,0 mm 0,0 km/h (0 Bft) S 186 ° 0 min 0,000 mm 0,0 UV-I 0 W/m² 13,7 °C 14,7 °C 0,0 km/h (0 Bft)
27.07.2017 22:18 14,7 °C 14,7 °C 94 % 1010,2 hPa 0,0 mm 0,0 km/h (0 Bft) S 186 ° 0 min 0,000 mm 0,0 UV-I 0 W/m² 13,7 °C 14,7 °C 0,0 km/h (0 Bft)
27.07.2017 22:19 14,7 °C 14,7 °C 94 % 1010,3 hPa 0,0 mm 0,0 km/h (0 Bft) S 186 ° 0 min 0,000 mm 0,0 UV-I 0 W/m² 13,7 °C 14,7 °C 0,0 km/h (0 Bft)
27.07.2017 22:20 14,7 °C 14,7 °C 94 % 1010,3 hPa 0,0 mm 0,0 km/h (0 Bft) S 186 ° 0 min 0,000 mm 0,0 UV-I 0 W/m² 13,7 °C 14,7 °C 0,0 km/h (0 Bft)
27.07.2017 22:21 14,7 °C 14,7 °C 94 % 1010,3 hPa 0,0 mm 0,0 km/h (0 Bft) S 186 ° 0 min 0,000 mm 0,0 UV-I 0 W/m² 13,7 °C 14,7 °C 0,0 km/h (0 Bft)
27.07.2017 22:22 14,7 °C 14,7 °C 94 % 1010,3 hPa 0,0 mm 0,0 km/h (0 Bft) S 186 ° 0 min 0,000 mm 0,0 UV-I 0 W/m² 13,7 °C 14,7 °C 0,0 km/h (0 Bft)
27.07.2017 22:23 14,7 °C 14,7 °C 94 % 1010,2 hPa 0,0 mm 0,0 km/h (0 Bft) S 186 ° 0 min 0,000 mm 0,0 UV-I 0 W/m² 13,7 °C 14,7 °C 0,0 km/h (0 Bft)
27.07.2017 22:24 14,7 °C 14,7 °C 94 % 1010,3 hPa 0,0 mm 0,0 km/h (0 Bft) S 186 ° 0 min 0,000 mm 0,0 UV-I 0 W/m² 13,7 °C 14,7 °C 0,0 km/h (0 Bft)
27.07.2017 22:25 14,7 °C 14,7 °C 95 % 1010,3 hPa 0,0 mm 0,0 km/h (0 Bft) S 186 ° 0 min 0,000 mm 0,0 UV-I 0 W/m² 13,9 °C 14,7 °C 0,0 km/h (0 Bft)
27.07.2017 22:26 14,7 °C 14,7 °C 95 % 1010,3 hPa 0,0 mm 0,0 km/h (0 Bft) S 186 ° 0 min 0,000 mm 0,0 UV-I 0 W/m² 13,9 °C 14,7 °C 0,0 km/h (0 Bft)
27.07.2017 22:27 14,7 °C 14,7 °C 95 % 1010,3 hPa 0,0 mm 0,0 km/h (0 Bft) S 186 ° 0 min 0,000 mm 0,0 UV-I 0 W/m² 13,9 °C 14,7 °C 0,0 km/h (0 Bft)
27.07.2017 22:28 14,7 °C 14,7 °C 95 % 1010,3 hPa 0,0 mm 0,0 km/h (0 Bft) S 186 ° 0 min 0,000 mm 0,0 UV-I 0 W/m² 13,9 °C 14,7 °C 0,0 km/h (0 Bft)
27.07.2017 22:29 14,7 °C 14,7 °C 95 % 1010,3 hPa 0,0 mm 0,0 km/h (0 Bft) S 186 ° 0 min 0,000 mm 0,0 UV-I 0 W/m² 13,9 °C 14,7 °C 0,0 km/h (0 Bft)
27.07.2017 22:30 14,7 °C 14,7 °C 95 % 1010,3 hPa 0,0 mm 0,0 km/h (0 Bft) S 186 ° 0 min 0,000 mm 0,0 UV-I 0 W/m² 13,9 °C 14,7 °C 0,0 km/h (0 Bft)
27.07.2017 22:31 14,7 °C 14,7 °C 95 % 1010,3 hPa 0,0 mm 0,0 km/h (0 Bft) S 186 ° 0 min 0,000 mm 0,0 UV-I 0 W/m² 13,9 °C 14,7 °C 0,0 km/h (0 Bft)
27.07.2017 22:32 14,6 °C 14,7 °C 95 % 1010,4 hPa 0,0 mm 0,0 km/h (0 Bft) S 186 ° 0 min 0,000 mm 0,0 UV-I 0 W/m² 13,8 °C 14,6 °C 0,0 km/h (0 Bft)
27.07.2017 22:33 14,6 °C 14,7 °C 95 % 1010,4 hPa 0,0 mm 0,0 km/h (0 Bft) S 186 ° 0 min 0,000 mm 0,0 UV-I 0 W/m² 13,8 °C 14,6 °C 0,0 km/h (0 Bft)
27.07.2017 22:34 14,7 °C 14,7 °C 95 % 1010,5 hPa 0,0 mm 0,0 km/h (0 Bft) S 186 ° 0 min 0,000 mm 0,0 UV-I 0 W/m² 13,9 °C 14,7 °C 0,0 km/h (0 Bft)
27.07.2017 22:35 14,7 °C 14,7 °C 95 % 1010,5 hPa 0,0 mm 0,0 km/h (0 Bft) S 186 ° 0 min 0,000 mm 0,0 UV-I 0 W/m² 13,9 °C 14,7 °C 0,0 km/h (0 Bft)
27.07.2017 22:36 14,7 °C 14,7 °C 95 % 1010,6 hPa 0,0 mm 0,0 km/h (0 Bft) S 186 ° 0 min 0,000 mm 0,0 UV-I 0 W/m² 13,9 °C 14,7 °C 0,0 km/h (0 Bft)
27.07.2017 22:37 14,7 °C 14,7 °C 95 % 1010,6 hPa 0,0 mm 0,0 km/h (0 Bft) S 186 ° 0 min 0,000 mm 0,0 UV-I 0 W/m² 13,9 °C 14,7 °C 0,0 km/h (0 Bft)
27.07.2017 22:38 14,7 °C 14,7 °C 95 % 1010,6 hPa 0,0 mm 0,0 km/h (0 Bft) S 186 ° 0 min 0,000 mm 0,0 UV-I 0 W/m² 13,9 °C 14,7 °C 0,0 km/h (0 Bft)
27.07.2017 22:39 14,7 °C 14,7 °C 95 % 1010,6 hPa 0,0 mm 0,0 km/h (0 Bft) S 186 ° 0 min 0,000 mm 0,0 UV-I 0 W/m² 13,9 °C 14,7 °C 0,0 km/h (0 Bft)
27.07.2017 22:40 14,7 °C 14,7 °C 95 % 1010,6 hPa 0,0 mm 0,0 km/h (0 Bft) S 186 ° 0 min 0,000 mm 0,0 UV-I 0 W/m² 13,9 °C 14,7 °C 0,0 km/h (0 Bft)
27.07.2017 22:41 14,7 °C 14,7 °C 95 % 1010,6 hPa 0,0 mm 0,0 km/h (0 Bft) S 186 ° 0 min 0,000 mm 0,0 UV-I 0 W/m² 13,9 °C 14,7 °C 0,0 km/h (0 Bft)
27.07.2017 22:42 14,7 °C 14,7 °C 95 % 1010,6 hPa 0,0 mm 0,0 km/h (0 Bft) S 186 ° 0 min 0,000 mm 0,0 UV-I 0 W/m² 13,9 °C 14,7 °C 0,0 km/h (0 Bft)
27.07.2017 22:43 14,7 °C 14,7 °C 95 % 1010,5 hPa 0,0 mm 0,0 km/h (0 Bft) S 186 ° 0 min 0,000 mm 0,0 UV-I 0 W/m² 13,9 °C 14,7 °C 0,0 km/h (0 Bft)
27.07.2017 22:44 14,7 °C 14,7 °C 95 % 1010,5 hPa 0,0 mm 0,0 km/h (0 Bft) S 186 ° 0 min 0,000 mm 0,0 UV-I 0 W/m² 13,9 °C 14,7 °C 0,0 km/h (0 Bft)
27.07.2017 22:45 14,7 °C 14,7 °C 95 % 1010,4 hPa 0,0 mm 0,0 km/h (0 Bft) S 186 ° 0 min 0,000 mm 0,0 UV-I 0 W/m² 13,9 °C 14,7 °C 0,0 km/h (0 Bft)
27.07.2017 22:46 14,7 °C 14,7 °C 95 % 1010,5 hPa 0,0 mm 0,0 km/h (0 Bft) S 186 ° 0 min 0,000 mm 0,0 UV-I 0 W/m² 13,9 °C 14,7 °C 0,0 km/h (0 Bft)
27.07.2017 22:47 14,7 °C 14,7 °C 95 % 1010,6 hPa 0,0 mm 0,0 km/h (0 Bft) S 186 ° 0 min 0,000 mm 0,0 UV-I 0 W/m² 13,9 °C 14,7 °C 0,0 km/h (0 Bft)
27.07.2017 22:48 14,7 °C 14,7 °C 95 % 1010,6 hPa 0,0 mm 0,0 km/h (0 Bft) S 186 ° 0 min 0,000 mm 0,0 UV-I 0 W/m² 13,9 °C 14,7 °C 0,0 km/h (0 Bft)
27.07.2017 22:49 14,7 °C 14,7 °C 95 % 1010,7 hPa 0,0 mm 0,0 km/h (0 Bft) S 186 ° 0 min 0,000 mm 0,0 UV-I 0 W/m² 13,9 °C 14,7 °C 0,0 km/h (0 Bft)
27.07.2017 22:50 14,7 °C 14,7 °C 95 % 1010,7 hPa 0,0 mm 0,0 km/h (0 Bft) S 186 ° 0 min 0,000 mm 0,0 UV-I 0 W/m² 13,9 °C 14,7 °C 0,0 km/h (0 Bft)
27.07.2017 22:51 14,7 °C 14,7 °C 95 % 1010,6 hPa 0,0 mm 0,0 km/h (0 Bft) S 186 ° 0 min 0,000 mm 0,0 UV-I 0 W/m² 13,9 °C 14,7 °C 0,0 km/h (0 Bft)
27.07.2017 22:52 14,7 °C 14,7 °C 95 % 1010,6 hPa 0,0 mm 0,0 km/h (0 Bft) S 186 ° 0 min 0,000 mm 0,0 UV-I 0 W/m² 13,9 °C 14,7 °C 0,0 km/h (0 Bft)
27.07.2017 22:53 14,7 °C 14,7 °C 95 % 1010,6 hPa 0,0 mm 0,0 km/h (0 Bft) S 186 ° 0 min 0,000 mm 0,0 UV-I 0 W/m² 13,9 °C 14,7 °C 0,0 km/h (0 Bft)
27.07.2017 22:54 14,7 °C 14,7 °C 95 % 1010,6 hPa 0,0 mm 0,0 km/h (0 Bft) S 186 ° 0 min 0,000 mm 0,0 UV-I 0 W/m² 13,9 °C 14,7 °C 0,0 km/h (0 Bft)
27.07.2017 22:55 14,7 °C 14,7 °C 95 % 1010,6 hPa 0,0 mm 0,0 km/h (0 Bft) S 186 ° 0 min 0,000 mm 0,0 UV-I 0 W/m² 13,9 °C 14,7 °C 0,0 km/h (0 Bft)
27.07.2017 22:56 14,7 °C 14,7 °C 95 % 1010,7 hPa 0,0 mm 0,0 km/h (0 Bft) S 186 ° 0 min 0,000 mm 0,0 UV-I 0 W/m² 13,9 °C 14,7 °C 0,0 km/h (0 Bft)
27.07.2017 22:57 14,6 °C 14,7 °C 95 % 1010,6 hPa 0,0 mm 0,0 km/h (0 Bft) S 186 ° 0 min 0,000 mm 0,0 UV-I 0 W/m² 13,8 °C 14,6 °C 0,0 km/h (0 Bft)
27.07.2017 22:58 14,6 °C 14,6 °C 95 % 1010,6 hPa 0,0 mm 0,0 km/h (0 Bft) S 186 ° 0 min 0,000 mm 0,0 UV-I 0 W/m² 13,8 °C 14,6 °C 0,0 km/h (0 Bft)
27.07.2017 22:59 14,6 °C 14,7 °C 95 % 1010,6 hPa 0,0 mm 0,0 km/h (0 Bft) S 186 ° 0 min 0,000 mm 0,0 UV-I 0 W/m² 13,8 °C 14,6 °C 0,0 km/h (0 Bft)
27.07.2017 23:00 14,6 °C 14,7 °C 95 % 1010,6 hPa 0,0 mm 0,0 km/h (0 Bft) S 186 ° 0 min 0,000 mm 0,0 UV-I 0 W/m² 13,8 °C 14,6 °C 0,0 km/h (0 Bft)
27.07.2017 23:01 14,6 °C 14,6 °C 95 % 1010,6 hPa 0,0 mm 0,0 km/h (0 Bft) S 186 ° 0 min 0,000 mm 0,0 UV-I 0 W/m² 13,8 °C 14,6 °C 0,0 km/h (0 Bft)
27.07.2017 23:02 14,6 °C 14,6 °C 95 % 1010,6 hPa 0,0 mm 0,0 km/h (0 Bft) S 186 ° 0 min 0,000 mm 0,0 UV-I 0 W/m² 13,8 °C 14,6 °C 0,0 km/h (0 Bft)
27.07.2017 23:04 14,4 °C 14,6 °C 95 % 1010,6 hPa 0,0 mm 0,0 km/h (0 Bft) S 186 ° 0 min 0,000 mm 0,0 UV-I 0 W/m² 13,6 °C 14,4 °C 0,0 km/h (0 Bft)
27.07.2017 23:05 14,4 °C 14,4 °C 95 % 1010,6 hPa 0,0 mm 0,0 km/h (0 Bft) S 186 ° 0 min 0,000 mm 0,0 UV-I 0 W/m² 13,6 °C 14,4 °C 0,0 km/h (0 Bft)
27.07.2017 23:06 14,4 °C 14,5 °C 95 % 1010,6 hPa 0,0 mm 0,0 km/h (0 Bft) S 186 ° 0 min 0,000 mm 0,0 UV-I 0 W/m² 13,6 °C 14,4 °C 0,0 km/h (0 Bft)
27.07.2017 23:07 14,5 °C 14,5 °C 95 % 1010,6 hPa 0,0 mm 0,0 km/h (0 Bft) S 186 ° 0 min 0,000 mm 0,0 UV-I 0 W/m² 13,7 °C 14,5 °C 0,0 km/h (0 Bft)
27.07.2017 23:08 14,5 °C 14,5 °C 95 % 1010,6 hPa 0,0 mm 0,0 km/h (0 Bft) S 186 ° 0 min 0,000 mm 0,0 UV-I 0 W/m² 13,7 °C 14,5 °C 0,0 km/h (0 Bft)
27.07.2017 23:09 14,5 °C 14,5 °C 95 % 1010,5 hPa 0,0 mm 0,0 km/h (0 Bft) S 186 ° 0 min 0,000 mm 0,0 UV-I 0 W/m² 13,7 °C 14,5 °C 0,0 km/h (0 Bft)
27.07.2017 23:10 14,5 °C 14,5 °C 95 % 1010,5 hPa 0,0 mm 0,0 km/h (0 Bft) S 186 ° 0 min 0,000 mm 0,0 UV-I 0 W/m² 13,7 °C 14,5 °C 0,0 km/h (0 Bft)
27.07.2017 23:11 14,5 °C 14,5 °C 95 % 1010,5 hPa 0,0 mm 0,0 km/h (0 Bft) S 186 ° 0 min 0,000 mm 0,0 UV-I 0 W/m² 13,7 °C 14,5 °C 0,0 km/h (0 Bft)
27.07.2017 23:12 14,4 °C 14,5 °C 95 % 1010,4 hPa 0,0 mm 0,0 km/h (0 Bft) S 186 ° 0 min 0,000 mm 0,0 UV-I 0 W/m² 13,6 °C 14,4 °C 0,0 km/h (0 Bft)
27.07.2017 23:13 14,4 °C 14,4 °C 95 % 1010,5 hPa 0,0 mm 0,0 km/h (0 Bft) S 186 ° 0 min 0,000 mm 0,0 UV-I 0 W/m² 13,6 °C 14,4 °C 0,0 km/h (0 Bft)
27.07.2017 23:14 14,4 °C 14,4 °C 95 % 1010,5 hPa 0,0 mm 0,0 km/h (0 Bft) S 186 ° 0 min 0,000 mm 0,0 UV-I 0 W/m² 13,6 °C 14,4 °C 0,0 km/h (0 Bft)
27.07.2017 23:15 14,4 °C 14,4 °C 95 % 1010,4 hPa 0,0 mm 0,0 km/h (0 Bft) S 186 ° 0 min 0,000 mm 0,0 UV-I 0 W/m² 13,6 °C 14,4 °C 0,0 km/h (0 Bft)
27.07.2017 23:16 14,4 °C 14,4 °C 95 % 1010,4 hPa 0,0 mm 0,0 km/h (0 Bft) S 186 ° 0 min 0,000 mm 0,0 UV-I 0 W/m² 13,6 °C 14,4 °C 0,0 km/h (0 Bft)
27.07.2017 23:17 14,4 °C 14,4 °C 95 % 1010,4 hPa 0,0 mm 0,0 km/h (0 Bft) S 186 ° 0 min 0,000 mm 0,0 UV-I 0 W/m² 13,6 °C 14,4 °C 0,0 km/h (0 Bft)
27.07.2017 23:18 14,3 °C 14,4 °C 95 % 1010,4 hPa 0,0 mm 0,0 km/h (0 Bft) S 186 ° 0 min 0,000 mm 0,0 UV-I 0 W/m² 13,5 °C 14,3 °C 0,0 km/h (0 Bft)
27.07.2017 23:19 14,4 °C 14,4 °C 95 % 1010,3 hPa 0,0 mm 0,0 km/h (0 Bft) S 186 ° 0 min 0,000 mm 0,0 UV-I 0 W/m² 13,6 °C 14,4 °C 0,0 km/h (0 Bft)
27.07.2017 23:20 14,3 °C 14,4 °C 95 % 1010,3 hPa 0,0 mm 0,0 km/h (0 Bft) S 186 ° 0 min 0,000 mm 0,0 UV-I 0 W/m² 13,5 °C 14,3 °C 0,0 km/h (0 Bft)
27.07.2017 23:21 14,3 °C 14,4 °C 95 % 1010,3 hPa 0,0 mm 0,0 km/h (0 Bft) S 186 ° 0 min 0,000 mm 0,0 UV-I 0 W/m² 13,5 °C 14,3 °C 0,0 km/h (0 Bft)
27.07.2017 23:22 14,3 °C 14,4 °C 95 % 1010,4 hPa 0,0 mm 0,0 km/h (0 Bft) S 186 ° 0 min 0,000 mm 0,0 UV-I 0 W/m² 13,5 °C 14,3 °C 0,0 km/h (0 Bft)
27.07.2017 23:23 14,3 °C 14,3 °C 95 % 1010,3 hPa 0,0 mm 0,0 km/h (0 Bft) S 186 ° 0 min 0,000 mm 0,0 UV-I 0 W/m² 13,5 °C 14,3 °C 0,0 km/h (0 Bft)
27.07.2017 23:24 14,3 °C 14,3 °C 95 % 1010,4 hPa 0,0 mm 0,0 km/h (0 Bft) S 186 ° 0 min 0,000 mm 0,0 UV-I 0 W/m² 13,5 °C 14,3 °C 0,0 km/h (0 Bft)
27.07.2017 23:25 14,3 °C 14,3 °C 95 % 1010,4 hPa 0,0 mm 0,0 km/h (0 Bft) S 186 ° 0 min 0,000 mm 0,0 UV-I 0 W/m² 13,5 °C 14,3 °C 0,0 km/h (0 Bft)
27.07.2017 23:26 14,3 °C 14,3 °C 95 % 1010,5 hPa 0,0 mm 0,0 km/h (0 Bft) S 186 ° 0 min 0,000 mm 0,0 UV-I 0 W/m² 13,5 °C 14,3 °C 0,0 km/h (0 Bft)
27.07.2017 23:27 14,3 °C 14,3 °C 95 % 1010,4 hPa 0,0 mm 0,0 km/h (0 Bft) S 186 ° 0 min 0,000 mm 0,0 UV-I 0 W/m² 13,5 °C 14,3 °C 0,0 km/h (0 Bft)
27.07.2017 23:28 14,3 °C 14,3 °C 95 % 1010,5 hPa 0,0 mm 0,0 km/h (0 Bft) S 186 ° 0 min 0,000 mm 0,0 UV-I 0 W/m² 13,5 °C 14,3 °C 0,0 km/h (0 Bft)
27.07.2017 23:29 14,2 °C 14,3 °C 95 % 1010,5 hPa 0,0 mm 0,0 km/h (0 Bft) S 186 ° 0 min 0,000 mm 0,0 UV-I 0 W/m² 13,4 °C 14,2 °C 0,0 km/h (0 Bft)
27.07.2017 23:30 14,3 °C 14,3 °C 95 % 1010,4 hPa 0,0 mm 0,0 km/h (0 Bft) S 186 ° 0 min 0,000 mm 0,0 UV-I 0 W/m² 13,5 °C 14,3 °C 0,0 km/h (0 Bft)
27.07.2017 23:31 14,3 °C 14,3 °C 95 % 1010,3 hPa 0,0 mm 0,0 km/h (0 Bft) S 186 ° 0 min 0,000 mm 0,0 UV-I 0 W/m² 13,5 °C 14,3 °C 0,0 km/h (0 Bft)
27.07.2017 23:32 14,2 °C 14,3 °C 95 % 1010,4 hPa 0,0 mm 0,0 km/h (0 Bft) S 186 ° 0 min 0,000 mm 0,0 UV-I 0 W/m² 13,4 °C 14,2 °C 0,0 km/h (0 Bft)
27.07.2017 23:33 14,2 °C 14,2 °C 95 % 1010,3 hPa 0,0 mm 0,0 km/h (0 Bft) S 186 ° 0 min 0,000 mm 0,0 UV-I 0 W/m² 13,4 °C 14,2 °C 0,0 km/h (0 Bft)
27.07.2017 23:34 14,2 °C 14,2 °C 95 % 1010,3 hPa 0,0 mm 0,0 km/h (0 Bft) S 186 ° 0 min 0,000 mm 0,0 UV-I 0 W/m² 13,4 °C 14,2 °C 0,0 km/h (0 Bft)
27.07.2017 23:35 14,2 °C 14,2 °C 95 % 1010,3 hPa 0,0 mm 0,0 km/h (0 Bft) S 186 ° 0 min 0,000 mm 0,0 UV-I 0 W/m² 13,4 °C 14,2 °C 0,0 km/h (0 Bft)
27.07.2017 23:36 14,2 °C 14,2 °C 95 % 1010,3 hPa 0,0 mm 0,0 km/h (0 Bft) S 186 ° 0 min 0,000 mm 0,0 UV-I 0 W/m² 13,4 °C 14,2 °C 0,0 km/h (0 Bft)
27.07.2017 23:37 14,2 °C 14,2 °C 95 % 1010,2 hPa 0,0 mm 0,0 km/h (0 Bft) S 186 ° 0 min 0,000 mm 0,0 UV-I 0 W/m² 13,4 °C 14,2 °C 0,0 km/h (0 Bft)
27.07.2017 23:38 14,1 °C 14,2 °C 95 % 1010,2 hPa 0,0 mm 0,0 km/h (0 Bft) S 186 ° 0 min 0,000 mm 0,0 UV-I 0 W/m² 13,3 °C 14,1 °C 0,0 km/h (0 Bft)
27.07.2017 23:39 14,1 °C 14,1 °C 95 % 1010,2 hPa 0,0 mm 0,0 km/h (0 Bft) S 186 ° 0 min 0,000 mm 0,0 UV-I 0 W/m² 13,3 °C 14,1 °C 0,0 km/h (0 Bft)
27.07.2017 23:40 14,1 °C 14,1 °C 95 % 1010,2 hPa 0,0 mm 0,0 km/h (0 Bft) S 186 ° 0 min 0,000 mm 0,0 UV-I 0 W/m² 13,3 °C 14,1 °C 0,0 km/h (0 Bft)
27.07.2017 23:41 14,1 °C 14,1 °C 95 % 1010,2 hPa 0,0 mm 0,0 km/h (0 Bft) S 186 ° 0 min 0,000 mm 0,0 UV-I 0 W/m² 13,3 °C 14,1 °C 0,0 km/h (0 Bft)
27.07.2017 23:42 14,1 °C 14,1 °C 95 % 1010,1 hPa 0,0 mm 0,0 km/h (0 Bft) S 186 ° 0 min 0,000 mm 0,0 UV-I 0 W/m² 13,3 °C 14,1 °C 0,0 km/h (0 Bft)
27.07.2017 23:43 14,1 °C 14,1 °C 95 % 1010,1 hPa 0,0 mm 0,0 km/h (0 Bft) S 186 ° 0 min 0,000 mm 0,0 UV-I 0 W/m² 13,3 °C 14,1 °C 0,0 km/h (0 Bft)
27.07.2017 23:44 14,1 °C 14,1 °C 95 % 1010,1 hPa 0,0 mm 0,0 km/h (0 Bft) S 186 ° 0 min 0,000 mm 0,0 UV-I 0 W/m² 13,3 °C 14,1 °C 0,0 km/h (0 Bft)
27.07.2017 23:45 14,1 °C 14,1 °C 95 % 1010,1 hPa 0,0 mm 0,0 km/h (0 Bft) S 186 ° 0 min 0,000 mm 0,0 UV-I 0 W/m² 13,3 °C 14,1 °C 0,0 km/h (0 Bft)
27.07.2017 23:46 14,1 °C 14,1 °C 95 % 1010,1 hPa 0,0 mm 0,0 km/h (0 Bft) S 186 ° 0 min 0,000 mm 0,0 UV-I 0 W/m² 13,3 °C 14,1 °C 0,0 km/h (0 Bft)
27.07.2017 23:47 14,1 °C 14,1 °C 96 % 1010,2 hPa 0,0 mm 0,0 km/h (0 Bft) S 186 ° 0 min 0,000 mm 0,0 UV-I 0 W/m² 13,5 °C 14,1 °C 0,0 km/h (0 Bft)
27.07.2017 23:48 14,1 °C 14,1 °C 96 % 1010,2 hPa 0,0 mm 0,0 km/h (0 Bft) S 186 ° 0 min 0,000 mm 0,0 UV-I 0 W/m² 13,5 °C 14,1 °C 0,0 km/h (0 Bft)
27.07.2017 23:49 14,1 °C 14,1 °C 96 % 1010,2 hPa 0,0 mm 0,0 km/h (0 Bft) S 186 ° 0 min 0,000 mm 0,0 UV-I 0 W/m² 13,5 °C 14,1 °C 0,0 km/h (0 Bft)
27.07.2017 23:50 14,1 °C 14,2 °C 96 % 1010,1 hPa 0,0 mm 3,6 km/h (1 Bft) O-SO 106 ° 0 min 0,000 mm 0,0 UV-I 0 W/m² 13,5 °C 14,1 °C 4,8 km/h (1 Bft)
27.07.2017 23:51 14,1 °C 14,1 °C 96 % 1010,1 hPa 0,0 mm 1,5 km/h (1 Bft) O-SO 106 ° 0 min 0,000 mm 0,0 UV-I 0 W/m² 13,5 °C 14,1 °C 3,2 km/h (1 Bft)
27.07.2017 23:52 14,1 °C 14,1 °C 96 % 1010,1 hPa 0,0 mm 0,1 km/h (0 Bft) O-SO 106 ° 0 min 0,000 mm 0,0 UV-I 0 W/m² 13,5 °C 14,1 °C 1,6 km/h (1 Bft)
27.07.2017 23:53 14,1 °C 14,1 °C 96 % 1010,1 hPa 0,0 mm 0,0 km/h (0 Bft) O-SO 106 ° 0 min 0,000 mm 0,0 UV-I 0 W/m² 13,5 °C 14,1 °C 0,0 km/h (0 Bft)
27.07.2017 23:54 14,1 °C 14,1 °C 96 % 1010,1 hPa 0,0 mm 0,0 km/h (0 Bft) O-SO 106 ° 0 min 0,000 mm 0,0 UV-I 0 W/m² 13,5 °C 14,1 °C 0,0 km/h (0 Bft)
27.07.2017 23:55 14,1 °C 14,1 °C 96 % 1010,1 hPa 0,0 mm 0,1 km/h (0 Bft) O-SO 106 ° 0 min 0,000 mm 0,0 UV-I 0 W/m² 13,5 °C 14,1 °C 1,6 km/h (1 Bft)
27.07.2017 23:56 14,2 °C 14,2 °C 96 % 1010,1 hPa 0,0 mm 2,1 km/h (1 Bft) O-SO 106 ° 0 min 0,000 mm 0,0 UV-I 0 W/m² 13,6 °C 14,2 °C 3,2 km/h (1 Bft)
27.07.2017 23:57 14,2 °C 14,2 °C 96 % 1010,1 hPa 0,0 mm 0,2 km/h (0 Bft) O-SO 106 ° 0 min 0,000 mm 0,0 UV-I 0 W/m² 13,6 °C 14,2 °C 1,6 km/h (1 Bft)
27.07.2017 23:58 14,2 °C 14,2 °C 96 % 1010,1 hPa 0,0 mm 0,0 km/h (0 Bft) O-SO 106 ° 0 min 0,000 mm 0,0 UV-I 0 W/m² 13,6 °C 14,2 °C 0,0 km/h (0 Bft)
27.07.2017 23:59 14,1 °C 14,2 °C 96 % 1010,1 hPa 0,0 mm 0,0 km/h (0 Bft) O-SO 106 ° 0 min 0,000 mm 0,0 UV-I 0 W/m² 13,5 °C 14,1 °C 0,0 km/h (0 Bft)
_ Min-Zeit 06:16 06:19 10:57 18:44 - 23:59 - - - - - - 06:16 06:16 23:59
Minimum _ 7,6 °C 7,7 °C 73 % 1009,9 hPa - 0,0 km/h (0 Bft) - - - - - - 6,9 °C 7,6 °C 0,0 km/h (0 Bft)
_ Max-Zeit 16:35 16:35 23:59 01:15 22:00 17:04 - - 16:44 16:01 15:09 15:23 16:39 16:36 17:03
Maximum _ 19,1 °C 19,1 °C 96 % 1013,0 hPa 0,2 mm 13,3 km/h
W-SW (3 Bft)
- - 1 min 0,229 mm 5,5 UV-I 705 W/m² 15,6 °C 19,0 °C 19,3 km/h
W-NW (3 Bft)
Durchschnitt _ 14,2 °C 14,2 °C 87 % 1011,5 hPa #1,0 mm 2,8 km/h (1 Bft) W - #1:50 h #1,651 mm 1,9 UV-I 118 W/m² 12,0 °C 14,2 °C 4,9 km/h (1 Bft)